<?xml version="1.0" encoding="UTF-8" standalone="no" ?>
<gpx xmlns="http://www.topografix.com/GPX/1/1" xmlns:xsi="http://www.w3.org/2001/XMLSchema-instance" xsi:schemaLocation="http://www.topografix.com/GPX/1/1 http://www.topografix.com/GPX/1/1/gpx.xsd" version="1.1" creator="VisuGPX - https://www.visugpx.com">
  <metadata>
    <name>Chateau de Berzé depuis la gare de Cluny</name>
    <desc><![CDATA[Trace AlpineQuest 24/09/2022 08:59:50]]></desc>
  </metadata>
  <trk>
    <name><![CDATA[Chateau de Berzé depuis la gare de Cluny_1]]></name>
    <trkseg>
      <trkpt lat="46.42531" lon="4.66677">
        <ele>276.78</ele>
        <time>2022-09-24T06:59:50Z</time>
      </trkpt>
      <trkpt lat="46.42526" lon="4.6667">
        <ele>259.68</ele>
        <time>2022-09-24T06:59:58Z</time>
      </trkpt>
      <trkpt lat="46.4252" lon="4.66667">
        <ele>249.18</ele>
        <time>2022-09-24T07:00:06Z</time>
      </trkpt>
      <trkpt lat="46.42513" lon="4.66663">
        <ele>243.08</ele>
        <time>2022-09-24T07:10:18Z</time>
      </trkpt>
      <trkpt lat="46.4251" lon="4.66655">
        <ele>242.78</ele>
        <time>2022-09-24T07:10:26Z</time>
      </trkpt>
      <trkpt lat="46.42505" lon="4.66646">
        <ele>242.38</ele>
        <time>2022-09-24T07:10:34Z</time>
      </trkpt>
      <trkpt lat="46.42501" lon="4.66639">
        <ele>242.68</ele>
        <time>2022-09-24T07:10:42Z</time>
      </trkpt>
      <trkpt lat="46.42493" lon="4.66636">
        <ele>243.18</ele>
        <time>2022-09-24T07:10:49Z</time>
      </trkpt>
      <trkpt lat="46.42487" lon="4.66631">
        <ele>242.88</ele>
        <time>2022-09-24T07:10:54Z</time>
      </trkpt>
      <trkpt lat="46.4248" lon="4.66626">
        <ele>242.48</ele>
        <time>2022-09-24T07:11:00Z</time>
      </trkpt>
      <trkpt lat="46.42473" lon="4.66622">
        <ele>243.78</ele>
        <time>2022-09-24T07:11:06Z</time>
      </trkpt>
      <trkpt lat="46.42466" lon="4.6662">
        <ele>244.38</ele>
        <time>2022-09-24T07:11:11Z</time>
      </trkpt>
      <trkpt lat="46.4246" lon="4.6662">
        <ele>244.38</ele>
        <time>2022-09-24T07:11:17Z</time>
      </trkpt>
      <trkpt lat="46.42454" lon="4.66615">
        <ele>246.48</ele>
        <time>2022-09-24T07:11:23Z</time>
      </trkpt>
      <trkpt lat="46.42447" lon="4.66609">
        <ele>248.78</ele>
        <time>2022-09-24T07:11:29Z</time>
      </trkpt>
      <trkpt lat="46.42441" lon="4.66604">
        <ele>247.98</ele>
        <time>2022-09-24T07:11:34Z</time>
      </trkpt>
      <trkpt lat="46.42438" lon="4.66594">
        <ele>248.48</ele>
        <time>2022-09-24T07:11:40Z</time>
      </trkpt>
      <trkpt lat="46.42433" lon="4.66588">
        <ele>248.08</ele>
        <time>2022-09-24T07:11:48Z</time>
      </trkpt>
      <trkpt lat="46.42425" lon="4.66583">
        <ele>249.48</ele>
        <time>2022-09-24T07:11:53Z</time>
      </trkpt>
      <trkpt lat="46.42419" lon="4.66577">
        <ele>251.08</ele>
        <time>2022-09-24T07:11:58Z</time>
      </trkpt>
      <trkpt lat="46.42412" lon="4.66574">
        <ele>251.38</ele>
        <time>2022-09-24T07:12:05Z</time>
      </trkpt>
      <trkpt lat="46.42405" lon="4.66571">
        <ele>249.28</ele>
        <time>2022-09-24T07:12:11Z</time>
      </trkpt>
      <trkpt lat="46.42398" lon="4.66566">
        <ele>247.18</ele>
        <time>2022-09-24T07:12:17Z</time>
      </trkpt>
      <trkpt lat="46.4239" lon="4.66563">
        <ele>245.58</ele>
        <time>2022-09-24T07:12:23Z</time>
      </trkpt>
      <trkpt lat="46.42385" lon="4.6657">
        <ele>245.68</ele>
        <time>2022-09-24T07:12:29Z</time>
      </trkpt>
      <trkpt lat="46.42384" lon="4.66581">
        <ele>246.48</ele>
        <time>2022-09-24T07:12:35Z</time>
      </trkpt>
      <trkpt lat="46.42381" lon="4.66594">
        <ele>244.48</ele>
        <time>2022-09-24T07:12:41Z</time>
      </trkpt>
      <trkpt lat="46.42379" lon="4.66603">
        <ele>245.18</ele>
        <time>2022-09-24T07:12:47Z</time>
      </trkpt>
      <trkpt lat="46.42378" lon="4.66614">
        <ele>245.48</ele>
        <time>2022-09-24T07:12:53Z</time>
      </trkpt>
      <trkpt lat="46.42372" lon="4.66622">
        <ele>247.08</ele>
        <time>2022-09-24T07:13:00Z</time>
      </trkpt>
      <trkpt lat="46.42367" lon="4.6663">
        <ele>249.68</ele>
        <time>2022-09-24T07:13:05Z</time>
      </trkpt>
      <trkpt lat="46.4236" lon="4.66633">
        <ele>248.08</ele>
        <time>2022-09-24T07:13:11Z</time>
      </trkpt>
      <trkpt lat="46.42352" lon="4.66633">
        <ele>245.58</ele>
        <time>2022-09-24T07:13:18Z</time>
      </trkpt>
      <trkpt lat="46.42345" lon="4.66635">
        <ele>243.18</ele>
        <time>2022-09-24T07:13:28Z</time>
      </trkpt>
      <trkpt lat="46.4234" lon="4.66629">
        <ele>240.68</ele>
        <time>2022-09-24T07:13:39Z</time>
      </trkpt>
      <trkpt lat="46.42332" lon="4.66623">
        <ele>241.08</ele>
        <time>2022-09-24T07:13:45Z</time>
      </trkpt>
      <trkpt lat="46.42325" lon="4.66618">
        <ele>241.779</ele>
        <time>2022-09-24T07:13:50Z</time>
      </trkpt>
      <trkpt lat="46.42315" lon="4.66608">
        <ele>244.379</ele>
        <time>2022-09-24T07:13:55Z</time>
      </trkpt>
      <trkpt lat="46.42308" lon="4.66601">
        <ele>246.979</ele>
        <time>2022-09-24T07:14:01Z</time>
      </trkpt>
      <trkpt lat="46.42302" lon="4.66596">
        <ele>244.979</ele>
        <time>2022-09-24T07:14:06Z</time>
      </trkpt>
      <trkpt lat="46.42295" lon="4.66592">
        <ele>243.279</ele>
        <time>2022-09-24T07:14:13Z</time>
      </trkpt>
      <trkpt lat="46.4229" lon="4.66585">
        <ele>242.379</ele>
        <time>2022-09-24T07:14:18Z</time>
      </trkpt>
      <trkpt lat="46.42285" lon="4.6658">
        <ele>241.779</ele>
        <time>2022-09-24T07:14:23Z</time>
      </trkpt>
      <trkpt lat="46.42278" lon="4.66572">
        <ele>241.679</ele>
        <time>2022-09-24T07:14:29Z</time>
      </trkpt>
      <trkpt lat="46.42272" lon="4.66567">
        <ele>241.979</ele>
        <time>2022-09-24T07:14:36Z</time>
      </trkpt>
      <trkpt lat="46.42267" lon="4.6656">
        <ele>242.479</ele>
        <time>2022-09-24T07:14:41Z</time>
      </trkpt>
      <trkpt lat="46.42261" lon="4.66554">
        <ele>245.579</ele>
        <time>2022-09-24T07:14:46Z</time>
      </trkpt>
      <trkpt lat="46.42255" lon="4.66547">
        <ele>247.479</ele>
        <time>2022-09-24T07:14:51Z</time>
      </trkpt>
      <trkpt lat="46.42247" lon="4.6654">
        <ele>246.279</ele>
        <time>2022-09-24T07:14:57Z</time>
      </trkpt>
      <trkpt lat="46.4224" lon="4.66536">
        <ele>248.979</ele>
        <time>2022-09-24T07:15:03Z</time>
      </trkpt>
      <trkpt lat="46.42232" lon="4.66526">
        <ele>250.479</ele>
        <time>2022-09-24T07:15:09Z</time>
      </trkpt>
      <trkpt lat="46.42226" lon="4.66523">
        <ele>249.779</ele>
        <time>2022-09-24T07:15:14Z</time>
      </trkpt>
      <trkpt lat="46.4222" lon="4.66519">
        <ele>246.179</ele>
        <time>2022-09-24T07:15:22Z</time>
      </trkpt>
      <trkpt lat="46.42215" lon="4.66512">
        <ele>244.579</ele>
        <time>2022-09-24T07:15:27Z</time>
      </trkpt>
      <trkpt lat="46.42207" lon="4.66502">
        <ele>242.379</ele>
        <time>2022-09-24T07:15:33Z</time>
      </trkpt>
      <trkpt lat="46.42202" lon="4.66496">
        <ele>242.179</ele>
        <time>2022-09-24T07:15:39Z</time>
      </trkpt>
      <trkpt lat="46.42195" lon="4.66488">
        <ele>243.279</ele>
        <time>2022-09-24T07:15:46Z</time>
      </trkpt>
      <trkpt lat="46.42188" lon="4.66484">
        <ele>245.179</ele>
        <time>2022-09-24T07:15:51Z</time>
      </trkpt>
      <trkpt lat="46.42182" lon="4.66481">
        <ele>245.679</ele>
        <time>2022-09-24T07:15:57Z</time>
      </trkpt>
      <trkpt lat="46.42175" lon="4.66477">
        <ele>243.079</ele>
        <time>2022-09-24T07:16:03Z</time>
      </trkpt>
      <trkpt lat="46.42166" lon="4.66474">
        <ele>240.779</ele>
        <time>2022-09-24T07:16:09Z</time>
      </trkpt>
      <trkpt lat="46.42157" lon="4.66467">
        <ele>243.379</ele>
        <time>2022-09-24T07:16:14Z</time>
      </trkpt>
      <trkpt lat="46.42151" lon="4.6646">
        <ele>247.679</ele>
        <time>2022-09-24T07:16:19Z</time>
      </trkpt>
      <trkpt lat="46.42144" lon="4.66456">
        <ele>250.679</ele>
        <time>2022-09-24T07:16:27Z</time>
      </trkpt>
      <trkpt lat="46.42135" lon="4.66454">
        <ele>250.979</ele>
        <time>2022-09-24T07:16:33Z</time>
      </trkpt>
      <trkpt lat="46.42129" lon="4.66449">
        <ele>250.979</ele>
        <time>2022-09-24T07:16:38Z</time>
      </trkpt>
      <trkpt lat="46.42122" lon="4.6644">
        <ele>252.379</ele>
        <time>2022-09-24T07:16:43Z</time>
      </trkpt>
      <trkpt lat="46.42116" lon="4.66437">
        <ele>252.679</ele>
        <time>2022-09-24T07:16:49Z</time>
      </trkpt>
      <trkpt lat="46.4211" lon="4.66432">
        <ele>250.379</ele>
        <time>2022-09-24T07:16:54Z</time>
      </trkpt>
      <trkpt lat="46.42103" lon="4.6643">
        <ele>246.579</ele>
        <time>2022-09-24T07:17:01Z</time>
      </trkpt>
      <trkpt lat="46.42097" lon="4.66427">
        <ele>247.879</ele>
        <time>2022-09-24T07:17:06Z</time>
      </trkpt>
      <trkpt lat="46.42091" lon="4.66422">
        <ele>246.579</ele>
        <time>2022-09-24T07:17:14Z</time>
      </trkpt>
      <trkpt lat="46.42085" lon="4.66417">
        <ele>245.979</ele>
        <time>2022-09-24T07:17:22Z</time>
      </trkpt>
      <trkpt lat="46.42078" lon="4.66416">
        <ele>245.379</ele>
        <time>2022-09-24T07:17:27Z</time>
      </trkpt>
      <trkpt lat="46.42071" lon="4.66409">
        <ele>244.779</ele>
        <time>2022-09-24T07:17:33Z</time>
      </trkpt>
      <trkpt lat="46.42064" lon="4.66407">
        <ele>242.279</ele>
        <time>2022-09-24T07:17:40Z</time>
      </trkpt>
      <trkpt lat="46.42058" lon="4.66401">
        <ele>241.679</ele>
        <time>2022-09-24T07:17:46Z</time>
      </trkpt>
      <trkpt lat="46.4205" lon="4.66398">
        <ele>240.979</ele>
        <time>2022-09-24T07:17:52Z</time>
      </trkpt>
      <trkpt lat="46.42042" lon="4.66394">
        <ele>240.879</ele>
        <time>2022-09-24T07:17:58Z</time>
      </trkpt>
      <trkpt lat="46.42035" lon="4.66385">
        <ele>240.479</ele>
        <time>2022-09-24T07:18:03Z</time>
      </trkpt>
      <trkpt lat="46.42029" lon="4.66378">
        <ele>241.079</ele>
        <time>2022-09-24T07:18:09Z</time>
      </trkpt>
      <trkpt lat="46.42021" lon="4.66372">
        <ele>242.578</ele>
        <time>2022-09-24T07:18:14Z</time>
      </trkpt>
      <trkpt lat="46.42014" lon="4.66368">
        <ele>245.178</ele>
        <time>2022-09-24T07:18:20Z</time>
      </trkpt>
      <trkpt lat="46.42008" lon="4.66365">
        <ele>242.978</ele>
        <time>2022-09-24T07:18:25Z</time>
      </trkpt>
      <trkpt lat="46.42001" lon="4.66362">
        <ele>240.878</ele>
        <time>2022-09-24T07:18:31Z</time>
      </trkpt>
      <trkpt lat="46.41993" lon="4.66365">
        <ele>242.278</ele>
        <time>2022-09-24T07:18:37Z</time>
      </trkpt>
      <trkpt lat="46.41986" lon="4.66369">
        <ele>241.478</ele>
        <time>2022-09-24T07:18:43Z</time>
      </trkpt>
      <trkpt lat="46.41979" lon="4.66369">
        <ele>240.578</ele>
        <time>2022-09-24T07:18:50Z</time>
      </trkpt>
      <trkpt lat="46.41971" lon="4.66367">
        <ele>242.578</ele>
        <time>2022-09-24T07:18:55Z</time>
      </trkpt>
      <trkpt lat="46.41963" lon="4.66367">
        <ele>242.278</ele>
        <time>2022-09-24T07:19:02Z</time>
      </trkpt>
      <trkpt lat="46.41957" lon="4.66367">
        <ele>240.778</ele>
        <time>2022-09-24T07:19:08Z</time>
      </trkpt>
      <trkpt lat="46.4195" lon="4.66364">
        <ele>243.478</ele>
        <time>2022-09-24T07:19:13Z</time>
      </trkpt>
      <trkpt lat="46.41942" lon="4.6636">
        <ele>247.078</ele>
        <time>2022-09-24T07:19:18Z</time>
      </trkpt>
      <trkpt lat="46.41935" lon="4.6636">
        <ele>249.078</ele>
        <time>2022-09-24T07:19:25Z</time>
      </trkpt>
      <trkpt lat="46.41928" lon="4.66361">
        <ele>251.078</ele>
        <time>2022-09-24T07:19:31Z</time>
      </trkpt>
      <trkpt lat="46.41921" lon="4.66362">
        <ele>251.978</ele>
        <time>2022-09-24T07:19:37Z</time>
      </trkpt>
      <trkpt lat="46.41915" lon="4.66366">
        <ele>251.578</ele>
        <time>2022-09-24T07:19:43Z</time>
      </trkpt>
      <trkpt lat="46.41909" lon="4.66372">
        <ele>254.278</ele>
        <time>2022-09-24T07:19:50Z</time>
      </trkpt>
      <trkpt lat="46.41904" lon="4.6638">
        <ele>257.578</ele>
        <time>2022-09-24T07:19:56Z</time>
      </trkpt>
      <trkpt lat="46.41899" lon="4.66386">
        <ele>258.878</ele>
        <time>2022-09-24T07:20:03Z</time>
      </trkpt>
      <trkpt lat="46.41893" lon="4.66394">
        <ele>258.178</ele>
        <time>2022-09-24T07:20:10Z</time>
      </trkpt>
      <trkpt lat="46.41888" lon="4.66401">
        <ele>256.478</ele>
        <time>2022-09-24T07:20:16Z</time>
      </trkpt>
      <trkpt lat="46.41883" lon="4.66409">
        <ele>256.778</ele>
        <time>2022-09-24T07:20:23Z</time>
      </trkpt>
      <trkpt lat="46.41879" lon="4.66419">
        <ele>257.078</ele>
        <time>2022-09-24T07:20:30Z</time>
      </trkpt>
      <trkpt lat="46.41875" lon="4.66427">
        <ele>257.178</ele>
        <time>2022-09-24T07:20:36Z</time>
      </trkpt>
      <trkpt lat="46.4187" lon="4.66436">
        <ele>258.278</ele>
        <time>2022-09-24T07:20:43Z</time>
      </trkpt>
      <trkpt lat="46.41865" lon="4.66444">
        <ele>259.478</ele>
        <time>2022-09-24T07:20:50Z</time>
      </trkpt>
      <trkpt lat="46.41861" lon="4.66453">
        <ele>259.178</ele>
        <time>2022-09-24T07:20:55Z</time>
      </trkpt>
      <trkpt lat="46.41856" lon="4.6646">
        <ele>258.978</ele>
        <time>2022-09-24T07:21:01Z</time>
      </trkpt>
      <trkpt lat="46.41852" lon="4.66468">
        <ele>260.278</ele>
        <time>2022-09-24T07:21:07Z</time>
      </trkpt>
      <trkpt lat="46.41848" lon="4.66477">
        <ele>260.578</ele>
        <time>2022-09-24T07:21:13Z</time>
      </trkpt>
      <trkpt lat="46.41843" lon="4.66486">
        <ele>262.478</ele>
        <time>2022-09-24T07:21:18Z</time>
      </trkpt>
      <trkpt lat="46.41838" lon="4.66493">
        <ele>263.078</ele>
        <time>2022-09-24T07:21:24Z</time>
      </trkpt>
      <trkpt lat="46.41833" lon="4.665">
        <ele>263.678</ele>
        <time>2022-09-24T07:21:29Z</time>
      </trkpt>
      <trkpt lat="46.41828" lon="4.66508">
        <ele>262.878</ele>
        <time>2022-09-24T07:21:34Z</time>
      </trkpt>
      <trkpt lat="46.41822" lon="4.66505">
        <ele>260.778</ele>
        <time>2022-09-24T07:22:14Z</time>
      </trkpt>
      <trkpt lat="46.41819" lon="4.66495">
        <ele>259.078</ele>
        <time>2022-09-24T07:22:21Z</time>
      </trkpt>
      <trkpt lat="46.41817" lon="4.66487">
        <ele>257.078</ele>
        <time>2022-09-24T07:22:27Z</time>
      </trkpt>
      <trkpt lat="46.41812" lon="4.66479">
        <ele>255.778</ele>
        <time>2022-09-24T07:22:33Z</time>
      </trkpt>
      <trkpt lat="46.41812" lon="4.66468">
        <ele>255.378</ele>
        <time>2022-09-24T07:22:40Z</time>
      </trkpt>
      <trkpt lat="46.41811" lon="4.66457">
        <ele>252.678</ele>
        <time>2022-09-24T07:22:46Z</time>
      </trkpt>
      <trkpt lat="46.4181" lon="4.66448">
        <ele>251.078</ele>
        <time>2022-09-24T07:22:51Z</time>
      </trkpt>
      <trkpt lat="46.4181" lon="4.66437">
        <ele>248.578</ele>
        <time>2022-09-24T07:22:58Z</time>
      </trkpt>
      <trkpt lat="46.41808" lon="4.66428">
        <ele>248.678</ele>
        <time>2022-09-24T07:23:04Z</time>
      </trkpt>
      <trkpt lat="46.41804" lon="4.6642">
        <ele>250.478</ele>
        <time>2022-09-24T07:23:10Z</time>
      </trkpt>
      <trkpt lat="46.41799" lon="4.66412">
        <ele>251.578</ele>
        <time>2022-09-24T07:23:15Z</time>
      </trkpt>
      <trkpt lat="46.41794" lon="4.66405">
        <ele>251.078</ele>
        <time>2022-09-24T07:23:21Z</time>
      </trkpt>
      <trkpt lat="46.41788" lon="4.66399">
        <ele>250.078</ele>
        <time>2022-09-24T07:23:27Z</time>
      </trkpt>
      <trkpt lat="46.41781" lon="4.66393">
        <ele>248.978</ele>
        <time>2022-09-24T07:23:33Z</time>
      </trkpt>
      <trkpt lat="46.41775" lon="4.66387">
        <ele>249.978</ele>
        <time>2022-09-24T07:23:39Z</time>
      </trkpt>
      <trkpt lat="46.41769" lon="4.6638">
        <ele>249.478</ele>
        <time>2022-09-24T07:23:45Z</time>
      </trkpt>
      <trkpt lat="46.41764" lon="4.66374">
        <ele>248.578</ele>
        <time>2022-09-24T07:23:50Z</time>
      </trkpt>
      <trkpt lat="46.41758" lon="4.6637">
        <ele>248.378</ele>
        <time>2022-09-24T07:23:55Z</time>
      </trkpt>
      <trkpt lat="46.41752" lon="4.66364">
        <ele>246.178</ele>
        <time>2022-09-24T07:24:05Z</time>
      </trkpt>
      <trkpt lat="46.41745" lon="4.66358">
        <ele>244.878</ele>
        <time>2022-09-24T07:24:11Z</time>
      </trkpt>
      <trkpt lat="46.41739" lon="4.66351">
        <ele>246.978</ele>
        <time>2022-09-24T07:24:17Z</time>
      </trkpt>
      <trkpt lat="46.41733" lon="4.66346">
        <ele>246.978</ele>
        <time>2022-09-24T07:24:22Z</time>
      </trkpt>
      <trkpt lat="46.41728" lon="4.6634">
        <ele>245.478</ele>
        <time>2022-09-24T07:24:28Z</time>
      </trkpt>
      <trkpt lat="46.41722" lon="4.66336">
        <ele>242.578</ele>
        <time>2022-09-24T07:24:33Z</time>
      </trkpt>
      <trkpt lat="46.41716" lon="4.6633">
        <ele>242.778</ele>
        <time>2022-09-24T07:24:38Z</time>
      </trkpt>
      <trkpt lat="46.41709" lon="4.66324">
        <ele>243.678</ele>
        <time>2022-09-24T07:24:43Z</time>
      </trkpt>
      <trkpt lat="46.41702" lon="4.6632">
        <ele>242.278</ele>
        <time>2022-09-24T07:24:49Z</time>
      </trkpt>
      <trkpt lat="46.41696" lon="4.66314">
        <ele>243.278</ele>
        <time>2022-09-24T07:24:55Z</time>
      </trkpt>
      <trkpt lat="46.41689" lon="4.66309">
        <ele>243.678</ele>
        <time>2022-09-24T07:25:01Z</time>
      </trkpt>
      <trkpt lat="46.41683" lon="4.66304">
        <ele>243.478</ele>
        <time>2022-09-24T07:25:07Z</time>
      </trkpt>
      <trkpt lat="46.41676" lon="4.66299">
        <ele>242.278</ele>
        <time>2022-09-24T07:25:13Z</time>
      </trkpt>
      <trkpt lat="46.41669" lon="4.66295">
        <ele>243.377</ele>
        <time>2022-09-24T07:25:19Z</time>
      </trkpt>
      <trkpt lat="46.4166" lon="4.66289">
        <ele>245.477</ele>
        <time>2022-09-24T07:25:25Z</time>
      </trkpt>
      <trkpt lat="46.41655" lon="4.66284">
        <ele>247.377</ele>
        <time>2022-09-24T07:25:31Z</time>
      </trkpt>
      <trkpt lat="46.41649" lon="4.66278">
        <ele>247.777</ele>
        <time>2022-09-24T07:25:37Z</time>
      </trkpt>
      <trkpt lat="46.41643" lon="4.66273">
        <ele>247.077</ele>
        <time>2022-09-24T07:25:42Z</time>
      </trkpt>
      <trkpt lat="46.41637" lon="4.66267">
        <ele>247.177</ele>
        <time>2022-09-24T07:25:48Z</time>
      </trkpt>
      <trkpt lat="46.4163" lon="4.66262">
        <ele>247.677</ele>
        <time>2022-09-24T07:25:54Z</time>
      </trkpt>
      <trkpt lat="46.41625" lon="4.66257">
        <ele>249.077</ele>
        <time>2022-09-24T07:25:59Z</time>
      </trkpt>
      <trkpt lat="46.41618" lon="4.66251">
        <ele>248.277</ele>
        <time>2022-09-24T07:26:05Z</time>
      </trkpt>
      <trkpt lat="46.41612" lon="4.66247">
        <ele>246.177</ele>
        <time>2022-09-24T07:26:12Z</time>
      </trkpt>
      <trkpt lat="46.41606" lon="4.66242">
        <ele>244.977</ele>
        <time>2022-09-24T07:26:18Z</time>
      </trkpt>
      <trkpt lat="46.41598" lon="4.66236">
        <ele>246.077</ele>
        <time>2022-09-24T07:26:23Z</time>
      </trkpt>
      <trkpt lat="46.41592" lon="4.6623">
        <ele>247.677</ele>
        <time>2022-09-24T07:26:29Z</time>
      </trkpt>
      <trkpt lat="46.41586" lon="4.66224">
        <ele>250.077</ele>
        <time>2022-09-24T07:26:35Z</time>
      </trkpt>
      <trkpt lat="46.41579" lon="4.66218">
        <ele>251.277</ele>
        <time>2022-09-24T07:26:41Z</time>
      </trkpt>
      <trkpt lat="46.41573" lon="4.66214">
        <ele>250.877</ele>
        <time>2022-09-24T07:26:46Z</time>
      </trkpt>
      <trkpt lat="46.41566" lon="4.66211">
        <ele>249.077</ele>
        <time>2022-09-24T07:26:52Z</time>
      </trkpt>
      <trkpt lat="46.4156" lon="4.66207">
        <ele>248.177</ele>
        <time>2022-09-24T07:26:57Z</time>
      </trkpt>
      <trkpt lat="46.41554" lon="4.66202">
        <ele>248.077</ele>
        <time>2022-09-24T07:27:03Z</time>
      </trkpt>
      <trkpt lat="46.41548" lon="4.66198">
        <ele>249.177</ele>
        <time>2022-09-24T07:27:10Z</time>
      </trkpt>
      <trkpt lat="46.41541" lon="4.66192">
        <ele>249.477</ele>
        <time>2022-09-24T07:27:15Z</time>
      </trkpt>
      <trkpt lat="46.41535" lon="4.66187">
        <ele>250.477</ele>
        <time>2022-09-24T07:27:21Z</time>
      </trkpt>
      <trkpt lat="46.41528" lon="4.66182">
        <ele>250.777</ele>
        <time>2022-09-24T07:27:26Z</time>
      </trkpt>
      <trkpt lat="46.41522" lon="4.66177">
        <ele>251.077</ele>
        <time>2022-09-24T07:27:32Z</time>
      </trkpt>
      <trkpt lat="46.41515" lon="4.66173">
        <ele>250.177</ele>
        <time>2022-09-24T07:27:38Z</time>
      </trkpt>
      <trkpt lat="46.41509" lon="4.66168">
        <ele>250.477</ele>
        <time>2022-09-24T07:27:44Z</time>
      </trkpt>
      <trkpt lat="46.41503" lon="4.66163">
        <ele>251.377</ele>
        <time>2022-09-24T07:27:49Z</time>
      </trkpt>
      <trkpt lat="46.41496" lon="4.6616">
        <ele>250.877</ele>
        <time>2022-09-24T07:27:55Z</time>
      </trkpt>
      <trkpt lat="46.41489" lon="4.66155">
        <ele>251.377</ele>
        <time>2022-09-24T07:28:00Z</time>
      </trkpt>
      <trkpt lat="46.41483" lon="4.66149">
        <ele>252.677</ele>
        <time>2022-09-24T07:28:05Z</time>
      </trkpt>
      <trkpt lat="46.41477" lon="4.66143">
        <ele>254.477</ele>
        <time>2022-09-24T07:28:12Z</time>
      </trkpt>
      <trkpt lat="46.41469" lon="4.66141">
        <ele>255.977</ele>
        <time>2022-09-24T07:28:18Z</time>
      </trkpt>
      <trkpt lat="46.41462" lon="4.66136">
        <ele>255.977</ele>
        <time>2022-09-24T07:28:25Z</time>
      </trkpt>
      <trkpt lat="46.41456" lon="4.66134">
        <ele>257.877</ele>
        <time>2022-09-24T07:28:31Z</time>
      </trkpt>
      <trkpt lat="46.41447" lon="4.66127">
        <ele>257.777</ele>
        <time>2022-09-24T07:28:37Z</time>
      </trkpt>
      <trkpt lat="46.4144" lon="4.66128">
        <ele>257.677</ele>
        <time>2022-09-24T07:28:44Z</time>
      </trkpt>
      <trkpt lat="46.41433" lon="4.66123">
        <ele>256.377</ele>
        <time>2022-09-24T07:28:49Z</time>
      </trkpt>
      <trkpt lat="46.41425" lon="4.66117">
        <ele>255.277</ele>
        <time>2022-09-24T07:28:54Z</time>
      </trkpt>
      <trkpt lat="46.41418" lon="4.6611">
        <ele>256.077</ele>
        <time>2022-09-24T07:28:59Z</time>
      </trkpt>
      <trkpt lat="46.41411" lon="4.66106">
        <ele>257.477</ele>
        <time>2022-09-24T07:29:05Z</time>
      </trkpt>
      <trkpt lat="46.41404" lon="4.66104">
        <ele>256.977</ele>
        <time>2022-09-24T07:29:11Z</time>
      </trkpt>
      <trkpt lat="46.41397" lon="4.66101">
        <ele>255.477</ele>
        <time>2022-09-24T07:29:17Z</time>
      </trkpt>
      <trkpt lat="46.41391" lon="4.66098">
        <ele>254.877</ele>
        <time>2022-09-24T07:29:22Z</time>
      </trkpt>
      <trkpt lat="46.41383" lon="4.66093">
        <ele>254.077</ele>
        <time>2022-09-24T07:29:27Z</time>
      </trkpt>
      <trkpt lat="46.41376" lon="4.6609">
        <ele>253.377</ele>
        <time>2022-09-24T07:29:33Z</time>
      </trkpt>
      <trkpt lat="46.4137" lon="4.66086">
        <ele>252.977</ele>
        <time>2022-09-24T07:29:38Z</time>
      </trkpt>
      <trkpt lat="46.41364" lon="4.66082">
        <ele>253.877</ele>
        <time>2022-09-24T07:29:43Z</time>
      </trkpt>
      <trkpt lat="46.41357" lon="4.66078">
        <ele>253.776</ele>
        <time>2022-09-24T07:29:49Z</time>
      </trkpt>
      <trkpt lat="46.4135" lon="4.66073">
        <ele>253.276</ele>
        <time>2022-09-24T07:29:54Z</time>
      </trkpt>
      <trkpt lat="46.41343" lon="4.66069">
        <ele>252.476</ele>
        <time>2022-09-24T07:29:59Z</time>
      </trkpt>
      <trkpt lat="46.41336" lon="4.66066">
        <ele>251.576</ele>
        <time>2022-09-24T07:30:05Z</time>
      </trkpt>
      <trkpt lat="46.41328" lon="4.66064">
        <ele>248.876</ele>
        <time>2022-09-24T07:30:11Z</time>
      </trkpt>
      <trkpt lat="46.41319" lon="4.66058">
        <ele>248.776</ele>
        <time>2022-09-24T07:30:17Z</time>
      </trkpt>
      <trkpt lat="46.41312" lon="4.66053">
        <ele>248.676</ele>
        <time>2022-09-24T07:30:23Z</time>
      </trkpt>
      <trkpt lat="46.41305" lon="4.66049">
        <ele>247.976</ele>
        <time>2022-09-24T07:30:29Z</time>
      </trkpt>
      <trkpt lat="46.41298" lon="4.66046">
        <ele>247.176</ele>
        <time>2022-09-24T07:30:34Z</time>
      </trkpt>
      <trkpt lat="46.41291" lon="4.66041">
        <ele>245.876</ele>
        <time>2022-09-24T07:30:39Z</time>
      </trkpt>
      <trkpt lat="46.41284" lon="4.66037">
        <ele>245.776</ele>
        <time>2022-09-24T07:30:45Z</time>
      </trkpt>
      <trkpt lat="46.41278" lon="4.66033">
        <ele>245.676</ele>
        <time>2022-09-24T07:30:50Z</time>
      </trkpt>
      <trkpt lat="46.41271" lon="4.6603">
        <ele>245.476</ele>
        <time>2022-09-24T07:30:55Z</time>
      </trkpt>
      <trkpt lat="46.41264" lon="4.66025">
        <ele>244.376</ele>
        <time>2022-09-24T07:31:01Z</time>
      </trkpt>
      <trkpt lat="46.41258" lon="4.66021">
        <ele>244.476</ele>
        <time>2022-09-24T07:31:06Z</time>
      </trkpt>
      <trkpt lat="46.4125" lon="4.66017">
        <ele>246.676</ele>
        <time>2022-09-24T07:31:13Z</time>
      </trkpt>
      <trkpt lat="46.41243" lon="4.66014">
        <ele>246.876</ele>
        <time>2022-09-24T07:31:18Z</time>
      </trkpt>
      <trkpt lat="46.41237" lon="4.6601">
        <ele>249.676</ele>
        <time>2022-09-24T07:31:24Z</time>
      </trkpt>
      <trkpt lat="46.4123" lon="4.66008">
        <ele>250.176</ele>
        <time>2022-09-24T07:31:30Z</time>
      </trkpt>
      <trkpt lat="46.41223" lon="4.66003">
        <ele>250.376</ele>
        <time>2022-09-24T07:31:37Z</time>
      </trkpt>
      <trkpt lat="46.41216" lon="4.65999">
        <ele>249.876</ele>
        <time>2022-09-24T07:31:42Z</time>
      </trkpt>
      <trkpt lat="46.41209" lon="4.65995">
        <ele>248.876</ele>
        <time>2022-09-24T07:31:48Z</time>
      </trkpt>
      <trkpt lat="46.41202" lon="4.65992">
        <ele>248.676</ele>
        <time>2022-09-24T07:31:54Z</time>
      </trkpt>
      <trkpt lat="46.41196" lon="4.65989">
        <ele>249.076</ele>
        <time>2022-09-24T07:32:00Z</time>
      </trkpt>
      <trkpt lat="46.41188" lon="4.65985">
        <ele>248.376</ele>
        <time>2022-09-24T07:32:05Z</time>
      </trkpt>
      <trkpt lat="46.41182" lon="4.6598">
        <ele>248.776</ele>
        <time>2022-09-24T07:32:11Z</time>
      </trkpt>
      <trkpt lat="46.41174" lon="4.65975">
        <ele>249.376</ele>
        <time>2022-09-24T07:32:17Z</time>
      </trkpt>
      <trkpt lat="46.41168" lon="4.6597">
        <ele>250.576</ele>
        <time>2022-09-24T07:32:22Z</time>
      </trkpt>
      <trkpt lat="46.41161" lon="4.65965">
        <ele>252.076</ele>
        <time>2022-09-24T07:32:27Z</time>
      </trkpt>
      <trkpt lat="46.41155" lon="4.65961">
        <ele>253.976</ele>
        <time>2022-09-24T07:32:32Z</time>
      </trkpt>
      <trkpt lat="46.41148" lon="4.65958">
        <ele>254.876</ele>
        <time>2022-09-24T07:32:37Z</time>
      </trkpt>
      <trkpt lat="46.41142" lon="4.65956">
        <ele>255.576</ele>
        <time>2022-09-24T07:32:42Z</time>
      </trkpt>
      <trkpt lat="46.41135" lon="4.65957">
        <ele>255.676</ele>
        <time>2022-09-24T07:32:49Z</time>
      </trkpt>
      <trkpt lat="46.41127" lon="4.65956">
        <ele>256.476</ele>
        <time>2022-09-24T07:32:55Z</time>
      </trkpt>
      <trkpt lat="46.41121" lon="4.65957">
        <ele>256.776</ele>
        <time>2022-09-24T07:33:05Z</time>
      </trkpt>
      <trkpt lat="46.41114" lon="4.6596">
        <ele>257.776</ele>
        <time>2022-09-24T07:33:14Z</time>
      </trkpt>
      <trkpt lat="46.41108" lon="4.65963">
        <ele>258.676</ele>
        <time>2022-09-24T07:33:26Z</time>
      </trkpt>
      <trkpt lat="46.41102" lon="4.6597">
        <ele>259.476</ele>
        <time>2022-09-24T07:33:33Z</time>
      </trkpt>
      <trkpt lat="46.41097" lon="4.65978">
        <ele>258.476</ele>
        <time>2022-09-24T07:33:39Z</time>
      </trkpt>
      <trkpt lat="46.41093" lon="4.65987">
        <ele>258.076</ele>
        <time>2022-09-24T07:33:45Z</time>
      </trkpt>
      <trkpt lat="46.41088" lon="4.65995">
        <ele>256.876</ele>
        <time>2022-09-24T07:33:53Z</time>
      </trkpt>
      <trkpt lat="46.41084" lon="4.66003">
        <ele>255.976</ele>
        <time>2022-09-24T07:33:59Z</time>
      </trkpt>
      <trkpt lat="46.41078" lon="4.66007">
        <ele>257.076</ele>
        <time>2022-09-24T07:34:08Z</time>
      </trkpt>
      <trkpt lat="46.41076" lon="4.66017">
        <ele>258.076</ele>
        <time>2022-09-24T07:34:30Z</time>
      </trkpt>
      <trkpt lat="46.41072" lon="4.66024">
        <ele>258.476</ele>
        <time>2022-09-24T07:36:01Z</time>
      </trkpt>
      <trkpt lat="46.41067" lon="4.66032">
        <ele>257.876</ele>
        <time>2022-09-24T07:36:13Z</time>
      </trkpt>
      <trkpt lat="46.41062" lon="4.66038">
        <ele>258.376</ele>
        <time>2022-09-24T07:36:23Z</time>
      </trkpt>
      <trkpt lat="46.41061" lon="4.66048">
        <ele>260.376</ele>
        <time>2022-09-24T07:36:47Z</time>
      </trkpt>
      <trkpt lat="46.41057" lon="4.66057">
        <ele>260.876</ele>
        <time>2022-09-24T07:36:53Z</time>
      </trkpt>
      <trkpt lat="46.41052" lon="4.66063">
        <ele>260.176</ele>
        <time>2022-09-24T07:36:59Z</time>
      </trkpt>
      <trkpt lat="46.41047" lon="4.6607">
        <ele>260.876</ele>
        <time>2022-09-24T07:37:05Z</time>
      </trkpt>
      <trkpt lat="46.41043" lon="4.66078">
        <ele>261.076</ele>
        <time>2022-09-24T07:37:11Z</time>
      </trkpt>
      <trkpt lat="46.41038" lon="4.66086">
        <ele>262.076</ele>
        <time>2022-09-24T07:37:17Z</time>
      </trkpt>
      <trkpt lat="46.41035" lon="4.66096">
        <ele>262.476</ele>
        <time>2022-09-24T07:37:23Z</time>
      </trkpt>
      <trkpt lat="46.4103" lon="4.66104">
        <ele>263.476</ele>
        <time>2022-09-24T07:37:29Z</time>
      </trkpt>
      <trkpt lat="46.41026" lon="4.66112">
        <ele>263.976</ele>
        <time>2022-09-24T07:37:36Z</time>
      </trkpt>
      <trkpt lat="46.41023" lon="4.66121">
        <ele>263.876</ele>
        <time>2022-09-24T07:38:17Z</time>
      </trkpt>
      <trkpt lat="46.41019" lon="4.66129">
        <ele>260.076</ele>
        <time>2022-09-24T07:38:47Z</time>
      </trkpt>
      <trkpt lat="46.41013" lon="4.66135">
        <ele>260.976</ele>
        <time>2022-09-24T07:38:53Z</time>
      </trkpt>
      <trkpt lat="46.41009" lon="4.66144">
        <ele>262.676</ele>
        <time>2022-09-24T07:39:00Z</time>
      </trkpt>
      <trkpt lat="46.41004" lon="4.66152">
        <ele>263.076</ele>
        <time>2022-09-24T07:39:06Z</time>
      </trkpt>
      <trkpt lat="46.41" lon="4.6616">
        <ele>264.576</ele>
        <time>2022-09-24T07:39:13Z</time>
      </trkpt>
      <trkpt lat="46.40994" lon="4.66167">
        <ele>264.476</ele>
        <time>2022-09-24T07:39:20Z</time>
      </trkpt>
      <trkpt lat="46.40989" lon="4.66173">
        <ele>263.976</ele>
        <time>2022-09-24T07:39:25Z</time>
      </trkpt>
      <trkpt lat="46.40982" lon="4.66177">
        <ele>264.176</ele>
        <time>2022-09-24T07:39:31Z</time>
      </trkpt>
      <trkpt lat="46.40976" lon="4.66179">
        <ele>264.376</ele>
        <time>2022-09-24T07:39:37Z</time>
      </trkpt>
      <trkpt lat="46.40969" lon="4.6618">
        <ele>264.976</ele>
        <time>2022-09-24T07:39:42Z</time>
      </trkpt>
      <trkpt lat="46.40963" lon="4.66179">
        <ele>265.076</ele>
        <time>2022-09-24T07:39:48Z</time>
      </trkpt>
      <trkpt lat="46.40956" lon="4.66175">
        <ele>265.475</ele>
        <time>2022-09-24T07:39:54Z</time>
      </trkpt>
      <trkpt lat="46.4095" lon="4.6617">
        <ele>266.875</ele>
        <time>2022-09-24T07:40:00Z</time>
      </trkpt>
      <trkpt lat="46.40944" lon="4.66164">
        <ele>267.275</ele>
        <time>2022-09-24T07:40:06Z</time>
      </trkpt>
      <trkpt lat="46.4094" lon="4.66157">
        <ele>266.275</ele>
        <time>2022-09-24T07:40:12Z</time>
      </trkpt>
      <trkpt lat="46.40936" lon="4.66149">
        <ele>264.375</ele>
        <time>2022-09-24T07:40:18Z</time>
      </trkpt>
      <trkpt lat="46.40935" lon="4.66139">
        <ele>264.375</ele>
        <time>2022-09-24T07:40:23Z</time>
      </trkpt>
      <trkpt lat="46.40933" lon="4.66129">
        <ele>264.475</ele>
        <time>2022-09-24T07:40:29Z</time>
      </trkpt>
      <trkpt lat="46.40927" lon="4.66133">
        <ele>266.275</ele>
        <time>2022-09-24T07:41:04Z</time>
      </trkpt>
      <trkpt lat="46.40925" lon="4.66142">
        <ele>268.775</ele>
        <time>2022-09-24T07:41:12Z</time>
      </trkpt>
      <trkpt lat="46.40923" lon="4.66152">
        <ele>269.375</ele>
        <time>2022-09-24T07:41:43Z</time>
      </trkpt>
      <trkpt lat="46.40921" lon="4.66161">
        <ele>268.475</ele>
        <time>2022-09-24T07:41:53Z</time>
      </trkpt>
      <trkpt lat="46.4092" lon="4.66172">
        <ele>269.575</ele>
        <time>2022-09-24T07:42:01Z</time>
      </trkpt>
      <trkpt lat="46.40918" lon="4.66181">
        <ele>271.375</ele>
        <time>2022-09-24T07:42:09Z</time>
      </trkpt>
      <trkpt lat="46.40915" lon="4.6619">
        <ele>271.275</ele>
        <time>2022-09-24T07:42:18Z</time>
      </trkpt>
      <trkpt lat="46.40912" lon="4.66199">
        <ele>271.775</ele>
        <time>2022-09-24T07:42:24Z</time>
      </trkpt>
      <trkpt lat="46.40908" lon="4.66208">
        <ele>273.175</ele>
        <time>2022-09-24T07:42:29Z</time>
      </trkpt>
      <trkpt lat="46.40905" lon="4.66217">
        <ele>273.675</ele>
        <time>2022-09-24T07:42:36Z</time>
      </trkpt>
      <trkpt lat="46.409" lon="4.66224">
        <ele>271.775</ele>
        <time>2022-09-24T07:42:43Z</time>
      </trkpt>
      <trkpt lat="46.40894" lon="4.66231">
        <ele>270.875</ele>
        <time>2022-09-24T07:42:49Z</time>
      </trkpt>
      <trkpt lat="46.40889" lon="4.66238">
        <ele>273.375</ele>
        <time>2022-09-24T07:42:57Z</time>
      </trkpt>
      <trkpt lat="46.40883" lon="4.66243">
        <ele>275.375</ele>
        <time>2022-09-24T07:43:04Z</time>
      </trkpt>
      <trkpt lat="46.40878" lon="4.66249">
        <ele>279.875</ele>
        <time>2022-09-24T07:43:14Z</time>
      </trkpt>
      <trkpt lat="46.40874" lon="4.66258">
        <ele>282.775</ele>
        <time>2022-09-24T07:43:20Z</time>
      </trkpt>
      <trkpt lat="46.40869" lon="4.66266">
        <ele>283.775</ele>
        <time>2022-09-24T07:43:28Z</time>
      </trkpt>
      <trkpt lat="46.40865" lon="4.66274">
        <ele>284.575</ele>
        <time>2022-09-24T07:43:33Z</time>
      </trkpt>
      <trkpt lat="46.40861" lon="4.66282">
        <ele>285.375</ele>
        <time>2022-09-24T07:43:39Z</time>
      </trkpt>
      <trkpt lat="46.40856" lon="4.66288">
        <ele>287.875</ele>
        <time>2022-09-24T07:43:46Z</time>
      </trkpt>
      <trkpt lat="46.40851" lon="4.66294">
        <ele>287.075</ele>
        <time>2022-09-24T07:43:51Z</time>
      </trkpt>
      <trkpt lat="46.40845" lon="4.663">
        <ele>284.275</ele>
        <time>2022-09-24T07:43:57Z</time>
      </trkpt>
      <trkpt lat="46.4084" lon="4.66308">
        <ele>282.275</ele>
        <time>2022-09-24T07:44:04Z</time>
      </trkpt>
      <trkpt lat="46.40836" lon="4.66316">
        <ele>283.775</ele>
        <time>2022-09-24T07:44:10Z</time>
      </trkpt>
      <trkpt lat="46.40833" lon="4.66324">
        <ele>284.375</ele>
        <time>2022-09-24T07:44:17Z</time>
      </trkpt>
      <trkpt lat="46.40831" lon="4.66333">
        <ele>285.875</ele>
        <time>2022-09-24T07:44:23Z</time>
      </trkpt>
      <trkpt lat="46.40827" lon="4.66341">
        <ele>287.075</ele>
        <time>2022-09-24T07:44:29Z</time>
      </trkpt>
      <trkpt lat="46.40822" lon="4.66347">
        <ele>286.875</ele>
        <time>2022-09-24T07:44:36Z</time>
      </trkpt>
      <trkpt lat="46.40817" lon="4.66356">
        <ele>285.975</ele>
        <time>2022-09-24T07:44:42Z</time>
      </trkpt>
      <trkpt lat="46.40813" lon="4.66365">
        <ele>284.575</ele>
        <time>2022-09-24T07:44:48Z</time>
      </trkpt>
      <trkpt lat="46.40809" lon="4.66373">
        <ele>283.275</ele>
        <time>2022-09-24T07:44:56Z</time>
      </trkpt>
      <trkpt lat="46.40804" lon="4.6638">
        <ele>282.775</ele>
        <time>2022-09-24T07:45:02Z</time>
      </trkpt>
      <trkpt lat="46.40798" lon="4.66385">
        <ele>283.675</ele>
        <time>2022-09-24T07:45:09Z</time>
      </trkpt>
      <trkpt lat="46.40793" lon="4.66392">
        <ele>283.675</ele>
        <time>2022-09-24T07:45:16Z</time>
      </trkpt>
      <trkpt lat="46.40788" lon="4.664">
        <ele>282.975</ele>
        <time>2022-09-24T07:45:21Z</time>
      </trkpt>
      <trkpt lat="46.40783" lon="4.66408">
        <ele>284.375</ele>
        <time>2022-09-24T07:45:27Z</time>
      </trkpt>
      <trkpt lat="46.40779" lon="4.66416">
        <ele>287.775</ele>
        <time>2022-09-24T07:45:34Z</time>
      </trkpt>
      <trkpt lat="46.40774" lon="4.66424">
        <ele>289.775</ele>
        <time>2022-09-24T07:45:41Z</time>
      </trkpt>
      <trkpt lat="46.40768" lon="4.66429">
        <ele>290.175</ele>
        <time>2022-09-24T07:45:46Z</time>
      </trkpt>
      <trkpt lat="46.40762" lon="4.66434">
        <ele>288.275</ele>
        <time>2022-09-24T07:45:53Z</time>
      </trkpt>
      <trkpt lat="46.40755" lon="4.66437">
        <ele>288.875</ele>
        <time>2022-09-24T07:46:00Z</time>
      </trkpt>
      <trkpt lat="46.4075" lon="4.66443">
        <ele>288.775</ele>
        <time>2022-09-24T07:46:06Z</time>
      </trkpt>
      <trkpt lat="46.40743" lon="4.66447">
        <ele>288.175</ele>
        <time>2022-09-24T07:46:12Z</time>
      </trkpt>
      <trkpt lat="46.40736" lon="4.66452">
        <ele>287.575</ele>
        <time>2022-09-24T07:46:18Z</time>
      </trkpt>
      <trkpt lat="46.40731" lon="4.66458">
        <ele>289.575</ele>
        <time>2022-09-24T07:46:23Z</time>
      </trkpt>
      <trkpt lat="46.4073" lon="4.66468">
        <ele>290.675</ele>
        <time>2022-09-24T07:46:30Z</time>
      </trkpt>
      <trkpt lat="46.40731" lon="4.66477">
        <ele>292.275</ele>
        <time>2022-09-24T07:46:35Z</time>
      </trkpt>
      <trkpt lat="46.40734" lon="4.66487">
        <ele>291.775</ele>
        <time>2022-09-24T07:46:45Z</time>
      </trkpt>
      <trkpt lat="46.40741" lon="4.66489">
        <ele>291.475</ele>
        <time>2022-09-24T07:46:51Z</time>
      </trkpt>
      <trkpt lat="46.40748" lon="4.66488">
        <ele>288.575</ele>
        <time>2022-09-24T07:46:57Z</time>
      </trkpt>
      <trkpt lat="46.40755" lon="4.66487">
        <ele>287.575</ele>
        <time>2022-09-24T07:47:03Z</time>
      </trkpt>
      <trkpt lat="46.40762" lon="4.66488">
        <ele>287.975</ele>
        <time>2022-09-24T07:47:09Z</time>
      </trkpt>
      <trkpt lat="46.40768" lon="4.66489">
        <ele>287.575</ele>
        <time>2022-09-24T07:47:15Z</time>
      </trkpt>
      <trkpt lat="46.40776" lon="4.66491">
        <ele>287.375</ele>
        <time>2022-09-24T07:47:21Z</time>
      </trkpt>
      <trkpt lat="46.40783" lon="4.66493">
        <ele>286.875</ele>
        <time>2022-09-24T07:47:26Z</time>
      </trkpt>
      <trkpt lat="46.4079" lon="4.66496">
        <ele>288.175</ele>
        <time>2022-09-24T07:47:32Z</time>
      </trkpt>
      <trkpt lat="46.40797" lon="4.66497">
        <ele>287.275</ele>
        <time>2022-09-24T07:47:39Z</time>
      </trkpt>
      <trkpt lat="46.40803" lon="4.66499">
        <ele>287.375</ele>
        <time>2022-09-24T07:47:45Z</time>
      </trkpt>
      <trkpt lat="46.4081" lon="4.66504">
        <ele>286.775</ele>
        <time>2022-09-24T07:47:51Z</time>
      </trkpt>
      <trkpt lat="46.40817" lon="4.66509">
        <ele>287.975</ele>
        <time>2022-09-24T07:47:57Z</time>
      </trkpt>
      <trkpt lat="46.40823" lon="4.6651">
        <ele>288.675</ele>
        <time>2022-09-24T07:48:03Z</time>
      </trkpt>
      <trkpt lat="46.40831" lon="4.66514">
        <ele>287.975</ele>
        <time>2022-09-24T07:48:09Z</time>
      </trkpt>
      <trkpt lat="46.40838" lon="4.66518">
        <ele>289.175</ele>
        <time>2022-09-24T07:48:16Z</time>
      </trkpt>
      <trkpt lat="46.40844" lon="4.66523">
        <ele>290.175</ele>
        <time>2022-09-24T07:48:22Z</time>
      </trkpt>
      <trkpt lat="46.40851" lon="4.66526">
        <ele>291.975</ele>
        <time>2022-09-24T07:48:29Z</time>
      </trkpt>
      <trkpt lat="46.40858" lon="4.66529">
        <ele>292.076</ele>
        <time>2022-09-24T07:48:36Z</time>
      </trkpt>
      <trkpt lat="46.40865" lon="4.66531">
        <ele>290.576</ele>
        <time>2022-09-24T07:48:42Z</time>
      </trkpt>
      <trkpt lat="46.40873" lon="4.6653">
        <ele>288.676</ele>
        <time>2022-09-24T07:48:48Z</time>
      </trkpt>
      <trkpt lat="46.4088" lon="4.66533">
        <ele>290.876</ele>
        <time>2022-09-24T07:48:55Z</time>
      </trkpt>
      <trkpt lat="46.40888" lon="4.66538">
        <ele>293.176</ele>
        <time>2022-09-24T07:49:01Z</time>
      </trkpt>
      <trkpt lat="46.40893" lon="4.66542">
        <ele>293.976</ele>
        <time>2022-09-24T07:49:09Z</time>
      </trkpt>
      <trkpt lat="46.4089" lon="4.66535">
        <ele>293.276</ele>
        <time>2022-09-24T07:49:39Z</time>
      </trkpt>
      <trkpt lat="46.40886" lon="4.66524">
        <ele>293.276</ele>
        <time>2022-09-24T07:49:45Z</time>
      </trkpt>
      <trkpt lat="46.40887" lon="4.66514">
        <ele>292.376</ele>
        <time>2022-09-24T07:49:55Z</time>
      </trkpt>
      <trkpt lat="46.40893" lon="4.66509">
        <ele>289.976</ele>
        <time>2022-09-24T07:50:12Z</time>
      </trkpt>
      <trkpt lat="46.40896" lon="4.66498">
        <ele>290.376</ele>
        <time>2022-09-24T07:50:19Z</time>
      </trkpt>
      <trkpt lat="46.40899" lon="4.66489">
        <ele>291.276</ele>
        <time>2022-09-24T07:50:25Z</time>
      </trkpt>
      <trkpt lat="46.40904" lon="4.66481">
        <ele>292.076</ele>
        <time>2022-09-24T07:50:31Z</time>
      </trkpt>
      <trkpt lat="46.40908" lon="4.66473">
        <ele>289.976</ele>
        <time>2022-09-24T07:50:38Z</time>
      </trkpt>
      <trkpt lat="46.40914" lon="4.66468">
        <ele>290.676</ele>
        <time>2022-09-24T07:50:44Z</time>
      </trkpt>
      <trkpt lat="46.4092" lon="4.66464">
        <ele>290.176</ele>
        <time>2022-09-24T07:50:49Z</time>
      </trkpt>
      <trkpt lat="46.40927" lon="4.66462">
        <ele>287.776</ele>
        <time>2022-09-24T07:50:56Z</time>
      </trkpt>
      <trkpt lat="46.40934" lon="4.66459">
        <ele>287.776</ele>
        <time>2022-09-24T07:51:04Z</time>
      </trkpt>
      <trkpt lat="46.40941" lon="4.66461">
        <ele>287.176</ele>
        <time>2022-09-24T07:51:14Z</time>
      </trkpt>
      <trkpt lat="46.40946" lon="4.66466">
        <ele>287.676</ele>
        <time>2022-09-24T07:51:20Z</time>
      </trkpt>
      <trkpt lat="46.40953" lon="4.66468">
        <ele>287.676</ele>
        <time>2022-09-24T07:51:27Z</time>
      </trkpt>
      <trkpt lat="46.4096" lon="4.66472">
        <ele>288.776</ele>
        <time>2022-09-24T07:51:33Z</time>
      </trkpt>
      <trkpt lat="46.40967" lon="4.66474">
        <ele>289.676</ele>
        <time>2022-09-24T07:51:41Z</time>
      </trkpt>
      <trkpt lat="46.40973" lon="4.66479">
        <ele>290.876</ele>
        <time>2022-09-24T07:51:50Z</time>
      </trkpt>
      <trkpt lat="46.40979" lon="4.66483">
        <ele>292.576</ele>
        <time>2022-09-24T07:52:00Z</time>
      </trkpt>
      <trkpt lat="46.40983" lon="4.66476">
        <ele>291.376</ele>
        <time>2022-09-24T07:52:09Z</time>
      </trkpt>
      <trkpt lat="46.40989" lon="4.66468">
        <ele>290.676</ele>
        <time>2022-09-24T07:52:15Z</time>
      </trkpt>
      <trkpt lat="46.40994" lon="4.66462">
        <ele>289.976</ele>
        <time>2022-09-24T07:52:21Z</time>
      </trkpt>
      <trkpt lat="46.40998" lon="4.66469">
        <ele>288.876</ele>
        <time>2022-09-24T07:54:09Z</time>
      </trkpt>
      <trkpt lat="46.40992" lon="4.66468">
        <ele>292.676</ele>
        <time>2022-09-24T07:56:20Z</time>
      </trkpt>
      <trkpt lat="46.40988" lon="4.66475">
        <ele>291.476</ele>
        <time>2022-09-24T07:56:27Z</time>
      </trkpt>
      <trkpt lat="46.40984" lon="4.66485">
        <ele>292.176</ele>
        <time>2022-09-24T07:56:33Z</time>
      </trkpt>
      <trkpt lat="46.40979" lon="4.66492">
        <ele>291.976</ele>
        <time>2022-09-24T07:56:39Z</time>
      </trkpt>
      <trkpt lat="46.40976" lon="4.66501">
        <ele>290.876</ele>
        <time>2022-09-24T07:56:46Z</time>
      </trkpt>
      <trkpt lat="46.40972" lon="4.6651">
        <ele>289.176</ele>
        <time>2022-09-24T07:56:53Z</time>
      </trkpt>
      <trkpt lat="46.40972" lon="4.6652">
        <ele>288.376</ele>
        <time>2022-09-24T07:56:59Z</time>
      </trkpt>
      <trkpt lat="46.40969" lon="4.66529">
        <ele>289.076</ele>
        <time>2022-09-24T07:57:05Z</time>
      </trkpt>
      <trkpt lat="46.40964" lon="4.66538">
        <ele>292.076</ele>
        <time>2022-09-24T07:57:10Z</time>
      </trkpt>
      <trkpt lat="46.40959" lon="4.66545">
        <ele>292.976</ele>
        <time>2022-09-24T07:57:16Z</time>
      </trkpt>
      <trkpt lat="46.40956" lon="4.66554">
        <ele>293.476</ele>
        <time>2022-09-24T07:57:22Z</time>
      </trkpt>
      <trkpt lat="46.40952" lon="4.66562">
        <ele>294.976</ele>
        <time>2022-09-24T07:57:28Z</time>
      </trkpt>
      <trkpt lat="46.40948" lon="4.66569">
        <ele>294.576</ele>
        <time>2022-09-24T07:57:34Z</time>
      </trkpt>
      <trkpt lat="46.40943" lon="4.66577">
        <ele>294.876</ele>
        <time>2022-09-24T07:57:39Z</time>
      </trkpt>
      <trkpt lat="46.40938" lon="4.66584">
        <ele>295.376</ele>
        <time>2022-09-24T07:57:45Z</time>
      </trkpt>
      <trkpt lat="46.40933" lon="4.6659">
        <ele>295.976</ele>
        <time>2022-09-24T07:57:51Z</time>
      </trkpt>
      <trkpt lat="46.40927" lon="4.66597">
        <ele>297.376</ele>
        <time>2022-09-24T07:57:57Z</time>
      </trkpt>
      <trkpt lat="46.40922" lon="4.66604">
        <ele>296.176</ele>
        <time>2022-09-24T07:58:03Z</time>
      </trkpt>
      <trkpt lat="46.40919" lon="4.66613">
        <ele>297.676</ele>
        <time>2022-09-24T07:58:11Z</time>
      </trkpt>
      <trkpt lat="46.40916" lon="4.66622">
        <ele>298.276</ele>
        <time>2022-09-24T07:58:18Z</time>
      </trkpt>
      <trkpt lat="46.4091" lon="4.66628">
        <ele>302.076</ele>
        <time>2022-09-24T07:58:25Z</time>
      </trkpt>
      <trkpt lat="46.40906" lon="4.66636">
        <ele>304.676</ele>
        <time>2022-09-24T07:58:32Z</time>
      </trkpt>
      <trkpt lat="46.40901" lon="4.66644">
        <ele>305.876</ele>
        <time>2022-09-24T07:58:39Z</time>
      </trkpt>
      <trkpt lat="46.40896" lon="4.6665">
        <ele>305.976</ele>
        <time>2022-09-24T07:58:46Z</time>
      </trkpt>
      <trkpt lat="46.4089" lon="4.66656">
        <ele>306.876</ele>
        <time>2022-09-24T07:58:53Z</time>
      </trkpt>
      <trkpt lat="46.40884" lon="4.6666">
        <ele>309.376</ele>
        <time>2022-09-24T07:58:59Z</time>
      </trkpt>
      <trkpt lat="46.40877" lon="4.66664">
        <ele>311.376</ele>
        <time>2022-09-24T07:59:06Z</time>
      </trkpt>
      <trkpt lat="46.40873" lon="4.66671">
        <ele>312.976</ele>
        <time>2022-09-24T07:59:13Z</time>
      </trkpt>
      <trkpt lat="46.40866" lon="4.66676">
        <ele>315.376</ele>
        <time>2022-09-24T07:59:20Z</time>
      </trkpt>
      <trkpt lat="46.4086" lon="4.6668">
        <ele>317.076</ele>
        <time>2022-09-24T07:59:26Z</time>
      </trkpt>
      <trkpt lat="46.40854" lon="4.66685">
        <ele>316.076</ele>
        <time>2022-09-24T07:59:33Z</time>
      </trkpt>
      <trkpt lat="46.40848" lon="4.66688">
        <ele>316.776</ele>
        <time>2022-09-24T07:59:39Z</time>
      </trkpt>
      <trkpt lat="46.40842" lon="4.66692">
        <ele>317.876</ele>
        <time>2022-09-24T07:59:46Z</time>
      </trkpt>
      <trkpt lat="46.40837" lon="4.66699">
        <ele>319.776</ele>
        <time>2022-09-24T07:59:54Z</time>
      </trkpt>
      <trkpt lat="46.40832" lon="4.66705">
        <ele>321.976</ele>
        <time>2022-09-24T08:00:01Z</time>
      </trkpt>
      <trkpt lat="46.40827" lon="4.66712">
        <ele>323.476</ele>
        <time>2022-09-24T08:00:11Z</time>
      </trkpt>
      <trkpt lat="46.40821" lon="4.66718">
        <ele>323.376</ele>
        <time>2022-09-24T08:00:23Z</time>
      </trkpt>
      <trkpt lat="46.40816" lon="4.66724">
        <ele>323.876</ele>
        <time>2022-09-24T08:00:33Z</time>
      </trkpt>
      <trkpt lat="46.40809" lon="4.66726">
        <ele>327.576</ele>
        <time>2022-09-24T08:00:40Z</time>
      </trkpt>
      <trkpt lat="46.40804" lon="4.66732">
        <ele>327.576</ele>
        <time>2022-09-24T08:00:45Z</time>
      </trkpt>
      <trkpt lat="46.40799" lon="4.66738">
        <ele>326.076</ele>
        <time>2022-09-24T08:00:57Z</time>
      </trkpt>
      <trkpt lat="46.40792" lon="4.6674">
        <ele>323.375</ele>
        <time>2022-09-24T08:01:11Z</time>
      </trkpt>
      <trkpt lat="46.40785" lon="4.66744">
        <ele>322.975</ele>
        <time>2022-09-24T08:01:18Z</time>
      </trkpt>
      <trkpt lat="46.40782" lon="4.66754">
        <ele>323.575</ele>
        <time>2022-09-24T08:01:24Z</time>
      </trkpt>
      <trkpt lat="46.40775" lon="4.6676">
        <ele>323.475</ele>
        <time>2022-09-24T08:01:33Z</time>
      </trkpt>
      <trkpt lat="46.40771" lon="4.66767">
        <ele>321.975</ele>
        <time>2022-09-24T08:01:45Z</time>
      </trkpt>
      <trkpt lat="46.40766" lon="4.66774">
        <ele>320.775</ele>
        <time>2022-09-24T08:01:51Z</time>
      </trkpt>
      <trkpt lat="46.40761" lon="4.66782">
        <ele>322.175</ele>
        <time>2022-09-24T08:01:59Z</time>
      </trkpt>
      <trkpt lat="46.40755" lon="4.66788">
        <ele>325.775</ele>
        <time>2022-09-24T08:02:06Z</time>
      </trkpt>
      <trkpt lat="46.40752" lon="4.66796">
        <ele>329.475</ele>
        <time>2022-09-24T08:02:16Z</time>
      </trkpt>
      <trkpt lat="46.40746" lon="4.66801">
        <ele>330.575</ele>
        <time>2022-09-24T08:02:23Z</time>
      </trkpt>
      <trkpt lat="46.40739" lon="4.66802">
        <ele>330.975</ele>
        <time>2022-09-24T08:02:29Z</time>
      </trkpt>
      <trkpt lat="46.40733" lon="4.66803">
        <ele>333.175</ele>
        <time>2022-09-24T08:02:36Z</time>
      </trkpt>
      <trkpt lat="46.40726" lon="4.66804">
        <ele>334.175</ele>
        <time>2022-09-24T08:02:43Z</time>
      </trkpt>
      <trkpt lat="46.40719" lon="4.66808">
        <ele>336.875</ele>
        <time>2022-09-24T08:02:55Z</time>
      </trkpt>
      <trkpt lat="46.40713" lon="4.66813">
        <ele>340.275</ele>
        <time>2022-09-24T08:03:04Z</time>
      </trkpt>
      <trkpt lat="46.40707" lon="4.66819">
        <ele>343.975</ele>
        <time>2022-09-24T08:03:13Z</time>
      </trkpt>
      <trkpt lat="46.40701" lon="4.66824">
        <ele>347.375</ele>
        <time>2022-09-24T08:03:20Z</time>
      </trkpt>
      <trkpt lat="46.40695" lon="4.66828">
        <ele>349.975</ele>
        <time>2022-09-24T08:03:28Z</time>
      </trkpt>
      <trkpt lat="46.40689" lon="4.66831">
        <ele>351.075</ele>
        <time>2022-09-24T08:03:36Z</time>
      </trkpt>
      <trkpt lat="46.40683" lon="4.66837">
        <ele>353.275</ele>
        <time>2022-09-24T08:03:48Z</time>
      </trkpt>
      <trkpt lat="46.40678" lon="4.66842">
        <ele>355.875</ele>
        <time>2022-09-24T08:03:57Z</time>
      </trkpt>
      <trkpt lat="46.40672" lon="4.66848">
        <ele>357.575</ele>
        <time>2022-09-24T08:04:11Z</time>
      </trkpt>
      <trkpt lat="46.40666" lon="4.6685">
        <ele>358.575</ele>
        <time>2022-09-24T08:04:18Z</time>
      </trkpt>
      <trkpt lat="46.40661" lon="4.66857">
        <ele>354.475</ele>
        <time>2022-09-24T08:04:28Z</time>
      </trkpt>
      <trkpt lat="46.40655" lon="4.66864">
        <ele>354.375</ele>
        <time>2022-09-24T08:04:36Z</time>
      </trkpt>
      <trkpt lat="46.40648" lon="4.66868">
        <ele>353.775</ele>
        <time>2022-09-24T08:04:41Z</time>
      </trkpt>
      <trkpt lat="46.40642" lon="4.66874">
        <ele>352.575</ele>
        <time>2022-09-24T08:04:47Z</time>
      </trkpt>
      <trkpt lat="46.40637" lon="4.66881">
        <ele>351.175</ele>
        <time>2022-09-24T08:04:55Z</time>
      </trkpt>
      <trkpt lat="46.40631" lon="4.66885">
        <ele>350.575</ele>
        <time>2022-09-24T08:05:04Z</time>
      </trkpt>
      <trkpt lat="46.40626" lon="4.66892">
        <ele>350.675</ele>
        <time>2022-09-24T08:05:11Z</time>
      </trkpt>
      <trkpt lat="46.40619" lon="4.66899">
        <ele>351.375</ele>
        <time>2022-09-24T08:05:17Z</time>
      </trkpt>
      <trkpt lat="46.40613" lon="4.66901">
        <ele>353.375</ele>
        <time>2022-09-24T08:05:24Z</time>
      </trkpt>
      <trkpt lat="46.40608" lon="4.66908">
        <ele>354.575</ele>
        <time>2022-09-24T08:05:30Z</time>
      </trkpt>
      <trkpt lat="46.40603" lon="4.66914">
        <ele>356.375</ele>
        <time>2022-09-24T08:05:37Z</time>
      </trkpt>
      <trkpt lat="46.40597" lon="4.6692">
        <ele>358.675</ele>
        <time>2022-09-24T08:05:43Z</time>
      </trkpt>
      <trkpt lat="46.40591" lon="4.66924">
        <ele>360.675</ele>
        <time>2022-09-24T08:05:51Z</time>
      </trkpt>
      <trkpt lat="46.40583" lon="4.66926">
        <ele>363.275</ele>
        <time>2022-09-24T08:05:57Z</time>
      </trkpt>
      <trkpt lat="46.40577" lon="4.66929">
        <ele>365.275</ele>
        <time>2022-09-24T08:06:04Z</time>
      </trkpt>
      <trkpt lat="46.4057" lon="4.6693">
        <ele>366.975</ele>
        <time>2022-09-24T08:06:11Z</time>
      </trkpt>
      <trkpt lat="46.40563" lon="4.66931">
        <ele>368.375</ele>
        <time>2022-09-24T08:06:19Z</time>
      </trkpt>
      <trkpt lat="46.40557" lon="4.66933">
        <ele>369.675</ele>
        <time>2022-09-24T08:06:26Z</time>
      </trkpt>
      <trkpt lat="46.4055" lon="4.66933">
        <ele>370.475</ele>
        <time>2022-09-24T08:06:32Z</time>
      </trkpt>
      <trkpt lat="46.40544" lon="4.66938">
        <ele>369.975</ele>
        <time>2022-09-24T08:06:38Z</time>
      </trkpt>
      <trkpt lat="46.40539" lon="4.66945">
        <ele>368.375</ele>
        <time>2022-09-24T08:06:45Z</time>
      </trkpt>
      <trkpt lat="46.40535" lon="4.66952">
        <ele>366.375</ele>
        <time>2022-09-24T08:06:54Z</time>
      </trkpt>
      <trkpt lat="46.40529" lon="4.66958">
        <ele>365.875</ele>
        <time>2022-09-24T08:07:01Z</time>
      </trkpt>
      <trkpt lat="46.40524" lon="4.66965">
        <ele>365.575</ele>
        <time>2022-09-24T08:07:09Z</time>
      </trkpt>
      <trkpt lat="46.40518" lon="4.6697">
        <ele>365.375</ele>
        <time>2022-09-24T08:07:16Z</time>
      </trkpt>
      <trkpt lat="46.40512" lon="4.66975">
        <ele>364.075</ele>
        <time>2022-09-24T08:07:22Z</time>
      </trkpt>
      <trkpt lat="46.40506" lon="4.66979">
        <ele>364.875</ele>
        <time>2022-09-24T08:07:29Z</time>
      </trkpt>
      <trkpt lat="46.40499" lon="4.66984">
        <ele>366.775</ele>
        <time>2022-09-24T08:07:36Z</time>
      </trkpt>
      <trkpt lat="46.40493" lon="4.66988">
        <ele>367.775</ele>
        <time>2022-09-24T08:07:42Z</time>
      </trkpt>
      <trkpt lat="46.40487" lon="4.66993">
        <ele>369.375</ele>
        <time>2022-09-24T08:07:49Z</time>
      </trkpt>
      <trkpt lat="46.40482" lon="4.66999">
        <ele>372.075</ele>
        <time>2022-09-24T08:07:56Z</time>
      </trkpt>
      <trkpt lat="46.40476" lon="4.67005">
        <ele>374.275</ele>
        <time>2022-09-24T08:08:04Z</time>
      </trkpt>
      <trkpt lat="46.40472" lon="4.67014">
        <ele>374.475</ele>
        <time>2022-09-24T08:08:12Z</time>
      </trkpt>
      <trkpt lat="46.40466" lon="4.67019">
        <ele>373.975</ele>
        <time>2022-09-24T08:08:17Z</time>
      </trkpt>
      <trkpt lat="46.40461" lon="4.67027">
        <ele>374.275</ele>
        <time>2022-09-24T08:08:23Z</time>
      </trkpt>
      <trkpt lat="46.40456" lon="4.67034">
        <ele>375.975</ele>
        <time>2022-09-24T08:08:32Z</time>
      </trkpt>
      <trkpt lat="46.40452" lon="4.67041">
        <ele>377.375</ele>
        <time>2022-09-24T08:08:40Z</time>
      </trkpt>
      <trkpt lat="46.40447" lon="4.67048">
        <ele>378.975</ele>
        <time>2022-09-24T08:08:46Z</time>
      </trkpt>
      <trkpt lat="46.40443" lon="4.67056">
        <ele>379.775</ele>
        <time>2022-09-24T08:08:52Z</time>
      </trkpt>
      <trkpt lat="46.40437" lon="4.67061">
        <ele>381.475</ele>
        <time>2022-09-24T08:09:00Z</time>
      </trkpt>
      <trkpt lat="46.40432" lon="4.67067">
        <ele>384.575</ele>
        <time>2022-09-24T08:09:06Z</time>
      </trkpt>
      <trkpt lat="46.40429" lon="4.67077">
        <ele>386.175</ele>
        <time>2022-09-24T08:09:15Z</time>
      </trkpt>
      <trkpt lat="46.40427" lon="4.67087">
        <ele>384.775</ele>
        <time>2022-09-24T08:09:21Z</time>
      </trkpt>
      <trkpt lat="46.4042" lon="4.67091">
        <ele>384.975</ele>
        <time>2022-09-24T08:09:28Z</time>
      </trkpt>
      <trkpt lat="46.40415" lon="4.671">
        <ele>384.875</ele>
        <time>2022-09-24T08:09:34Z</time>
      </trkpt>
      <trkpt lat="46.40409" lon="4.67106">
        <ele>385.075</ele>
        <time>2022-09-24T08:09:40Z</time>
      </trkpt>
      <trkpt lat="46.40405" lon="4.67113">
        <ele>387.075</ele>
        <time>2022-09-24T08:09:47Z</time>
      </trkpt>
      <trkpt lat="46.40403" lon="4.67123">
        <ele>388.475</ele>
        <time>2022-09-24T08:09:53Z</time>
      </trkpt>
      <trkpt lat="46.404" lon="4.67133">
        <ele>389.675</ele>
        <time>2022-09-24T08:10:04Z</time>
      </trkpt>
      <trkpt lat="46.40397" lon="4.67142">
        <ele>387.575</ele>
        <time>2022-09-24T08:10:16Z</time>
      </trkpt>
      <trkpt lat="46.40391" lon="4.67144">
        <ele>385.475</ele>
        <time>2022-09-24T08:10:24Z</time>
      </trkpt>
      <trkpt lat="46.40387" lon="4.67152">
        <ele>386.275</ele>
        <time>2022-09-24T08:10:33Z</time>
      </trkpt>
      <trkpt lat="46.40383" lon="4.67161">
        <ele>386.875</ele>
        <time>2022-09-24T08:10:41Z</time>
      </trkpt>
      <trkpt lat="46.40381" lon="4.67172">
        <ele>388.975</ele>
        <time>2022-09-24T08:10:49Z</time>
      </trkpt>
      <trkpt lat="46.40379" lon="4.67182">
        <ele>392.175</ele>
        <time>2022-09-24T08:10:58Z</time>
      </trkpt>
      <trkpt lat="46.40376" lon="4.67191">
        <ele>393.075</ele>
        <time>2022-09-24T08:11:04Z</time>
      </trkpt>
      <trkpt lat="46.40372" lon="4.67199">
        <ele>396.275</ele>
        <time>2022-09-24T08:11:12Z</time>
      </trkpt>
      <trkpt lat="46.4037" lon="4.67208">
        <ele>398.975</ele>
        <time>2022-09-24T08:11:24Z</time>
      </trkpt>
      <trkpt lat="46.40366" lon="4.67216">
        <ele>400.075</ele>
        <time>2022-09-24T08:11:30Z</time>
      </trkpt>
      <trkpt lat="46.40362" lon="4.67225">
        <ele>400.275</ele>
        <time>2022-09-24T08:11:36Z</time>
      </trkpt>
      <trkpt lat="46.40362" lon="4.67235">
        <ele>400.975</ele>
        <time>2022-09-24T08:11:46Z</time>
      </trkpt>
      <trkpt lat="46.40358" lon="4.67242">
        <ele>401.575</ele>
        <time>2022-09-24T08:11:52Z</time>
      </trkpt>
      <trkpt lat="46.40356" lon="4.67253">
        <ele>403.075</ele>
        <time>2022-09-24T08:11:59Z</time>
      </trkpt>
      <trkpt lat="46.40355" lon="4.67262">
        <ele>403.075</ele>
        <time>2022-09-24T08:12:05Z</time>
      </trkpt>
      <trkpt lat="46.40354" lon="4.67273">
        <ele>403.175</ele>
        <time>2022-09-24T08:12:13Z</time>
      </trkpt>
      <trkpt lat="46.4035" lon="4.67281">
        <ele>403.775</ele>
        <time>2022-09-24T08:12:21Z</time>
      </trkpt>
      <trkpt lat="46.40346" lon="4.67289">
        <ele>404.475</ele>
        <time>2022-09-24T08:12:28Z</time>
      </trkpt>
      <trkpt lat="46.40341" lon="4.67297">
        <ele>405.775</ele>
        <time>2022-09-24T08:12:36Z</time>
      </trkpt>
      <trkpt lat="46.40341" lon="4.67307">
        <ele>406.675</ele>
        <time>2022-09-24T08:12:42Z</time>
      </trkpt>
      <trkpt lat="46.40337" lon="4.67315">
        <ele>408.275</ele>
        <time>2022-09-24T08:12:48Z</time>
      </trkpt>
      <trkpt lat="46.40331" lon="4.6732">
        <ele>409.875</ele>
        <time>2022-09-24T08:12:54Z</time>
      </trkpt>
      <trkpt lat="46.40325" lon="4.67327">
        <ele>411.875</ele>
        <time>2022-09-24T08:13:04Z</time>
      </trkpt>
      <trkpt lat="46.40322" lon="4.67335">
        <ele>413.475</ele>
        <time>2022-09-24T08:13:12Z</time>
      </trkpt>
      <trkpt lat="46.40317" lon="4.67342">
        <ele>415.675</ele>
        <time>2022-09-24T08:13:20Z</time>
      </trkpt>
      <trkpt lat="46.4031" lon="4.67349">
        <ele>415.775</ele>
        <time>2022-09-24T08:13:27Z</time>
      </trkpt>
      <trkpt lat="46.40307" lon="4.67357">
        <ele>415.375</ele>
        <time>2022-09-24T08:13:35Z</time>
      </trkpt>
      <trkpt lat="46.40306" lon="4.67368">
        <ele>412.675</ele>
        <time>2022-09-24T08:13:41Z</time>
      </trkpt>
      <trkpt lat="46.40303" lon="4.67377">
        <ele>411.575</ele>
        <time>2022-09-24T08:13:48Z</time>
      </trkpt>
      <trkpt lat="46.40297" lon="4.67382">
        <ele>410.575</ele>
        <time>2022-09-24T08:13:54Z</time>
      </trkpt>
      <trkpt lat="46.40291" lon="4.67389">
        <ele>407.375</ele>
        <time>2022-09-24T08:14:08Z</time>
      </trkpt>
      <trkpt lat="46.40285" lon="4.67378">
        <ele>407.375</ele>
        <time>2022-09-24T08:14:29Z</time>
      </trkpt>
      <trkpt lat="46.40291" lon="4.67382">
        <ele>407.375</ele>
        <time>2022-09-24T08:15:15Z</time>
      </trkpt>
      <trkpt lat="46.40288" lon="4.67391">
        <ele>406.675</ele>
        <time>2022-09-24T08:16:02Z</time>
      </trkpt>
      <trkpt lat="46.40283" lon="4.67396">
        <ele>406.375</ele>
        <time>2022-09-24T08:16:07Z</time>
      </trkpt>
      <trkpt lat="46.40274" lon="4.67396">
        <ele>409.375</ele>
        <time>2022-09-24T08:16:13Z</time>
      </trkpt>
      <trkpt lat="46.40269" lon="4.67404">
        <ele>410.075</ele>
        <time>2022-09-24T08:16:22Z</time>
      </trkpt>
      <trkpt lat="46.40264" lon="4.67411">
        <ele>409.275</ele>
        <time>2022-09-24T08:16:27Z</time>
      </trkpt>
      <trkpt lat="46.40259" lon="4.67419">
        <ele>409.975</ele>
        <time>2022-09-24T08:16:34Z</time>
      </trkpt>
      <trkpt lat="46.40256" lon="4.67429">
        <ele>408.075</ele>
        <time>2022-09-24T08:16:41Z</time>
      </trkpt>
      <trkpt lat="46.4025" lon="4.67436">
        <ele>405.675</ele>
        <time>2022-09-24T08:16:47Z</time>
      </trkpt>
      <trkpt lat="46.40243" lon="4.67437">
        <ele>403.975</ele>
        <time>2022-09-24T08:16:54Z</time>
      </trkpt>
      <trkpt lat="46.40235" lon="4.67441">
        <ele>408.775</ele>
        <time>2022-09-24T08:16:59Z</time>
      </trkpt>
      <trkpt lat="46.40229" lon="4.67448">
        <ele>410.675</ele>
        <time>2022-09-24T08:17:06Z</time>
      </trkpt>
      <trkpt lat="46.40227" lon="4.67457">
        <ele>413.275</ele>
        <time>2022-09-24T08:17:13Z</time>
      </trkpt>
      <trkpt lat="46.40223" lon="4.67466">
        <ele>417.975</ele>
        <time>2022-09-24T08:17:18Z</time>
      </trkpt>
      <trkpt lat="46.40219" lon="4.67473">
        <ele>421.475</ele>
        <time>2022-09-24T08:17:24Z</time>
      </trkpt>
      <trkpt lat="46.40215" lon="4.67481">
        <ele>423.275</ele>
        <time>2022-09-24T08:17:30Z</time>
      </trkpt>
      <trkpt lat="46.4021" lon="4.67487">
        <ele>422.975</ele>
        <time>2022-09-24T08:17:39Z</time>
      </trkpt>
      <trkpt lat="46.40208" lon="4.67496">
        <ele>420.175</ele>
        <time>2022-09-24T08:17:46Z</time>
      </trkpt>
      <trkpt lat="46.40207" lon="4.67507">
        <ele>416.675</ele>
        <time>2022-09-24T08:17:51Z</time>
      </trkpt>
      <trkpt lat="46.40201" lon="4.67514">
        <ele>411.175</ele>
        <time>2022-09-24T08:17:57Z</time>
      </trkpt>
      <trkpt lat="46.40198" lon="4.67524">
        <ele>410.075</ele>
        <time>2022-09-24T08:18:03Z</time>
      </trkpt>
      <trkpt lat="46.40188" lon="4.67531">
        <ele>418.575</ele>
        <time>2022-09-24T08:18:09Z</time>
      </trkpt>
      <trkpt lat="46.40183" lon="4.67537">
        <ele>421.175</ele>
        <time>2022-09-24T08:18:16Z</time>
      </trkpt>
      <trkpt lat="46.40177" lon="4.67542">
        <ele>423.775</ele>
        <time>2022-09-24T08:18:21Z</time>
      </trkpt>
      <trkpt lat="46.40173" lon="4.6755">
        <ele>423.174</ele>
        <time>2022-09-24T08:18:28Z</time>
      </trkpt>
      <trkpt lat="46.40171" lon="4.67559">
        <ele>420.975</ele>
        <time>2022-09-24T08:18:36Z</time>
      </trkpt>
      <trkpt lat="46.40168" lon="4.67568">
        <ele>419.474</ele>
        <time>2022-09-24T08:18:45Z</time>
      </trkpt>
      <trkpt lat="46.40162" lon="4.67575">
        <ele>418.274</ele>
        <time>2022-09-24T08:18:52Z</time>
      </trkpt>
      <trkpt lat="46.40154" lon="4.67581">
        <ele>418.074</ele>
        <time>2022-09-24T08:18:57Z</time>
      </trkpt>
      <trkpt lat="46.40148" lon="4.67588">
        <ele>418.074</ele>
        <time>2022-09-24T08:19:03Z</time>
      </trkpt>
      <trkpt lat="46.40144" lon="4.67597">
        <ele>419.374</ele>
        <time>2022-09-24T08:19:09Z</time>
      </trkpt>
      <trkpt lat="46.40138" lon="4.67603">
        <ele>420.074</ele>
        <time>2022-09-24T08:19:15Z</time>
      </trkpt>
      <trkpt lat="46.40131" lon="4.67609">
        <ele>422.174</ele>
        <time>2022-09-24T08:19:21Z</time>
      </trkpt>
      <trkpt lat="46.40125" lon="4.67616">
        <ele>424.774</ele>
        <time>2022-09-24T08:19:28Z</time>
      </trkpt>
      <trkpt lat="46.4012" lon="4.67623">
        <ele>425.474</ele>
        <time>2022-09-24T08:19:34Z</time>
      </trkpt>
      <trkpt lat="46.40115" lon="4.67631">
        <ele>426.374</ele>
        <time>2022-09-24T08:19:40Z</time>
      </trkpt>
      <trkpt lat="46.40111" lon="4.67637">
        <ele>428.674</ele>
        <time>2022-09-24T08:19:45Z</time>
      </trkpt>
      <trkpt lat="46.40106" lon="4.67645">
        <ele>429.874</ele>
        <time>2022-09-24T08:19:55Z</time>
      </trkpt>
      <trkpt lat="46.40103" lon="4.67655">
        <ele>429.274</ele>
        <time>2022-09-24T08:20:01Z</time>
      </trkpt>
      <trkpt lat="46.40101" lon="4.67665">
        <ele>429.274</ele>
        <time>2022-09-24T08:20:07Z</time>
      </trkpt>
      <trkpt lat="46.401" lon="4.67676">
        <ele>427.874</ele>
        <time>2022-09-24T08:20:15Z</time>
      </trkpt>
      <trkpt lat="46.40094" lon="4.67687">
        <ele>427.174</ele>
        <time>2022-09-24T08:20:21Z</time>
      </trkpt>
      <trkpt lat="46.40092" lon="4.67696">
        <ele>427.674</ele>
        <time>2022-09-24T08:20:26Z</time>
      </trkpt>
      <trkpt lat="46.40088" lon="4.67705">
        <ele>427.674</ele>
        <time>2022-09-24T08:20:33Z</time>
      </trkpt>
      <trkpt lat="46.40083" lon="4.67712">
        <ele>428.074</ele>
        <time>2022-09-24T08:20:39Z</time>
      </trkpt>
      <trkpt lat="46.40075" lon="4.67717">
        <ele>430.074</ele>
        <time>2022-09-24T08:20:45Z</time>
      </trkpt>
      <trkpt lat="46.40071" lon="4.67726">
        <ele>428.574</ele>
        <time>2022-09-24T08:20:53Z</time>
      </trkpt>
      <trkpt lat="46.40072" lon="4.67737">
        <ele>427.374</ele>
        <time>2022-09-24T08:21:01Z</time>
      </trkpt>
      <trkpt lat="46.40063" lon="4.67744">
        <ele>424.874</ele>
        <time>2022-09-24T08:21:06Z</time>
      </trkpt>
      <trkpt lat="46.40057" lon="4.67751">
        <ele>423.374</ele>
        <time>2022-09-24T08:21:12Z</time>
      </trkpt>
      <trkpt lat="46.40052" lon="4.67756">
        <ele>424.574</ele>
        <time>2022-09-24T08:21:18Z</time>
      </trkpt>
      <trkpt lat="46.40048" lon="4.67766">
        <ele>426.474</ele>
        <time>2022-09-24T08:21:23Z</time>
      </trkpt>
      <trkpt lat="46.40045" lon="4.67778">
        <ele>431.274</ele>
        <time>2022-09-24T08:21:29Z</time>
      </trkpt>
      <trkpt lat="46.40042" lon="4.67786">
        <ele>432.074</ele>
        <time>2022-09-24T08:21:37Z</time>
      </trkpt>
      <trkpt lat="46.40037" lon="4.67795">
        <ele>433.074</ele>
        <time>2022-09-24T08:21:43Z</time>
      </trkpt>
      <trkpt lat="46.40033" lon="4.67802">
        <ele>434.274</ele>
        <time>2022-09-24T08:21:49Z</time>
      </trkpt>
      <trkpt lat="46.40027" lon="4.67809">
        <ele>434.674</ele>
        <time>2022-09-24T08:21:57Z</time>
      </trkpt>
      <trkpt lat="46.4002" lon="4.6781">
        <ele>436.274</ele>
        <time>2022-09-24T08:22:03Z</time>
      </trkpt>
      <trkpt lat="46.40017" lon="4.67819">
        <ele>435.574</ele>
        <time>2022-09-24T08:22:13Z</time>
      </trkpt>
      <trkpt lat="46.40013" lon="4.67828">
        <ele>434.174</ele>
        <time>2022-09-24T08:22:20Z</time>
      </trkpt>
      <trkpt lat="46.40009" lon="4.67836">
        <ele>433.174</ele>
        <time>2022-09-24T08:22:25Z</time>
      </trkpt>
      <trkpt lat="46.40002" lon="4.67842">
        <ele>432.474</ele>
        <time>2022-09-24T08:22:31Z</time>
      </trkpt>
      <trkpt lat="46.39995" lon="4.67846">
        <ele>430.574</ele>
        <time>2022-09-24T08:22:37Z</time>
      </trkpt>
      <trkpt lat="46.39989" lon="4.67846">
        <ele>430.074</ele>
        <time>2022-09-24T08:22:42Z</time>
      </trkpt>
      <trkpt lat="46.39985" lon="4.67854">
        <ele>429.874</ele>
        <time>2022-09-24T08:22:49Z</time>
      </trkpt>
      <trkpt lat="46.39981" lon="4.67862">
        <ele>432.674</ele>
        <time>2022-09-24T08:22:54Z</time>
      </trkpt>
      <trkpt lat="46.39976" lon="4.67871">
        <ele>435.574</ele>
        <time>2022-09-24T08:23:02Z</time>
      </trkpt>
      <trkpt lat="46.39971" lon="4.6788">
        <ele>435.874</ele>
        <time>2022-09-24T08:23:08Z</time>
      </trkpt>
      <trkpt lat="46.39967" lon="4.67887">
        <ele>436.174</ele>
        <time>2022-09-24T08:23:13Z</time>
      </trkpt>
      <trkpt lat="46.39961" lon="4.67891">
        <ele>438.674</ele>
        <time>2022-09-24T08:23:18Z</time>
      </trkpt>
      <trkpt lat="46.39955" lon="4.67898">
        <ele>441.474</ele>
        <time>2022-09-24T08:23:26Z</time>
      </trkpt>
      <trkpt lat="46.39949" lon="4.67903">
        <ele>442.774</ele>
        <time>2022-09-24T08:23:32Z</time>
      </trkpt>
      <trkpt lat="46.39944" lon="4.67909">
        <ele>441.774</ele>
        <time>2022-09-24T08:23:39Z</time>
      </trkpt>
      <trkpt lat="46.39938" lon="4.67914">
        <ele>440.974</ele>
        <time>2022-09-24T08:23:46Z</time>
      </trkpt>
      <trkpt lat="46.39931" lon="4.67919">
        <ele>442.574</ele>
        <time>2022-09-24T08:23:51Z</time>
      </trkpt>
      <trkpt lat="46.39925" lon="4.67928">
        <ele>444.574</ele>
        <time>2022-09-24T08:23:57Z</time>
      </trkpt>
      <trkpt lat="46.39924" lon="4.6794">
        <ele>442.874</ele>
        <time>2022-09-24T08:24:17Z</time>
      </trkpt>
      <trkpt lat="46.39915" lon="4.67943">
        <ele>445.374</ele>
        <time>2022-09-24T08:24:22Z</time>
      </trkpt>
      <trkpt lat="46.39909" lon="4.67949">
        <ele>445.774</ele>
        <time>2022-09-24T08:24:32Z</time>
      </trkpt>
      <trkpt lat="46.39905" lon="4.67959">
        <ele>445.074</ele>
        <time>2022-09-24T08:24:37Z</time>
      </trkpt>
      <trkpt lat="46.39899" lon="4.67963">
        <ele>444.674</ele>
        <time>2022-09-24T08:24:45Z</time>
      </trkpt>
      <trkpt lat="46.39892" lon="4.67965">
        <ele>444.574</ele>
        <time>2022-09-24T08:24:50Z</time>
      </trkpt>
      <trkpt lat="46.39885" lon="4.67969">
        <ele>444.474</ele>
        <time>2022-09-24T08:24:58Z</time>
      </trkpt>
      <trkpt lat="46.39879" lon="4.67972">
        <ele>443.874</ele>
        <time>2022-09-24T08:25:03Z</time>
      </trkpt>
      <trkpt lat="46.39873" lon="4.67978">
        <ele>443.674</ele>
        <time>2022-09-24T08:25:10Z</time>
      </trkpt>
      <trkpt lat="46.39862" lon="4.67979">
        <ele>443.374</ele>
        <time>2022-09-24T08:25:15Z</time>
      </trkpt>
      <trkpt lat="46.39855" lon="4.6798">
        <ele>442.874</ele>
        <time>2022-09-24T08:25:21Z</time>
      </trkpt>
      <trkpt lat="46.39849" lon="4.67986">
        <ele>441.574</ele>
        <time>2022-09-24T08:25:31Z</time>
      </trkpt>
      <trkpt lat="46.39842" lon="4.67992">
        <ele>441.874</ele>
        <time>2022-09-24T08:25:38Z</time>
      </trkpt>
      <trkpt lat="46.39836" lon="4.67996">
        <ele>442.274</ele>
        <time>2022-09-24T08:25:45Z</time>
      </trkpt>
      <trkpt lat="46.39827" lon="4.67994">
        <ele>444.974</ele>
        <time>2022-09-24T08:25:50Z</time>
      </trkpt>
      <trkpt lat="46.39821" lon="4.67998">
        <ele>444.974</ele>
        <time>2022-09-24T08:25:56Z</time>
      </trkpt>
      <trkpt lat="46.39814" lon="4.67998">
        <ele>443.274</ele>
        <time>2022-09-24T08:26:02Z</time>
      </trkpt>
      <trkpt lat="46.39808" lon="4.68001">
        <ele>442.774</ele>
        <time>2022-09-24T08:26:09Z</time>
      </trkpt>
      <trkpt lat="46.39802" lon="4.68004">
        <ele>442.674</ele>
        <time>2022-09-24T08:26:19Z</time>
      </trkpt>
      <trkpt lat="46.39795" lon="4.68005">
        <ele>442.874</ele>
        <time>2022-09-24T08:26:25Z</time>
      </trkpt>
      <trkpt lat="46.39788" lon="4.68006">
        <ele>442.974</ele>
        <time>2022-09-24T08:26:32Z</time>
      </trkpt>
      <trkpt lat="46.39781" lon="4.68009">
        <ele>441.174</ele>
        <time>2022-09-24T08:26:41Z</time>
      </trkpt>
      <trkpt lat="46.39774" lon="4.6801">
        <ele>440.474</ele>
        <time>2022-09-24T08:26:48Z</time>
      </trkpt>
      <trkpt lat="46.39765" lon="4.68006">
        <ele>442.874</ele>
        <time>2022-09-24T08:26:53Z</time>
      </trkpt>
      <trkpt lat="46.39756" lon="4.68006">
        <ele>444.374</ele>
        <time>2022-09-24T08:26:58Z</time>
      </trkpt>
      <trkpt lat="46.39749" lon="4.68008">
        <ele>447.274</ele>
        <time>2022-09-24T08:27:05Z</time>
      </trkpt>
      <trkpt lat="46.39744" lon="4.68012">
        <ele>448.074</ele>
        <time>2022-09-24T08:27:10Z</time>
      </trkpt>
      <trkpt lat="46.39737" lon="4.68017">
        <ele>446.674</ele>
        <time>2022-09-24T08:27:18Z</time>
      </trkpt>
      <trkpt lat="46.3973" lon="4.68016">
        <ele>446.174</ele>
        <time>2022-09-24T08:27:24Z</time>
      </trkpt>
      <trkpt lat="46.39722" lon="4.68017">
        <ele>446.774</ele>
        <time>2022-09-24T08:27:30Z</time>
      </trkpt>
      <trkpt lat="46.39716" lon="4.68018">
        <ele>444.774</ele>
        <time>2022-09-24T08:27:36Z</time>
      </trkpt>
      <trkpt lat="46.39709" lon="4.68019">
        <ele>443.674</ele>
        <time>2022-09-24T08:27:41Z</time>
      </trkpt>
      <trkpt lat="46.39703" lon="4.68024">
        <ele>442.374</ele>
        <time>2022-09-24T08:27:49Z</time>
      </trkpt>
      <trkpt lat="46.39696" lon="4.68029">
        <ele>442.474</ele>
        <time>2022-09-24T08:27:55Z</time>
      </trkpt>
      <trkpt lat="46.3969" lon="4.68034">
        <ele>442.074</ele>
        <time>2022-09-24T08:28:01Z</time>
      </trkpt>
      <trkpt lat="46.39682" lon="4.68037">
        <ele>442.474</ele>
        <time>2022-09-24T08:28:06Z</time>
      </trkpt>
      <trkpt lat="46.39674" lon="4.68039">
        <ele>443.374</ele>
        <time>2022-09-24T08:28:11Z</time>
      </trkpt>
      <trkpt lat="46.39669" lon="4.68047">
        <ele>444.274</ele>
        <time>2022-09-24T08:28:18Z</time>
      </trkpt>
      <trkpt lat="46.39664" lon="4.68054">
        <ele>449.174</ele>
        <time>2022-09-24T08:28:24Z</time>
      </trkpt>
      <trkpt lat="46.3966" lon="4.68063">
        <ele>449.374</ele>
        <time>2022-09-24T08:28:32Z</time>
      </trkpt>
      <trkpt lat="46.39654" lon="4.68069">
        <ele>449.974</ele>
        <time>2022-09-24T08:28:38Z</time>
      </trkpt>
      <trkpt lat="46.39647" lon="4.68075">
        <ele>450.374</ele>
        <time>2022-09-24T08:28:45Z</time>
      </trkpt>
      <trkpt lat="46.39641" lon="4.68081">
        <ele>449.874</ele>
        <time>2022-09-24T08:28:51Z</time>
      </trkpt>
      <trkpt lat="46.39635" lon="4.68087">
        <ele>449.073</ele>
        <time>2022-09-24T08:28:58Z</time>
      </trkpt>
      <trkpt lat="46.39628" lon="4.68092">
        <ele>447.773</ele>
        <time>2022-09-24T08:29:03Z</time>
      </trkpt>
      <trkpt lat="46.39622" lon="4.68098">
        <ele>448.473</ele>
        <time>2022-09-24T08:29:10Z</time>
      </trkpt>
      <trkpt lat="46.39616" lon="4.68102">
        <ele>448.573</ele>
        <time>2022-09-24T08:29:18Z</time>
      </trkpt>
      <trkpt lat="46.39619" lon="4.68112">
        <ele>450.573</ele>
        <time>2022-09-24T08:29:30Z</time>
      </trkpt>
      <trkpt lat="46.39623" lon="4.68121">
        <ele>453.773</ele>
        <time>2022-09-24T08:29:36Z</time>
      </trkpt>
      <trkpt lat="46.39621" lon="4.68111">
        <ele>453.173</ele>
        <time>2022-09-24T08:30:20Z</time>
      </trkpt>
      <trkpt lat="46.39616" lon="4.68105">
        <ele>450.073</ele>
        <time>2022-09-24T08:30:39Z</time>
      </trkpt>
      <trkpt lat="46.3961" lon="4.681">
        <ele>449.773</ele>
        <time>2022-09-24T08:30:47Z</time>
      </trkpt>
      <trkpt lat="46.39603" lon="4.68095">
        <ele>448.373</ele>
        <time>2022-09-24T08:30:58Z</time>
      </trkpt>
      <trkpt lat="46.39596" lon="4.68094">
        <ele>446.173</ele>
        <time>2022-09-24T08:31:04Z</time>
      </trkpt>
      <trkpt lat="46.39588" lon="4.68096">
        <ele>444.073</ele>
        <time>2022-09-24T08:31:09Z</time>
      </trkpt>
      <trkpt lat="46.39581" lon="4.68095">
        <ele>444.273</ele>
        <time>2022-09-24T08:31:14Z</time>
      </trkpt>
      <trkpt lat="46.39573" lon="4.68095">
        <ele>442.873</ele>
        <time>2022-09-24T08:31:22Z</time>
      </trkpt>
      <trkpt lat="46.39566" lon="4.6809">
        <ele>442.673</ele>
        <time>2022-09-24T08:31:27Z</time>
      </trkpt>
      <trkpt lat="46.3956" lon="4.68092">
        <ele>445.773</ele>
        <time>2022-09-24T08:31:45Z</time>
      </trkpt>
      <trkpt lat="46.39552" lon="4.68089">
        <ele>446.473</ele>
        <time>2022-09-24T08:31:51Z</time>
      </trkpt>
      <trkpt lat="46.39544" lon="4.68087">
        <ele>447.373</ele>
        <time>2022-09-24T08:31:57Z</time>
      </trkpt>
      <trkpt lat="46.39538" lon="4.68082">
        <ele>446.873</ele>
        <time>2022-09-24T08:32:06Z</time>
      </trkpt>
      <trkpt lat="46.3953" lon="4.68084">
        <ele>447.973</ele>
        <time>2022-09-24T08:32:12Z</time>
      </trkpt>
      <trkpt lat="46.3952" lon="4.68082">
        <ele>447.673</ele>
        <time>2022-09-24T08:32:17Z</time>
      </trkpt>
      <trkpt lat="46.39514" lon="4.68081">
        <ele>449.273</ele>
        <time>2022-09-24T08:32:25Z</time>
      </trkpt>
      <trkpt lat="46.39521" lon="4.6808">
        <ele>446.873</ele>
        <time>2022-09-24T08:32:54Z</time>
      </trkpt>
      <trkpt lat="46.39515" lon="4.68084">
        <ele>444.673</ele>
        <time>2022-09-24T08:33:14Z</time>
      </trkpt>
      <trkpt lat="46.39512" lon="4.68093">
        <ele>445.273</ele>
        <time>2022-09-24T08:33:27Z</time>
      </trkpt>
      <trkpt lat="46.3951" lon="4.68104">
        <ele>448.373</ele>
        <time>2022-09-24T08:33:33Z</time>
      </trkpt>
      <trkpt lat="46.39508" lon="4.68114">
        <ele>449.073</ele>
        <time>2022-09-24T08:33:38Z</time>
      </trkpt>
      <trkpt lat="46.39505" lon="4.68124">
        <ele>450.273</ele>
        <time>2022-09-24T08:33:45Z</time>
      </trkpt>
      <trkpt lat="46.39499" lon="4.68133">
        <ele>449.873</ele>
        <time>2022-09-24T08:33:50Z</time>
      </trkpt>
      <trkpt lat="46.39491" lon="4.68145">
        <ele>446.173</ele>
        <time>2022-09-24T08:33:58Z</time>
      </trkpt>
      <trkpt lat="46.39493" lon="4.68154">
        <ele>444.973</ele>
        <time>2022-09-24T08:34:08Z</time>
      </trkpt>
      <trkpt lat="46.39495" lon="4.68164">
        <ele>444.073</ele>
        <time>2022-09-24T08:34:16Z</time>
      </trkpt>
      <trkpt lat="46.39495" lon="4.68175">
        <ele>443.773</ele>
        <time>2022-09-24T08:34:22Z</time>
      </trkpt>
      <trkpt lat="46.39488" lon="4.68191">
        <ele>450.473</ele>
        <time>2022-09-24T08:34:28Z</time>
      </trkpt>
      <trkpt lat="46.39485" lon="4.68201">
        <ele>451.673</ele>
        <time>2022-09-24T08:34:33Z</time>
      </trkpt>
      <trkpt lat="46.39483" lon="4.6821">
        <ele>450.273</ele>
        <time>2022-09-24T08:34:39Z</time>
      </trkpt>
      <trkpt lat="46.3948" lon="4.68218">
        <ele>446.273</ele>
        <time>2022-09-24T08:34:47Z</time>
      </trkpt>
      <trkpt lat="46.39477" lon="4.68229">
        <ele>442.673</ele>
        <time>2022-09-24T08:34:52Z</time>
      </trkpt>
      <trkpt lat="46.39474" lon="4.68237">
        <ele>441.173</ele>
        <time>2022-09-24T08:34:59Z</time>
      </trkpt>
      <trkpt lat="46.39471" lon="4.68246">
        <ele>442.073</ele>
        <time>2022-09-24T08:35:05Z</time>
      </trkpt>
      <trkpt lat="46.39469" lon="4.68256">
        <ele>442.773</ele>
        <time>2022-09-24T08:35:11Z</time>
      </trkpt>
      <trkpt lat="46.39466" lon="4.68265">
        <ele>440.973</ele>
        <time>2022-09-24T08:35:17Z</time>
      </trkpt>
      <trkpt lat="46.39461" lon="4.68274">
        <ele>439.473</ele>
        <time>2022-09-24T08:35:23Z</time>
      </trkpt>
      <trkpt lat="46.39458" lon="4.68282">
        <ele>437.173</ele>
        <time>2022-09-24T08:35:28Z</time>
      </trkpt>
      <trkpt lat="46.39455" lon="4.68293">
        <ele>435.373</ele>
        <time>2022-09-24T08:35:33Z</time>
      </trkpt>
      <trkpt lat="46.39453" lon="4.68303">
        <ele>438.373</ele>
        <time>2022-09-24T08:35:38Z</time>
      </trkpt>
      <trkpt lat="46.39449" lon="4.68312">
        <ele>439.273</ele>
        <time>2022-09-24T08:35:44Z</time>
      </trkpt>
      <trkpt lat="46.39447" lon="4.68322">
        <ele>436.773</ele>
        <time>2022-09-24T08:35:51Z</time>
      </trkpt>
      <trkpt lat="46.39442" lon="4.68329">
        <ele>434.273</ele>
        <time>2022-09-24T08:35:56Z</time>
      </trkpt>
      <trkpt lat="46.39437" lon="4.68337">
        <ele>433.673</ele>
        <time>2022-09-24T08:36:02Z</time>
      </trkpt>
      <trkpt lat="46.39431" lon="4.68344">
        <ele>433.073</ele>
        <time>2022-09-24T08:36:08Z</time>
      </trkpt>
      <trkpt lat="46.39424" lon="4.6835">
        <ele>434.373</ele>
        <time>2022-09-24T08:36:13Z</time>
      </trkpt>
      <trkpt lat="46.39418" lon="4.68355">
        <ele>435.273</ele>
        <time>2022-09-24T08:36:19Z</time>
      </trkpt>
      <trkpt lat="46.39412" lon="4.68358">
        <ele>435.373</ele>
        <time>2022-09-24T08:36:25Z</time>
      </trkpt>
      <trkpt lat="46.39406" lon="4.68363">
        <ele>433.873</ele>
        <time>2022-09-24T08:36:30Z</time>
      </trkpt>
      <trkpt lat="46.39399" lon="4.68367">
        <ele>432.673</ele>
        <time>2022-09-24T08:36:37Z</time>
      </trkpt>
      <trkpt lat="46.39394" lon="4.68375">
        <ele>431.873</ele>
        <time>2022-09-24T08:36:42Z</time>
      </trkpt>
      <trkpt lat="46.39387" lon="4.68379">
        <ele>429.873</ele>
        <time>2022-09-24T08:36:48Z</time>
      </trkpt>
      <trkpt lat="46.39381" lon="4.68382">
        <ele>429.873</ele>
        <time>2022-09-24T08:36:54Z</time>
      </trkpt>
      <trkpt lat="46.39373" lon="4.68384">
        <ele>431.473</ele>
        <time>2022-09-24T08:36:59Z</time>
      </trkpt>
      <trkpt lat="46.39367" lon="4.6839">
        <ele>430.773</ele>
        <time>2022-09-24T08:37:05Z</time>
      </trkpt>
      <trkpt lat="46.39361" lon="4.68397">
        <ele>430.873</ele>
        <time>2022-09-24T08:37:12Z</time>
      </trkpt>
      <trkpt lat="46.39355" lon="4.68402">
        <ele>432.773</ele>
        <time>2022-09-24T08:37:18Z</time>
      </trkpt>
      <trkpt lat="46.39349" lon="4.68408">
        <ele>434.273</ele>
        <time>2022-09-24T08:37:25Z</time>
      </trkpt>
      <trkpt lat="46.39343" lon="4.68413">
        <ele>433.973</ele>
        <time>2022-09-24T08:37:31Z</time>
      </trkpt>
      <trkpt lat="46.39338" lon="4.68421">
        <ele>435.473</ele>
        <time>2022-09-24T08:37:37Z</time>
      </trkpt>
      <trkpt lat="46.39332" lon="4.68427">
        <ele>434.673</ele>
        <time>2022-09-24T08:37:42Z</time>
      </trkpt>
      <trkpt lat="46.39325" lon="4.68433">
        <ele>434.873</ele>
        <time>2022-09-24T08:37:48Z</time>
      </trkpt>
      <trkpt lat="46.39319" lon="4.68439">
        <ele>433.773</ele>
        <time>2022-09-24T08:37:54Z</time>
      </trkpt>
      <trkpt lat="46.39313" lon="4.68446">
        <ele>435.473</ele>
        <time>2022-09-24T08:38:00Z</time>
      </trkpt>
      <trkpt lat="46.39308" lon="4.68453">
        <ele>435.473</ele>
        <time>2022-09-24T08:38:07Z</time>
      </trkpt>
      <trkpt lat="46.393" lon="4.68455">
        <ele>434.373</ele>
        <time>2022-09-24T08:38:12Z</time>
      </trkpt>
      <trkpt lat="46.39291" lon="4.68456">
        <ele>431.773</ele>
        <time>2022-09-24T08:38:17Z</time>
      </trkpt>
      <trkpt lat="46.39284" lon="4.68456">
        <ele>428.773</ele>
        <time>2022-09-24T08:38:23Z</time>
      </trkpt>
      <trkpt lat="46.39277" lon="4.68458">
        <ele>428.573</ele>
        <time>2022-09-24T08:38:29Z</time>
      </trkpt>
      <trkpt lat="46.39272" lon="4.68464">
        <ele>426.773</ele>
        <time>2022-09-24T08:39:03Z</time>
      </trkpt>
      <trkpt lat="46.39266" lon="4.68468">
        <ele>428.073</ele>
        <time>2022-09-24T08:39:10Z</time>
      </trkpt>
      <trkpt lat="46.3926" lon="4.68474">
        <ele>430.073</ele>
        <time>2022-09-24T08:39:16Z</time>
      </trkpt>
      <trkpt lat="46.39253" lon="4.68476">
        <ele>429.773</ele>
        <time>2022-09-24T08:39:22Z</time>
      </trkpt>
      <trkpt lat="46.39244" lon="4.68478">
        <ele>429.873</ele>
        <time>2022-09-24T08:39:28Z</time>
      </trkpt>
      <trkpt lat="46.39237" lon="4.68477">
        <ele>429.473</ele>
        <time>2022-09-24T08:39:33Z</time>
      </trkpt>
      <trkpt lat="46.39231" lon="4.68472">
        <ele>430.973</ele>
        <time>2022-09-24T08:39:38Z</time>
      </trkpt>
      <trkpt lat="46.39222" lon="4.68475">
        <ele>429.873</ele>
        <time>2022-09-24T08:39:44Z</time>
      </trkpt>
      <trkpt lat="46.39215" lon="4.68478">
        <ele>427.073</ele>
        <time>2022-09-24T08:39:49Z</time>
      </trkpt>
      <trkpt lat="46.39209" lon="4.68478">
        <ele>423.473</ele>
        <time>2022-09-24T08:39:55Z</time>
      </trkpt>
      <trkpt lat="46.39202" lon="4.68479">
        <ele>420.773</ele>
        <time>2022-09-24T08:40:01Z</time>
      </trkpt>
      <trkpt lat="46.39196" lon="4.68482">
        <ele>422.973</ele>
        <time>2022-09-24T08:40:06Z</time>
      </trkpt>
      <trkpt lat="46.39188" lon="4.68481">
        <ele>425.373</ele>
        <time>2022-09-24T08:40:15Z</time>
      </trkpt>
      <trkpt lat="46.39182" lon="4.68478">
        <ele>427.673</ele>
        <time>2022-09-24T08:40:21Z</time>
      </trkpt>
      <trkpt lat="46.39174" lon="4.68474">
        <ele>426.473</ele>
        <time>2022-09-24T08:40:27Z</time>
      </trkpt>
      <trkpt lat="46.39168" lon="4.68467">
        <ele>424.373</ele>
        <time>2022-09-24T08:40:32Z</time>
      </trkpt>
      <trkpt lat="46.3916" lon="4.68463">
        <ele>424.873</ele>
        <time>2022-09-24T08:40:38Z</time>
      </trkpt>
      <trkpt lat="46.39154" lon="4.68462">
        <ele>423.973</ele>
        <time>2022-09-24T08:40:45Z</time>
      </trkpt>
      <trkpt lat="46.39147" lon="4.68457">
        <ele>424.172</ele>
        <time>2022-09-24T08:40:50Z</time>
      </trkpt>
      <trkpt lat="46.39141" lon="4.68452">
        <ele>422.472</ele>
        <time>2022-09-24T08:40:56Z</time>
      </trkpt>
      <trkpt lat="46.39133" lon="4.68452">
        <ele>419.672</ele>
        <time>2022-09-24T08:41:02Z</time>
      </trkpt>
      <trkpt lat="46.39126" lon="4.68448">
        <ele>417.272</ele>
        <time>2022-09-24T08:41:08Z</time>
      </trkpt>
      <trkpt lat="46.3912" lon="4.68444">
        <ele>416.572</ele>
        <time>2022-09-24T08:41:13Z</time>
      </trkpt>
      <trkpt lat="46.39114" lon="4.68441">
        <ele>417.972</ele>
        <time>2022-09-24T08:41:19Z</time>
      </trkpt>
      <trkpt lat="46.39107" lon="4.68433">
        <ele>419.672</ele>
        <time>2022-09-24T08:41:24Z</time>
      </trkpt>
      <trkpt lat="46.391" lon="4.68431">
        <ele>423.172</ele>
        <time>2022-09-24T08:41:31Z</time>
      </trkpt>
      <trkpt lat="46.39093" lon="4.68427">
        <ele>424.372</ele>
        <time>2022-09-24T08:41:39Z</time>
      </trkpt>
      <trkpt lat="46.39087" lon="4.68421">
        <ele>423.472</ele>
        <time>2022-09-24T08:41:45Z</time>
      </trkpt>
      <trkpt lat="46.39079" lon="4.68419">
        <ele>422.272</ele>
        <time>2022-09-24T08:41:53Z</time>
      </trkpt>
      <trkpt lat="46.39073" lon="4.68415">
        <ele>420.272</ele>
        <time>2022-09-24T08:42:45Z</time>
      </trkpt>
      <trkpt lat="46.39067" lon="4.68411">
        <ele>422.372</ele>
        <time>2022-09-24T08:43:29Z</time>
      </trkpt>
      <trkpt lat="46.39061" lon="4.68407">
        <ele>420.772</ele>
        <time>2022-09-24T08:43:40Z</time>
      </trkpt>
      <trkpt lat="46.39054" lon="4.68404">
        <ele>418.772</ele>
        <time>2022-09-24T08:43:47Z</time>
      </trkpt>
      <trkpt lat="46.39047" lon="4.68402">
        <ele>417.572</ele>
        <time>2022-09-24T08:43:53Z</time>
      </trkpt>
      <trkpt lat="46.3904" lon="4.68402">
        <ele>414.472</ele>
        <time>2022-09-24T08:43:58Z</time>
      </trkpt>
      <trkpt lat="46.39033" lon="4.68399">
        <ele>409.572</ele>
        <time>2022-09-24T08:44:05Z</time>
      </trkpt>
      <trkpt lat="46.39027" lon="4.68402">
        <ele>408.072</ele>
        <time>2022-09-24T08:44:11Z</time>
      </trkpt>
      <trkpt lat="46.3902" lon="4.68408">
        <ele>408.472</ele>
        <time>2022-09-24T08:44:17Z</time>
      </trkpt>
      <trkpt lat="46.39014" lon="4.68412">
        <ele>414.472</ele>
        <time>2022-09-24T08:44:43Z</time>
      </trkpt>
      <trkpt lat="46.39007" lon="4.68416">
        <ele>412.172</ele>
        <time>2022-09-24T08:45:13Z</time>
      </trkpt>
      <trkpt lat="46.39" lon="4.68416">
        <ele>409.772</ele>
        <time>2022-09-24T08:45:45Z</time>
      </trkpt>
      <trkpt lat="46.38992" lon="4.68415">
        <ele>409.872</ele>
        <time>2022-09-24T08:45:50Z</time>
      </trkpt>
      <trkpt lat="46.38986" lon="4.68414">
        <ele>407.972</ele>
        <time>2022-09-24T08:45:56Z</time>
      </trkpt>
      <trkpt lat="46.38979" lon="4.68414">
        <ele>405.972</ele>
        <time>2022-09-24T08:46:04Z</time>
      </trkpt>
      <trkpt lat="46.38973" lon="4.68417">
        <ele>402.472</ele>
        <time>2022-09-24T08:46:10Z</time>
      </trkpt>
      <trkpt lat="46.38965" lon="4.68421">
        <ele>398.772</ele>
        <time>2022-09-24T08:46:16Z</time>
      </trkpt>
      <trkpt lat="46.38958" lon="4.68422">
        <ele>397.772</ele>
        <time>2022-09-24T08:46:21Z</time>
      </trkpt>
      <trkpt lat="46.3895" lon="4.68421">
        <ele>399.072</ele>
        <time>2022-09-24T08:46:26Z</time>
      </trkpt>
      <trkpt lat="46.38944" lon="4.68423">
        <ele>400.672</ele>
        <time>2022-09-24T08:46:33Z</time>
      </trkpt>
      <trkpt lat="46.38936" lon="4.68423">
        <ele>400.172</ele>
        <time>2022-09-24T08:46:38Z</time>
      </trkpt>
      <trkpt lat="46.38929" lon="4.68424">
        <ele>401.272</ele>
        <time>2022-09-24T08:46:44Z</time>
      </trkpt>
      <trkpt lat="46.38922" lon="4.68428">
        <ele>401.272</ele>
        <time>2022-09-24T08:46:50Z</time>
      </trkpt>
      <trkpt lat="46.38915" lon="4.68431">
        <ele>400.872</ele>
        <time>2022-09-24T08:46:56Z</time>
      </trkpt>
      <trkpt lat="46.38909" lon="4.68434">
        <ele>400.072</ele>
        <time>2022-09-24T08:47:01Z</time>
      </trkpt>
      <trkpt lat="46.38902" lon="4.68435">
        <ele>395.172</ele>
        <time>2022-09-24T08:47:10Z</time>
      </trkpt>
      <trkpt lat="46.38895" lon="4.68437">
        <ele>394.372</ele>
        <time>2022-09-24T08:47:16Z</time>
      </trkpt>
      <trkpt lat="46.38889" lon="4.68436">
        <ele>393.672</ele>
        <time>2022-09-24T08:47:22Z</time>
      </trkpt>
      <trkpt lat="46.3888" lon="4.68437">
        <ele>394.072</ele>
        <time>2022-09-24T08:47:28Z</time>
      </trkpt>
      <trkpt lat="46.38872" lon="4.68436">
        <ele>394.972</ele>
        <time>2022-09-24T08:47:33Z</time>
      </trkpt>
      <trkpt lat="46.38866" lon="4.68436">
        <ele>393.372</ele>
        <time>2022-09-24T08:47:40Z</time>
      </trkpt>
      <trkpt lat="46.38859" lon="4.68438">
        <ele>392.672</ele>
        <time>2022-09-24T08:47:45Z</time>
      </trkpt>
      <trkpt lat="46.38851" lon="4.68438">
        <ele>391.072</ele>
        <time>2022-09-24T08:47:51Z</time>
      </trkpt>
      <trkpt lat="46.38842" lon="4.68441">
        <ele>390.272</ele>
        <time>2022-09-24T08:47:56Z</time>
      </trkpt>
      <trkpt lat="46.38835" lon="4.68443">
        <ele>389.272</ele>
        <time>2022-09-24T08:48:03Z</time>
      </trkpt>
      <trkpt lat="46.38829" lon="4.68447">
        <ele>389.072</ele>
        <time>2022-09-24T08:48:09Z</time>
      </trkpt>
      <trkpt lat="46.38823" lon="4.68443">
        <ele>390.572</ele>
        <time>2022-09-24T08:48:19Z</time>
      </trkpt>
      <trkpt lat="46.38817" lon="4.68448">
        <ele>390.272</ele>
        <time>2022-09-24T08:48:28Z</time>
      </trkpt>
      <trkpt lat="46.3881" lon="4.68451">
        <ele>390.372</ele>
        <time>2022-09-24T08:48:35Z</time>
      </trkpt>
      <trkpt lat="46.38804" lon="4.68455">
        <ele>389.172</ele>
        <time>2022-09-24T08:48:40Z</time>
      </trkpt>
      <trkpt lat="46.38797" lon="4.68459">
        <ele>387.472</ele>
        <time>2022-09-24T08:48:48Z</time>
      </trkpt>
      <trkpt lat="46.38789" lon="4.6846">
        <ele>386.472</ele>
        <time>2022-09-24T08:48:56Z</time>
      </trkpt>
      <trkpt lat="46.38783" lon="4.68462">
        <ele>385.772</ele>
        <time>2022-09-24T08:49:02Z</time>
      </trkpt>
      <trkpt lat="46.38776" lon="4.68465">
        <ele>384.672</ele>
        <time>2022-09-24T08:49:12Z</time>
      </trkpt>
      <trkpt lat="46.38769" lon="4.68467">
        <ele>383.172</ele>
        <time>2022-09-24T08:49:20Z</time>
      </trkpt>
      <trkpt lat="46.38763" lon="4.68467">
        <ele>382.671</ele>
        <time>2022-09-24T08:49:27Z</time>
      </trkpt>
      <trkpt lat="46.38756" lon="4.68468">
        <ele>379.671</ele>
        <time>2022-09-24T08:49:35Z</time>
      </trkpt>
      <trkpt lat="46.38751" lon="4.68459">
        <ele>378.071</ele>
        <time>2022-09-24T08:49:42Z</time>
      </trkpt>
      <trkpt lat="46.38748" lon="4.6847">
        <ele>379.071</ele>
        <time>2022-09-24T08:49:59Z</time>
      </trkpt>
      <trkpt lat="46.38745" lon="4.68478">
        <ele>380.871</ele>
        <time>2022-09-24T08:50:51Z</time>
      </trkpt>
      <trkpt lat="46.38739" lon="4.68482">
        <ele>378.671</ele>
        <time>2022-09-24T08:52:24Z</time>
      </trkpt>
      <trkpt lat="46.38732" lon="4.68481">
        <ele>377.871</ele>
        <time>2022-09-24T08:52:32Z</time>
      </trkpt>
      <trkpt lat="46.38725" lon="4.68481">
        <ele>377.071</ele>
        <time>2022-09-24T08:52:39Z</time>
      </trkpt>
      <trkpt lat="46.38718" lon="4.68481">
        <ele>375.771</ele>
        <time>2022-09-24T08:52:46Z</time>
      </trkpt>
      <trkpt lat="46.38711" lon="4.6848">
        <ele>372.371</ele>
        <time>2022-09-24T08:52:53Z</time>
      </trkpt>
      <trkpt lat="46.38704" lon="4.68479">
        <ele>370.471</ele>
        <time>2022-09-24T08:53:00Z</time>
      </trkpt>
      <trkpt lat="46.38696" lon="4.68477">
        <ele>368.571</ele>
        <time>2022-09-24T08:53:07Z</time>
      </trkpt>
      <trkpt lat="46.38689" lon="4.68474">
        <ele>364.771</ele>
        <time>2022-09-24T08:53:16Z</time>
      </trkpt>
      <trkpt lat="46.38682" lon="4.68472">
        <ele>364.471</ele>
        <time>2022-09-24T08:53:23Z</time>
      </trkpt>
      <trkpt lat="46.38675" lon="4.6847">
        <ele>362.871</ele>
        <time>2022-09-24T08:53:34Z</time>
      </trkpt>
      <trkpt lat="46.38668" lon="4.68472">
        <ele>362.671</ele>
        <time>2022-09-24T08:53:40Z</time>
      </trkpt>
      <trkpt lat="46.38661" lon="4.6847">
        <ele>360.471</ele>
        <time>2022-09-24T08:53:46Z</time>
      </trkpt>
      <trkpt lat="46.38654" lon="4.68469">
        <ele>359.471</ele>
        <time>2022-09-24T08:53:53Z</time>
      </trkpt>
      <trkpt lat="46.38648" lon="4.68468">
        <ele>358.171</ele>
        <time>2022-09-24T08:53:59Z</time>
      </trkpt>
      <trkpt lat="46.38641" lon="4.68466">
        <ele>356.271</ele>
        <time>2022-09-24T08:54:05Z</time>
      </trkpt>
      <trkpt lat="46.38634" lon="4.68464">
        <ele>356.371</ele>
        <time>2022-09-24T08:54:11Z</time>
      </trkpt>
      <trkpt lat="46.38628" lon="4.68466">
        <ele>355.771</ele>
        <time>2022-09-24T08:54:17Z</time>
      </trkpt>
      <trkpt lat="46.38622" lon="4.68476">
        <ele>360.271</ele>
        <time>2022-09-24T08:56:01Z</time>
      </trkpt>
      <trkpt lat="46.38619" lon="4.68484">
        <ele>359.571</ele>
        <time>2022-09-24T08:56:07Z</time>
      </trkpt>
      <trkpt lat="46.38617" lon="4.68494">
        <ele>358.171</ele>
        <time>2022-09-24T08:56:13Z</time>
      </trkpt>
      <trkpt lat="46.38615" lon="4.68504">
        <ele>358.371</ele>
        <time>2022-09-24T08:56:19Z</time>
      </trkpt>
      <trkpt lat="46.38613" lon="4.68513">
        <ele>357.971</ele>
        <time>2022-09-24T08:56:26Z</time>
      </trkpt>
      <trkpt lat="46.38611" lon="4.68523">
        <ele>357.471</ele>
        <time>2022-09-24T08:56:35Z</time>
      </trkpt>
      <trkpt lat="46.38609" lon="4.68532">
        <ele>356.271</ele>
        <time>2022-09-24T08:56:42Z</time>
      </trkpt>
      <trkpt lat="46.38602" lon="4.68531">
        <ele>355.571</ele>
        <time>2022-09-24T08:57:16Z</time>
      </trkpt>
      <trkpt lat="46.38596" lon="4.68528">
        <ele>353.471</ele>
        <time>2022-09-24T08:57:33Z</time>
      </trkpt>
      <trkpt lat="46.38589" lon="4.68527">
        <ele>351.271</ele>
        <time>2022-09-24T08:57:39Z</time>
      </trkpt>
      <trkpt lat="46.38582" lon="4.68527">
        <ele>349.971</ele>
        <time>2022-09-24T08:57:46Z</time>
      </trkpt>
      <trkpt lat="46.38575" lon="4.68527">
        <ele>348.571</ele>
        <time>2022-09-24T08:57:53Z</time>
      </trkpt>
      <trkpt lat="46.38568" lon="4.68526">
        <ele>346.571</ele>
        <time>2022-09-24T08:58:01Z</time>
      </trkpt>
      <trkpt lat="46.38561" lon="4.68526">
        <ele>344.871</ele>
        <time>2022-09-24T08:58:08Z</time>
      </trkpt>
      <trkpt lat="46.38554" lon="4.68524">
        <ele>346.071</ele>
        <time>2022-09-24T08:58:15Z</time>
      </trkpt>
      <trkpt lat="46.38551" lon="4.68515">
        <ele>347.071</ele>
        <time>2022-09-24T08:58:20Z</time>
      </trkpt>
      <trkpt lat="46.38549" lon="4.68505">
        <ele>347.071</ele>
        <time>2022-09-24T08:58:26Z</time>
      </trkpt>
      <trkpt lat="46.38543" lon="4.68499">
        <ele>345.671</ele>
        <time>2022-09-24T08:58:46Z</time>
      </trkpt>
      <trkpt lat="46.38536" lon="4.68496">
        <ele>344.671</ele>
        <time>2022-09-24T08:58:56Z</time>
      </trkpt>
      <trkpt lat="46.38529" lon="4.68493">
        <ele>344.471</ele>
        <time>2022-09-24T08:59:02Z</time>
      </trkpt>
      <trkpt lat="46.38523" lon="4.68491">
        <ele>344.371</ele>
        <time>2022-09-24T08:59:08Z</time>
      </trkpt>
      <trkpt lat="46.38516" lon="4.68492">
        <ele>344.271</ele>
        <time>2022-09-24T08:59:15Z</time>
      </trkpt>
      <trkpt lat="46.38508" lon="4.68491">
        <ele>343.471</ele>
        <time>2022-09-24T08:59:21Z</time>
      </trkpt>
      <trkpt lat="46.38501" lon="4.68492">
        <ele>342.571</ele>
        <time>2022-09-24T08:59:27Z</time>
      </trkpt>
      <trkpt lat="46.38494" lon="4.6849">
        <ele>342.571</ele>
        <time>2022-09-24T08:59:34Z</time>
      </trkpt>
      <trkpt lat="46.38491" lon="4.68499">
        <ele>343.071</ele>
        <time>2022-09-24T08:59:50Z</time>
      </trkpt>
      <trkpt lat="46.38494" lon="4.68508">
        <ele>343.571</ele>
        <time>2022-09-24T08:59:56Z</time>
      </trkpt>
      <trkpt lat="46.38497" lon="4.68516">
        <ele>343.971</ele>
        <time>2022-09-24T09:00:02Z</time>
      </trkpt>
      <trkpt lat="46.38499" lon="4.68525">
        <ele>343.271</ele>
        <time>2022-09-24T09:00:08Z</time>
      </trkpt>
      <trkpt lat="46.38503" lon="4.68534">
        <ele>342.871</ele>
        <time>2022-09-24T09:00:14Z</time>
      </trkpt>
      <trkpt lat="46.38506" lon="4.68543">
        <ele>342.371</ele>
        <time>2022-09-24T09:00:20Z</time>
      </trkpt>
      <trkpt lat="46.3851" lon="4.68552">
        <ele>342.271</ele>
        <time>2022-09-24T09:00:27Z</time>
      </trkpt>
      <trkpt lat="46.38514" lon="4.68561">
        <ele>342.971</ele>
        <time>2022-09-24T09:00:32Z</time>
      </trkpt>
      <trkpt lat="46.38519" lon="4.68568">
        <ele>344.571</ele>
        <time>2022-09-24T09:00:38Z</time>
      </trkpt>
      <trkpt lat="46.38523" lon="4.68576">
        <ele>343.971</ele>
        <time>2022-09-24T09:00:44Z</time>
      </trkpt>
      <trkpt lat="46.3853" lon="4.68579">
        <ele>342.771</ele>
        <time>2022-09-24T09:00:50Z</time>
      </trkpt>
      <trkpt lat="46.38537" lon="4.68584">
        <ele>344.471</ele>
        <time>2022-09-24T09:00:56Z</time>
      </trkpt>
      <trkpt lat="46.38545" lon="4.68588">
        <ele>344.871</ele>
        <time>2022-09-24T09:01:01Z</time>
      </trkpt>
      <trkpt lat="46.38552" lon="4.68593">
        <ele>344.971</ele>
        <time>2022-09-24T09:01:08Z</time>
      </trkpt>
      <trkpt lat="46.38557" lon="4.68599">
        <ele>344.171</ele>
        <time>2022-09-24T09:01:13Z</time>
      </trkpt>
      <trkpt lat="46.38562" lon="4.68605">
        <ele>342.471</ele>
        <time>2022-09-24T09:01:18Z</time>
      </trkpt>
      <trkpt lat="46.38567" lon="4.68613">
        <ele>342.771</ele>
        <time>2022-09-24T09:01:24Z</time>
      </trkpt>
      <trkpt lat="46.38571" lon="4.68621">
        <ele>341.171</ele>
        <time>2022-09-24T09:01:29Z</time>
      </trkpt>
      <trkpt lat="46.38573" lon="4.68631">
        <ele>340.471</ele>
        <time>2022-09-24T09:01:34Z</time>
      </trkpt>
      <trkpt lat="46.38572" lon="4.68645">
        <ele>339.671</ele>
        <time>2022-09-24T09:01:40Z</time>
      </trkpt>
      <trkpt lat="46.38571" lon="4.68655">
        <ele>340.471</ele>
        <time>2022-09-24T09:01:47Z</time>
      </trkpt>
      <trkpt lat="46.38569" lon="4.68665">
        <ele>341.971</ele>
        <time>2022-09-24T09:01:54Z</time>
      </trkpt>
      <trkpt lat="46.38567" lon="4.68676">
        <ele>343.471</ele>
        <time>2022-09-24T09:02:00Z</time>
      </trkpt>
      <trkpt lat="46.38567" lon="4.68686">
        <ele>344.271</ele>
        <time>2022-09-24T09:02:05Z</time>
      </trkpt>
      <trkpt lat="46.38565" lon="4.68695">
        <ele>344.671</ele>
        <time>2022-09-24T09:02:11Z</time>
      </trkpt>
      <trkpt lat="46.38565" lon="4.68705">
        <ele>343.171</ele>
        <time>2022-09-24T09:02:21Z</time>
      </trkpt>
      <trkpt lat="46.38563" lon="4.68715">
        <ele>343.971</ele>
        <time>2022-09-24T09:02:27Z</time>
      </trkpt>
      <trkpt lat="46.38561" lon="4.68724">
        <ele>344.671</ele>
        <time>2022-09-24T09:02:33Z</time>
      </trkpt>
      <trkpt lat="46.38557" lon="4.68733">
        <ele>345.671</ele>
        <time>2022-09-24T09:02:39Z</time>
      </trkpt>
      <trkpt lat="46.38555" lon="4.68743">
        <ele>346.171</ele>
        <time>2022-09-24T09:02:48Z</time>
      </trkpt>
      <trkpt lat="46.38552" lon="4.68752">
        <ele>345.671</ele>
        <time>2022-09-24T09:02:56Z</time>
      </trkpt>
      <trkpt lat="46.38552" lon="4.68761">
        <ele>344.871</ele>
        <time>2022-09-24T09:03:05Z</time>
      </trkpt>
      <trkpt lat="46.38547" lon="4.68769">
        <ele>346.571</ele>
        <time>2022-09-24T09:03:14Z</time>
      </trkpt>
      <trkpt lat="46.3854" lon="4.68774">
        <ele>348.271</ele>
        <time>2022-09-24T09:03:21Z</time>
      </trkpt>
      <trkpt lat="46.38533" lon="4.68776">
        <ele>349.771</ele>
        <time>2022-09-24T09:03:30Z</time>
      </trkpt>
      <trkpt lat="46.38526" lon="4.68777">
        <ele>350.671</ele>
        <time>2022-09-24T09:03:36Z</time>
      </trkpt>
      <trkpt lat="46.38519" lon="4.68778">
        <ele>352.571</ele>
        <time>2022-09-24T09:03:44Z</time>
      </trkpt>
      <trkpt lat="46.38512" lon="4.68778">
        <ele>356.171</ele>
        <time>2022-09-24T09:03:52Z</time>
      </trkpt>
      <trkpt lat="46.38506" lon="4.68782">
        <ele>358.471</ele>
        <time>2022-09-24T09:04:03Z</time>
      </trkpt>
      <trkpt lat="46.385" lon="4.68784">
        <ele>357.471</ele>
        <time>2022-09-24T09:04:14Z</time>
      </trkpt>
      <trkpt lat="46.38493" lon="4.68788">
        <ele>354.771</ele>
        <time>2022-09-24T09:04:22Z</time>
      </trkpt>
      <trkpt lat="46.38487" lon="4.68788">
        <ele>352.871</ele>
        <time>2022-09-24T09:04:30Z</time>
      </trkpt>
      <trkpt lat="46.3848" lon="4.68788">
        <ele>353.171</ele>
        <time>2022-09-24T09:04:36Z</time>
      </trkpt>
      <trkpt lat="46.38473" lon="4.68789">
        <ele>353.171</ele>
        <time>2022-09-24T09:04:42Z</time>
      </trkpt>
      <trkpt lat="46.38466" lon="4.68792">
        <ele>352.971</ele>
        <time>2022-09-24T09:04:49Z</time>
      </trkpt>
      <trkpt lat="46.3846" lon="4.68796">
        <ele>352.571</ele>
        <time>2022-09-24T09:04:55Z</time>
      </trkpt>
      <trkpt lat="46.38454" lon="4.688">
        <ele>351.671</ele>
        <time>2022-09-24T09:05:02Z</time>
      </trkpt>
      <trkpt lat="46.38449" lon="4.68807">
        <ele>351.171</ele>
        <time>2022-09-24T09:05:10Z</time>
      </trkpt>
      <trkpt lat="46.38442" lon="4.68811">
        <ele>351.671</ele>
        <time>2022-09-24T09:05:17Z</time>
      </trkpt>
      <trkpt lat="46.38437" lon="4.68818">
        <ele>349.971</ele>
        <time>2022-09-24T09:05:24Z</time>
      </trkpt>
      <trkpt lat="46.38431" lon="4.68823">
        <ele>350.271</ele>
        <time>2022-09-24T09:05:30Z</time>
      </trkpt>
      <trkpt lat="46.38424" lon="4.68827">
        <ele>349.171</ele>
        <time>2022-09-24T09:05:39Z</time>
      </trkpt>
      <trkpt lat="46.38419" lon="4.68836">
        <ele>348.171</ele>
        <time>2022-09-24T09:05:46Z</time>
      </trkpt>
      <trkpt lat="46.38415" lon="4.68844">
        <ele>348.871</ele>
        <time>2022-09-24T09:05:53Z</time>
      </trkpt>
      <trkpt lat="46.38412" lon="4.68852">
        <ele>349.971</ele>
        <time>2022-09-24T09:05:59Z</time>
      </trkpt>
      <trkpt lat="46.3841" lon="4.68861">
        <ele>349.171</ele>
        <time>2022-09-24T09:06:07Z</time>
      </trkpt>
      <trkpt lat="46.38409" lon="4.68871">
        <ele>351.071</ele>
        <time>2022-09-24T09:06:16Z</time>
      </trkpt>
      <trkpt lat="46.38409" lon="4.68882">
        <ele>350.671</ele>
        <time>2022-09-24T09:06:22Z</time>
      </trkpt>
      <trkpt lat="46.38411" lon="4.68892">
        <ele>352.171</ele>
        <time>2022-09-24T09:06:28Z</time>
      </trkpt>
      <trkpt lat="46.38413" lon="4.68902">
        <ele>351.771</ele>
        <time>2022-09-24T09:06:35Z</time>
      </trkpt>
      <trkpt lat="46.38415" lon="4.68911">
        <ele>351.171</ele>
        <time>2022-09-24T09:06:42Z</time>
      </trkpt>
      <trkpt lat="46.38416" lon="4.68922">
        <ele>350.271</ele>
        <time>2022-09-24T09:06:48Z</time>
      </trkpt>
      <trkpt lat="46.38417" lon="4.68933">
        <ele>352.171</ele>
        <time>2022-09-24T09:06:54Z</time>
      </trkpt>
      <trkpt lat="46.38419" lon="4.68943">
        <ele>353.371</ele>
        <time>2022-09-24T09:07:00Z</time>
      </trkpt>
      <trkpt lat="46.38421" lon="4.68952">
        <ele>357.471</ele>
        <time>2022-09-24T09:07:11Z</time>
      </trkpt>
      <trkpt lat="46.38421" lon="4.68962">
        <ele>356.471</ele>
        <time>2022-09-24T09:07:16Z</time>
      </trkpt>
      <trkpt lat="46.38421" lon="4.68973">
        <ele>354.371</ele>
        <time>2022-09-24T09:07:26Z</time>
      </trkpt>
      <trkpt lat="46.38429" lon="4.68979">
        <ele>352.471</ele>
        <time>2022-09-24T09:07:52Z</time>
      </trkpt>
      <trkpt lat="46.38435" lon="4.68979">
        <ele>352.371</ele>
        <time>2022-09-24T09:08:24Z</time>
      </trkpt>
      <trkpt lat="46.38442" lon="4.6898">
        <ele>351.071</ele>
        <time>2022-09-24T09:08:31Z</time>
      </trkpt>
      <trkpt lat="46.38449" lon="4.6898">
        <ele>351.771</ele>
        <time>2022-09-24T09:08:37Z</time>
      </trkpt>
      <trkpt lat="46.38456" lon="4.6898">
        <ele>353.271</ele>
        <time>2022-09-24T09:08:44Z</time>
      </trkpt>
      <trkpt lat="46.38463" lon="4.68982">
        <ele>356.271</ele>
        <time>2022-09-24T09:08:52Z</time>
      </trkpt>
      <trkpt lat="46.3847" lon="4.68982">
        <ele>355.871</ele>
        <time>2022-09-24T09:08:59Z</time>
      </trkpt>
      <trkpt lat="46.38476" lon="4.68981">
        <ele>355.271</ele>
        <time>2022-09-24T09:09:04Z</time>
      </trkpt>
      <trkpt lat="46.38483" lon="4.6898">
        <ele>355.171</ele>
        <time>2022-09-24T09:09:11Z</time>
      </trkpt>
      <trkpt lat="46.3849" lon="4.68981">
        <ele>356.971</ele>
        <time>2022-09-24T09:09:18Z</time>
      </trkpt>
      <trkpt lat="46.38497" lon="4.68981">
        <ele>358.271</ele>
        <time>2022-09-24T09:09:24Z</time>
      </trkpt>
      <trkpt lat="46.38504" lon="4.68982">
        <ele>358.571</ele>
        <time>2022-09-24T09:09:30Z</time>
      </trkpt>
      <trkpt lat="46.38511" lon="4.68985">
        <ele>360.171</ele>
        <time>2022-09-24T09:09:37Z</time>
      </trkpt>
      <trkpt lat="46.38518" lon="4.68985">
        <ele>361.571</ele>
        <time>2022-09-24T09:09:44Z</time>
      </trkpt>
      <trkpt lat="46.38525" lon="4.68987">
        <ele>363.971</ele>
        <time>2022-09-24T09:09:52Z</time>
      </trkpt>
      <trkpt lat="46.38531" lon="4.68987">
        <ele>366.171</ele>
        <time>2022-09-24T09:10:00Z</time>
      </trkpt>
      <trkpt lat="46.38539" lon="4.68985">
        <ele>365.571</ele>
        <time>2022-09-24T09:10:08Z</time>
      </trkpt>
      <trkpt lat="46.38546" lon="4.68985">
        <ele>365.971</ele>
        <time>2022-09-24T09:10:16Z</time>
      </trkpt>
      <trkpt lat="46.38553" lon="4.68984">
        <ele>366.071</ele>
        <time>2022-09-24T09:10:26Z</time>
      </trkpt>
      <trkpt lat="46.38559" lon="4.68983">
        <ele>366.571</ele>
        <time>2022-09-24T09:10:33Z</time>
      </trkpt>
      <trkpt lat="46.38566" lon="4.68983">
        <ele>367.071</ele>
        <time>2022-09-24T09:10:38Z</time>
      </trkpt>
      <trkpt lat="46.38573" lon="4.68981">
        <ele>366.771</ele>
        <time>2022-09-24T09:10:45Z</time>
      </trkpt>
      <trkpt lat="46.3858" lon="4.6898">
        <ele>366.971</ele>
        <time>2022-09-24T09:10:52Z</time>
      </trkpt>
      <trkpt lat="46.38587" lon="4.6898">
        <ele>367.471</ele>
        <time>2022-09-24T09:10:57Z</time>
      </trkpt>
      <trkpt lat="46.38594" lon="4.6898">
        <ele>368.171</ele>
        <time>2022-09-24T09:11:03Z</time>
      </trkpt>
      <trkpt lat="46.38601" lon="4.68978">
        <ele>370.071</ele>
        <time>2022-09-24T09:11:10Z</time>
      </trkpt>
      <trkpt lat="46.38609" lon="4.68979">
        <ele>372.071</ele>
        <time>2022-09-24T09:11:18Z</time>
      </trkpt>
      <trkpt lat="46.38616" lon="4.68981">
        <ele>374.072</ele>
        <time>2022-09-24T09:11:26Z</time>
      </trkpt>
      <trkpt lat="46.38622" lon="4.6898">
        <ele>375.172</ele>
        <time>2022-09-24T09:11:34Z</time>
      </trkpt>
      <trkpt lat="46.3863" lon="4.68982">
        <ele>374.972</ele>
        <time>2022-09-24T09:11:43Z</time>
      </trkpt>
      <trkpt lat="46.38636" lon="4.68983">
        <ele>376.772</ele>
        <time>2022-09-24T09:11:51Z</time>
      </trkpt>
      <trkpt lat="46.38643" lon="4.68984">
        <ele>379.172</ele>
        <time>2022-09-24T09:11:57Z</time>
      </trkpt>
      <trkpt lat="46.3865" lon="4.68986">
        <ele>380.172</ele>
        <time>2022-09-24T09:12:05Z</time>
      </trkpt>
      <trkpt lat="46.38656" lon="4.68987">
        <ele>380.472</ele>
        <time>2022-09-24T09:12:11Z</time>
      </trkpt>
      <trkpt lat="46.38663" lon="4.68988">
        <ele>379.372</ele>
        <time>2022-09-24T09:12:17Z</time>
      </trkpt>
      <trkpt lat="46.3867" lon="4.68989">
        <ele>377.972</ele>
        <time>2022-09-24T09:12:22Z</time>
      </trkpt>
      <trkpt lat="46.38677" lon="4.68991">
        <ele>378.372</ele>
        <time>2022-09-24T09:12:29Z</time>
      </trkpt>
      <trkpt lat="46.38683" lon="4.68993">
        <ele>379.372</ele>
        <time>2022-09-24T09:12:35Z</time>
      </trkpt>
      <trkpt lat="46.3869" lon="4.68994">
        <ele>380.272</ele>
        <time>2022-09-24T09:12:41Z</time>
      </trkpt>
      <trkpt lat="46.38697" lon="4.68997">
        <ele>382.072</ele>
        <time>2022-09-24T09:12:49Z</time>
      </trkpt>
      <trkpt lat="46.38704" lon="4.68998">
        <ele>382.772</ele>
        <time>2022-09-24T09:12:57Z</time>
      </trkpt>
      <trkpt lat="46.38711" lon="4.68998">
        <ele>382.772</ele>
        <time>2022-09-24T09:13:04Z</time>
      </trkpt>
      <trkpt lat="46.38717" lon="4.69001">
        <ele>383.472</ele>
        <time>2022-09-24T09:13:10Z</time>
      </trkpt>
      <trkpt lat="46.38724" lon="4.69003">
        <ele>385.772</ele>
        <time>2022-09-24T09:13:16Z</time>
      </trkpt>
      <trkpt lat="46.38731" lon="4.69004">
        <ele>387.172</ele>
        <time>2022-09-24T09:13:22Z</time>
      </trkpt>
      <trkpt lat="46.38737" lon="4.69005">
        <ele>387.872</ele>
        <time>2022-09-24T09:13:29Z</time>
      </trkpt>
      <trkpt lat="46.38744" lon="4.69006">
        <ele>388.672</ele>
        <time>2022-09-24T09:13:36Z</time>
      </trkpt>
      <trkpt lat="46.3875" lon="4.6901">
        <ele>388.772</ele>
        <time>2022-09-24T09:13:46Z</time>
      </trkpt>
      <trkpt lat="46.38753" lon="4.69019">
        <ele>389.872</ele>
        <time>2022-09-24T09:13:53Z</time>
      </trkpt>
      <trkpt lat="46.38756" lon="4.69029">
        <ele>390.872</ele>
        <time>2022-09-24T09:14:01Z</time>
      </trkpt>
      <trkpt lat="46.38758" lon="4.69019">
        <ele>388.572</ele>
        <time>2022-09-24T09:15:09Z</time>
      </trkpt>
      <trkpt lat="46.38756" lon="4.69033">
        <ele>388.472</ele>
        <time>2022-09-24T09:15:58Z</time>
      </trkpt>
      <trkpt lat="46.38759" lon="4.69023">
        <ele>385.172</ele>
        <time>2022-09-24T09:17:13Z</time>
      </trkpt>
      <trkpt lat="46.38762" lon="4.69014">
        <ele>385.872</ele>
        <time>2022-09-24T09:17:24Z</time>
      </trkpt>
      <trkpt lat="46.38766" lon="4.69006">
        <ele>385.972</ele>
        <time>2022-09-24T09:17:32Z</time>
      </trkpt>
      <trkpt lat="46.3877" lon="4.68997">
        <ele>385.672</ele>
        <time>2022-09-24T09:17:40Z</time>
      </trkpt>
      <trkpt lat="46.38776" lon="4.68993">
        <ele>388.672</ele>
        <time>2022-09-24T09:18:04Z</time>
      </trkpt>
      <trkpt lat="46.38776" lon="4.68982">
        <ele>387.772</ele>
        <time>2022-09-24T09:18:20Z</time>
      </trkpt>
      <trkpt lat="46.38778" lon="4.68973">
        <ele>387.972</ele>
        <time>2022-09-24T09:18:25Z</time>
      </trkpt>
      <trkpt lat="46.38781" lon="4.68963">
        <ele>388.172</ele>
        <time>2022-09-24T09:18:32Z</time>
      </trkpt>
      <trkpt lat="46.38783" lon="4.68954">
        <ele>390.772</ele>
        <time>2022-09-24T09:18:41Z</time>
      </trkpt>
      <trkpt lat="46.38783" lon="4.68944">
        <ele>394.372</ele>
        <time>2022-09-24T09:18:55Z</time>
      </trkpt>
      <trkpt lat="46.38788" lon="4.68937">
        <ele>392.972</ele>
        <time>2022-09-24T09:19:07Z</time>
      </trkpt>
      <trkpt lat="46.38795" lon="4.68936">
        <ele>395.872</ele>
        <time>2022-09-24T09:19:14Z</time>
      </trkpt>
      <trkpt lat="46.38788" lon="4.68937">
        <ele>391.772</ele>
        <time>2022-09-24T09:20:25Z</time>
      </trkpt>
      <trkpt lat="46.38795" lon="4.68937">
        <ele>396.672</ele>
        <time>2022-09-24T09:23:04Z</time>
      </trkpt>
      <trkpt lat="46.38802" lon="4.68938">
        <ele>396.472</ele>
        <time>2022-09-24T09:23:15Z</time>
      </trkpt>
      <trkpt lat="46.38808" lon="4.68942">
        <ele>395.972</ele>
        <time>2022-09-24T09:23:24Z</time>
      </trkpt>
      <trkpt lat="46.38815" lon="4.68944">
        <ele>396.272</ele>
        <time>2022-09-24T09:23:32Z</time>
      </trkpt>
      <trkpt lat="46.38822" lon="4.68946">
        <ele>397.972</ele>
        <time>2022-09-24T09:23:41Z</time>
      </trkpt>
      <trkpt lat="46.38828" lon="4.6895">
        <ele>399.872</ele>
        <time>2022-09-24T09:23:50Z</time>
      </trkpt>
      <trkpt lat="46.38835" lon="4.68952">
        <ele>401.472</ele>
        <time>2022-09-24T09:23:59Z</time>
      </trkpt>
      <trkpt lat="46.38841" lon="4.68953">
        <ele>400.972</ele>
        <time>2022-09-24T09:24:08Z</time>
      </trkpt>
      <trkpt lat="46.38848" lon="4.68953">
        <ele>400.772</ele>
        <time>2022-09-24T09:24:15Z</time>
      </trkpt>
      <trkpt lat="46.38855" lon="4.68953">
        <ele>401.572</ele>
        <time>2022-09-24T09:24:23Z</time>
      </trkpt>
      <trkpt lat="46.38861" lon="4.68958">
        <ele>403.272</ele>
        <time>2022-09-24T09:24:30Z</time>
      </trkpt>
      <trkpt lat="46.38868" lon="4.6896">
        <ele>404.272</ele>
        <time>2022-09-24T09:24:38Z</time>
      </trkpt>
      <trkpt lat="46.38875" lon="4.68964">
        <ele>404.872</ele>
        <time>2022-09-24T09:24:47Z</time>
      </trkpt>
      <trkpt lat="46.38881" lon="4.68967">
        <ele>405.872</ele>
        <time>2022-09-24T09:24:54Z</time>
      </trkpt>
      <trkpt lat="46.38886" lon="4.68973">
        <ele>407.872</ele>
        <time>2022-09-24T09:25:00Z</time>
      </trkpt>
      <trkpt lat="46.38892" lon="4.68978">
        <ele>407.972</ele>
        <time>2022-09-24T09:25:07Z</time>
      </trkpt>
      <trkpt lat="46.38897" lon="4.68985">
        <ele>410.672</ele>
        <time>2022-09-24T09:25:14Z</time>
      </trkpt>
      <trkpt lat="46.38902" lon="4.68991">
        <ele>410.572</ele>
        <time>2022-09-24T09:25:22Z</time>
      </trkpt>
      <trkpt lat="46.38907" lon="4.68998">
        <ele>409.572</ele>
        <time>2022-09-24T09:25:29Z</time>
      </trkpt>
      <trkpt lat="46.38912" lon="4.69005">
        <ele>410.072</ele>
        <time>2022-09-24T09:25:36Z</time>
      </trkpt>
      <trkpt lat="46.38917" lon="4.69011">
        <ele>409.872</ele>
        <time>2022-09-24T09:25:44Z</time>
      </trkpt>
      <trkpt lat="46.38924" lon="4.69015">
        <ele>410.272</ele>
        <time>2022-09-24T09:25:50Z</time>
      </trkpt>
      <trkpt lat="46.3893" lon="4.69022">
        <ele>413.472</ele>
        <time>2022-09-24T09:25:56Z</time>
      </trkpt>
      <trkpt lat="46.38935" lon="4.69028">
        <ele>414.972</ele>
        <time>2022-09-24T09:26:04Z</time>
      </trkpt>
      <trkpt lat="46.38942" lon="4.69033">
        <ele>414.172</ele>
        <time>2022-09-24T09:26:11Z</time>
      </trkpt>
      <trkpt lat="46.38948" lon="4.69038">
        <ele>413.872</ele>
        <time>2022-09-24T09:26:17Z</time>
      </trkpt>
      <trkpt lat="46.38954" lon="4.69041">
        <ele>413.772</ele>
        <time>2022-09-24T09:26:23Z</time>
      </trkpt>
      <trkpt lat="46.3896" lon="4.69047">
        <ele>415.072</ele>
        <time>2022-09-24T09:26:30Z</time>
      </trkpt>
      <trkpt lat="46.38967" lon="4.69051">
        <ele>416.772</ele>
        <time>2022-09-24T09:26:37Z</time>
      </trkpt>
      <trkpt lat="46.38973" lon="4.69055">
        <ele>417.573</ele>
        <time>2022-09-24T09:26:43Z</time>
      </trkpt>
      <trkpt lat="46.38979" lon="4.69059">
        <ele>417.773</ele>
        <time>2022-09-24T09:26:49Z</time>
      </trkpt>
      <trkpt lat="46.38985" lon="4.69064">
        <ele>418.273</ele>
        <time>2022-09-24T09:26:55Z</time>
      </trkpt>
      <trkpt lat="46.38991" lon="4.69068">
        <ele>418.773</ele>
        <time>2022-09-24T09:27:02Z</time>
      </trkpt>
      <trkpt lat="46.38997" lon="4.69074">
        <ele>420.573</ele>
        <time>2022-09-24T09:27:08Z</time>
      </trkpt>
      <trkpt lat="46.39003" lon="4.6908">
        <ele>422.173</ele>
        <time>2022-09-24T09:27:14Z</time>
      </trkpt>
      <trkpt lat="46.39011" lon="4.6908">
        <ele>421.573</ele>
        <time>2022-09-24T09:27:21Z</time>
      </trkpt>
      <trkpt lat="46.39017" lon="4.6908">
        <ele>420.873</ele>
        <time>2022-09-24T09:27:27Z</time>
      </trkpt>
      <trkpt lat="46.39024" lon="4.69083">
        <ele>422.173</ele>
        <time>2022-09-24T09:27:33Z</time>
      </trkpt>
      <trkpt lat="46.39031" lon="4.69084">
        <ele>422.973</ele>
        <time>2022-09-24T09:27:38Z</time>
      </trkpt>
      <trkpt lat="46.39038" lon="4.69085">
        <ele>422.373</ele>
        <time>2022-09-24T09:27:44Z</time>
      </trkpt>
      <trkpt lat="46.39045" lon="4.69087">
        <ele>423.273</ele>
        <time>2022-09-24T09:27:50Z</time>
      </trkpt>
      <trkpt lat="46.39052" lon="4.69088">
        <ele>422.973</ele>
        <time>2022-09-24T09:27:56Z</time>
      </trkpt>
      <trkpt lat="46.39059" lon="4.69088">
        <ele>422.973</ele>
        <time>2022-09-24T09:28:02Z</time>
      </trkpt>
      <trkpt lat="46.39068" lon="4.69088">
        <ele>423.673</ele>
        <time>2022-09-24T09:28:08Z</time>
      </trkpt>
      <trkpt lat="46.39075" lon="4.69087">
        <ele>424.773</ele>
        <time>2022-09-24T09:28:14Z</time>
      </trkpt>
      <trkpt lat="46.39082" lon="4.69089">
        <ele>426.773</ele>
        <time>2022-09-24T09:28:21Z</time>
      </trkpt>
      <trkpt lat="46.39088" lon="4.69092">
        <ele>426.873</ele>
        <time>2022-09-24T09:28:27Z</time>
      </trkpt>
      <trkpt lat="46.39094" lon="4.69098">
        <ele>428.173</ele>
        <time>2022-09-24T09:28:34Z</time>
      </trkpt>
      <trkpt lat="46.39101" lon="4.69101">
        <ele>428.373</ele>
        <time>2022-09-24T09:28:40Z</time>
      </trkpt>
      <trkpt lat="46.39108" lon="4.69103">
        <ele>428.373</ele>
        <time>2022-09-24T09:28:46Z</time>
      </trkpt>
      <trkpt lat="46.39114" lon="4.69106">
        <ele>429.073</ele>
        <time>2022-09-24T09:28:52Z</time>
      </trkpt>
      <trkpt lat="46.39121" lon="4.69111">
        <ele>430.973</ele>
        <time>2022-09-24T09:28:59Z</time>
      </trkpt>
      <trkpt lat="46.39128" lon="4.69116">
        <ele>431.673</ele>
        <time>2022-09-24T09:29:07Z</time>
      </trkpt>
      <trkpt lat="46.39133" lon="4.69121">
        <ele>432.373</ele>
        <time>2022-09-24T09:29:13Z</time>
      </trkpt>
      <trkpt lat="46.39138" lon="4.69129">
        <ele>433.473</ele>
        <time>2022-09-24T09:29:21Z</time>
      </trkpt>
      <trkpt lat="46.39143" lon="4.69138">
        <ele>432.473</ele>
        <time>2022-09-24T09:29:29Z</time>
      </trkpt>
      <trkpt lat="46.39147" lon="4.69146">
        <ele>434.373</ele>
        <time>2022-09-24T09:29:37Z</time>
      </trkpt>
      <trkpt lat="46.39145" lon="4.69156">
        <ele>437.373</ele>
        <time>2022-09-24T09:30:48Z</time>
      </trkpt>
      <trkpt lat="46.39148" lon="4.69165">
        <ele>437.273</ele>
        <time>2022-09-24T09:30:55Z</time>
      </trkpt>
      <trkpt lat="46.39149" lon="4.69174">
        <ele>437.273</ele>
        <time>2022-09-24T09:31:01Z</time>
      </trkpt>
      <trkpt lat="46.39149" lon="4.69184">
        <ele>437.773</ele>
        <time>2022-09-24T09:31:08Z</time>
      </trkpt>
      <trkpt lat="46.39149" lon="4.69195">
        <ele>438.773</ele>
        <time>2022-09-24T09:31:15Z</time>
      </trkpt>
      <trkpt lat="46.39148" lon="4.69205">
        <ele>439.573</ele>
        <time>2022-09-24T09:31:23Z</time>
      </trkpt>
      <trkpt lat="46.39147" lon="4.69215">
        <ele>439.973</ele>
        <time>2022-09-24T09:31:28Z</time>
      </trkpt>
      <trkpt lat="46.39144" lon="4.69224">
        <ele>441.973</ele>
        <time>2022-09-24T09:31:35Z</time>
      </trkpt>
      <trkpt lat="46.39142" lon="4.69233">
        <ele>443.673</ele>
        <time>2022-09-24T09:31:43Z</time>
      </trkpt>
      <trkpt lat="46.3914" lon="4.69242">
        <ele>444.673</ele>
        <time>2022-09-24T09:31:49Z</time>
      </trkpt>
      <trkpt lat="46.39138" lon="4.69252">
        <ele>445.773</ele>
        <time>2022-09-24T09:31:55Z</time>
      </trkpt>
      <trkpt lat="46.39135" lon="4.69262">
        <ele>447.073</ele>
        <time>2022-09-24T09:32:02Z</time>
      </trkpt>
      <trkpt lat="46.39132" lon="4.69271">
        <ele>447.873</ele>
        <time>2022-09-24T09:32:08Z</time>
      </trkpt>
      <trkpt lat="46.3913" lon="4.6928">
        <ele>447.873</ele>
        <time>2022-09-24T09:32:15Z</time>
      </trkpt>
      <trkpt lat="46.39128" lon="4.69289">
        <ele>449.773</ele>
        <time>2022-09-24T09:32:25Z</time>
      </trkpt>
      <trkpt lat="46.39124" lon="4.69297">
        <ele>447.373</ele>
        <time>2022-09-24T09:32:52Z</time>
      </trkpt>
      <trkpt lat="46.39121" lon="4.69306">
        <ele>448.273</ele>
        <time>2022-09-24T09:33:01Z</time>
      </trkpt>
      <trkpt lat="46.39119" lon="4.69316">
        <ele>448.873</ele>
        <time>2022-09-24T09:33:09Z</time>
      </trkpt>
      <trkpt lat="46.39117" lon="4.69325">
        <ele>448.273</ele>
        <time>2022-09-24T09:33:14Z</time>
      </trkpt>
      <trkpt lat="46.39112" lon="4.69333">
        <ele>447.673</ele>
        <time>2022-09-24T09:33:20Z</time>
      </trkpt>
      <trkpt lat="46.39108" lon="4.69341">
        <ele>446.673</ele>
        <time>2022-09-24T09:33:26Z</time>
      </trkpt>
      <trkpt lat="46.39103" lon="4.6935">
        <ele>446.173</ele>
        <time>2022-09-24T09:33:32Z</time>
      </trkpt>
      <trkpt lat="46.39098" lon="4.69357">
        <ele>445.273</ele>
        <time>2022-09-24T09:33:37Z</time>
      </trkpt>
      <trkpt lat="46.39093" lon="4.69363">
        <ele>445.873</ele>
        <time>2022-09-24T09:33:43Z</time>
      </trkpt>
      <trkpt lat="46.39087" lon="4.6937">
        <ele>449.173</ele>
        <time>2022-09-24T09:33:49Z</time>
      </trkpt>
      <trkpt lat="46.39081" lon="4.69377">
        <ele>449.273</ele>
        <time>2022-09-24T09:33:54Z</time>
      </trkpt>
      <trkpt lat="46.39074" lon="4.6938">
        <ele>450.473</ele>
        <time>2022-09-24T09:33:59Z</time>
      </trkpt>
      <trkpt lat="46.39068" lon="4.69384">
        <ele>451.173</ele>
        <time>2022-09-24T09:34:04Z</time>
      </trkpt>
      <trkpt lat="46.39061" lon="4.6939">
        <ele>451.173</ele>
        <time>2022-09-24T09:34:11Z</time>
      </trkpt>
      <trkpt lat="46.39055" lon="4.69394">
        <ele>451.273</ele>
        <time>2022-09-24T09:34:16Z</time>
      </trkpt>
      <trkpt lat="46.39049" lon="4.694">
        <ele>451.373</ele>
        <time>2022-09-24T09:34:21Z</time>
      </trkpt>
      <trkpt lat="46.39043" lon="4.69406">
        <ele>452.573</ele>
        <time>2022-09-24T09:34:27Z</time>
      </trkpt>
      <trkpt lat="46.39037" lon="4.69412">
        <ele>452.073</ele>
        <time>2022-09-24T09:34:33Z</time>
      </trkpt>
      <trkpt lat="46.39031" lon="4.6942">
        <ele>452.673</ele>
        <time>2022-09-24T09:34:38Z</time>
      </trkpt>
      <trkpt lat="46.39025" lon="4.69425">
        <ele>451.473</ele>
        <time>2022-09-24T09:34:44Z</time>
      </trkpt>
      <trkpt lat="46.39019" lon="4.69431">
        <ele>450.673</ele>
        <time>2022-09-24T09:34:49Z</time>
      </trkpt>
      <trkpt lat="46.39013" lon="4.69438">
        <ele>452.073</ele>
        <time>2022-09-24T09:34:55Z</time>
      </trkpt>
      <trkpt lat="46.39007" lon="4.69441">
        <ele>452.273</ele>
        <time>2022-09-24T09:35:01Z</time>
      </trkpt>
      <trkpt lat="46.39001" lon="4.69447">
        <ele>452.473</ele>
        <time>2022-09-24T09:35:07Z</time>
      </trkpt>
      <trkpt lat="46.38996" lon="4.69455">
        <ele>454.673</ele>
        <time>2022-09-24T09:35:12Z</time>
      </trkpt>
      <trkpt lat="46.3899" lon="4.6946">
        <ele>455.773</ele>
        <time>2022-09-24T09:35:19Z</time>
      </trkpt>
      <trkpt lat="46.38983" lon="4.69463">
        <ele>456.573</ele>
        <time>2022-09-24T09:35:25Z</time>
      </trkpt>
      <trkpt lat="46.38977" lon="4.6947">
        <ele>457.973</ele>
        <time>2022-09-24T09:35:31Z</time>
      </trkpt>
      <trkpt lat="46.3897" lon="4.69473">
        <ele>461.273</ele>
        <time>2022-09-24T09:35:37Z</time>
      </trkpt>
      <trkpt lat="46.38964" lon="4.69477">
        <ele>461.473</ele>
        <time>2022-09-24T09:35:42Z</time>
      </trkpt>
      <trkpt lat="46.38958" lon="4.69486">
        <ele>458.573</ele>
        <time>2022-09-24T09:35:48Z</time>
      </trkpt>
      <trkpt lat="46.38954" lon="4.69493">
        <ele>457.773</ele>
        <time>2022-09-24T09:35:54Z</time>
      </trkpt>
      <trkpt lat="46.38948" lon="4.69498">
        <ele>456.873</ele>
        <time>2022-09-24T09:36:01Z</time>
      </trkpt>
      <trkpt lat="46.38941" lon="4.69502">
        <ele>458.173</ele>
        <time>2022-09-24T09:36:07Z</time>
      </trkpt>
      <trkpt lat="46.38935" lon="4.69507">
        <ele>459.273</ele>
        <time>2022-09-24T09:36:13Z</time>
      </trkpt>
      <trkpt lat="46.38928" lon="4.69512">
        <ele>459.873</ele>
        <time>2022-09-24T09:36:18Z</time>
      </trkpt>
      <trkpt lat="46.38922" lon="4.69515">
        <ele>460.473</ele>
        <time>2022-09-24T09:36:25Z</time>
      </trkpt>
      <trkpt lat="46.38916" lon="4.69522">
        <ele>461.373</ele>
        <time>2022-09-24T09:36:32Z</time>
      </trkpt>
      <trkpt lat="46.3891" lon="4.69529">
        <ele>462.773</ele>
        <time>2022-09-24T09:36:38Z</time>
      </trkpt>
      <trkpt lat="46.38903" lon="4.69533">
        <ele>463.573</ele>
        <time>2022-09-24T09:36:45Z</time>
      </trkpt>
      <trkpt lat="46.38898" lon="4.69539">
        <ele>463.273</ele>
        <time>2022-09-24T09:36:52Z</time>
      </trkpt>
      <trkpt lat="46.38893" lon="4.69546">
        <ele>463.673</ele>
        <time>2022-09-24T09:36:59Z</time>
      </trkpt>
      <trkpt lat="46.38888" lon="4.69553">
        <ele>463.973</ele>
        <time>2022-09-24T09:37:06Z</time>
      </trkpt>
      <trkpt lat="46.38882" lon="4.69558">
        <ele>467.073</ele>
        <time>2022-09-24T09:37:12Z</time>
      </trkpt>
      <trkpt lat="46.38875" lon="4.69561">
        <ele>468.373</ele>
        <time>2022-09-24T09:37:18Z</time>
      </trkpt>
      <trkpt lat="46.38869" lon="4.69565">
        <ele>472.873</ele>
        <time>2022-09-24T09:37:25Z</time>
      </trkpt>
      <trkpt lat="46.38863" lon="4.69573">
        <ele>476.273</ele>
        <time>2022-09-24T09:37:31Z</time>
      </trkpt>
      <trkpt lat="46.38859" lon="4.69581">
        <ele>477.173</ele>
        <time>2022-09-24T09:37:37Z</time>
      </trkpt>
      <trkpt lat="46.38855" lon="4.69589">
        <ele>476.173</ele>
        <time>2022-09-24T09:37:42Z</time>
      </trkpt>
      <trkpt lat="46.38852" lon="4.69599">
        <ele>475.273</ele>
        <time>2022-09-24T09:38:38Z</time>
      </trkpt>
      <trkpt lat="46.38858" lon="4.69593">
        <ele>477.773</ele>
        <time>2022-09-24T09:39:59Z</time>
      </trkpt>
      <trkpt lat="46.38861" lon="4.69602">
        <ele>478.173</ele>
        <time>2022-09-24T09:41:32Z</time>
      </trkpt>
      <trkpt lat="46.38869" lon="4.69603">
        <ele>479.573</ele>
        <time>2022-09-24T09:41:48Z</time>
      </trkpt>
      <trkpt lat="46.38875" lon="4.69605">
        <ele>479.573</ele>
        <time>2022-09-24T09:41:53Z</time>
      </trkpt>
      <trkpt lat="46.38882" lon="4.69605">
        <ele>481.573</ele>
        <time>2022-09-24T09:42:00Z</time>
      </trkpt>
      <trkpt lat="46.38889" lon="4.69605">
        <ele>482.173</ele>
        <time>2022-09-24T09:42:07Z</time>
      </trkpt>
      <trkpt lat="46.38895" lon="4.6961">
        <ele>484.773</ele>
        <time>2022-09-24T09:42:16Z</time>
      </trkpt>
      <trkpt lat="46.38903" lon="4.69611">
        <ele>484.373</ele>
        <time>2022-09-24T09:42:23Z</time>
      </trkpt>
      <trkpt lat="46.3891" lon="4.69615">
        <ele>484.673</ele>
        <time>2022-09-24T09:42:29Z</time>
      </trkpt>
      <trkpt lat="46.38917" lon="4.69616">
        <ele>482.773</ele>
        <time>2022-09-24T09:42:37Z</time>
      </trkpt>
      <trkpt lat="46.38923" lon="4.69622">
        <ele>483.573</ele>
        <time>2022-09-24T09:42:42Z</time>
      </trkpt>
      <trkpt lat="46.3893" lon="4.69625">
        <ele>481.573</ele>
        <time>2022-09-24T09:42:48Z</time>
      </trkpt>
      <trkpt lat="46.38937" lon="4.69627">
        <ele>481.773</ele>
        <time>2022-09-24T09:42:54Z</time>
      </trkpt>
      <trkpt lat="46.38944" lon="4.69627">
        <ele>479.773</ele>
        <time>2022-09-24T09:43:00Z</time>
      </trkpt>
      <trkpt lat="46.38952" lon="4.69628">
        <ele>479.273</ele>
        <time>2022-09-24T09:43:05Z</time>
      </trkpt>
      <trkpt lat="46.38958" lon="4.69625">
        <ele>480.873</ele>
        <time>2022-09-24T09:43:12Z</time>
      </trkpt>
      <trkpt lat="46.38964" lon="4.69624">
        <ele>480.473</ele>
        <time>2022-09-24T09:43:17Z</time>
      </trkpt>
      <trkpt lat="46.38971" lon="4.69622">
        <ele>480.373</ele>
        <time>2022-09-24T09:43:23Z</time>
      </trkpt>
      <trkpt lat="46.38978" lon="4.69622">
        <ele>479.673</ele>
        <time>2022-09-24T09:43:32Z</time>
      </trkpt>
      <trkpt lat="46.38985" lon="4.69618">
        <ele>480.973</ele>
        <time>2022-09-24T09:43:40Z</time>
      </trkpt>
      <trkpt lat="46.38991" lon="4.69614">
        <ele>481.673</ele>
        <time>2022-09-24T09:43:46Z</time>
      </trkpt>
      <trkpt lat="46.38998" lon="4.69608">
        <ele>483.673</ele>
        <time>2022-09-24T09:43:52Z</time>
      </trkpt>
      <trkpt lat="46.39003" lon="4.69602">
        <ele>484.073</ele>
        <time>2022-09-24T09:43:58Z</time>
      </trkpt>
      <trkpt lat="46.39009" lon="4.69598">
        <ele>483.073</ele>
        <time>2022-09-24T09:44:04Z</time>
      </trkpt>
      <trkpt lat="46.39016" lon="4.69593">
        <ele>482.173</ele>
        <time>2022-09-24T09:44:09Z</time>
      </trkpt>
      <trkpt lat="46.39023" lon="4.6959">
        <ele>481.673</ele>
        <time>2022-09-24T09:44:15Z</time>
      </trkpt>
      <trkpt lat="46.39031" lon="4.69588">
        <ele>485.773</ele>
        <time>2022-09-24T09:44:20Z</time>
      </trkpt>
      <trkpt lat="46.39038" lon="4.69585">
        <ele>481.173</ele>
        <time>2022-09-24T09:44:27Z</time>
      </trkpt>
      <trkpt lat="46.39043" lon="4.69576">
        <ele>484.873</ele>
        <time>2022-09-24T09:44:32Z</time>
      </trkpt>
      <trkpt lat="46.3905" lon="4.69575">
        <ele>488.873</ele>
        <time>2022-09-24T09:44:40Z</time>
      </trkpt>
      <trkpt lat="46.39057" lon="4.69574">
        <ele>489.573</ele>
        <time>2022-09-24T09:44:46Z</time>
      </trkpt>
      <trkpt lat="46.39064" lon="4.69575">
        <ele>488.873</ele>
        <time>2022-09-24T09:44:52Z</time>
      </trkpt>
      <trkpt lat="46.39071" lon="4.69569">
        <ele>487.873</ele>
        <time>2022-09-24T09:44:58Z</time>
      </trkpt>
      <trkpt lat="46.39077" lon="4.69566">
        <ele>485.273</ele>
        <time>2022-09-24T09:45:04Z</time>
      </trkpt>
      <trkpt lat="46.39086" lon="4.69569">
        <ele>484.173</ele>
        <time>2022-09-24T09:45:09Z</time>
      </trkpt>
      <trkpt lat="46.39092" lon="4.69562">
        <ele>486.473</ele>
        <time>2022-09-24T09:45:14Z</time>
      </trkpt>
      <trkpt lat="46.39098" lon="4.6956">
        <ele>488.173</ele>
        <time>2022-09-24T09:45:22Z</time>
      </trkpt>
      <trkpt lat="46.39103" lon="4.69554">
        <ele>489.673</ele>
        <time>2022-09-24T09:45:29Z</time>
      </trkpt>
      <trkpt lat="46.3911" lon="4.69548">
        <ele>493.273</ele>
        <time>2022-09-24T09:45:34Z</time>
      </trkpt>
      <trkpt lat="46.39117" lon="4.69542">
        <ele>495.173</ele>
        <time>2022-09-24T09:45:40Z</time>
      </trkpt>
      <trkpt lat="46.39123" lon="4.69537">
        <ele>495.573</ele>
        <time>2022-09-24T09:45:46Z</time>
      </trkpt>
      <trkpt lat="46.39129" lon="4.69534">
        <ele>497.573</ele>
        <time>2022-09-24T09:45:52Z</time>
      </trkpt>
      <trkpt lat="46.39135" lon="4.69528">
        <ele>499.373</ele>
        <time>2022-09-24T09:45:57Z</time>
      </trkpt>
      <trkpt lat="46.39141" lon="4.69525">
        <ele>497.673</ele>
        <time>2022-09-24T09:46:02Z</time>
      </trkpt>
      <trkpt lat="46.39148" lon="4.6952">
        <ele>496.873</ele>
        <time>2022-09-24T09:46:08Z</time>
      </trkpt>
      <trkpt lat="46.39155" lon="4.69516">
        <ele>494.373</ele>
        <time>2022-09-24T09:46:15Z</time>
      </trkpt>
      <trkpt lat="46.39162" lon="4.69512">
        <ele>489.473</ele>
        <time>2022-09-24T09:46:20Z</time>
      </trkpt>
      <trkpt lat="46.39168" lon="4.69507">
        <ele>488.173</ele>
        <time>2022-09-24T09:46:27Z</time>
      </trkpt>
      <trkpt lat="46.39174" lon="4.695">
        <ele>489.873</ele>
        <time>2022-09-24T09:46:32Z</time>
      </trkpt>
      <trkpt lat="46.39179" lon="4.69496">
        <ele>491.573</ele>
        <time>2022-09-24T09:46:37Z</time>
      </trkpt>
      <trkpt lat="46.39185" lon="4.69491">
        <ele>491.673</ele>
        <time>2022-09-24T09:46:43Z</time>
      </trkpt>
      <trkpt lat="46.39192" lon="4.69486">
        <ele>491.573</ele>
        <time>2022-09-24T09:46:49Z</time>
      </trkpt>
      <trkpt lat="46.392" lon="4.69486">
        <ele>490.773</ele>
        <time>2022-09-24T09:46:54Z</time>
      </trkpt>
      <trkpt lat="46.39206" lon="4.69481">
        <ele>488.373</ele>
        <time>2022-09-24T09:47:00Z</time>
      </trkpt>
      <trkpt lat="46.39213" lon="4.69477">
        <ele>487.073</ele>
        <time>2022-09-24T09:47:07Z</time>
      </trkpt>
      <trkpt lat="46.39219" lon="4.69475">
        <ele>487.374</ele>
        <time>2022-09-24T09:47:13Z</time>
      </trkpt>
      <trkpt lat="46.39227" lon="4.69475">
        <ele>488.574</ele>
        <time>2022-09-24T09:47:18Z</time>
      </trkpt>
      <trkpt lat="46.39234" lon="4.69471">
        <ele>490.374</ele>
        <time>2022-09-24T09:47:24Z</time>
      </trkpt>
      <trkpt lat="46.39241" lon="4.69469">
        <ele>490.074</ele>
        <time>2022-09-24T09:47:30Z</time>
      </trkpt>
      <trkpt lat="46.39247" lon="4.69463">
        <ele>492.674</ele>
        <time>2022-09-24T09:47:36Z</time>
      </trkpt>
      <trkpt lat="46.39253" lon="4.69459">
        <ele>494.174</ele>
        <time>2022-09-24T09:47:41Z</time>
      </trkpt>
      <trkpt lat="46.39261" lon="4.69456">
        <ele>495.674</ele>
        <time>2022-09-24T09:47:47Z</time>
      </trkpt>
      <trkpt lat="46.39269" lon="4.69451">
        <ele>499.974</ele>
        <time>2022-09-24T09:47:52Z</time>
      </trkpt>
      <trkpt lat="46.39275" lon="4.69446">
        <ele>501.874</ele>
        <time>2022-09-24T09:47:57Z</time>
      </trkpt>
      <trkpt lat="46.39283" lon="4.69446">
        <ele>502.674</ele>
        <time>2022-09-24T09:48:02Z</time>
      </trkpt>
      <trkpt lat="46.39292" lon="4.69443">
        <ele>504.474</ele>
        <time>2022-09-24T09:48:08Z</time>
      </trkpt>
      <trkpt lat="46.39296" lon="4.69435">
        <ele>507.574</ele>
        <time>2022-09-24T09:48:13Z</time>
      </trkpt>
      <trkpt lat="46.39304" lon="4.69433">
        <ele>505.874</ele>
        <time>2022-09-24T09:48:19Z</time>
      </trkpt>
      <trkpt lat="46.39311" lon="4.69436">
        <ele>503.974</ele>
        <time>2022-09-24T09:48:24Z</time>
      </trkpt>
      <trkpt lat="46.39317" lon="4.69434">
        <ele>502.074</ele>
        <time>2022-09-24T09:48:31Z</time>
      </trkpt>
      <trkpt lat="46.39324" lon="4.69434">
        <ele>495.574</ele>
        <time>2022-09-24T09:48:37Z</time>
      </trkpt>
      <trkpt lat="46.39331" lon="4.69431">
        <ele>493.874</ele>
        <time>2022-09-24T09:48:43Z</time>
      </trkpt>
      <trkpt lat="46.39337" lon="4.69428">
        <ele>493.274</ele>
        <time>2022-09-24T09:48:51Z</time>
      </trkpt>
      <trkpt lat="46.39344" lon="4.69427">
        <ele>492.374</ele>
        <time>2022-09-24T09:49:01Z</time>
      </trkpt>
      <trkpt lat="46.39351" lon="4.69425">
        <ele>495.274</ele>
        <time>2022-09-24T09:49:07Z</time>
      </trkpt>
      <trkpt lat="46.3936" lon="4.69422">
        <ele>499.174</ele>
        <time>2022-09-24T09:49:12Z</time>
      </trkpt>
      <trkpt lat="46.39367" lon="4.69424">
        <ele>501.174</ele>
        <time>2022-09-24T09:49:17Z</time>
      </trkpt>
      <trkpt lat="46.39375" lon="4.69421">
        <ele>504.774</ele>
        <time>2022-09-24T09:49:22Z</time>
      </trkpt>
      <trkpt lat="46.39381" lon="4.69419">
        <ele>506.474</ele>
        <time>2022-09-24T09:49:29Z</time>
      </trkpt>
      <trkpt lat="46.39388" lon="4.69414">
        <ele>510.274</ele>
        <time>2022-09-24T09:49:35Z</time>
      </trkpt>
      <trkpt lat="46.39396" lon="4.69414">
        <ele>512.274</ele>
        <time>2022-09-24T09:49:40Z</time>
      </trkpt>
      <trkpt lat="46.39403" lon="4.69415">
        <ele>512.674</ele>
        <time>2022-09-24T09:49:45Z</time>
      </trkpt>
      <trkpt lat="46.3941" lon="4.69417">
        <ele>515.174</ele>
        <time>2022-09-24T09:49:52Z</time>
      </trkpt>
      <trkpt lat="46.39417" lon="4.69413">
        <ele>517.274</ele>
        <time>2022-09-24T09:49:58Z</time>
      </trkpt>
      <trkpt lat="46.39425" lon="4.69414">
        <ele>517.974</ele>
        <time>2022-09-24T09:50:04Z</time>
      </trkpt>
      <trkpt lat="46.39432" lon="4.69414">
        <ele>516.574</ele>
        <time>2022-09-24T09:50:12Z</time>
      </trkpt>
      <trkpt lat="46.3944" lon="4.69416">
        <ele>515.574</ele>
        <time>2022-09-24T09:50:17Z</time>
      </trkpt>
      <trkpt lat="46.3945" lon="4.69419">
        <ele>514.374</ele>
        <time>2022-09-24T09:50:22Z</time>
      </trkpt>
      <trkpt lat="46.39457" lon="4.69418">
        <ele>514.174</ele>
        <time>2022-09-24T09:50:28Z</time>
      </trkpt>
      <trkpt lat="46.39463" lon="4.69417">
        <ele>515.674</ele>
        <time>2022-09-24T09:50:34Z</time>
      </trkpt>
      <trkpt lat="46.39471" lon="4.69419">
        <ele>515.574</ele>
        <time>2022-09-24T09:50:40Z</time>
      </trkpt>
      <trkpt lat="46.39479" lon="4.69421">
        <ele>512.474</ele>
        <time>2022-09-24T09:50:45Z</time>
      </trkpt>
      <trkpt lat="46.39486" lon="4.69424">
        <ele>509.474</ele>
        <time>2022-09-24T09:50:50Z</time>
      </trkpt>
      <trkpt lat="46.39493" lon="4.69426">
        <ele>505.374</ele>
        <time>2022-09-24T09:50:56Z</time>
      </trkpt>
      <trkpt lat="46.39501" lon="4.69427">
        <ele>502.674</ele>
        <time>2022-09-24T09:51:03Z</time>
      </trkpt>
      <trkpt lat="46.39507" lon="4.69429">
        <ele>500.974</ele>
        <time>2022-09-24T09:51:09Z</time>
      </trkpt>
      <trkpt lat="46.39514" lon="4.69432">
        <ele>497.874</ele>
        <time>2022-09-24T09:51:14Z</time>
      </trkpt>
      <trkpt lat="46.39522" lon="4.69433">
        <ele>500.574</ele>
        <time>2022-09-24T09:51:20Z</time>
      </trkpt>
      <trkpt lat="46.39529" lon="4.69433">
        <ele>503.674</ele>
        <time>2022-09-24T09:51:27Z</time>
      </trkpt>
      <trkpt lat="46.39536" lon="4.69436">
        <ele>504.674</ele>
        <time>2022-09-24T09:51:33Z</time>
      </trkpt>
      <trkpt lat="46.39542" lon="4.69437">
        <ele>509.374</ele>
        <time>2022-09-24T09:51:38Z</time>
      </trkpt>
      <trkpt lat="46.39549" lon="4.69438">
        <ele>510.074</ele>
        <time>2022-09-24T09:51:46Z</time>
      </trkpt>
      <trkpt lat="46.39556" lon="4.69439">
        <ele>512.374</ele>
        <time>2022-09-24T09:51:53Z</time>
      </trkpt>
      <trkpt lat="46.39563" lon="4.69443">
        <ele>514.474</ele>
        <time>2022-09-24T09:51:58Z</time>
      </trkpt>
      <trkpt lat="46.39569" lon="4.69446">
        <ele>517.074</ele>
        <time>2022-09-24T09:52:04Z</time>
      </trkpt>
      <trkpt lat="46.39576" lon="4.69447">
        <ele>517.474</ele>
        <time>2022-09-24T09:52:12Z</time>
      </trkpt>
      <trkpt lat="46.39583" lon="4.69449">
        <ele>518.774</ele>
        <time>2022-09-24T09:52:18Z</time>
      </trkpt>
      <trkpt lat="46.3959" lon="4.69445">
        <ele>521.474</ele>
        <time>2022-09-24T09:52:26Z</time>
      </trkpt>
      <trkpt lat="46.39596" lon="4.69445">
        <ele>525.174</ele>
        <time>2022-09-24T09:52:34Z</time>
      </trkpt>
      <trkpt lat="46.39604" lon="4.69445">
        <ele>527.975</ele>
        <time>2022-09-24T09:52:42Z</time>
      </trkpt>
      <trkpt lat="46.39611" lon="4.69444">
        <ele>529.675</ele>
        <time>2022-09-24T09:52:48Z</time>
      </trkpt>
      <trkpt lat="46.39619" lon="4.69446">
        <ele>531.475</ele>
        <time>2022-09-24T09:52:54Z</time>
      </trkpt>
      <trkpt lat="46.39628" lon="4.69444">
        <ele>534.475</ele>
        <time>2022-09-24T09:53:00Z</time>
      </trkpt>
      <trkpt lat="46.39635" lon="4.69441">
        <ele>538.675</ele>
        <time>2022-09-24T09:53:06Z</time>
      </trkpt>
      <trkpt lat="46.39642" lon="4.6944">
        <ele>542.375</ele>
        <time>2022-09-24T09:53:12Z</time>
      </trkpt>
      <trkpt lat="46.39648" lon="4.69441">
        <ele>545.775</ele>
        <time>2022-09-24T09:53:21Z</time>
      </trkpt>
      <trkpt lat="46.39656" lon="4.69442">
        <ele>539.675</ele>
        <time>2022-09-24T09:53:27Z</time>
      </trkpt>
      <trkpt lat="46.39662" lon="4.69445">
        <ele>538.675</ele>
        <time>2022-09-24T09:53:35Z</time>
      </trkpt>
      <trkpt lat="46.39669" lon="4.69442">
        <ele>537.675</ele>
        <time>2022-09-24T09:53:51Z</time>
      </trkpt>
      <trkpt lat="46.39677" lon="4.69444">
        <ele>541.075</ele>
        <time>2022-09-24T09:53:56Z</time>
      </trkpt>
      <trkpt lat="46.39684" lon="4.69455">
        <ele>542.475</ele>
        <time>2022-09-24T09:54:01Z</time>
      </trkpt>
      <trkpt lat="46.39689" lon="4.69462">
        <ele>543.675</ele>
        <time>2022-09-24T09:54:06Z</time>
      </trkpt>
      <trkpt lat="46.39695" lon="4.69468">
        <ele>541.875</ele>
        <time>2022-09-24T09:54:12Z</time>
      </trkpt>
      <trkpt lat="46.397" lon="4.69475">
        <ele>539.975</ele>
        <time>2022-09-24T09:54:19Z</time>
      </trkpt>
      <trkpt lat="46.39707" lon="4.69479">
        <ele>540.875</ele>
        <time>2022-09-24T09:54:28Z</time>
      </trkpt>
      <trkpt lat="46.39714" lon="4.69479">
        <ele>540.475</ele>
        <time>2022-09-24T09:54:34Z</time>
      </trkpt>
      <trkpt lat="46.39722" lon="4.69478">
        <ele>540.075</ele>
        <time>2022-09-24T09:54:40Z</time>
      </trkpt>
      <trkpt lat="46.3973" lon="4.69479">
        <ele>540.975</ele>
        <time>2022-09-24T09:54:46Z</time>
      </trkpt>
      <trkpt lat="46.39738" lon="4.6948">
        <ele>543.075</ele>
        <time>2022-09-24T09:54:52Z</time>
      </trkpt>
      <trkpt lat="46.39745" lon="4.69483">
        <ele>542.375</ele>
        <time>2022-09-24T09:54:57Z</time>
      </trkpt>
      <trkpt lat="46.39753" lon="4.69486">
        <ele>540.875</ele>
        <time>2022-09-24T09:55:02Z</time>
      </trkpt>
      <trkpt lat="46.3976" lon="4.69487">
        <ele>540.575</ele>
        <time>2022-09-24T09:55:09Z</time>
      </trkpt>
      <trkpt lat="46.39766" lon="4.69489">
        <ele>541.575</ele>
        <time>2022-09-24T09:55:16Z</time>
      </trkpt>
      <trkpt lat="46.39773" lon="4.69488">
        <ele>542.375</ele>
        <time>2022-09-24T09:55:23Z</time>
      </trkpt>
      <trkpt lat="46.3978" lon="4.6949">
        <ele>544.575</ele>
        <time>2022-09-24T09:55:29Z</time>
      </trkpt>
      <trkpt lat="46.39787" lon="4.6949">
        <ele>547.175</ele>
        <time>2022-09-24T09:55:34Z</time>
      </trkpt>
      <trkpt lat="46.39794" lon="4.69489">
        <ele>548.675</ele>
        <time>2022-09-24T09:55:40Z</time>
      </trkpt>
      <trkpt lat="46.398" lon="4.6949">
        <ele>549.675</ele>
        <time>2022-09-24T09:55:48Z</time>
      </trkpt>
      <trkpt lat="46.39808" lon="4.69488">
        <ele>552.875</ele>
        <time>2022-09-24T09:55:53Z</time>
      </trkpt>
      <trkpt lat="46.39814" lon="4.69485">
        <ele>552.775</ele>
        <time>2022-09-24T09:56:02Z</time>
      </trkpt>
      <trkpt lat="46.39821" lon="4.69485">
        <ele>551.275</ele>
        <time>2022-09-24T09:56:12Z</time>
      </trkpt>
      <trkpt lat="46.39827" lon="4.69485">
        <ele>551.475</ele>
        <time>2022-09-24T09:56:17Z</time>
      </trkpt>
      <trkpt lat="46.39835" lon="4.69488">
        <ele>553.075</ele>
        <time>2022-09-24T09:56:22Z</time>
      </trkpt>
      <trkpt lat="46.3984" lon="4.69483">
        <ele>558.675</ele>
        <time>2022-09-24T09:56:30Z</time>
      </trkpt>
      <trkpt lat="46.39846" lon="4.69478">
        <ele>561.075</ele>
        <time>2022-09-24T09:56:37Z</time>
      </trkpt>
      <trkpt lat="46.39852" lon="4.6948">
        <ele>560.275</ele>
        <time>2022-09-24T09:56:43Z</time>
      </trkpt>
      <trkpt lat="46.39859" lon="4.69477">
        <ele>561.575</ele>
        <time>2022-09-24T09:56:52Z</time>
      </trkpt>
      <trkpt lat="46.39866" lon="4.69478">
        <ele>558.475</ele>
        <time>2022-09-24T09:56:59Z</time>
      </trkpt>
      <trkpt lat="46.39874" lon="4.6948">
        <ele>555.675</ele>
        <time>2022-09-24T09:57:04Z</time>
      </trkpt>
      <trkpt lat="46.3988" lon="4.69478">
        <ele>556.075</ele>
        <time>2022-09-24T09:57:13Z</time>
      </trkpt>
      <trkpt lat="46.39882" lon="4.69469">
        <ele>556.275</ele>
        <time>2022-09-24T09:57:22Z</time>
      </trkpt>
      <trkpt lat="46.3988" lon="4.69459">
        <ele>557.175</ele>
        <time>2022-09-24T09:57:29Z</time>
      </trkpt>
      <trkpt lat="46.39875" lon="4.69465">
        <ele>552.775</ele>
        <time>2022-09-24T09:58:17Z</time>
      </trkpt>
      <trkpt lat="46.39876" lon="4.69475">
        <ele>551.875</ele>
        <time>2022-09-24T09:58:25Z</time>
      </trkpt>
      <trkpt lat="46.39876" lon="4.69485">
        <ele>553.575</ele>
        <time>2022-09-24T09:58:32Z</time>
      </trkpt>
      <trkpt lat="46.3988" lon="4.69475">
        <ele>554.375</ele>
        <time>2022-09-24T09:59:19Z</time>
      </trkpt>
      <trkpt lat="46.39879" lon="4.69485">
        <ele>554.275</ele>
        <time>2022-09-24T09:59:37Z</time>
      </trkpt>
      <trkpt lat="46.39874" lon="4.69492">
        <ele>555.875</ele>
        <time>2022-09-24T10:00:45Z</time>
      </trkpt>
      <trkpt lat="46.39882" lon="4.69504">
        <ele>553.775</ele>
        <time>2022-09-24T10:00:59Z</time>
      </trkpt>
      <trkpt lat="46.39877" lon="4.69512">
        <ele>553.075</ele>
        <time>2022-09-24T10:01:14Z</time>
      </trkpt>
      <trkpt lat="46.39882" lon="4.69504">
        <ele>552.975</ele>
        <time>2022-09-24T10:01:26Z</time>
      </trkpt>
      <trkpt lat="46.39888" lon="4.69494">
        <ele>552.875</ele>
        <time>2022-09-24T10:01:32Z</time>
      </trkpt>
      <trkpt lat="46.39892" lon="4.69487">
        <ele>554.075</ele>
        <time>2022-09-24T10:01:41Z</time>
      </trkpt>
      <trkpt lat="46.39898" lon="4.69482">
        <ele>561.375</ele>
        <time>2022-09-24T10:02:10Z</time>
      </trkpt>
      <trkpt lat="46.39894" lon="4.6949">
        <ele>562.075</ele>
        <time>2022-09-24T10:02:24Z</time>
      </trkpt>
      <trkpt lat="46.39899" lon="4.6947">
        <ele>566.675</ele>
        <time>2022-09-24T10:02:42Z</time>
      </trkpt>
      <trkpt lat="46.39891" lon="4.69472">
        <ele>565.175</ele>
        <time>2022-09-24T10:03:05Z</time>
      </trkpt>
      <trkpt lat="46.39883" lon="4.69487">
        <ele>562.975</ele>
        <time>2022-09-24T10:03:16Z</time>
      </trkpt>
      <trkpt lat="46.39889" lon="4.69481">
        <ele>554.975</ele>
        <time>2022-09-24T10:03:35Z</time>
      </trkpt>
      <trkpt lat="46.39884" lon="4.69488">
        <ele>552.775</ele>
        <time>2022-09-24T10:04:30Z</time>
      </trkpt>
      <trkpt lat="46.39882" lon="4.69479">
        <ele>555.775</ele>
        <time>2022-09-24T10:05:43Z</time>
      </trkpt>
      <trkpt lat="46.39886" lon="4.69493">
        <ele>553.575</ele>
        <time>2022-09-24T10:06:40Z</time>
      </trkpt>
      <trkpt lat="46.39891" lon="4.69487">
        <ele>550.975</ele>
        <time>2022-09-24T10:07:06Z</time>
      </trkpt>
      <trkpt lat="46.39885" lon="4.69494">
        <ele>549.975</ele>
        <time>2022-09-24T10:07:22Z</time>
      </trkpt>
      <trkpt lat="46.39879" lon="4.69498">
        <ele>553.975</ele>
        <time>2022-09-24T10:08:35Z</time>
      </trkpt>
      <trkpt lat="46.39884" lon="4.69505">
        <ele>556.875</ele>
        <time>2022-09-24T10:09:09Z</time>
      </trkpt>
      <trkpt lat="46.39877" lon="4.6949">
        <ele>554.675</ele>
        <time>2022-09-24T10:10:26Z</time>
      </trkpt>
      <trkpt lat="46.39884" lon="4.6949">
        <ele>555.375</ele>
        <time>2022-09-24T10:10:50Z</time>
      </trkpt>
      <trkpt lat="46.39879" lon="4.69484">
        <ele>555.475</ele>
        <time>2022-09-24T10:12:46Z</time>
      </trkpt>
      <trkpt lat="46.39886" lon="4.69481">
        <ele>555.275</ele>
        <time>2022-09-24T10:13:03Z</time>
      </trkpt>
      <trkpt lat="46.39884" lon="4.69491">
        <ele>557.075</ele>
        <time>2022-09-24T10:13:44Z</time>
      </trkpt>
      <trkpt lat="46.39887" lon="4.69482">
        <ele>558.575</ele>
        <time>2022-09-24T10:14:15Z</time>
      </trkpt>
      <trkpt lat="46.39881" lon="4.69493">
        <ele>556.775</ele>
        <time>2022-09-24T10:15:16Z</time>
      </trkpt>
      <trkpt lat="46.39886" lon="4.69486">
        <ele>551.575</ele>
        <time>2022-09-24T10:15:59Z</time>
      </trkpt>
      <trkpt lat="46.39877" lon="4.69481">
        <ele>548.875</ele>
        <time>2022-09-24T10:16:54Z</time>
      </trkpt>
      <trkpt lat="46.39884" lon="4.69482">
        <ele>546.875</ele>
        <time>2022-09-24T10:17:30Z</time>
      </trkpt>
      <trkpt lat="46.39891" lon="4.69481">
        <ele>555.375</ele>
        <time>2022-09-24T10:19:57Z</time>
      </trkpt>
      <trkpt lat="46.39885" lon="4.69487">
        <ele>555.275</ele>
        <time>2022-09-24T10:21:26Z</time>
      </trkpt>
      <trkpt lat="46.39879" lon="4.6949">
        <ele>555.375</ele>
        <time>2022-09-24T10:21:45Z</time>
      </trkpt>
      <trkpt lat="46.39886" lon="4.6949">
        <ele>555.175</ele>
        <time>2022-09-24T10:21:58Z</time>
      </trkpt>
      <trkpt lat="46.39879" lon="4.69493">
        <ele>557.375</ele>
        <time>2022-09-24T10:24:32Z</time>
      </trkpt>
      <trkpt lat="46.39884" lon="4.69487">
        <ele>565.375</ele>
        <time>2022-09-24T10:27:47Z</time>
      </trkpt>
      <trkpt lat="46.39884" lon="4.69475">
        <ele>555.575</ele>
        <time>2022-09-24T10:28:38Z</time>
      </trkpt>
      <trkpt lat="46.39883" lon="4.69487">
        <ele>551.175</ele>
        <time>2022-09-24T10:29:30Z</time>
      </trkpt>
      <trkpt lat="46.39885" lon="4.69478">
        <ele>553.775</ele>
        <time>2022-09-24T10:30:36Z</time>
      </trkpt>
      <trkpt lat="46.39879" lon="4.69481">
        <ele>557.875</ele>
        <time>2022-09-24T10:30:49Z</time>
      </trkpt>
      <trkpt lat="46.39875" lon="4.69491">
        <ele>560.475</ele>
        <time>2022-09-24T10:31:07Z</time>
      </trkpt>
      <trkpt lat="46.39873" lon="4.69501">
        <ele>560.775</ele>
        <time>2022-09-24T10:31:13Z</time>
      </trkpt>
      <trkpt lat="46.3988" lon="4.6949">
        <ele>561.975</ele>
        <time>2022-09-24T10:31:29Z</time>
      </trkpt>
      <trkpt lat="46.39871" lon="4.69497">
        <ele>556.475</ele>
        <time>2022-09-24T10:32:59Z</time>
      </trkpt>
      <trkpt lat="46.3988" lon="4.6949">
        <ele>555.175</ele>
        <time>2022-09-24T10:33:39Z</time>
      </trkpt>
      <trkpt lat="46.39884" lon="4.69479">
        <ele>556.975</ele>
        <time>2022-09-24T10:34:43Z</time>
      </trkpt>
      <trkpt lat="46.3989" lon="4.69479">
        <ele>552.575</ele>
        <time>2022-09-24T10:36:52Z</time>
      </trkpt>
      <trkpt lat="46.39897" lon="4.69477">
        <ele>555.975</ele>
        <time>2022-09-24T10:37:33Z</time>
      </trkpt>
      <trkpt lat="46.39904" lon="4.69478">
        <ele>554.775</ele>
        <time>2022-09-24T10:37:50Z</time>
      </trkpt>
      <trkpt lat="46.39914" lon="4.69476">
        <ele>557.275</ele>
        <time>2022-09-24T10:37:56Z</time>
      </trkpt>
      <trkpt lat="46.3992" lon="4.69473">
        <ele>559.375</ele>
        <time>2022-09-24T10:38:03Z</time>
      </trkpt>
      <trkpt lat="46.39927" lon="4.69472">
        <ele>559.375</ele>
        <time>2022-09-24T10:38:09Z</time>
      </trkpt>
      <trkpt lat="46.39934" lon="4.69471">
        <ele>557.275</ele>
        <time>2022-09-24T10:38:16Z</time>
      </trkpt>
      <trkpt lat="46.3994" lon="4.69465">
        <ele>555.375</ele>
        <time>2022-09-24T10:38:22Z</time>
      </trkpt>
      <trkpt lat="46.39947" lon="4.69463">
        <ele>553.975</ele>
        <time>2022-09-24T10:38:32Z</time>
      </trkpt>
      <trkpt lat="46.39953" lon="4.69462">
        <ele>552.575</ele>
        <time>2022-09-24T10:38:39Z</time>
      </trkpt>
      <trkpt lat="46.39961" lon="4.69462">
        <ele>551.175</ele>
        <time>2022-09-24T10:38:45Z</time>
      </trkpt>
      <trkpt lat="46.39967" lon="4.69461">
        <ele>551.975</ele>
        <time>2022-09-24T10:38:51Z</time>
      </trkpt>
      <trkpt lat="46.39974" lon="4.69458">
        <ele>553.275</ele>
        <time>2022-09-24T10:38:58Z</time>
      </trkpt>
      <trkpt lat="46.39981" lon="4.69457">
        <ele>555.176</ele>
        <time>2022-09-24T10:39:04Z</time>
      </trkpt>
      <trkpt lat="46.39988" lon="4.6946">
        <ele>555.176</ele>
        <time>2022-09-24T10:39:12Z</time>
      </trkpt>
      <trkpt lat="46.39995" lon="4.6946">
        <ele>554.676</ele>
        <time>2022-09-24T10:39:18Z</time>
      </trkpt>
      <trkpt lat="46.40002" lon="4.69461">
        <ele>555.576</ele>
        <time>2022-09-24T10:39:24Z</time>
      </trkpt>
      <trkpt lat="46.40008" lon="4.69466">
        <ele>553.676</ele>
        <time>2022-09-24T10:39:31Z</time>
      </trkpt>
      <trkpt lat="46.40014" lon="4.69468">
        <ele>552.176</ele>
        <time>2022-09-24T10:39:37Z</time>
      </trkpt>
      <trkpt lat="46.40021" lon="4.69467">
        <ele>552.176</ele>
        <time>2022-09-24T10:39:43Z</time>
      </trkpt>
      <trkpt lat="46.40028" lon="4.69468">
        <ele>550.776</ele>
        <time>2022-09-24T10:39:48Z</time>
      </trkpt>
      <trkpt lat="46.40035" lon="4.6947">
        <ele>551.476</ele>
        <time>2022-09-24T10:39:57Z</time>
      </trkpt>
      <trkpt lat="46.40042" lon="4.69473">
        <ele>551.876</ele>
        <time>2022-09-24T10:40:05Z</time>
      </trkpt>
      <trkpt lat="46.40052" lon="4.69472">
        <ele>555.776</ele>
        <time>2022-09-24T10:40:10Z</time>
      </trkpt>
      <trkpt lat="46.40061" lon="4.69472">
        <ele>557.376</ele>
        <time>2022-09-24T10:40:16Z</time>
      </trkpt>
      <trkpt lat="46.40069" lon="4.6947">
        <ele>556.776</ele>
        <time>2022-09-24T10:40:21Z</time>
      </trkpt>
      <trkpt lat="46.40076" lon="4.69469">
        <ele>557.776</ele>
        <time>2022-09-24T10:40:27Z</time>
      </trkpt>
      <trkpt lat="46.40084" lon="4.69469">
        <ele>563.176</ele>
        <time>2022-09-24T10:40:32Z</time>
      </trkpt>
      <trkpt lat="46.40092" lon="4.69468">
        <ele>563.876</ele>
        <time>2022-09-24T10:40:38Z</time>
      </trkpt>
      <trkpt lat="46.40105" lon="4.69466">
        <ele>560.976</ele>
        <time>2022-09-24T10:40:44Z</time>
      </trkpt>
      <trkpt lat="46.40111" lon="4.69459">
        <ele>556.876</ele>
        <time>2022-09-24T10:40:49Z</time>
      </trkpt>
      <trkpt lat="46.40114" lon="4.69451">
        <ele>555.976</ele>
        <time>2022-09-24T10:40:54Z</time>
      </trkpt>
      <trkpt lat="46.40118" lon="4.69442">
        <ele>552.476</ele>
        <time>2022-09-24T10:41:01Z</time>
      </trkpt>
      <trkpt lat="46.40125" lon="4.69441">
        <ele>553.076</ele>
        <time>2022-09-24T10:41:11Z</time>
      </trkpt>
      <trkpt lat="46.40132" lon="4.69442">
        <ele>552.476</ele>
        <time>2022-09-24T10:41:18Z</time>
      </trkpt>
      <trkpt lat="46.40139" lon="4.69444">
        <ele>551.076</ele>
        <time>2022-09-24T10:41:27Z</time>
      </trkpt>
      <trkpt lat="46.40146" lon="4.69444">
        <ele>548.876</ele>
        <time>2022-09-24T10:41:34Z</time>
      </trkpt>
      <trkpt lat="46.40155" lon="4.69447">
        <ele>548.576</ele>
        <time>2022-09-24T10:41:40Z</time>
      </trkpt>
      <trkpt lat="46.40162" lon="4.69449">
        <ele>547.676</ele>
        <time>2022-09-24T10:41:45Z</time>
      </trkpt>
      <trkpt lat="46.40168" lon="4.69453">
        <ele>546.276</ele>
        <time>2022-09-24T10:41:52Z</time>
      </trkpt>
      <trkpt lat="46.40175" lon="4.69457">
        <ele>546.276</ele>
        <time>2022-09-24T10:41:57Z</time>
      </trkpt>
      <trkpt lat="46.40183" lon="4.69461">
        <ele>547.276</ele>
        <time>2022-09-24T10:42:02Z</time>
      </trkpt>
      <trkpt lat="46.40188" lon="4.69468">
        <ele>546.376</ele>
        <time>2022-09-24T10:42:08Z</time>
      </trkpt>
      <trkpt lat="46.40193" lon="4.69474">
        <ele>546.476</ele>
        <time>2022-09-24T10:42:14Z</time>
      </trkpt>
      <trkpt lat="46.40198" lon="4.69482">
        <ele>546.676</ele>
        <time>2022-09-24T10:42:21Z</time>
      </trkpt>
      <trkpt lat="46.40201" lon="4.6949">
        <ele>549.276</ele>
        <time>2022-09-24T10:42:26Z</time>
      </trkpt>
      <trkpt lat="46.40207" lon="4.69497">
        <ele>553.076</ele>
        <time>2022-09-24T10:42:32Z</time>
      </trkpt>
      <trkpt lat="46.40213" lon="4.69502">
        <ele>554.076</ele>
        <time>2022-09-24T10:42:37Z</time>
      </trkpt>
      <trkpt lat="46.40219" lon="4.69511">
        <ele>553.176</ele>
        <time>2022-09-24T10:42:44Z</time>
      </trkpt>
      <trkpt lat="46.40225" lon="4.69516">
        <ele>554.376</ele>
        <time>2022-09-24T10:42:50Z</time>
      </trkpt>
      <trkpt lat="46.40231" lon="4.69516">
        <ele>553.576</ele>
        <time>2022-09-24T10:43:01Z</time>
      </trkpt>
      <trkpt lat="46.40228" lon="4.69525">
        <ele>553.276</ele>
        <time>2022-09-24T10:43:34Z</time>
      </trkpt>
      <trkpt lat="46.40233" lon="4.69531">
        <ele>552.176</ele>
        <time>2022-09-24T10:43:41Z</time>
      </trkpt>
      <trkpt lat="46.4024" lon="4.69535">
        <ele>550.776</ele>
        <time>2022-09-24T10:43:46Z</time>
      </trkpt>
      <trkpt lat="46.40246" lon="4.69538">
        <ele>550.276</ele>
        <time>2022-09-24T10:43:52Z</time>
      </trkpt>
      <trkpt lat="46.40254" lon="4.69542">
        <ele>549.176</ele>
        <time>2022-09-24T10:43:59Z</time>
      </trkpt>
      <trkpt lat="46.4026" lon="4.69547">
        <ele>547.576</ele>
        <time>2022-09-24T10:44:05Z</time>
      </trkpt>
      <trkpt lat="46.40265" lon="4.69556">
        <ele>547.176</ele>
        <time>2022-09-24T10:44:11Z</time>
      </trkpt>
      <trkpt lat="46.40269" lon="4.69563">
        <ele>546.276</ele>
        <time>2022-09-24T10:44:17Z</time>
      </trkpt>
      <trkpt lat="46.40275" lon="4.69568">
        <ele>544.976</ele>
        <time>2022-09-24T10:44:24Z</time>
      </trkpt>
      <trkpt lat="46.40281" lon="4.69575">
        <ele>545.176</ele>
        <time>2022-09-24T10:44:30Z</time>
      </trkpt>
      <trkpt lat="46.40288" lon="4.6958">
        <ele>545.676</ele>
        <time>2022-09-24T10:44:36Z</time>
      </trkpt>
      <trkpt lat="46.4029" lon="4.69589">
        <ele>547.076</ele>
        <time>2022-09-24T10:44:46Z</time>
      </trkpt>
      <trkpt lat="46.40294" lon="4.69582">
        <ele>546.776</ele>
        <time>2022-09-24T10:44:59Z</time>
      </trkpt>
      <trkpt lat="46.40301" lon="4.6958">
        <ele>547.376</ele>
        <time>2022-09-24T10:45:07Z</time>
      </trkpt>
      <trkpt lat="46.40309" lon="4.69581">
        <ele>548.376</ele>
        <time>2022-09-24T10:45:14Z</time>
      </trkpt>
      <trkpt lat="46.40315" lon="4.69584">
        <ele>545.176</ele>
        <time>2022-09-24T10:45:23Z</time>
      </trkpt>
      <trkpt lat="46.40321" lon="4.69587">
        <ele>541.877</ele>
        <time>2022-09-24T10:45:33Z</time>
      </trkpt>
      <trkpt lat="46.40329" lon="4.69586">
        <ele>540.677</ele>
        <time>2022-09-24T10:45:38Z</time>
      </trkpt>
      <trkpt lat="46.40337" lon="4.69587">
        <ele>538.277</ele>
        <time>2022-09-24T10:45:44Z</time>
      </trkpt>
      <trkpt lat="46.40345" lon="4.69585">
        <ele>537.177</ele>
        <time>2022-09-24T10:45:49Z</time>
      </trkpt>
      <trkpt lat="46.40352" lon="4.69585">
        <ele>535.777</ele>
        <time>2022-09-24T10:45:56Z</time>
      </trkpt>
      <trkpt lat="46.40359" lon="4.69585">
        <ele>535.177</ele>
        <time>2022-09-24T10:46:03Z</time>
      </trkpt>
      <trkpt lat="46.40367" lon="4.69586">
        <ele>535.877</ele>
        <time>2022-09-24T10:46:09Z</time>
      </trkpt>
      <trkpt lat="46.40374" lon="4.69585">
        <ele>536.377</ele>
        <time>2022-09-24T10:46:14Z</time>
      </trkpt>
      <trkpt lat="46.40382" lon="4.69586">
        <ele>533.677</ele>
        <time>2022-09-24T10:46:20Z</time>
      </trkpt>
      <trkpt lat="46.40389" lon="4.69588">
        <ele>531.177</ele>
        <time>2022-09-24T10:46:27Z</time>
      </trkpt>
      <trkpt lat="46.40397" lon="4.69588">
        <ele>531.177</ele>
        <time>2022-09-24T10:46:34Z</time>
      </trkpt>
      <trkpt lat="46.40404" lon="4.69591">
        <ele>531.177</ele>
        <time>2022-09-24T10:46:40Z</time>
      </trkpt>
      <trkpt lat="46.4041" lon="4.69593">
        <ele>531.277</ele>
        <time>2022-09-24T10:46:45Z</time>
      </trkpt>
      <trkpt lat="46.40418" lon="4.69595">
        <ele>530.977</ele>
        <time>2022-09-24T10:46:51Z</time>
      </trkpt>
      <trkpt lat="46.40424" lon="4.69598">
        <ele>533.277</ele>
        <time>2022-09-24T10:46:57Z</time>
      </trkpt>
      <trkpt lat="46.40431" lon="4.69602">
        <ele>534.677</ele>
        <time>2022-09-24T10:47:03Z</time>
      </trkpt>
      <trkpt lat="46.40438" lon="4.69604">
        <ele>536.477</ele>
        <time>2022-09-24T10:47:09Z</time>
      </trkpt>
      <trkpt lat="46.40445" lon="4.69602">
        <ele>537.377</ele>
        <time>2022-09-24T10:47:15Z</time>
      </trkpt>
      <trkpt lat="46.40452" lon="4.69599">
        <ele>536.277</ele>
        <time>2022-09-24T10:47:22Z</time>
      </trkpt>
      <trkpt lat="46.40459" lon="4.69595">
        <ele>537.377</ele>
        <time>2022-09-24T10:47:29Z</time>
      </trkpt>
      <trkpt lat="46.40466" lon="4.69594">
        <ele>537.977</ele>
        <time>2022-09-24T10:47:35Z</time>
      </trkpt>
      <trkpt lat="46.40472" lon="4.69592">
        <ele>540.577</ele>
        <time>2022-09-24T10:47:43Z</time>
      </trkpt>
      <trkpt lat="46.40478" lon="4.69585">
        <ele>542.377</ele>
        <time>2022-09-24T10:47:51Z</time>
      </trkpt>
      <trkpt lat="46.40482" lon="4.69577">
        <ele>542.177</ele>
        <time>2022-09-24T10:48:00Z</time>
      </trkpt>
      <trkpt lat="46.40477" lon="4.6957">
        <ele>539.477</ele>
        <time>2022-09-24T10:48:09Z</time>
      </trkpt>
      <trkpt lat="46.40483" lon="4.69574">
        <ele>544.377</ele>
        <time>2022-09-24T10:48:49Z</time>
      </trkpt>
      <trkpt lat="46.40489" lon="4.6957">
        <ele>543.577</ele>
        <time>2022-09-24T10:49:03Z</time>
      </trkpt>
      <trkpt lat="46.40493" lon="4.69562">
        <ele>541.777</ele>
        <time>2022-09-24T10:49:09Z</time>
      </trkpt>
      <trkpt lat="46.405" lon="4.69557">
        <ele>542.577</ele>
        <time>2022-09-24T10:49:37Z</time>
      </trkpt>
      <trkpt lat="46.40506" lon="4.69552">
        <ele>541.177</ele>
        <time>2022-09-24T10:49:42Z</time>
      </trkpt>
      <trkpt lat="46.40514" lon="4.69552">
        <ele>539.077</ele>
        <time>2022-09-24T10:49:49Z</time>
      </trkpt>
      <trkpt lat="46.4052" lon="4.69554">
        <ele>538.077</ele>
        <time>2022-09-24T10:49:54Z</time>
      </trkpt>
      <trkpt lat="46.40527" lon="4.69556">
        <ele>537.377</ele>
        <time>2022-09-24T10:49:59Z</time>
      </trkpt>
      <trkpt lat="46.40536" lon="4.69557">
        <ele>537.177</ele>
        <time>2022-09-24T10:50:05Z</time>
      </trkpt>
      <trkpt lat="46.40543" lon="4.69557">
        <ele>536.777</ele>
        <time>2022-09-24T10:50:10Z</time>
      </trkpt>
      <trkpt lat="46.4055" lon="4.6956">
        <ele>535.477</ele>
        <time>2022-09-24T10:50:16Z</time>
      </trkpt>
      <trkpt lat="46.40557" lon="4.69565">
        <ele>536.577</ele>
        <time>2022-09-24T10:50:23Z</time>
      </trkpt>
      <trkpt lat="46.40565" lon="4.69571">
        <ele>536.577</ele>
        <time>2022-09-24T10:50:29Z</time>
      </trkpt>
      <trkpt lat="46.40572" lon="4.69573">
        <ele>536.477</ele>
        <time>2022-09-24T10:50:34Z</time>
      </trkpt>
      <trkpt lat="46.40579" lon="4.69573">
        <ele>539.177</ele>
        <time>2022-09-24T10:50:40Z</time>
      </trkpt>
      <trkpt lat="46.40586" lon="4.69579">
        <ele>540.277</ele>
        <time>2022-09-24T10:50:45Z</time>
      </trkpt>
      <trkpt lat="46.40593" lon="4.69582">
        <ele>539.277</ele>
        <time>2022-09-24T10:50:50Z</time>
      </trkpt>
      <trkpt lat="46.40599" lon="4.69586">
        <ele>537.877</ele>
        <time>2022-09-24T10:50:56Z</time>
      </trkpt>
      <trkpt lat="46.40605" lon="4.69594">
        <ele>535.977</ele>
        <time>2022-09-24T10:51:02Z</time>
      </trkpt>
      <trkpt lat="46.40612" lon="4.69596">
        <ele>534.377</ele>
        <time>2022-09-24T10:51:07Z</time>
      </trkpt>
      <trkpt lat="46.40618" lon="4.696">
        <ele>534.177</ele>
        <time>2022-09-24T10:51:14Z</time>
      </trkpt>
      <trkpt lat="46.40625" lon="4.69602">
        <ele>534.677</ele>
        <time>2022-09-24T10:51:19Z</time>
      </trkpt>
      <trkpt lat="46.40632" lon="4.69607">
        <ele>532.977</ele>
        <time>2022-09-24T10:51:25Z</time>
      </trkpt>
      <trkpt lat="46.40638" lon="4.69611">
        <ele>531.977</ele>
        <time>2022-09-24T10:51:30Z</time>
      </trkpt>
      <trkpt lat="46.40644" lon="4.69618">
        <ele>531.177</ele>
        <time>2022-09-24T10:51:36Z</time>
      </trkpt>
      <trkpt lat="46.40651" lon="4.69619">
        <ele>530.377</ele>
        <time>2022-09-24T10:51:41Z</time>
      </trkpt>
      <trkpt lat="46.40657" lon="4.69622">
        <ele>529.677</ele>
        <time>2022-09-24T10:51:47Z</time>
      </trkpt>
      <trkpt lat="46.40664" lon="4.69624">
        <ele>529.577</ele>
        <time>2022-09-24T10:51:53Z</time>
      </trkpt>
      <trkpt lat="46.4067" lon="4.6963">
        <ele>530.077</ele>
        <time>2022-09-24T10:51:58Z</time>
      </trkpt>
      <trkpt lat="46.40676" lon="4.69631">
        <ele>530.277</ele>
        <time>2022-09-24T10:52:04Z</time>
      </trkpt>
      <trkpt lat="46.40683" lon="4.69634">
        <ele>528.878</ele>
        <time>2022-09-24T10:52:09Z</time>
      </trkpt>
      <trkpt lat="46.4069" lon="4.69634">
        <ele>527.478</ele>
        <time>2022-09-24T10:52:15Z</time>
      </trkpt>
      <trkpt lat="46.40698" lon="4.69632">
        <ele>526.578</ele>
        <time>2022-09-24T10:52:22Z</time>
      </trkpt>
      <trkpt lat="46.40706" lon="4.69633">
        <ele>525.478</ele>
        <time>2022-09-24T10:52:27Z</time>
      </trkpt>
      <trkpt lat="46.40712" lon="4.69637">
        <ele>526.378</ele>
        <time>2022-09-24T10:52:34Z</time>
      </trkpt>
      <trkpt lat="46.40719" lon="4.69637">
        <ele>526.578</ele>
        <time>2022-09-24T10:52:40Z</time>
      </trkpt>
      <trkpt lat="46.40726" lon="4.69637">
        <ele>526.778</ele>
        <time>2022-09-24T10:52:45Z</time>
      </trkpt>
      <trkpt lat="46.40733" lon="4.69639">
        <ele>525.978</ele>
        <time>2022-09-24T10:52:51Z</time>
      </trkpt>
      <trkpt lat="46.4074" lon="4.69643">
        <ele>525.478</ele>
        <time>2022-09-24T10:52:57Z</time>
      </trkpt>
      <trkpt lat="46.40746" lon="4.69649">
        <ele>525.678</ele>
        <time>2022-09-24T10:53:04Z</time>
      </trkpt>
      <trkpt lat="46.40752" lon="4.69655">
        <ele>525.378</ele>
        <time>2022-09-24T10:53:09Z</time>
      </trkpt>
      <trkpt lat="46.40758" lon="4.69658">
        <ele>526.778</ele>
        <time>2022-09-24T10:53:15Z</time>
      </trkpt>
      <trkpt lat="46.40765" lon="4.69661">
        <ele>527.578</ele>
        <time>2022-09-24T10:53:21Z</time>
      </trkpt>
      <trkpt lat="46.40771" lon="4.69665">
        <ele>527.378</ele>
        <time>2022-09-24T10:53:26Z</time>
      </trkpt>
      <trkpt lat="46.40778" lon="4.69668">
        <ele>526.278</ele>
        <time>2022-09-24T10:53:34Z</time>
      </trkpt>
      <trkpt lat="46.40785" lon="4.69669">
        <ele>525.578</ele>
        <time>2022-09-24T10:53:41Z</time>
      </trkpt>
      <trkpt lat="46.40792" lon="4.69668">
        <ele>522.778</ele>
        <time>2022-09-24T10:53:47Z</time>
      </trkpt>
      <trkpt lat="46.40798" lon="4.6967">
        <ele>522.278</ele>
        <time>2022-09-24T10:53:54Z</time>
      </trkpt>
      <trkpt lat="46.40806" lon="4.6967">
        <ele>520.978</ele>
        <time>2022-09-24T10:53:59Z</time>
      </trkpt>
      <trkpt lat="46.40818" lon="4.69668">
        <ele>522.078</ele>
        <time>2022-09-24T10:54:05Z</time>
      </trkpt>
      <trkpt lat="46.40825" lon="4.69666">
        <ele>522.278</ele>
        <time>2022-09-24T10:54:11Z</time>
      </trkpt>
      <trkpt lat="46.40832" lon="4.69665">
        <ele>520.678</ele>
        <time>2022-09-24T10:54:19Z</time>
      </trkpt>
      <trkpt lat="46.40843" lon="4.69661">
        <ele>521.678</ele>
        <time>2022-09-24T10:54:25Z</time>
      </trkpt>
      <trkpt lat="46.4085" lon="4.69662">
        <ele>522.078</ele>
        <time>2022-09-24T10:54:30Z</time>
      </trkpt>
      <trkpt lat="46.40858" lon="4.69662">
        <ele>521.178</ele>
        <time>2022-09-24T10:54:36Z</time>
      </trkpt>
      <trkpt lat="46.40864" lon="4.6966">
        <ele>521.678</ele>
        <time>2022-09-24T10:54:41Z</time>
      </trkpt>
      <trkpt lat="46.40871" lon="4.69659">
        <ele>521.678</ele>
        <time>2022-09-24T10:54:47Z</time>
      </trkpt>
      <trkpt lat="46.40882" lon="4.69654">
        <ele>519.878</ele>
        <time>2022-09-24T10:54:53Z</time>
      </trkpt>
      <trkpt lat="46.40888" lon="4.69656">
        <ele>515.978</ele>
        <time>2022-09-24T10:55:00Z</time>
      </trkpt>
      <trkpt lat="46.40896" lon="4.69656">
        <ele>514.478</ele>
        <time>2022-09-24T10:55:06Z</time>
      </trkpt>
      <trkpt lat="46.40904" lon="4.69657">
        <ele>512.578</ele>
        <time>2022-09-24T10:55:13Z</time>
      </trkpt>
      <trkpt lat="46.4091" lon="4.69659">
        <ele>512.278</ele>
        <time>2022-09-24T10:55:19Z</time>
      </trkpt>
      <trkpt lat="46.40917" lon="4.69655">
        <ele>509.778</ele>
        <time>2022-09-24T10:55:26Z</time>
      </trkpt>
      <trkpt lat="46.40924" lon="4.69658">
        <ele>505.978</ele>
        <time>2022-09-24T10:55:40Z</time>
      </trkpt>
      <trkpt lat="46.4093" lon="4.69664">
        <ele>507.478</ele>
        <time>2022-09-24T10:55:47Z</time>
      </trkpt>
      <trkpt lat="46.40937" lon="4.69667">
        <ele>505.478</ele>
        <time>2022-09-24T10:55:55Z</time>
      </trkpt>
      <trkpt lat="46.40946" lon="4.69672">
        <ele>504.478</ele>
        <time>2022-09-24T10:56:01Z</time>
      </trkpt>
      <trkpt lat="46.40953" lon="4.69676">
        <ele>502.978</ele>
        <time>2022-09-24T10:56:07Z</time>
      </trkpt>
      <trkpt lat="46.40959" lon="4.69679">
        <ele>502.378</ele>
        <time>2022-09-24T10:56:16Z</time>
      </trkpt>
      <trkpt lat="46.40966" lon="4.69682">
        <ele>499.678</ele>
        <time>2022-09-24T10:56:22Z</time>
      </trkpt>
      <trkpt lat="46.40973" lon="4.69685">
        <ele>501.578</ele>
        <time>2022-09-24T10:56:29Z</time>
      </trkpt>
      <trkpt lat="46.40977" lon="4.69693">
        <ele>500.578</ele>
        <time>2022-09-24T10:56:35Z</time>
      </trkpt>
      <trkpt lat="46.40983" lon="4.69699">
        <ele>497.978</ele>
        <time>2022-09-24T10:56:44Z</time>
      </trkpt>
      <trkpt lat="46.40988" lon="4.69705">
        <ele>495.578</ele>
        <time>2022-09-24T10:56:50Z</time>
      </trkpt>
      <trkpt lat="46.40996" lon="4.69708">
        <ele>495.678</ele>
        <time>2022-09-24T10:56:55Z</time>
      </trkpt>
      <trkpt lat="46.41003" lon="4.69713">
        <ele>494.678</ele>
        <time>2022-09-24T10:57:01Z</time>
      </trkpt>
      <trkpt lat="46.41009" lon="4.6972">
        <ele>490.278</ele>
        <time>2022-09-24T10:57:08Z</time>
      </trkpt>
      <trkpt lat="46.41017" lon="4.69724">
        <ele>488.978</ele>
        <time>2022-09-24T10:57:13Z</time>
      </trkpt>
      <trkpt lat="46.41025" lon="4.69727">
        <ele>489.578</ele>
        <time>2022-09-24T10:57:18Z</time>
      </trkpt>
      <trkpt lat="46.41031" lon="4.69731">
        <ele>489.779</ele>
        <time>2022-09-24T10:57:24Z</time>
      </trkpt>
      <trkpt lat="46.41041" lon="4.69732">
        <ele>491.579</ele>
        <time>2022-09-24T10:57:29Z</time>
      </trkpt>
      <trkpt lat="46.41048" lon="4.69731">
        <ele>492.179</ele>
        <time>2022-09-24T10:57:34Z</time>
      </trkpt>
      <trkpt lat="46.41055" lon="4.69736">
        <ele>492.879</ele>
        <time>2022-09-24T10:57:39Z</time>
      </trkpt>
      <trkpt lat="46.41061" lon="4.69743">
        <ele>493.279</ele>
        <time>2022-09-24T10:57:45Z</time>
      </trkpt>
      <trkpt lat="46.41067" lon="4.69748">
        <ele>489.379</ele>
        <time>2022-09-24T10:57:52Z</time>
      </trkpt>
      <trkpt lat="46.41073" lon="4.69753">
        <ele>489.179</ele>
        <time>2022-09-24T10:57:57Z</time>
      </trkpt>
      <trkpt lat="46.41083" lon="4.69758">
        <ele>491.079</ele>
        <time>2022-09-24T10:58:02Z</time>
      </trkpt>
      <trkpt lat="46.41091" lon="4.69763">
        <ele>493.879</ele>
        <time>2022-09-24T10:58:07Z</time>
      </trkpt>
      <trkpt lat="46.41099" lon="4.69766">
        <ele>494.479</ele>
        <time>2022-09-24T10:58:13Z</time>
      </trkpt>
      <trkpt lat="46.41107" lon="4.69766">
        <ele>493.579</ele>
        <time>2022-09-24T10:58:19Z</time>
      </trkpt>
      <trkpt lat="46.41113" lon="4.69768">
        <ele>493.679</ele>
        <time>2022-09-24T10:58:34Z</time>
      </trkpt>
      <trkpt lat="46.4112" lon="4.69771">
        <ele>493.679</ele>
        <time>2022-09-24T10:58:40Z</time>
      </trkpt>
      <trkpt lat="46.41127" lon="4.69773">
        <ele>492.779</ele>
        <time>2022-09-24T10:58:47Z</time>
      </trkpt>
      <trkpt lat="46.41134" lon="4.69778">
        <ele>490.279</ele>
        <time>2022-09-24T10:58:55Z</time>
      </trkpt>
      <trkpt lat="46.4114" lon="4.69783">
        <ele>492.179</ele>
        <time>2022-09-24T10:59:02Z</time>
      </trkpt>
      <trkpt lat="46.41146" lon="4.69785">
        <ele>492.779</ele>
        <time>2022-09-24T10:59:08Z</time>
      </trkpt>
      <trkpt lat="46.41152" lon="4.69789">
        <ele>494.479</ele>
        <time>2022-09-24T10:59:13Z</time>
      </trkpt>
      <trkpt lat="46.41158" lon="4.69795">
        <ele>495.579</ele>
        <time>2022-09-24T10:59:19Z</time>
      </trkpt>
      <trkpt lat="46.41165" lon="4.69801">
        <ele>497.779</ele>
        <time>2022-09-24T10:59:25Z</time>
      </trkpt>
      <trkpt lat="46.41172" lon="4.69808">
        <ele>498.879</ele>
        <time>2022-09-24T10:59:30Z</time>
      </trkpt>
      <trkpt lat="46.41178" lon="4.69811">
        <ele>498.979</ele>
        <time>2022-09-24T10:59:35Z</time>
      </trkpt>
      <trkpt lat="46.41182" lon="4.69819">
        <ele>501.779</ele>
        <time>2022-09-24T10:59:41Z</time>
      </trkpt>
      <trkpt lat="46.41188" lon="4.69824">
        <ele>504.079</ele>
        <time>2022-09-24T10:59:46Z</time>
      </trkpt>
      <trkpt lat="46.41196" lon="4.69826">
        <ele>505.079</ele>
        <time>2022-09-24T10:59:51Z</time>
      </trkpt>
      <trkpt lat="46.41205" lon="4.69829">
        <ele>505.179</ele>
        <time>2022-09-24T10:59:57Z</time>
      </trkpt>
      <trkpt lat="46.41212" lon="4.69832">
        <ele>505.779</ele>
        <time>2022-09-24T11:00:03Z</time>
      </trkpt>
      <trkpt lat="46.41219" lon="4.69837">
        <ele>503.779</ele>
        <time>2022-09-24T11:00:09Z</time>
      </trkpt>
      <trkpt lat="46.41226" lon="4.6984">
        <ele>502.679</ele>
        <time>2022-09-24T11:00:14Z</time>
      </trkpt>
      <trkpt lat="46.41232" lon="4.69844">
        <ele>502.279</ele>
        <time>2022-09-24T11:00:19Z</time>
      </trkpt>
      <trkpt lat="46.41239" lon="4.6985">
        <ele>500.979</ele>
        <time>2022-09-24T11:00:25Z</time>
      </trkpt>
      <trkpt lat="46.41246" lon="4.69855">
        <ele>502.579</ele>
        <time>2022-09-24T11:00:31Z</time>
      </trkpt>
      <trkpt lat="46.41253" lon="4.6986">
        <ele>504.979</ele>
        <time>2022-09-24T11:00:37Z</time>
      </trkpt>
      <trkpt lat="46.41259" lon="4.69866">
        <ele>506.779</ele>
        <time>2022-09-24T11:00:43Z</time>
      </trkpt>
      <trkpt lat="46.41266" lon="4.6987">
        <ele>506.479</ele>
        <time>2022-09-24T11:00:50Z</time>
      </trkpt>
      <trkpt lat="46.41273" lon="4.69873">
        <ele>506.879</ele>
        <time>2022-09-24T11:00:55Z</time>
      </trkpt>
      <trkpt lat="46.4128" lon="4.69874">
        <ele>508.279</ele>
        <time>2022-09-24T11:01:01Z</time>
      </trkpt>
      <trkpt lat="46.41286" lon="4.69879">
        <ele>508.279</ele>
        <time>2022-09-24T11:01:06Z</time>
      </trkpt>
      <trkpt lat="46.41294" lon="4.69882">
        <ele>509.179</ele>
        <time>2022-09-24T11:01:12Z</time>
      </trkpt>
      <trkpt lat="46.41302" lon="4.69885">
        <ele>510.279</ele>
        <time>2022-09-24T11:01:17Z</time>
      </trkpt>
      <trkpt lat="46.41309" lon="4.69888">
        <ele>508.879</ele>
        <time>2022-09-24T11:01:23Z</time>
      </trkpt>
      <trkpt lat="46.41316" lon="4.69893">
        <ele>508.179</ele>
        <time>2022-09-24T11:01:29Z</time>
      </trkpt>
      <trkpt lat="46.41322" lon="4.69895">
        <ele>508.079</ele>
        <time>2022-09-24T11:01:35Z</time>
      </trkpt>
      <trkpt lat="46.4133" lon="4.69898">
        <ele>510.079</ele>
        <time>2022-09-24T11:01:41Z</time>
      </trkpt>
      <trkpt lat="46.41336" lon="4.69901">
        <ele>509.879</ele>
        <time>2022-09-24T11:01:46Z</time>
      </trkpt>
      <trkpt lat="46.41341" lon="4.69907">
        <ele>509.579</ele>
        <time>2022-09-24T11:01:52Z</time>
      </trkpt>
      <trkpt lat="46.41349" lon="4.6991">
        <ele>510.98</ele>
        <time>2022-09-24T11:01:57Z</time>
      </trkpt>
      <trkpt lat="46.41355" lon="4.69916">
        <ele>511.78</ele>
        <time>2022-09-24T11:02:03Z</time>
      </trkpt>
      <trkpt lat="46.41363" lon="4.69918">
        <ele>513.48</ele>
        <time>2022-09-24T11:02:09Z</time>
      </trkpt>
      <trkpt lat="46.4137" lon="4.69918">
        <ele>513.78</ele>
        <time>2022-09-24T11:02:14Z</time>
      </trkpt>
      <trkpt lat="46.41377" lon="4.69921">
        <ele>516.38</ele>
        <time>2022-09-24T11:02:20Z</time>
      </trkpt>
      <trkpt lat="46.41384" lon="4.69923">
        <ele>517.28</ele>
        <time>2022-09-24T11:02:25Z</time>
      </trkpt>
      <trkpt lat="46.41392" lon="4.69924">
        <ele>514.88</ele>
        <time>2022-09-24T11:02:31Z</time>
      </trkpt>
      <trkpt lat="46.41399" lon="4.69927">
        <ele>512.68</ele>
        <time>2022-09-24T11:02:37Z</time>
      </trkpt>
      <trkpt lat="46.41406" lon="4.69928">
        <ele>512.68</ele>
        <time>2022-09-24T11:02:42Z</time>
      </trkpt>
      <trkpt lat="46.41413" lon="4.6993">
        <ele>513.38</ele>
        <time>2022-09-24T11:02:48Z</time>
      </trkpt>
      <trkpt lat="46.4142" lon="4.69929">
        <ele>513.48</ele>
        <time>2022-09-24T11:02:54Z</time>
      </trkpt>
      <trkpt lat="46.41427" lon="4.69927">
        <ele>514.88</ele>
        <time>2022-09-24T11:03:01Z</time>
      </trkpt>
      <trkpt lat="46.41433" lon="4.69921">
        <ele>514.08</ele>
        <time>2022-09-24T11:03:07Z</time>
      </trkpt>
      <trkpt lat="46.41441" lon="4.6992">
        <ele>515.08</ele>
        <time>2022-09-24T11:03:17Z</time>
      </trkpt>
      <trkpt lat="46.41449" lon="4.69918">
        <ele>516.28</ele>
        <time>2022-09-24T11:03:22Z</time>
      </trkpt>
      <trkpt lat="46.41458" lon="4.69925">
        <ele>515.78</ele>
        <time>2022-09-24T11:03:27Z</time>
      </trkpt>
      <trkpt lat="46.41465" lon="4.69929">
        <ele>515.78</ele>
        <time>2022-09-24T11:03:34Z</time>
      </trkpt>
      <trkpt lat="46.41469" lon="4.69936">
        <ele>516.88</ele>
        <time>2022-09-24T11:03:40Z</time>
      </trkpt>
      <trkpt lat="46.41475" lon="4.69939">
        <ele>517.28</ele>
        <time>2022-09-24T11:03:45Z</time>
      </trkpt>
      <trkpt lat="46.41482" lon="4.69942">
        <ele>517.48</ele>
        <time>2022-09-24T11:03:52Z</time>
      </trkpt>
      <trkpt lat="46.41489" lon="4.69944">
        <ele>517.48</ele>
        <time>2022-09-24T11:03:59Z</time>
      </trkpt>
      <trkpt lat="46.41495" lon="4.69944">
        <ele>515.18</ele>
        <time>2022-09-24T11:04:05Z</time>
      </trkpt>
      <trkpt lat="46.41501" lon="4.69941">
        <ele>519.48</ele>
        <time>2022-09-24T11:05:20Z</time>
      </trkpt>
      <trkpt lat="46.41508" lon="4.69941">
        <ele>521.78</ele>
        <time>2022-09-24T11:05:32Z</time>
      </trkpt>
      <trkpt lat="46.41515" lon="4.69939">
        <ele>520.78</ele>
        <time>2022-09-24T11:06:13Z</time>
      </trkpt>
      <trkpt lat="46.41522" lon="4.69944">
        <ele>519.48</ele>
        <time>2022-09-24T11:06:19Z</time>
      </trkpt>
      <trkpt lat="46.41527" lon="4.69951">
        <ele>521.58</ele>
        <time>2022-09-24T11:06:29Z</time>
      </trkpt>
      <trkpt lat="46.41533" lon="4.69956">
        <ele>524.98</ele>
        <time>2022-09-24T11:06:39Z</time>
      </trkpt>
      <trkpt lat="46.41539" lon="4.69961">
        <ele>525.88</ele>
        <time>2022-09-24T11:06:46Z</time>
      </trkpt>
      <trkpt lat="46.41544" lon="4.69969">
        <ele>526.08</ele>
        <time>2022-09-24T11:06:54Z</time>
      </trkpt>
      <trkpt lat="46.4155" lon="4.69971">
        <ele>530.28</ele>
        <time>2022-09-24T11:07:04Z</time>
      </trkpt>
      <trkpt lat="46.41558" lon="4.69974">
        <ele>538.08</ele>
        <time>2022-09-24T11:07:12Z</time>
      </trkpt>
      <trkpt lat="46.41564" lon="4.69978">
        <ele>542.18</ele>
        <time>2022-09-24T11:07:19Z</time>
      </trkpt>
      <trkpt lat="46.41571" lon="4.69979">
        <ele>546.18</ele>
        <time>2022-09-24T11:07:28Z</time>
      </trkpt>
      <trkpt lat="46.41577" lon="4.69984">
        <ele>547.48</ele>
        <time>2022-09-24T11:07:36Z</time>
      </trkpt>
      <trkpt lat="46.41584" lon="4.69987">
        <ele>549.28</ele>
        <time>2022-09-24T11:07:43Z</time>
      </trkpt>
      <trkpt lat="46.41591" lon="4.69991">
        <ele>549.18</ele>
        <time>2022-09-24T11:07:51Z</time>
      </trkpt>
      <trkpt lat="46.41598" lon="4.69993">
        <ele>546.58</ele>
        <time>2022-09-24T11:07:57Z</time>
      </trkpt>
      <trkpt lat="46.41603" lon="4.7">
        <ele>548.88</ele>
        <time>2022-09-24T11:08:05Z</time>
      </trkpt>
      <trkpt lat="46.41609" lon="4.70004">
        <ele>550.28</ele>
        <time>2022-09-24T11:08:11Z</time>
      </trkpt>
      <trkpt lat="46.41615" lon="4.7001">
        <ele>552.08</ele>
        <time>2022-09-24T11:08:18Z</time>
      </trkpt>
      <trkpt lat="46.41622" lon="4.70013">
        <ele>549.88</ele>
        <time>2022-09-24T11:08:23Z</time>
      </trkpt>
      <trkpt lat="46.4163" lon="4.70019">
        <ele>550.08</ele>
        <time>2022-09-24T11:08:29Z</time>
      </trkpt>
      <trkpt lat="46.41635" lon="4.70012">
        <ele>551.78</ele>
        <time>2022-09-24T11:08:35Z</time>
      </trkpt>
      <trkpt lat="46.41644" lon="4.70007">
        <ele>559.48</ele>
        <time>2022-09-24T11:08:41Z</time>
      </trkpt>
      <trkpt lat="46.4165" lon="4.70012">
        <ele>553.68</ele>
        <time>2022-09-24T11:09:09Z</time>
      </trkpt>
      <trkpt lat="46.41657" lon="4.7001">
        <ele>552.28</ele>
        <time>2022-09-24T11:09:16Z</time>
      </trkpt>
      <trkpt lat="46.41663" lon="4.7001">
        <ele>550.68</ele>
        <time>2022-09-24T11:09:21Z</time>
      </trkpt>
      <trkpt lat="46.4167" lon="4.70012">
        <ele>549.28</ele>
        <time>2022-09-24T11:09:27Z</time>
      </trkpt>
      <trkpt lat="46.41677" lon="4.70017">
        <ele>545.18</ele>
        <time>2022-09-24T11:09:34Z</time>
      </trkpt>
      <trkpt lat="46.41682" lon="4.70022">
        <ele>543.78</ele>
        <time>2022-09-24T11:09:40Z</time>
      </trkpt>
      <trkpt lat="46.41687" lon="4.70029">
        <ele>543.18</ele>
        <time>2022-09-24T11:09:46Z</time>
      </trkpt>
      <trkpt lat="46.4169" lon="4.70038">
        <ele>543.881</ele>
        <time>2022-09-24T11:09:54Z</time>
      </trkpt>
      <trkpt lat="46.41693" lon="4.70047">
        <ele>545.481</ele>
        <time>2022-09-24T11:10:00Z</time>
      </trkpt>
      <trkpt lat="46.41697" lon="4.70054">
        <ele>546.481</ele>
        <time>2022-09-24T11:10:07Z</time>
      </trkpt>
      <trkpt lat="46.41701" lon="4.70061">
        <ele>547.081</ele>
        <time>2022-09-24T11:10:14Z</time>
      </trkpt>
      <trkpt lat="46.41708" lon="4.70066">
        <ele>548.481</ele>
        <time>2022-09-24T11:10:20Z</time>
      </trkpt>
      <trkpt lat="46.41714" lon="4.70071">
        <ele>546.881</ele>
        <time>2022-09-24T11:10:30Z</time>
      </trkpt>
      <trkpt lat="46.41719" lon="4.70076">
        <ele>543.381</ele>
        <time>2022-09-24T11:10:40Z</time>
      </trkpt>
      <trkpt lat="46.41726" lon="4.70079">
        <ele>541.781</ele>
        <time>2022-09-24T11:10:46Z</time>
      </trkpt>
      <trkpt lat="46.41734" lon="4.70084">
        <ele>538.581</ele>
        <time>2022-09-24T11:10:52Z</time>
      </trkpt>
      <trkpt lat="46.4174" lon="4.70088">
        <ele>536.081</ele>
        <time>2022-09-24T11:10:58Z</time>
      </trkpt>
      <trkpt lat="46.41745" lon="4.70095">
        <ele>533.881</ele>
        <time>2022-09-24T11:11:04Z</time>
      </trkpt>
      <trkpt lat="46.4175" lon="4.70103">
        <ele>529.781</ele>
        <time>2022-09-24T11:11:11Z</time>
      </trkpt>
      <trkpt lat="46.41755" lon="4.7011">
        <ele>528.881</ele>
        <time>2022-09-24T11:11:17Z</time>
      </trkpt>
      <trkpt lat="46.41761" lon="4.70116">
        <ele>528.281</ele>
        <time>2022-09-24T11:11:25Z</time>
      </trkpt>
      <trkpt lat="46.41768" lon="4.7012">
        <ele>526.681</ele>
        <time>2022-09-24T11:11:32Z</time>
      </trkpt>
      <trkpt lat="46.41773" lon="4.70126">
        <ele>526.881</ele>
        <time>2022-09-24T11:11:39Z</time>
      </trkpt>
      <trkpt lat="46.41779" lon="4.70132">
        <ele>527.881</ele>
        <time>2022-09-24T11:11:47Z</time>
      </trkpt>
      <trkpt lat="46.41785" lon="4.70135">
        <ele>526.581</ele>
        <time>2022-09-24T11:11:53Z</time>
      </trkpt>
      <trkpt lat="46.41791" lon="4.70141">
        <ele>525.781</ele>
        <time>2022-09-24T11:11:58Z</time>
      </trkpt>
      <trkpt lat="46.41795" lon="4.70149">
        <ele>525.881</ele>
        <time>2022-09-24T11:12:07Z</time>
      </trkpt>
      <trkpt lat="46.41799" lon="4.70157">
        <ele>525.381</ele>
        <time>2022-09-24T11:12:12Z</time>
      </trkpt>
      <trkpt lat="46.41806" lon="4.70162">
        <ele>521.681</ele>
        <time>2022-09-24T11:12:18Z</time>
      </trkpt>
      <trkpt lat="46.41815" lon="4.7016">
        <ele>516.181</ele>
        <time>2022-09-24T11:12:24Z</time>
      </trkpt>
      <trkpt lat="46.41822" lon="4.70161">
        <ele>512.681</ele>
        <time>2022-09-24T11:12:33Z</time>
      </trkpt>
      <trkpt lat="46.41828" lon="4.70159">
        <ele>510.481</ele>
        <time>2022-09-24T11:12:41Z</time>
      </trkpt>
      <trkpt lat="46.41835" lon="4.70156">
        <ele>511.181</ele>
        <time>2022-09-24T11:12:47Z</time>
      </trkpt>
      <trkpt lat="46.41844" lon="4.70152">
        <ele>514.281</ele>
        <time>2022-09-24T11:12:52Z</time>
      </trkpt>
      <trkpt lat="46.41851" lon="4.70144">
        <ele>514.281</ele>
        <time>2022-09-24T11:12:57Z</time>
      </trkpt>
      <trkpt lat="46.41858" lon="4.70143">
        <ele>514.681</ele>
        <time>2022-09-24T11:13:03Z</time>
      </trkpt>
      <trkpt lat="46.41864" lon="4.70138">
        <ele>515.481</ele>
        <time>2022-09-24T11:13:09Z</time>
      </trkpt>
      <trkpt lat="46.41871" lon="4.70135">
        <ele>515.981</ele>
        <time>2022-09-24T11:13:17Z</time>
      </trkpt>
      <trkpt lat="46.41877" lon="4.70132">
        <ele>515.181</ele>
        <time>2022-09-24T11:13:27Z</time>
      </trkpt>
      <trkpt lat="46.41885" lon="4.70129">
        <ele>515.781</ele>
        <time>2022-09-24T11:13:32Z</time>
      </trkpt>
      <trkpt lat="46.41897" lon="4.70123">
        <ele>520.081</ele>
        <time>2022-09-24T11:13:37Z</time>
      </trkpt>
      <trkpt lat="46.41904" lon="4.70121">
        <ele>521.481</ele>
        <time>2022-09-24T11:13:44Z</time>
      </trkpt>
      <trkpt lat="46.41911" lon="4.70121">
        <ele>522.681</ele>
        <time>2022-09-24T11:13:49Z</time>
      </trkpt>
      <trkpt lat="46.41919" lon="4.70122">
        <ele>523.181</ele>
        <time>2022-09-24T11:13:57Z</time>
      </trkpt>
      <trkpt lat="46.41925" lon="4.70123">
        <ele>523.081</ele>
        <time>2022-09-24T11:14:04Z</time>
      </trkpt>
      <trkpt lat="46.41932" lon="4.70123">
        <ele>523.081</ele>
        <time>2022-09-24T11:14:10Z</time>
      </trkpt>
      <trkpt lat="46.41941" lon="4.70123">
        <ele>521.881</ele>
        <time>2022-09-24T11:14:16Z</time>
      </trkpt>
      <trkpt lat="46.41947" lon="4.70121">
        <ele>522.281</ele>
        <time>2022-09-24T11:14:21Z</time>
      </trkpt>
      <trkpt lat="46.41954" lon="4.70114">
        <ele>522.381</ele>
        <time>2022-09-24T11:14:26Z</time>
      </trkpt>
      <trkpt lat="46.41961" lon="4.7012">
        <ele>520.081</ele>
        <time>2022-09-24T11:14:36Z</time>
      </trkpt>
      <trkpt lat="46.41967" lon="4.70126">
        <ele>515.081</ele>
        <time>2022-09-24T11:14:45Z</time>
      </trkpt>
      <trkpt lat="46.41975" lon="4.70129">
        <ele>511.281</ele>
        <time>2022-09-24T11:14:50Z</time>
      </trkpt>
      <trkpt lat="46.41983" lon="4.70133">
        <ele>508.281</ele>
        <time>2022-09-24T11:14:56Z</time>
      </trkpt>
      <trkpt lat="46.41991" lon="4.70136">
        <ele>505.081</ele>
        <time>2022-09-24T11:15:05Z</time>
      </trkpt>
      <trkpt lat="46.41998" lon="4.70135">
        <ele>506.781</ele>
        <time>2022-09-24T11:15:26Z</time>
      </trkpt>
      <trkpt lat="46.41992" lon="4.70139">
        <ele>509.381</ele>
        <time>2022-09-24T11:15:38Z</time>
      </trkpt>
      <trkpt lat="46.42" lon="4.70138">
        <ele>515.381</ele>
        <time>2022-09-24T11:15:57Z</time>
      </trkpt>
      <trkpt lat="46.41997" lon="4.70129">
        <ele>516.981</ele>
        <time>2022-09-24T11:16:21Z</time>
      </trkpt>
      <trkpt lat="46.4199" lon="4.70129">
        <ele>513.781</ele>
        <time>2022-09-24T11:16:28Z</time>
      </trkpt>
      <trkpt lat="46.41982" lon="4.70127">
        <ele>511.081</ele>
        <time>2022-09-24T11:16:34Z</time>
      </trkpt>
      <trkpt lat="46.41989" lon="4.70124">
        <ele>506.681</ele>
        <time>2022-09-24T11:17:00Z</time>
      </trkpt>
      <trkpt lat="46.41995" lon="4.70131">
        <ele>505.481</ele>
        <time>2022-09-24T11:17:06Z</time>
      </trkpt>
      <trkpt lat="46.42003" lon="4.70133">
        <ele>505.581</ele>
        <time>2022-09-24T11:17:13Z</time>
      </trkpt>
      <trkpt lat="46.4201" lon="4.70134">
        <ele>505.881</ele>
        <time>2022-09-24T11:17:20Z</time>
      </trkpt>
      <trkpt lat="46.42017" lon="4.7013">
        <ele>505.881</ele>
        <time>2022-09-24T11:17:27Z</time>
      </trkpt>
      <trkpt lat="46.42024" lon="4.7013">
        <ele>507.381</ele>
        <time>2022-09-24T11:17:38Z</time>
      </trkpt>
      <trkpt lat="46.42031" lon="4.70131">
        <ele>508.381</ele>
        <time>2022-09-24T11:17:46Z</time>
      </trkpt>
      <trkpt lat="46.42037" lon="4.70132">
        <ele>508.681</ele>
        <time>2022-09-24T11:17:53Z</time>
      </trkpt>
      <trkpt lat="46.42044" lon="4.70129">
        <ele>508.382</ele>
        <time>2022-09-24T11:17:58Z</time>
      </trkpt>
      <trkpt lat="46.42051" lon="4.70127">
        <ele>508.682</ele>
        <time>2022-09-24T11:18:04Z</time>
      </trkpt>
      <trkpt lat="46.42057" lon="4.70123">
        <ele>508.282</ele>
        <time>2022-09-24T11:18:11Z</time>
      </trkpt>
      <trkpt lat="46.42064" lon="4.70121">
        <ele>507.082</ele>
        <time>2022-09-24T11:18:16Z</time>
      </trkpt>
      <trkpt lat="46.42071" lon="4.70122">
        <ele>506.282</ele>
        <time>2022-09-24T11:18:23Z</time>
      </trkpt>
      <trkpt lat="46.42079" lon="4.70121">
        <ele>505.982</ele>
        <time>2022-09-24T11:18:30Z</time>
      </trkpt>
      <trkpt lat="46.42086" lon="4.70118">
        <ele>507.082</ele>
        <time>2022-09-24T11:18:35Z</time>
      </trkpt>
      <trkpt lat="46.42092" lon="4.70111">
        <ele>509.882</ele>
        <time>2022-09-24T11:18:42Z</time>
      </trkpt>
      <trkpt lat="46.42098" lon="4.70105">
        <ele>507.282</ele>
        <time>2022-09-24T11:18:48Z</time>
      </trkpt>
      <trkpt lat="46.42104" lon="4.701">
        <ele>508.482</ele>
        <time>2022-09-24T11:18:53Z</time>
      </trkpt>
      <trkpt lat="46.42117" lon="4.70093">
        <ele>506.382</ele>
        <time>2022-09-24T11:19:03Z</time>
      </trkpt>
      <trkpt lat="46.42122" lon="4.70085">
        <ele>504.082</ele>
        <time>2022-09-24T11:19:13Z</time>
      </trkpt>
      <trkpt lat="46.42128" lon="4.70081">
        <ele>503.682</ele>
        <time>2022-09-24T11:19:19Z</time>
      </trkpt>
      <trkpt lat="46.42132" lon="4.70073">
        <ele>503.282</ele>
        <time>2022-09-24T11:19:25Z</time>
      </trkpt>
      <trkpt lat="46.42137" lon="4.70066">
        <ele>501.982</ele>
        <time>2022-09-24T11:19:32Z</time>
      </trkpt>
      <trkpt lat="46.42144" lon="4.70062">
        <ele>502.882</ele>
        <time>2022-09-24T11:19:37Z</time>
      </trkpt>
      <trkpt lat="46.42148" lon="4.70054">
        <ele>504.182</ele>
        <time>2022-09-24T11:19:44Z</time>
      </trkpt>
      <trkpt lat="46.42154" lon="4.70047">
        <ele>507.082</ele>
        <time>2022-09-24T11:19:49Z</time>
      </trkpt>
      <trkpt lat="46.42161" lon="4.70041">
        <ele>507.782</ele>
        <time>2022-09-24T11:19:54Z</time>
      </trkpt>
      <trkpt lat="46.42168" lon="4.70034">
        <ele>506.882</ele>
        <time>2022-09-24T11:20:02Z</time>
      </trkpt>
      <trkpt lat="46.42173" lon="4.70027">
        <ele>505.182</ele>
        <time>2022-09-24T11:20:08Z</time>
      </trkpt>
      <trkpt lat="46.42177" lon="4.70019">
        <ele>503.482</ele>
        <time>2022-09-24T11:20:13Z</time>
      </trkpt>
      <trkpt lat="46.42184" lon="4.70016">
        <ele>505.582</ele>
        <time>2022-09-24T11:20:19Z</time>
      </trkpt>
      <trkpt lat="46.42191" lon="4.70011">
        <ele>506.082</ele>
        <time>2022-09-24T11:20:24Z</time>
      </trkpt>
      <trkpt lat="46.42197" lon="4.70004">
        <ele>504.282</ele>
        <time>2022-09-24T11:20:29Z</time>
      </trkpt>
      <trkpt lat="46.42203" lon="4.69999">
        <ele>506.282</ele>
        <time>2022-09-24T11:20:35Z</time>
      </trkpt>
      <trkpt lat="46.42211" lon="4.69995">
        <ele>508.382</ele>
        <time>2022-09-24T11:20:40Z</time>
      </trkpt>
      <trkpt lat="46.4222" lon="4.69994">
        <ele>510.182</ele>
        <time>2022-09-24T11:20:45Z</time>
      </trkpt>
      <trkpt lat="46.42226" lon="4.69992">
        <ele>509.482</ele>
        <time>2022-09-24T11:20:55Z</time>
      </trkpt>
      <trkpt lat="46.42236" lon="4.69992">
        <ele>511.982</ele>
        <time>2022-09-24T11:21:00Z</time>
      </trkpt>
      <trkpt lat="46.42243" lon="4.69991">
        <ele>512.682</ele>
        <time>2022-09-24T11:21:05Z</time>
      </trkpt>
      <trkpt lat="46.4225" lon="4.69991">
        <ele>510.182</ele>
        <time>2022-09-24T11:21:12Z</time>
      </trkpt>
      <trkpt lat="46.42256" lon="4.69995">
        <ele>509.982</ele>
        <time>2022-09-24T11:21:17Z</time>
      </trkpt>
      <trkpt lat="46.42263" lon="4.69997">
        <ele>508.182</ele>
        <time>2022-09-24T11:21:27Z</time>
      </trkpt>
      <trkpt lat="46.42273" lon="4.69996">
        <ele>509.282</ele>
        <time>2022-09-24T11:21:32Z</time>
      </trkpt>
      <trkpt lat="46.42284" lon="4.69996">
        <ele>511.682</ele>
        <time>2022-09-24T11:21:37Z</time>
      </trkpt>
      <trkpt lat="46.42291" lon="4.69998">
        <ele>512.482</ele>
        <time>2022-09-24T11:21:47Z</time>
      </trkpt>
      <trkpt lat="46.42298" lon="4.69998">
        <ele>512.382</ele>
        <time>2022-09-24T11:21:52Z</time>
      </trkpt>
      <trkpt lat="46.42305" lon="4.69997">
        <ele>512.082</ele>
        <time>2022-09-24T11:21:57Z</time>
      </trkpt>
      <trkpt lat="46.42313" lon="4.69992">
        <ele>512.282</ele>
        <time>2022-09-24T11:22:02Z</time>
      </trkpt>
      <trkpt lat="46.42319" lon="4.6999">
        <ele>511.082</ele>
        <time>2022-09-24T11:22:08Z</time>
      </trkpt>
      <trkpt lat="46.42329" lon="4.69991">
        <ele>509.082</ele>
        <time>2022-09-24T11:22:13Z</time>
      </trkpt>
      <trkpt lat="46.42336" lon="4.6999">
        <ele>507.582</ele>
        <time>2022-09-24T11:22:18Z</time>
      </trkpt>
      <trkpt lat="46.42344" lon="4.69991">
        <ele>505.482</ele>
        <time>2022-09-24T11:22:23Z</time>
      </trkpt>
      <trkpt lat="46.42351" lon="4.69987">
        <ele>504.182</ele>
        <time>2022-09-24T11:22:33Z</time>
      </trkpt>
      <trkpt lat="46.42362" lon="4.69982">
        <ele>508.182</ele>
        <time>2022-09-24T11:22:38Z</time>
      </trkpt>
      <trkpt lat="46.42371" lon="4.6998">
        <ele>511.582</ele>
        <time>2022-09-24T11:22:43Z</time>
      </trkpt>
      <trkpt lat="46.42381" lon="4.69978">
        <ele>511.782</ele>
        <time>2022-09-24T11:22:48Z</time>
      </trkpt>
      <trkpt lat="46.4239" lon="4.69977">
        <ele>513.082</ele>
        <time>2022-09-24T11:22:53Z</time>
      </trkpt>
      <trkpt lat="46.42395" lon="4.69971">
        <ele>512.682</ele>
        <time>2022-09-24T11:22:58Z</time>
      </trkpt>
      <trkpt lat="46.42401" lon="4.69968">
        <ele>511.282</ele>
        <time>2022-09-24T11:23:05Z</time>
      </trkpt>
      <trkpt lat="46.42409" lon="4.69967">
        <ele>509.082</ele>
        <time>2022-09-24T11:23:11Z</time>
      </trkpt>
      <trkpt lat="46.42417" lon="4.69967">
        <ele>505.582</ele>
        <time>2022-09-24T11:23:16Z</time>
      </trkpt>
      <trkpt lat="46.42425" lon="4.69963">
        <ele>504.082</ele>
        <time>2022-09-24T11:23:21Z</time>
      </trkpt>
      <trkpt lat="46.42434" lon="4.69958">
        <ele>502.082</ele>
        <time>2022-09-24T11:23:26Z</time>
      </trkpt>
      <trkpt lat="46.4244" lon="4.69954">
        <ele>500.582</ele>
        <time>2022-09-24T11:23:33Z</time>
      </trkpt>
      <trkpt lat="46.42447" lon="4.69955">
        <ele>500.782</ele>
        <time>2022-09-24T11:23:42Z</time>
      </trkpt>
      <trkpt lat="46.42454" lon="4.69953">
        <ele>502.282</ele>
        <time>2022-09-24T11:23:50Z</time>
      </trkpt>
      <trkpt lat="46.42461" lon="4.69954">
        <ele>502.782</ele>
        <time>2022-09-24T11:23:56Z</time>
      </trkpt>
      <trkpt lat="46.42467" lon="4.69956">
        <ele>501.083</ele>
        <time>2022-09-24T11:24:03Z</time>
      </trkpt>
      <trkpt lat="46.4248" lon="4.69958">
        <ele>498.283</ele>
        <time>2022-09-24T11:24:08Z</time>
      </trkpt>
      <trkpt lat="46.42491" lon="4.69957">
        <ele>494.283</ele>
        <time>2022-09-24T11:24:13Z</time>
      </trkpt>
      <trkpt lat="46.42501" lon="4.69958">
        <ele>491.783</ele>
        <time>2022-09-24T11:24:18Z</time>
      </trkpt>
      <trkpt lat="46.4251" lon="4.69958">
        <ele>492.083</ele>
        <time>2022-09-24T11:24:24Z</time>
      </trkpt>
      <trkpt lat="46.42517" lon="4.6996">
        <ele>490.583</ele>
        <time>2022-09-24T11:24:33Z</time>
      </trkpt>
      <trkpt lat="46.42523" lon="4.69963">
        <ele>491.083</ele>
        <time>2022-09-24T11:24:41Z</time>
      </trkpt>
      <trkpt lat="46.42533" lon="4.69968">
        <ele>494.583</ele>
        <time>2022-09-24T11:24:46Z</time>
      </trkpt>
      <trkpt lat="46.42542" lon="4.69971">
        <ele>495.283</ele>
        <time>2022-09-24T11:24:53Z</time>
      </trkpt>
      <trkpt lat="46.42552" lon="4.69976">
        <ele>498.783</ele>
        <time>2022-09-24T11:24:58Z</time>
      </trkpt>
      <trkpt lat="46.42559" lon="4.69979">
        <ele>499.583</ele>
        <time>2022-09-24T11:25:04Z</time>
      </trkpt>
      <trkpt lat="46.42566" lon="4.69982">
        <ele>498.783</ele>
        <time>2022-09-24T11:25:11Z</time>
      </trkpt>
      <trkpt lat="46.42573" lon="4.69985">
        <ele>498.483</ele>
        <time>2022-09-24T11:25:16Z</time>
      </trkpt>
      <trkpt lat="46.42582" lon="4.69986">
        <ele>500.883</ele>
        <time>2022-09-24T11:25:21Z</time>
      </trkpt>
      <trkpt lat="46.4259" lon="4.69987">
        <ele>502.583</ele>
        <time>2022-09-24T11:25:26Z</time>
      </trkpt>
      <trkpt lat="46.426" lon="4.69989">
        <ele>502.683</ele>
        <time>2022-09-24T11:25:32Z</time>
      </trkpt>
      <trkpt lat="46.42608" lon="4.69991">
        <ele>502.283</ele>
        <time>2022-09-24T11:25:37Z</time>
      </trkpt>
      <trkpt lat="46.42615" lon="4.69997">
        <ele>499.983</ele>
        <time>2022-09-24T11:25:42Z</time>
      </trkpt>
      <trkpt lat="46.42618" lon="4.70006">
        <ele>495.183</ele>
        <time>2022-09-24T11:26:13Z</time>
      </trkpt>
      <trkpt lat="46.42623" lon="4.70012">
        <ele>493.983</ele>
        <time>2022-09-24T11:26:21Z</time>
      </trkpt>
      <trkpt lat="46.42632" lon="4.70018">
        <ele>492.683</ele>
        <time>2022-09-24T11:26:32Z</time>
      </trkpt>
      <trkpt lat="46.42639" lon="4.7002">
        <ele>491.683</ele>
        <time>2022-09-24T11:26:37Z</time>
      </trkpt>
      <trkpt lat="46.42648" lon="4.70024">
        <ele>493.483</ele>
        <time>2022-09-24T11:26:42Z</time>
      </trkpt>
      <trkpt lat="46.42653" lon="4.70031">
        <ele>491.083</ele>
        <time>2022-09-24T11:26:49Z</time>
      </trkpt>
      <trkpt lat="46.42652" lon="4.70044">
        <ele>488.283</ele>
        <time>2022-09-24T11:26:54Z</time>
      </trkpt>
      <trkpt lat="46.42656" lon="4.70054">
        <ele>487.783</ele>
        <time>2022-09-24T11:27:00Z</time>
      </trkpt>
      <trkpt lat="46.42658" lon="4.70063">
        <ele>487.483</ele>
        <time>2022-09-24T11:27:05Z</time>
      </trkpt>
      <trkpt lat="46.42663" lon="4.70072">
        <ele>485.483</ele>
        <time>2022-09-24T11:27:11Z</time>
      </trkpt>
      <trkpt lat="46.42668" lon="4.70078">
        <ele>483.983</ele>
        <time>2022-09-24T11:27:16Z</time>
      </trkpt>
      <trkpt lat="46.42671" lon="4.70088">
        <ele>482.683</ele>
        <time>2022-09-24T11:27:21Z</time>
      </trkpt>
      <trkpt lat="46.42677" lon="4.70094">
        <ele>482.683</ele>
        <time>2022-09-24T11:27:26Z</time>
      </trkpt>
      <trkpt lat="46.42682" lon="4.70102">
        <ele>482.583</ele>
        <time>2022-09-24T11:27:32Z</time>
      </trkpt>
      <trkpt lat="46.42691" lon="4.70109">
        <ele>484.983</ele>
        <time>2022-09-24T11:27:37Z</time>
      </trkpt>
      <trkpt lat="46.42696" lon="4.70116">
        <ele>487.983</ele>
        <time>2022-09-24T11:27:42Z</time>
      </trkpt>
      <trkpt lat="46.427" lon="4.70126">
        <ele>491.383</ele>
        <time>2022-09-24T11:27:48Z</time>
      </trkpt>
      <trkpt lat="46.42703" lon="4.70135">
        <ele>491.783</ele>
        <time>2022-09-24T11:27:54Z</time>
      </trkpt>
      <trkpt lat="46.42707" lon="4.70144">
        <ele>491.183</ele>
        <time>2022-09-24T11:28:01Z</time>
      </trkpt>
      <trkpt lat="46.42712" lon="4.70151">
        <ele>489.783</ele>
        <time>2022-09-24T11:28:09Z</time>
      </trkpt>
      <trkpt lat="46.42716" lon="4.70158">
        <ele>484.983</ele>
        <time>2022-09-24T11:28:16Z</time>
      </trkpt>
      <trkpt lat="46.4272" lon="4.70168">
        <ele>480.583</ele>
        <time>2022-09-24T11:28:21Z</time>
      </trkpt>
      <trkpt lat="46.42726" lon="4.70174">
        <ele>479.783</ele>
        <time>2022-09-24T11:28:27Z</time>
      </trkpt>
      <trkpt lat="46.42731" lon="4.7018">
        <ele>484.883</ele>
        <time>2022-09-24T11:28:35Z</time>
      </trkpt>
      <trkpt lat="46.42737" lon="4.70185">
        <ele>488.583</ele>
        <time>2022-09-24T11:28:40Z</time>
      </trkpt>
      <trkpt lat="46.42744" lon="4.70189">
        <ele>492.683</ele>
        <time>2022-09-24T11:28:45Z</time>
      </trkpt>
      <trkpt lat="46.4275" lon="4.70196">
        <ele>494.383</ele>
        <time>2022-09-24T11:28:50Z</time>
      </trkpt>
      <trkpt lat="46.42756" lon="4.70204">
        <ele>495.483</ele>
        <time>2022-09-24T11:28:56Z</time>
      </trkpt>
      <trkpt lat="46.4276" lon="4.70212">
        <ele>492.783</ele>
        <time>2022-09-24T11:29:02Z</time>
      </trkpt>
      <trkpt lat="46.42764" lon="4.70221">
        <ele>491.783</ele>
        <time>2022-09-24T11:29:10Z</time>
      </trkpt>
      <trkpt lat="46.42769" lon="4.70227">
        <ele>490.884</ele>
        <time>2022-09-24T11:29:15Z</time>
      </trkpt>
      <trkpt lat="46.42779" lon="4.70235">
        <ele>495.084</ele>
        <time>2022-09-24T11:29:21Z</time>
      </trkpt>
      <trkpt lat="46.42785" lon="4.70242">
        <ele>498.084</ele>
        <time>2022-09-24T11:29:26Z</time>
      </trkpt>
      <trkpt lat="46.42791" lon="4.70249">
        <ele>498.684</ele>
        <time>2022-09-24T11:29:32Z</time>
      </trkpt>
      <trkpt lat="46.42797" lon="4.70253">
        <ele>498.884</ele>
        <time>2022-09-24T11:29:39Z</time>
      </trkpt>
      <trkpt lat="46.42806" lon="4.70258">
        <ele>497.284</ele>
        <time>2022-09-24T11:29:45Z</time>
      </trkpt>
      <trkpt lat="46.42813" lon="4.70263">
        <ele>493.984</ele>
        <time>2022-09-24T11:29:52Z</time>
      </trkpt>
      <trkpt lat="46.42816" lon="4.70273">
        <ele>491.684</ele>
        <time>2022-09-24T11:29:58Z</time>
      </trkpt>
      <trkpt lat="46.42823" lon="4.70278">
        <ele>491.084</ele>
        <time>2022-09-24T11:30:05Z</time>
      </trkpt>
      <trkpt lat="46.42832" lon="4.70279">
        <ele>494.284</ele>
        <time>2022-09-24T11:30:10Z</time>
      </trkpt>
      <trkpt lat="46.42839" lon="4.70284">
        <ele>493.484</ele>
        <time>2022-09-24T11:30:15Z</time>
      </trkpt>
      <trkpt lat="46.42845" lon="4.7029">
        <ele>491.684</ele>
        <time>2022-09-24T11:30:21Z</time>
      </trkpt>
      <trkpt lat="46.42849" lon="4.70298">
        <ele>489.384</ele>
        <time>2022-09-24T11:30:26Z</time>
      </trkpt>
      <trkpt lat="46.42855" lon="4.70305">
        <ele>486.884</ele>
        <time>2022-09-24T11:30:32Z</time>
      </trkpt>
      <trkpt lat="46.42861" lon="4.70312">
        <ele>487.284</ele>
        <time>2022-09-24T11:30:38Z</time>
      </trkpt>
      <trkpt lat="46.42868" lon="4.70315">
        <ele>487.884</ele>
        <time>2022-09-24T11:30:43Z</time>
      </trkpt>
      <trkpt lat="46.42873" lon="4.70323">
        <ele>486.684</ele>
        <time>2022-09-24T11:30:49Z</time>
      </trkpt>
      <trkpt lat="46.42879" lon="4.70327">
        <ele>487.384</ele>
        <time>2022-09-24T11:30:54Z</time>
      </trkpt>
      <trkpt lat="46.42885" lon="4.70333">
        <ele>493.084</ele>
        <time>2022-09-24T11:31:00Z</time>
      </trkpt>
      <trkpt lat="46.42891" lon="4.70342">
        <ele>493.884</ele>
        <time>2022-09-24T11:31:06Z</time>
      </trkpt>
      <trkpt lat="46.42899" lon="4.70345">
        <ele>496.684</ele>
        <time>2022-09-24T11:31:11Z</time>
      </trkpt>
      <trkpt lat="46.42907" lon="4.7035">
        <ele>494.884</ele>
        <time>2022-09-24T11:31:17Z</time>
      </trkpt>
      <trkpt lat="46.42914" lon="4.70355">
        <ele>492.284</ele>
        <time>2022-09-24T11:31:23Z</time>
      </trkpt>
      <trkpt lat="46.42921" lon="4.70363">
        <ele>493.384</ele>
        <time>2022-09-24T11:31:29Z</time>
      </trkpt>
      <trkpt lat="46.42926" lon="4.70369">
        <ele>492.484</ele>
        <time>2022-09-24T11:31:34Z</time>
      </trkpt>
      <trkpt lat="46.42933" lon="4.70376">
        <ele>492.784</ele>
        <time>2022-09-24T11:31:39Z</time>
      </trkpt>
      <trkpt lat="46.4294" lon="4.70385">
        <ele>491.784</ele>
        <time>2022-09-24T11:31:45Z</time>
      </trkpt>
      <trkpt lat="46.42944" lon="4.70394">
        <ele>493.384</ele>
        <time>2022-09-24T11:31:50Z</time>
      </trkpt>
      <trkpt lat="46.42948" lon="4.70403">
        <ele>491.784</ele>
        <time>2022-09-24T11:31:56Z</time>
      </trkpt>
      <trkpt lat="46.42951" lon="4.70413">
        <ele>492.984</ele>
        <time>2022-09-24T11:32:02Z</time>
      </trkpt>
      <trkpt lat="46.42954" lon="4.70421">
        <ele>493.684</ele>
        <time>2022-09-24T11:32:07Z</time>
      </trkpt>
      <trkpt lat="46.42955" lon="4.70432">
        <ele>496.084</ele>
        <time>2022-09-24T11:32:12Z</time>
      </trkpt>
      <trkpt lat="46.42956" lon="4.70443">
        <ele>496.084</ele>
        <time>2022-09-24T11:32:19Z</time>
      </trkpt>
      <trkpt lat="46.42954" lon="4.70456">
        <ele>495.884</ele>
        <time>2022-09-24T11:32:25Z</time>
      </trkpt>
      <trkpt lat="46.42948" lon="4.70462">
        <ele>497.684</ele>
        <time>2022-09-24T11:32:46Z</time>
      </trkpt>
      <trkpt lat="46.42945" lon="4.70471">
        <ele>498.984</ele>
        <time>2022-09-24T11:32:52Z</time>
      </trkpt>
      <trkpt lat="46.42951" lon="4.70467">
        <ele>496.384</ele>
        <time>2022-09-24T11:33:03Z</time>
      </trkpt>
      <trkpt lat="46.42947" lon="4.70474">
        <ele>497.084</ele>
        <time>2022-09-24T11:33:20Z</time>
      </trkpt>
      <trkpt lat="46.4294" lon="4.70476">
        <ele>498.884</ele>
        <time>2022-09-24T11:33:57Z</time>
      </trkpt>
      <trkpt lat="46.42934" lon="4.70487">
        <ele>500.184</ele>
        <time>2022-09-24T11:34:03Z</time>
      </trkpt>
      <trkpt lat="46.42931" lon="4.70496">
        <ele>498.884</ele>
        <time>2022-09-24T11:34:10Z</time>
      </trkpt>
      <trkpt lat="46.42925" lon="4.70501">
        <ele>495.884</ele>
        <time>2022-09-24T11:34:16Z</time>
      </trkpt>
      <trkpt lat="46.4292" lon="4.70508">
        <ele>492.084</ele>
        <time>2022-09-24T11:34:23Z</time>
      </trkpt>
      <trkpt lat="46.42912" lon="4.70512">
        <ele>489.884</ele>
        <time>2022-09-24T11:34:28Z</time>
      </trkpt>
      <trkpt lat="46.42906" lon="4.70517">
        <ele>490.084</ele>
        <time>2022-09-24T11:34:33Z</time>
      </trkpt>
      <trkpt lat="46.42902" lon="4.70525">
        <ele>490.984</ele>
        <time>2022-09-24T11:34:39Z</time>
      </trkpt>
      <trkpt lat="46.42898" lon="4.70533">
        <ele>490.884</ele>
        <time>2022-09-24T11:34:45Z</time>
      </trkpt>
      <trkpt lat="46.42893" lon="4.70539">
        <ele>491.484</ele>
        <time>2022-09-24T11:34:51Z</time>
      </trkpt>
      <trkpt lat="46.42886" lon="4.70546">
        <ele>492.084</ele>
        <time>2022-09-24T11:34:56Z</time>
      </trkpt>
      <trkpt lat="46.42878" lon="4.70551">
        <ele>491.584</ele>
        <time>2022-09-24T11:35:01Z</time>
      </trkpt>
      <trkpt lat="46.42871" lon="4.70554">
        <ele>490.984</ele>
        <time>2022-09-24T11:35:07Z</time>
      </trkpt>
      <trkpt lat="46.42865" lon="4.70558">
        <ele>490.084</ele>
        <time>2022-09-24T11:35:14Z</time>
      </trkpt>
      <trkpt lat="46.4286" lon="4.70563">
        <ele>492.184</ele>
        <time>2022-09-24T11:35:19Z</time>
      </trkpt>
      <trkpt lat="46.42853" lon="4.70566">
        <ele>493.384</ele>
        <time>2022-09-24T11:35:27Z</time>
      </trkpt>
      <trkpt lat="46.42846" lon="4.70572">
        <ele>492.384</ele>
        <time>2022-09-24T11:35:32Z</time>
      </trkpt>
      <trkpt lat="46.42837" lon="4.70575">
        <ele>493.784</ele>
        <time>2022-09-24T11:35:37Z</time>
      </trkpt>
      <trkpt lat="46.42829" lon="4.70582">
        <ele>493.484</ele>
        <time>2022-09-24T11:35:43Z</time>
      </trkpt>
      <trkpt lat="46.42823" lon="4.70588">
        <ele>492.984</ele>
        <time>2022-09-24T11:35:51Z</time>
      </trkpt>
      <trkpt lat="46.42818" lon="4.70594">
        <ele>492.584</ele>
        <time>2022-09-24T11:35:57Z</time>
      </trkpt>
      <trkpt lat="46.42807" lon="4.706">
        <ele>496.084</ele>
        <time>2022-09-24T11:36:56Z</time>
      </trkpt>
      <trkpt lat="46.42803" lon="4.7061">
        <ele>495.684</ele>
        <time>2022-09-24T11:37:26Z</time>
      </trkpt>
      <trkpt lat="46.42799" lon="4.70617">
        <ele>495.484</ele>
        <time>2022-09-24T11:37:31Z</time>
      </trkpt>
      <trkpt lat="46.42799" lon="4.70628">
        <ele>493.284</ele>
        <time>2022-09-24T11:37:49Z</time>
      </trkpt>
      <trkpt lat="46.42796" lon="4.70637">
        <ele>493.284</ele>
        <time>2022-09-24T11:37:56Z</time>
      </trkpt>
      <trkpt lat="46.4279" lon="4.70643">
        <ele>495.384</ele>
        <time>2022-09-24T11:38:33Z</time>
      </trkpt>
      <trkpt lat="46.42797" lon="4.70641">
        <ele>509.884</ele>
        <time>2022-09-24T11:38:54Z</time>
      </trkpt>
      <trkpt lat="46.4279" lon="4.70641">
        <ele>511.484</ele>
        <time>2022-09-24T11:39:09Z</time>
      </trkpt>
      <trkpt lat="46.42787" lon="4.70651">
        <ele>503.784</ele>
        <time>2022-09-24T11:39:44Z</time>
      </trkpt>
      <trkpt lat="46.4279" lon="4.7066">
        <ele>498.184</ele>
        <time>2022-09-24T11:40:01Z</time>
      </trkpt>
      <trkpt lat="46.42784" lon="4.70667">
        <ele>499.184</ele>
        <time>2022-09-24T11:40:09Z</time>
      </trkpt>
      <trkpt lat="46.4278" lon="4.70674">
        <ele>498.984</ele>
        <time>2022-09-24T11:40:16Z</time>
      </trkpt>
      <trkpt lat="46.42776" lon="4.70682">
        <ele>499.084</ele>
        <time>2022-09-24T11:40:23Z</time>
      </trkpt>
      <trkpt lat="46.42769" lon="4.70686">
        <ele>500.284</ele>
        <time>2022-09-24T11:40:29Z</time>
      </trkpt>
      <trkpt lat="46.42766" lon="4.70696">
        <ele>500.684</ele>
        <time>2022-09-24T11:40:36Z</time>
      </trkpt>
      <trkpt lat="46.42762" lon="4.70704">
        <ele>499.884</ele>
        <time>2022-09-24T11:40:43Z</time>
      </trkpt>
      <trkpt lat="46.42758" lon="4.70712">
        <ele>497.884</ele>
        <time>2022-09-24T11:40:48Z</time>
      </trkpt>
      <trkpt lat="46.42753" lon="4.70721">
        <ele>496.084</ele>
        <time>2022-09-24T11:40:53Z</time>
      </trkpt>
      <trkpt lat="46.42748" lon="4.7073">
        <ele>494.184</ele>
        <time>2022-09-24T11:40:58Z</time>
      </trkpt>
      <trkpt lat="46.42746" lon="4.7074">
        <ele>492.184</ele>
        <time>2022-09-24T11:41:05Z</time>
      </trkpt>
      <trkpt lat="46.42742" lon="4.70748">
        <ele>490.784</ele>
        <time>2022-09-24T11:41:11Z</time>
      </trkpt>
      <trkpt lat="46.42737" lon="4.70755">
        <ele>491.384</ele>
        <time>2022-09-24T11:41:16Z</time>
      </trkpt>
      <trkpt lat="46.42735" lon="4.70766">
        <ele>492.984</ele>
        <time>2022-09-24T11:41:23Z</time>
      </trkpt>
      <trkpt lat="46.42731" lon="4.70778">
        <ele>494.684</ele>
        <time>2022-09-24T11:41:28Z</time>
      </trkpt>
      <trkpt lat="46.42726" lon="4.7079">
        <ele>497.084</ele>
        <time>2022-09-24T11:41:33Z</time>
      </trkpt>
      <trkpt lat="46.42725" lon="4.70799">
        <ele>501.284</ele>
        <time>2022-09-24T11:41:39Z</time>
      </trkpt>
      <trkpt lat="46.42722" lon="4.70809">
        <ele>507.984</ele>
        <time>2022-09-24T11:41:45Z</time>
      </trkpt>
      <trkpt lat="46.42721" lon="4.70818">
        <ele>510.384</ele>
        <time>2022-09-24T11:41:51Z</time>
      </trkpt>
      <trkpt lat="46.42722" lon="4.70829">
        <ele>510.984</ele>
        <time>2022-09-24T11:41:56Z</time>
      </trkpt>
      <trkpt lat="46.42722" lon="4.70839">
        <ele>510.984</ele>
        <time>2022-09-24T11:42:01Z</time>
      </trkpt>
      <trkpt lat="46.4272" lon="4.70849">
        <ele>509.484</ele>
        <time>2022-09-24T11:42:08Z</time>
      </trkpt>
      <trkpt lat="46.42727" lon="4.70855">
        <ele>506.484</ele>
        <time>2022-09-24T11:42:16Z</time>
      </trkpt>
      <trkpt lat="46.42734" lon="4.70857">
        <ele>506.484</ele>
        <time>2022-09-24T11:42:21Z</time>
      </trkpt>
      <trkpt lat="46.42737" lon="4.70867">
        <ele>503.884</ele>
        <time>2022-09-24T11:42:27Z</time>
      </trkpt>
      <trkpt lat="46.42739" lon="4.70876">
        <ele>501.584</ele>
        <time>2022-09-24T11:42:33Z</time>
      </trkpt>
      <trkpt lat="46.42744" lon="4.70883">
        <ele>501.184</ele>
        <time>2022-09-24T11:42:40Z</time>
      </trkpt>
      <trkpt lat="46.42748" lon="4.70893">
        <ele>501.784</ele>
        <time>2022-09-24T11:42:48Z</time>
      </trkpt>
      <trkpt lat="46.42752" lon="4.70901">
        <ele>502.184</ele>
        <time>2022-09-24T11:42:54Z</time>
      </trkpt>
      <trkpt lat="46.42757" lon="4.70909">
        <ele>503.584</ele>
        <time>2022-09-24T11:43:01Z</time>
      </trkpt>
      <trkpt lat="46.42764" lon="4.70919">
        <ele>503.984</ele>
        <time>2022-09-24T11:43:07Z</time>
      </trkpt>
      <trkpt lat="46.42771" lon="4.70927">
        <ele>505.084</ele>
        <time>2022-09-24T11:43:12Z</time>
      </trkpt>
      <trkpt lat="46.42778" lon="4.70933">
        <ele>508.084</ele>
        <time>2022-09-24T11:43:17Z</time>
      </trkpt>
      <trkpt lat="46.42785" lon="4.70941">
        <ele>515.084</ele>
        <time>2022-09-24T11:43:23Z</time>
      </trkpt>
      <trkpt lat="46.42791" lon="4.70947">
        <ele>518.284</ele>
        <time>2022-09-24T11:43:31Z</time>
      </trkpt>
      <trkpt lat="46.42796" lon="4.70955">
        <ele>519.084</ele>
        <time>2022-09-24T11:43:39Z</time>
      </trkpt>
      <trkpt lat="46.42801" lon="4.70963">
        <ele>517.484</ele>
        <time>2022-09-24T11:43:45Z</time>
      </trkpt>
      <trkpt lat="46.42806" lon="4.70971">
        <ele>515.984</ele>
        <time>2022-09-24T11:43:53Z</time>
      </trkpt>
      <trkpt lat="46.42811" lon="4.70983">
        <ele>515.184</ele>
        <time>2022-09-24T11:43:59Z</time>
      </trkpt>
      <trkpt lat="46.42819" lon="4.70987">
        <ele>517.984</ele>
        <time>2022-09-24T11:44:04Z</time>
      </trkpt>
      <trkpt lat="46.42826" lon="4.70994">
        <ele>518.884</ele>
        <time>2022-09-24T11:44:09Z</time>
      </trkpt>
      <trkpt lat="46.42833" lon="4.71004">
        <ele>517.884</ele>
        <time>2022-09-24T11:44:15Z</time>
      </trkpt>
      <trkpt lat="46.42838" lon="4.71014">
        <ele>513.984</ele>
        <time>2022-09-24T11:44:23Z</time>
      </trkpt>
      <trkpt lat="46.42842" lon="4.71022">
        <ele>511.684</ele>
        <time>2022-09-24T11:44:28Z</time>
      </trkpt>
      <trkpt lat="46.42846" lon="4.7103">
        <ele>510.284</ele>
        <time>2022-09-24T11:44:34Z</time>
      </trkpt>
      <trkpt lat="46.42851" lon="4.71039">
        <ele>506.984</ele>
        <time>2022-09-24T11:44:41Z</time>
      </trkpt>
      <trkpt lat="46.42858" lon="4.71045">
        <ele>506.084</ele>
        <time>2022-09-24T11:44:47Z</time>
      </trkpt>
      <trkpt lat="46.42864" lon="4.71051">
        <ele>504.984</ele>
        <time>2022-09-24T11:44:52Z</time>
      </trkpt>
      <trkpt lat="46.4287" lon="4.71057">
        <ele>502.484</ele>
        <time>2022-09-24T11:44:59Z</time>
      </trkpt>
      <trkpt lat="46.42876" lon="4.71063">
        <ele>500.484</ele>
        <time>2022-09-24T11:45:05Z</time>
      </trkpt>
      <trkpt lat="46.42882" lon="4.7107">
        <ele>499.584</ele>
        <time>2022-09-24T11:45:11Z</time>
      </trkpt>
      <trkpt lat="46.42884" lon="4.71081">
        <ele>499.884</ele>
        <time>2022-09-24T11:45:18Z</time>
      </trkpt>
      <trkpt lat="46.42884" lon="4.71093">
        <ele>500.785</ele>
        <time>2022-09-24T11:45:23Z</time>
      </trkpt>
      <trkpt lat="46.42886" lon="4.71103">
        <ele>500.685</ele>
        <time>2022-09-24T11:45:29Z</time>
      </trkpt>
      <trkpt lat="46.42889" lon="4.71116">
        <ele>501.485</ele>
        <time>2022-09-24T11:45:35Z</time>
      </trkpt>
      <trkpt lat="46.42886" lon="4.71126">
        <ele>500.985</ele>
        <time>2022-09-24T11:45:42Z</time>
      </trkpt>
      <trkpt lat="46.42885" lon="4.71136">
        <ele>499.885</ele>
        <time>2022-09-24T11:45:47Z</time>
      </trkpt>
      <trkpt lat="46.42881" lon="4.71144">
        <ele>501.085</ele>
        <time>2022-09-24T11:45:52Z</time>
      </trkpt>
      <trkpt lat="46.42879" lon="4.71154">
        <ele>501.985</ele>
        <time>2022-09-24T11:45:58Z</time>
      </trkpt>
      <trkpt lat="46.42881" lon="4.71164">
        <ele>501.885</ele>
        <time>2022-09-24T11:46:05Z</time>
      </trkpt>
      <trkpt lat="46.42878" lon="4.71175">
        <ele>501.385</ele>
        <time>2022-09-24T11:46:12Z</time>
      </trkpt>
      <trkpt lat="46.42873" lon="4.71189">
        <ele>503.885</ele>
        <time>2022-09-24T11:46:17Z</time>
      </trkpt>
      <trkpt lat="46.42866" lon="4.71202">
        <ele>506.885</ele>
        <time>2022-09-24T11:46:22Z</time>
      </trkpt>
      <trkpt lat="46.42867" lon="4.71212">
        <ele>507.885</ele>
        <time>2022-09-24T11:46:29Z</time>
      </trkpt>
      <trkpt lat="46.42864" lon="4.71221">
        <ele>508.685</ele>
        <time>2022-09-24T11:46:36Z</time>
      </trkpt>
      <trkpt lat="46.42855" lon="4.71229">
        <ele>509.985</ele>
        <time>2022-09-24T11:46:41Z</time>
      </trkpt>
      <trkpt lat="46.42853" lon="4.71239">
        <ele>508.285</ele>
        <time>2022-09-24T11:46:48Z</time>
      </trkpt>
      <trkpt lat="46.42846" lon="4.71253">
        <ele>511.685</ele>
        <time>2022-09-24T11:46:53Z</time>
      </trkpt>
      <trkpt lat="46.42844" lon="4.71263">
        <ele>512.285</ele>
        <time>2022-09-24T11:46:58Z</time>
      </trkpt>
      <trkpt lat="46.42842" lon="4.71273">
        <ele>514.485</ele>
        <time>2022-09-24T11:47:03Z</time>
      </trkpt>
      <trkpt lat="46.42842" lon="4.71283">
        <ele>515.785</ele>
        <time>2022-09-24T11:47:10Z</time>
      </trkpt>
      <trkpt lat="46.42842" lon="4.71294">
        <ele>517.085</ele>
        <time>2022-09-24T11:47:16Z</time>
      </trkpt>
      <trkpt lat="46.42844" lon="4.71304">
        <ele>518.585</ele>
        <time>2022-09-24T11:47:23Z</time>
      </trkpt>
      <trkpt lat="46.42839" lon="4.71319">
        <ele>521.185</ele>
        <time>2022-09-24T11:47:29Z</time>
      </trkpt>
      <trkpt lat="46.42839" lon="4.71332">
        <ele>518.785</ele>
        <time>2022-09-24T11:47:34Z</time>
      </trkpt>
      <trkpt lat="46.42841" lon="4.71343">
        <ele>514.485</ele>
        <time>2022-09-24T11:47:39Z</time>
      </trkpt>
      <trkpt lat="46.42845" lon="4.71351">
        <ele>511.985</ele>
        <time>2022-09-24T11:47:45Z</time>
      </trkpt>
      <trkpt lat="46.42847" lon="4.71361">
        <ele>505.385</ele>
        <time>2022-09-24T11:47:50Z</time>
      </trkpt>
      <trkpt lat="46.42849" lon="4.71372">
        <ele>503.985</ele>
        <time>2022-09-24T11:47:56Z</time>
      </trkpt>
      <trkpt lat="46.42854" lon="4.71384">
        <ele>502.585</ele>
        <time>2022-09-24T11:48:01Z</time>
      </trkpt>
      <trkpt lat="46.42859" lon="4.71391">
        <ele>502.785</ele>
        <time>2022-09-24T11:48:06Z</time>
      </trkpt>
      <trkpt lat="46.42867" lon="4.71401">
        <ele>504.385</ele>
        <time>2022-09-24T11:48:11Z</time>
      </trkpt>
      <trkpt lat="46.42874" lon="4.71405">
        <ele>505.785</ele>
        <time>2022-09-24T11:48:17Z</time>
      </trkpt>
      <trkpt lat="46.42875" lon="4.71415">
        <ele>508.185</ele>
        <time>2022-09-24T11:48:26Z</time>
      </trkpt>
      <trkpt lat="46.42876" lon="4.71426">
        <ele>508.485</ele>
        <time>2022-09-24T11:48:32Z</time>
      </trkpt>
      <trkpt lat="46.4287" lon="4.71432">
        <ele>508.785</ele>
        <time>2022-09-24T11:48:39Z</time>
      </trkpt>
      <trkpt lat="46.42868" lon="4.71441">
        <ele>508.285</ele>
        <time>2022-09-24T11:48:47Z</time>
      </trkpt>
      <trkpt lat="46.42866" lon="4.71452">
        <ele>506.985</ele>
        <time>2022-09-24T11:48:55Z</time>
      </trkpt>
      <trkpt lat="46.42866" lon="4.71462">
        <ele>505.485</ele>
        <time>2022-09-24T11:49:02Z</time>
      </trkpt>
      <trkpt lat="46.42867" lon="4.71472">
        <ele>505.685</ele>
        <time>2022-09-24T11:49:11Z</time>
      </trkpt>
      <trkpt lat="46.42868" lon="4.71482">
        <ele>506.685</ele>
        <time>2022-09-24T11:49:18Z</time>
      </trkpt>
      <trkpt lat="46.42869" lon="4.71492">
        <ele>508.285</ele>
        <time>2022-09-24T11:49:25Z</time>
      </trkpt>
      <trkpt lat="46.42869" lon="4.71503">
        <ele>506.685</ele>
        <time>2022-09-24T11:49:31Z</time>
      </trkpt>
      <trkpt lat="46.42869" lon="4.71514">
        <ele>506.885</ele>
        <time>2022-09-24T11:49:37Z</time>
      </trkpt>
      <trkpt lat="46.42869" lon="4.71526">
        <ele>507.885</ele>
        <time>2022-09-24T11:49:42Z</time>
      </trkpt>
      <trkpt lat="46.4287" lon="4.71536">
        <ele>506.285</ele>
        <time>2022-09-24T11:49:47Z</time>
      </trkpt>
      <trkpt lat="46.42872" lon="4.71546">
        <ele>508.185</ele>
        <time>2022-09-24T11:49:52Z</time>
      </trkpt>
      <trkpt lat="46.42875" lon="4.71556">
        <ele>511.185</ele>
        <time>2022-09-24T11:49:58Z</time>
      </trkpt>
      <trkpt lat="46.42878" lon="4.71564">
        <ele>510.785</ele>
        <time>2022-09-24T11:50:04Z</time>
      </trkpt>
      <trkpt lat="46.42884" lon="4.71571">
        <ele>510.985</ele>
        <time>2022-09-24T11:50:10Z</time>
      </trkpt>
      <trkpt lat="46.42888" lon="4.7158">
        <ele>510.785</ele>
        <time>2022-09-24T11:50:18Z</time>
      </trkpt>
      <trkpt lat="46.42894" lon="4.71583">
        <ele>512.485</ele>
        <time>2022-09-24T11:50:27Z</time>
      </trkpt>
      <trkpt lat="46.42907" lon="4.71588">
        <ele>518.985</ele>
        <time>2022-09-24T11:50:32Z</time>
      </trkpt>
      <trkpt lat="46.42913" lon="4.71594">
        <ele>521.185</ele>
        <time>2022-09-24T11:50:45Z</time>
      </trkpt>
      <trkpt lat="46.4292" lon="4.71594">
        <ele>520.585</ele>
        <time>2022-09-24T11:51:33Z</time>
      </trkpt>
      <trkpt lat="46.42926" lon="4.71598">
        <ele>519.385</ele>
        <time>2022-09-24T11:51:43Z</time>
      </trkpt>
      <trkpt lat="46.42931" lon="4.71604">
        <ele>520.985</ele>
        <time>2022-09-24T11:51:48Z</time>
      </trkpt>
      <trkpt lat="46.42938" lon="4.71605">
        <ele>521.185</ele>
        <time>2022-09-24T11:51:54Z</time>
      </trkpt>
      <trkpt lat="46.42945" lon="4.71605">
        <ele>521.585</ele>
        <time>2022-09-24T11:51:59Z</time>
      </trkpt>
      <trkpt lat="46.42952" lon="4.71609">
        <ele>522.585</ele>
        <time>2022-09-24T11:52:11Z</time>
      </trkpt>
      <trkpt lat="46.42959" lon="4.71611">
        <ele>521.585</ele>
        <time>2022-09-24T11:52:20Z</time>
      </trkpt>
      <trkpt lat="46.42964" lon="4.71616">
        <ele>520.385</ele>
        <time>2022-09-24T11:52:30Z</time>
      </trkpt>
      <trkpt lat="46.42969" lon="4.71624">
        <ele>520.785</ele>
        <time>2022-09-24T11:52:38Z</time>
      </trkpt>
      <trkpt lat="46.42974" lon="4.71631">
        <ele>520.385</ele>
        <time>2022-09-24T11:52:45Z</time>
      </trkpt>
      <trkpt lat="46.42979" lon="4.71637">
        <ele>520.285</ele>
        <time>2022-09-24T11:52:51Z</time>
      </trkpt>
      <trkpt lat="46.42986" lon="4.71643">
        <ele>519.985</ele>
        <time>2022-09-24T11:52:56Z</time>
      </trkpt>
      <trkpt lat="46.42995" lon="4.71647">
        <ele>519.185</ele>
        <time>2022-09-24T11:53:02Z</time>
      </trkpt>
      <trkpt lat="46.43003" lon="4.71645">
        <ele>516.085</ele>
        <time>2022-09-24T11:53:10Z</time>
      </trkpt>
      <trkpt lat="46.4301" lon="4.71645">
        <ele>508.685</ele>
        <time>2022-09-24T11:53:21Z</time>
      </trkpt>
      <trkpt lat="46.43017" lon="4.71645">
        <ele>508.585</ele>
        <time>2022-09-24T11:53:26Z</time>
      </trkpt>
      <trkpt lat="46.43024" lon="4.71644">
        <ele>507.285</ele>
        <time>2022-09-24T11:53:32Z</time>
      </trkpt>
      <trkpt lat="46.43033" lon="4.71644">
        <ele>505.685</ele>
        <time>2022-09-24T11:53:38Z</time>
      </trkpt>
      <trkpt lat="46.4304" lon="4.71645">
        <ele>508.085</ele>
        <time>2022-09-24T11:53:43Z</time>
      </trkpt>
      <trkpt lat="46.43047" lon="4.71649">
        <ele>507.085</ele>
        <time>2022-09-24T11:53:50Z</time>
      </trkpt>
      <trkpt lat="46.43056" lon="4.71649">
        <ele>503.885</ele>
        <time>2022-09-24T11:54:07Z</time>
      </trkpt>
      <trkpt lat="46.43067" lon="4.71651">
        <ele>518.185</ele>
        <time>2022-09-24T11:54:13Z</time>
      </trkpt>
      <trkpt lat="46.43074" lon="4.71652">
        <ele>518.485</ele>
        <time>2022-09-24T11:54:20Z</time>
      </trkpt>
      <trkpt lat="46.43081" lon="4.71651">
        <ele>518.885</ele>
        <time>2022-09-24T11:54:26Z</time>
      </trkpt>
      <trkpt lat="46.43097" lon="4.71658">
        <ele>520.386</ele>
        <time>2022-09-24T11:54:31Z</time>
      </trkpt>
      <trkpt lat="46.43104" lon="4.71661">
        <ele>520.786</ele>
        <time>2022-09-24T11:54:36Z</time>
      </trkpt>
      <trkpt lat="46.43111" lon="4.7166">
        <ele>520.886</ele>
        <time>2022-09-24T11:54:44Z</time>
      </trkpt>
      <trkpt lat="46.43121" lon="4.7166">
        <ele>519.286</ele>
        <time>2022-09-24T11:54:50Z</time>
      </trkpt>
      <trkpt lat="46.43129" lon="4.7166">
        <ele>514.586</ele>
        <time>2022-09-24T11:54:58Z</time>
      </trkpt>
      <trkpt lat="46.43136" lon="4.71663">
        <ele>510.686</ele>
        <time>2022-09-24T11:55:09Z</time>
      </trkpt>
      <trkpt lat="46.43144" lon="4.71668">
        <ele>511.086</ele>
        <time>2022-09-24T11:55:16Z</time>
      </trkpt>
      <trkpt lat="46.43152" lon="4.71674">
        <ele>511.786</ele>
        <time>2022-09-24T11:55:22Z</time>
      </trkpt>
      <trkpt lat="46.43159" lon="4.71679">
        <ele>511.386</ele>
        <time>2022-09-24T11:55:28Z</time>
      </trkpt>
      <trkpt lat="46.43166" lon="4.71683">
        <ele>511.186</ele>
        <time>2022-09-24T11:55:33Z</time>
      </trkpt>
      <trkpt lat="46.43173" lon="4.71687">
        <ele>512.886</ele>
        <time>2022-09-24T11:55:39Z</time>
      </trkpt>
      <trkpt lat="46.43179" lon="4.71693">
        <ele>514.186</ele>
        <time>2022-09-24T11:55:44Z</time>
      </trkpt>
      <trkpt lat="46.43192" lon="4.717">
        <ele>514.786</ele>
        <time>2022-09-24T11:55:50Z</time>
      </trkpt>
      <trkpt lat="46.43199" lon="4.71702">
        <ele>515.186</ele>
        <time>2022-09-24T11:56:00Z</time>
      </trkpt>
      <trkpt lat="46.43206" lon="4.71703">
        <ele>518.986</ele>
        <time>2022-09-24T11:58:11Z</time>
      </trkpt>
      <trkpt lat="46.43213" lon="4.71703">
        <ele>518.286</ele>
        <time>2022-09-24T11:58:16Z</time>
      </trkpt>
      <trkpt lat="46.43221" lon="4.71703">
        <ele>517.686</ele>
        <time>2022-09-24T11:58:22Z</time>
      </trkpt>
      <trkpt lat="46.43228" lon="4.71698">
        <ele>517.586</ele>
        <time>2022-09-24T11:58:29Z</time>
      </trkpt>
      <trkpt lat="46.43233" lon="4.71692">
        <ele>517.786</ele>
        <time>2022-09-24T11:58:35Z</time>
      </trkpt>
      <trkpt lat="46.4324" lon="4.71689">
        <ele>517.286</ele>
        <time>2022-09-24T11:58:41Z</time>
      </trkpt>
      <trkpt lat="46.43249" lon="4.71686">
        <ele>515.086</ele>
        <time>2022-09-24T11:58:47Z</time>
      </trkpt>
      <trkpt lat="46.43257" lon="4.71684">
        <ele>514.686</ele>
        <time>2022-09-24T11:58:52Z</time>
      </trkpt>
      <trkpt lat="46.43263" lon="4.71681">
        <ele>513.586</ele>
        <time>2022-09-24T11:58:58Z</time>
      </trkpt>
      <trkpt lat="46.43269" lon="4.71677">
        <ele>510.086</ele>
        <time>2022-09-24T11:59:15Z</time>
      </trkpt>
      <trkpt lat="46.43276" lon="4.71675">
        <ele>510.186</ele>
        <time>2022-09-24T11:59:38Z</time>
      </trkpt>
      <trkpt lat="46.4328" lon="4.71666">
        <ele>505.586</ele>
        <time>2022-09-24T11:59:56Z</time>
      </trkpt>
      <trkpt lat="46.43287" lon="4.7166">
        <ele>506.986</ele>
        <time>2022-09-24T12:00:02Z</time>
      </trkpt>
      <trkpt lat="46.43291" lon="4.71652">
        <ele>508.186</ele>
        <time>2022-09-24T12:00:08Z</time>
      </trkpt>
      <trkpt lat="46.43298" lon="4.71645">
        <ele>508.186</ele>
        <time>2022-09-24T12:00:13Z</time>
      </trkpt>
      <trkpt lat="46.43303" lon="4.71638">
        <ele>510.186</ele>
        <time>2022-09-24T12:00:18Z</time>
      </trkpt>
      <trkpt lat="46.4331" lon="4.71636">
        <ele>509.986</ele>
        <time>2022-09-24T12:00:26Z</time>
      </trkpt>
      <trkpt lat="46.43316" lon="4.71633">
        <ele>510.586</ele>
        <time>2022-09-24T12:00:31Z</time>
      </trkpt>
      <trkpt lat="46.43322" lon="4.71626">
        <ele>510.586</ele>
        <time>2022-09-24T12:00:40Z</time>
      </trkpt>
      <trkpt lat="46.43328" lon="4.71621">
        <ele>510.686</ele>
        <time>2022-09-24T12:00:45Z</time>
      </trkpt>
      <trkpt lat="46.43335" lon="4.71618">
        <ele>510.386</ele>
        <time>2022-09-24T12:00:51Z</time>
      </trkpt>
      <trkpt lat="46.43344" lon="4.71611">
        <ele>508.286</ele>
        <time>2022-09-24T12:00:58Z</time>
      </trkpt>
      <trkpt lat="46.4335" lon="4.71609">
        <ele>507.486</ele>
        <time>2022-09-24T12:01:04Z</time>
      </trkpt>
      <trkpt lat="46.43359" lon="4.71605">
        <ele>508.886</ele>
        <time>2022-09-24T12:01:10Z</time>
      </trkpt>
      <trkpt lat="46.43365" lon="4.716">
        <ele>511.086</ele>
        <time>2022-09-24T12:01:15Z</time>
      </trkpt>
      <trkpt lat="46.4337" lon="4.71593">
        <ele>511.786</ele>
        <time>2022-09-24T12:01:21Z</time>
      </trkpt>
      <trkpt lat="46.43373" lon="4.71584">
        <ele>512.386</ele>
        <time>2022-09-24T12:01:28Z</time>
      </trkpt>
      <trkpt lat="46.43381" lon="4.71578">
        <ele>512.586</ele>
        <time>2022-09-24T12:01:34Z</time>
      </trkpt>
      <trkpt lat="46.43388" lon="4.71574">
        <ele>511.986</ele>
        <time>2022-09-24T12:01:39Z</time>
      </trkpt>
      <trkpt lat="46.43395" lon="4.7157">
        <ele>512.986</ele>
        <time>2022-09-24T12:01:44Z</time>
      </trkpt>
      <trkpt lat="46.43407" lon="4.71563">
        <ele>513.386</ele>
        <time>2022-09-24T12:01:50Z</time>
      </trkpt>
      <trkpt lat="46.43414" lon="4.71556">
        <ele>515.786</ele>
        <time>2022-09-24T12:01:55Z</time>
      </trkpt>
      <trkpt lat="46.4342" lon="4.71552">
        <ele>515.286</ele>
        <time>2022-09-24T12:02:02Z</time>
      </trkpt>
      <trkpt lat="46.43426" lon="4.71546">
        <ele>515.986</ele>
        <time>2022-09-24T12:02:07Z</time>
      </trkpt>
      <trkpt lat="46.43431" lon="4.7154">
        <ele>514.086</ele>
        <time>2022-09-24T12:02:13Z</time>
      </trkpt>
      <trkpt lat="46.43441" lon="4.71533">
        <ele>515.386</ele>
        <time>2022-09-24T12:02:18Z</time>
      </trkpt>
      <trkpt lat="46.43447" lon="4.71527">
        <ele>513.786</ele>
        <time>2022-09-24T12:02:25Z</time>
      </trkpt>
      <trkpt lat="46.43453" lon="4.71522">
        <ele>513.386</ele>
        <time>2022-09-24T12:02:30Z</time>
      </trkpt>
      <trkpt lat="46.43457" lon="4.71514">
        <ele>510.786</ele>
        <time>2022-09-24T12:02:39Z</time>
      </trkpt>
      <trkpt lat="46.43462" lon="4.71505">
        <ele>508.586</ele>
        <time>2022-09-24T12:02:48Z</time>
      </trkpt>
      <trkpt lat="46.43469" lon="4.71499">
        <ele>507.886</ele>
        <time>2022-09-24T12:02:54Z</time>
      </trkpt>
      <trkpt lat="46.4348" lon="4.71496">
        <ele>510.786</ele>
        <time>2022-09-24T12:02:59Z</time>
      </trkpt>
      <trkpt lat="46.4349" lon="4.7149">
        <ele>513.386</ele>
        <time>2022-09-24T12:03:04Z</time>
      </trkpt>
      <trkpt lat="46.43499" lon="4.71489">
        <ele>516.786</ele>
        <time>2022-09-24T12:03:10Z</time>
      </trkpt>
      <trkpt lat="46.435" lon="4.71479">
        <ele>517.286</ele>
        <time>2022-09-24T12:03:39Z</time>
      </trkpt>
      <trkpt lat="46.43505" lon="4.71471">
        <ele>516.686</ele>
        <time>2022-09-24T12:03:45Z</time>
      </trkpt>
      <trkpt lat="46.43514" lon="4.71469">
        <ele>517.686</ele>
        <time>2022-09-24T12:03:50Z</time>
      </trkpt>
      <trkpt lat="46.43523" lon="4.71466">
        <ele>518.486</ele>
        <time>2022-09-24T12:03:55Z</time>
      </trkpt>
      <trkpt lat="46.4353" lon="4.7146">
        <ele>516.486</ele>
        <time>2022-09-24T12:04:00Z</time>
      </trkpt>
      <trkpt lat="46.43541" lon="4.71448">
        <ele>521.787</ele>
        <time>2022-09-24T12:04:10Z</time>
      </trkpt>
      <trkpt lat="46.43548" lon="4.71443">
        <ele>525.287</ele>
        <time>2022-09-24T12:04:16Z</time>
      </trkpt>
      <trkpt lat="46.43551" lon="4.71435">
        <ele>526.887</ele>
        <time>2022-09-24T12:04:22Z</time>
      </trkpt>
      <trkpt lat="46.43558" lon="4.71431">
        <ele>526.187</ele>
        <time>2022-09-24T12:04:27Z</time>
      </trkpt>
      <trkpt lat="46.43565" lon="4.71432">
        <ele>525.687</ele>
        <time>2022-09-24T12:04:32Z</time>
      </trkpt>
      <trkpt lat="46.43572" lon="4.71427">
        <ele>523.887</ele>
        <time>2022-09-24T12:04:37Z</time>
      </trkpt>
      <trkpt lat="46.43579" lon="4.71422">
        <ele>519.787</ele>
        <time>2022-09-24T12:04:47Z</time>
      </trkpt>
      <trkpt lat="46.43585" lon="4.7142">
        <ele>517.287</ele>
        <time>2022-09-24T12:04:52Z</time>
      </trkpt>
      <trkpt lat="46.43591" lon="4.71414">
        <ele>514.187</ele>
        <time>2022-09-24T12:04:57Z</time>
      </trkpt>
      <trkpt lat="46.43596" lon="4.71409">
        <ele>510.987</ele>
        <time>2022-09-24T12:05:03Z</time>
      </trkpt>
      <trkpt lat="46.43602" lon="4.71404">
        <ele>506.487</ele>
        <time>2022-09-24T12:05:11Z</time>
      </trkpt>
      <trkpt lat="46.43609" lon="4.71401">
        <ele>506.287</ele>
        <time>2022-09-24T12:05:16Z</time>
      </trkpt>
      <trkpt lat="46.43615" lon="4.71396">
        <ele>506.987</ele>
        <time>2022-09-24T12:05:22Z</time>
      </trkpt>
      <trkpt lat="46.43622" lon="4.71394">
        <ele>506.387</ele>
        <time>2022-09-24T12:05:27Z</time>
      </trkpt>
      <trkpt lat="46.43629" lon="4.71391">
        <ele>505.787</ele>
        <time>2022-09-24T12:05:32Z</time>
      </trkpt>
      <trkpt lat="46.43634" lon="4.71383">
        <ele>509.087</ele>
        <time>2022-09-24T12:05:37Z</time>
      </trkpt>
      <trkpt lat="46.43641" lon="4.71378">
        <ele>507.587</ele>
        <time>2022-09-24T12:05:43Z</time>
      </trkpt>
      <trkpt lat="46.43644" lon="4.71368">
        <ele>510.387</ele>
        <time>2022-09-24T12:06:02Z</time>
      </trkpt>
      <trkpt lat="46.43648" lon="4.71361">
        <ele>511.287</ele>
        <time>2022-09-24T12:06:15Z</time>
      </trkpt>
      <trkpt lat="46.43651" lon="4.71352">
        <ele>510.087</ele>
        <time>2022-09-24T12:06:20Z</time>
      </trkpt>
      <trkpt lat="46.43653" lon="4.71342">
        <ele>511.787</ele>
        <time>2022-09-24T12:06:28Z</time>
      </trkpt>
      <trkpt lat="46.43655" lon="4.71333">
        <ele>513.787</ele>
        <time>2022-09-24T12:06:34Z</time>
      </trkpt>
      <trkpt lat="46.43656" lon="4.71322">
        <ele>512.487</ele>
        <time>2022-09-24T12:06:40Z</time>
      </trkpt>
      <trkpt lat="46.43659" lon="4.71312">
        <ele>511.787</ele>
        <time>2022-09-24T12:06:45Z</time>
      </trkpt>
      <trkpt lat="46.43662" lon="4.71303">
        <ele>509.887</ele>
        <time>2022-09-24T12:06:52Z</time>
      </trkpt>
      <trkpt lat="46.43665" lon="4.71294">
        <ele>508.487</ele>
        <time>2022-09-24T12:06:57Z</time>
      </trkpt>
      <trkpt lat="46.43668" lon="4.71282">
        <ele>508.887</ele>
        <time>2022-09-24T12:07:03Z</time>
      </trkpt>
      <trkpt lat="46.43668" lon="4.71271">
        <ele>507.287</ele>
        <time>2022-09-24T12:07:11Z</time>
      </trkpt>
      <trkpt lat="46.4367" lon="4.71257">
        <ele>504.487</ele>
        <time>2022-09-24T12:07:17Z</time>
      </trkpt>
      <trkpt lat="46.4367" lon="4.71248">
        <ele>502.787</ele>
        <time>2022-09-24T12:07:23Z</time>
      </trkpt>
      <trkpt lat="46.43673" lon="4.71237">
        <ele>501.487</ele>
        <time>2022-09-24T12:07:29Z</time>
      </trkpt>
      <trkpt lat="46.43673" lon="4.71227">
        <ele>503.287</ele>
        <time>2022-09-24T12:07:34Z</time>
      </trkpt>
      <trkpt lat="46.43675" lon="4.71217">
        <ele>501.287</ele>
        <time>2022-09-24T12:07:39Z</time>
      </trkpt>
      <trkpt lat="46.43676" lon="4.71207">
        <ele>500.087</ele>
        <time>2022-09-24T12:07:45Z</time>
      </trkpt>
      <trkpt lat="46.43677" lon="4.71197">
        <ele>498.087</ele>
        <time>2022-09-24T12:07:51Z</time>
      </trkpt>
      <trkpt lat="46.43678" lon="4.71184">
        <ele>499.587</ele>
        <time>2022-09-24T12:07:57Z</time>
      </trkpt>
      <trkpt lat="46.43684" lon="4.71177">
        <ele>500.187</ele>
        <time>2022-09-24T12:08:02Z</time>
      </trkpt>
      <trkpt lat="46.43689" lon="4.7117">
        <ele>499.487</ele>
        <time>2022-09-24T12:08:07Z</time>
      </trkpt>
      <trkpt lat="46.43693" lon="4.71161">
        <ele>496.687</ele>
        <time>2022-09-24T12:08:13Z</time>
      </trkpt>
      <trkpt lat="46.43698" lon="4.71154">
        <ele>495.387</ele>
        <time>2022-09-24T12:08:18Z</time>
      </trkpt>
      <trkpt lat="46.43703" lon="4.71145">
        <ele>493.187</ele>
        <time>2022-09-24T12:08:24Z</time>
      </trkpt>
      <trkpt lat="46.43706" lon="4.71136">
        <ele>490.587</ele>
        <time>2022-09-24T12:08:30Z</time>
      </trkpt>
      <trkpt lat="46.43709" lon="4.71128">
        <ele>493.987</ele>
        <time>2022-09-24T12:08:36Z</time>
      </trkpt>
      <trkpt lat="46.43713" lon="4.71121">
        <ele>494.487</ele>
        <time>2022-09-24T12:08:41Z</time>
      </trkpt>
      <trkpt lat="46.43718" lon="4.71114">
        <ele>494.087</ele>
        <time>2022-09-24T12:08:46Z</time>
      </trkpt>
      <trkpt lat="46.43723" lon="4.71107">
        <ele>493.187</ele>
        <time>2022-09-24T12:08:51Z</time>
      </trkpt>
      <trkpt lat="46.43729" lon="4.71099">
        <ele>495.287</ele>
        <time>2022-09-24T12:08:57Z</time>
      </trkpt>
      <trkpt lat="46.43735" lon="4.71092">
        <ele>495.287</ele>
        <time>2022-09-24T12:09:02Z</time>
      </trkpt>
      <trkpt lat="46.4374" lon="4.71086">
        <ele>495.387</ele>
        <time>2022-09-24T12:09:08Z</time>
      </trkpt>
      <trkpt lat="46.43745" lon="4.71079">
        <ele>495.087</ele>
        <time>2022-09-24T12:09:13Z</time>
      </trkpt>
      <trkpt lat="46.4375" lon="4.71074">
        <ele>498.087</ele>
        <time>2022-09-24T12:09:19Z</time>
      </trkpt>
      <trkpt lat="46.43757" lon="4.71067">
        <ele>495.987</ele>
        <time>2022-09-24T12:09:25Z</time>
      </trkpt>
      <trkpt lat="46.43762" lon="4.7106">
        <ele>494.087</ele>
        <time>2022-09-24T12:09:31Z</time>
      </trkpt>
      <trkpt lat="46.43768" lon="4.71052">
        <ele>492.387</ele>
        <time>2022-09-24T12:09:37Z</time>
      </trkpt>
      <trkpt lat="46.43774" lon="4.71044">
        <ele>492.887</ele>
        <time>2022-09-24T12:09:42Z</time>
      </trkpt>
      <trkpt lat="46.43779" lon="4.71037">
        <ele>490.687</ele>
        <time>2022-09-24T12:09:48Z</time>
      </trkpt>
      <trkpt lat="46.43784" lon="4.71031">
        <ele>488.987</ele>
        <time>2022-09-24T12:09:53Z</time>
      </trkpt>
      <trkpt lat="46.43791" lon="4.71023">
        <ele>487.487</ele>
        <time>2022-09-24T12:09:58Z</time>
      </trkpt>
      <trkpt lat="46.43796" lon="4.71015">
        <ele>488.987</ele>
        <time>2022-09-24T12:10:04Z</time>
      </trkpt>
      <trkpt lat="46.43801" lon="4.71008">
        <ele>490.187</ele>
        <time>2022-09-24T12:10:10Z</time>
      </trkpt>
      <trkpt lat="46.43805" lon="4.70999">
        <ele>491.087</ele>
        <time>2022-09-24T12:10:15Z</time>
      </trkpt>
      <trkpt lat="46.43809" lon="4.70989">
        <ele>493.287</ele>
        <time>2022-09-24T12:10:23Z</time>
      </trkpt>
      <trkpt lat="46.43816" lon="4.70983">
        <ele>494.287</ele>
        <time>2022-09-24T12:10:29Z</time>
      </trkpt>
      <trkpt lat="46.43825" lon="4.70974">
        <ele>495.487</ele>
        <time>2022-09-24T12:10:34Z</time>
      </trkpt>
      <trkpt lat="46.4383" lon="4.70965">
        <ele>493.687</ele>
        <time>2022-09-24T12:10:43Z</time>
      </trkpt>
      <trkpt lat="46.43824" lon="4.70956">
        <ele>493.087</ele>
        <time>2022-09-24T12:11:48Z</time>
      </trkpt>
      <trkpt lat="46.43831" lon="4.70955">
        <ele>494.587</ele>
        <time>2022-09-24T12:12:10Z</time>
      </trkpt>
      <trkpt lat="46.43824" lon="4.70955">
        <ele>495.687</ele>
        <time>2022-09-24T12:12:26Z</time>
      </trkpt>
      <trkpt lat="46.43816" lon="4.70955">
        <ele>491.187</ele>
        <time>2022-09-24T12:12:43Z</time>
      </trkpt>
      <trkpt lat="46.43824" lon="4.70956">
        <ele>489.687</ele>
        <time>2022-09-24T12:13:06Z</time>
      </trkpt>
      <trkpt lat="46.43832" lon="4.70958">
        <ele>494.487</ele>
        <time>2022-09-24T12:14:47Z</time>
      </trkpt>
      <trkpt lat="46.43826" lon="4.70956">
        <ele>493.587</ele>
        <time>2022-09-24T12:15:26Z</time>
      </trkpt>
      <trkpt lat="46.4382" lon="4.7096">
        <ele>497.487</ele>
        <time>2022-09-24T12:16:41Z</time>
      </trkpt>
      <trkpt lat="46.43826" lon="4.70958">
        <ele>491.187</ele>
        <time>2022-09-24T12:17:27Z</time>
      </trkpt>
      <trkpt lat="46.43835" lon="4.70959">
        <ele>498.787</ele>
        <time>2022-09-24T12:18:33Z</time>
      </trkpt>
      <trkpt lat="46.43841" lon="4.70959">
        <ele>491.787</ele>
        <time>2022-09-24T12:23:20Z</time>
      </trkpt>
      <trkpt lat="46.43848" lon="4.70961">
        <ele>493.487</ele>
        <time>2022-09-24T12:24:23Z</time>
      </trkpt>
      <trkpt lat="46.43854" lon="4.70955">
        <ele>489.387</ele>
        <time>2022-09-24T12:24:31Z</time>
      </trkpt>
      <trkpt lat="46.4386" lon="4.70952">
        <ele>488.387</ele>
        <time>2022-09-24T12:24:36Z</time>
      </trkpt>
      <trkpt lat="46.43867" lon="4.70951">
        <ele>486.687</ele>
        <time>2022-09-24T12:24:41Z</time>
      </trkpt>
      <trkpt lat="46.43874" lon="4.70947">
        <ele>484.087</ele>
        <time>2022-09-24T12:24:47Z</time>
      </trkpt>
      <trkpt lat="46.43881" lon="4.70943">
        <ele>480.987</ele>
        <time>2022-09-24T12:24:53Z</time>
      </trkpt>
      <trkpt lat="46.43887" lon="4.7094">
        <ele>477.987</ele>
        <time>2022-09-24T12:24:58Z</time>
      </trkpt>
      <trkpt lat="46.43896" lon="4.70933">
        <ele>474.987</ele>
        <time>2022-09-24T12:25:04Z</time>
      </trkpt>
      <trkpt lat="46.43903" lon="4.7093">
        <ele>474.287</ele>
        <time>2022-09-24T12:25:10Z</time>
      </trkpt>
      <trkpt lat="46.43912" lon="4.70927">
        <ele>471.987</ele>
        <time>2022-09-24T12:25:16Z</time>
      </trkpt>
      <trkpt lat="46.43918" lon="4.70924">
        <ele>469.287</ele>
        <time>2022-09-24T12:25:21Z</time>
      </trkpt>
      <trkpt lat="46.43924" lon="4.70921">
        <ele>467.087</ele>
        <time>2022-09-24T12:25:28Z</time>
      </trkpt>
      <trkpt lat="46.4393" lon="4.70916">
        <ele>466.287</ele>
        <time>2022-09-24T12:25:34Z</time>
      </trkpt>
      <trkpt lat="46.43938" lon="4.70912">
        <ele>464.287</ele>
        <time>2022-09-24T12:25:40Z</time>
      </trkpt>
      <trkpt lat="46.43944" lon="4.70907">
        <ele>465.987</ele>
        <time>2022-09-24T12:25:45Z</time>
      </trkpt>
      <trkpt lat="46.43948" lon="4.70899">
        <ele>466.187</ele>
        <time>2022-09-24T12:25:50Z</time>
      </trkpt>
      <trkpt lat="46.43953" lon="4.70891">
        <ele>466.387</ele>
        <time>2022-09-24T12:25:57Z</time>
      </trkpt>
      <trkpt lat="46.43958" lon="4.70884">
        <ele>466.887</ele>
        <time>2022-09-24T12:26:03Z</time>
      </trkpt>
      <trkpt lat="46.4396" lon="4.70874">
        <ele>463.087</ele>
        <time>2022-09-24T12:26:11Z</time>
      </trkpt>
      <trkpt lat="46.43963" lon="4.70865">
        <ele>459.987</ele>
        <time>2022-09-24T12:26:17Z</time>
      </trkpt>
      <trkpt lat="46.43965" lon="4.70856">
        <ele>456.787</ele>
        <time>2022-09-24T12:26:24Z</time>
      </trkpt>
      <trkpt lat="46.43968" lon="4.70845">
        <ele>456.287</ele>
        <time>2022-09-24T12:26:30Z</time>
      </trkpt>
      <trkpt lat="46.43968" lon="4.70835">
        <ele>457.387</ele>
        <time>2022-09-24T12:26:37Z</time>
      </trkpt>
      <trkpt lat="46.4397" lon="4.70823">
        <ele>456.087</ele>
        <time>2022-09-24T12:26:45Z</time>
      </trkpt>
      <trkpt lat="46.4397" lon="4.70814">
        <ele>453.887</ele>
        <time>2022-09-24T12:26:50Z</time>
      </trkpt>
      <trkpt lat="46.43972" lon="4.70802">
        <ele>453.987</ele>
        <time>2022-09-24T12:26:56Z</time>
      </trkpt>
      <trkpt lat="46.43973" lon="4.70792">
        <ele>451.587</ele>
        <time>2022-09-24T12:27:07Z</time>
      </trkpt>
      <trkpt lat="46.43981" lon="4.70784">
        <ele>450.587</ele>
        <time>2022-09-24T12:27:12Z</time>
      </trkpt>
      <trkpt lat="46.43986" lon="4.70778">
        <ele>450.287</ele>
        <time>2022-09-24T12:27:17Z</time>
      </trkpt>
      <trkpt lat="46.43986" lon="4.70768">
        <ele>452.387</ele>
        <time>2022-09-24T12:27:22Z</time>
      </trkpt>
      <trkpt lat="46.43985" lon="4.70754">
        <ele>450.487</ele>
        <time>2022-09-24T12:27:28Z</time>
      </trkpt>
      <trkpt lat="46.43991" lon="4.70744">
        <ele>449.387</ele>
        <time>2022-09-24T12:27:33Z</time>
      </trkpt>
      <trkpt lat="46.43998" lon="4.70742">
        <ele>449.287</ele>
        <time>2022-09-24T12:27:46Z</time>
      </trkpt>
      <trkpt lat="46.43998" lon="4.7073">
        <ele>453.187</ele>
        <time>2022-09-24T12:27:55Z</time>
      </trkpt>
      <trkpt lat="46.44002" lon="4.70719">
        <ele>453.187</ele>
        <time>2022-09-24T12:28:00Z</time>
      </trkpt>
      <trkpt lat="46.44002" lon="4.70708">
        <ele>451.287</ele>
        <time>2022-09-24T12:28:06Z</time>
      </trkpt>
      <trkpt lat="46.43999" lon="4.70698">
        <ele>451.087</ele>
        <time>2022-09-24T12:28:11Z</time>
      </trkpt>
      <trkpt lat="46.44002" lon="4.70687">
        <ele>452.487</ele>
        <time>2022-09-24T12:28:16Z</time>
      </trkpt>
      <trkpt lat="46.44" lon="4.70677">
        <ele>450.987</ele>
        <time>2022-09-24T12:28:24Z</time>
      </trkpt>
      <trkpt lat="46.43998" lon="4.70667">
        <ele>448.087</ele>
        <time>2022-09-24T12:28:32Z</time>
      </trkpt>
      <trkpt lat="46.43996" lon="4.70657">
        <ele>442.987</ele>
        <time>2022-09-24T12:28:39Z</time>
      </trkpt>
      <trkpt lat="46.43997" lon="4.70647">
        <ele>440.987</ele>
        <time>2022-09-24T12:28:45Z</time>
      </trkpt>
      <trkpt lat="46.44001" lon="4.70638">
        <ele>437.487</ele>
        <time>2022-09-24T12:28:51Z</time>
      </trkpt>
      <trkpt lat="46.44003" lon="4.70629">
        <ele>434.087</ele>
        <time>2022-09-24T12:28:57Z</time>
      </trkpt>
      <trkpt lat="46.44008" lon="4.70621">
        <ele>430.687</ele>
        <time>2022-09-24T12:29:03Z</time>
      </trkpt>
      <trkpt lat="46.44008" lon="4.70611">
        <ele>425.387</ele>
        <time>2022-09-24T12:29:12Z</time>
      </trkpt>
      <trkpt lat="46.44011" lon="4.70602">
        <ele>426.487</ele>
        <time>2022-09-24T12:29:17Z</time>
      </trkpt>
      <trkpt lat="46.44013" lon="4.70593">
        <ele>426.487</ele>
        <time>2022-09-24T12:29:23Z</time>
      </trkpt>
      <trkpt lat="46.44014" lon="4.70583">
        <ele>423.887</ele>
        <time>2022-09-24T12:29:43Z</time>
      </trkpt>
      <trkpt lat="46.44016" lon="4.70574">
        <ele>422.687</ele>
        <time>2022-09-24T12:29:50Z</time>
      </trkpt>
      <trkpt lat="46.44017" lon="4.70563">
        <ele>422.887</ele>
        <time>2022-09-24T12:29:56Z</time>
      </trkpt>
      <trkpt lat="46.44019" lon="4.70553">
        <ele>421.387</ele>
        <time>2022-09-24T12:30:02Z</time>
      </trkpt>
      <trkpt lat="46.44019" lon="4.70543">
        <ele>420.387</ele>
        <time>2022-09-24T12:30:08Z</time>
      </trkpt>
      <trkpt lat="46.4402" lon="4.70532">
        <ele>418.987</ele>
        <time>2022-09-24T12:30:16Z</time>
      </trkpt>
      <trkpt lat="46.4402" lon="4.70522">
        <ele>417.287</ele>
        <time>2022-09-24T12:30:22Z</time>
      </trkpt>
      <trkpt lat="46.44021" lon="4.70512">
        <ele>416.987</ele>
        <time>2022-09-24T12:30:28Z</time>
      </trkpt>
      <trkpt lat="46.44022" lon="4.70501">
        <ele>416.387</ele>
        <time>2022-09-24T12:30:34Z</time>
      </trkpt>
      <trkpt lat="46.44024" lon="4.70488">
        <ele>418.787</ele>
        <time>2022-09-24T12:30:40Z</time>
      </trkpt>
      <trkpt lat="46.44025" lon="4.70478">
        <ele>417.487</ele>
        <time>2022-09-24T12:30:46Z</time>
      </trkpt>
      <trkpt lat="46.44025" lon="4.70468">
        <ele>417.387</ele>
        <time>2022-09-24T12:30:52Z</time>
      </trkpt>
      <trkpt lat="46.44025" lon="4.70458">
        <ele>418.687</ele>
        <time>2022-09-24T12:30:57Z</time>
      </trkpt>
      <trkpt lat="46.44027" lon="4.70448">
        <ele>419.187</ele>
        <time>2022-09-24T12:31:02Z</time>
      </trkpt>
      <trkpt lat="46.44029" lon="4.70436">
        <ele>418.987</ele>
        <time>2022-09-24T12:31:08Z</time>
      </trkpt>
      <trkpt lat="46.44031" lon="4.70425">
        <ele>418.087</ele>
        <time>2022-09-24T12:31:13Z</time>
      </trkpt>
      <trkpt lat="46.44031" lon="4.70415">
        <ele>417.187</ele>
        <time>2022-09-24T12:31:19Z</time>
      </trkpt>
      <trkpt lat="46.44027" lon="4.70407">
        <ele>417.287</ele>
        <time>2022-09-24T12:31:25Z</time>
      </trkpt>
      <trkpt lat="46.44021" lon="4.70406">
        <ele>417.087</ele>
        <time>2022-09-24T12:31:34Z</time>
      </trkpt>
      <trkpt lat="46.44014" lon="4.70402">
        <ele>413.987</ele>
        <time>2022-09-24T12:31:43Z</time>
      </trkpt>
      <trkpt lat="46.44007" lon="4.70398">
        <ele>411.787</ele>
        <time>2022-09-24T12:31:48Z</time>
      </trkpt>
      <trkpt lat="46.44001" lon="4.70394">
        <ele>411.487</ele>
        <time>2022-09-24T12:31:53Z</time>
      </trkpt>
      <trkpt lat="46.43994" lon="4.7039">
        <ele>410.387</ele>
        <time>2022-09-24T12:31:59Z</time>
      </trkpt>
      <trkpt lat="46.43987" lon="4.70386">
        <ele>411.287</ele>
        <time>2022-09-24T12:32:06Z</time>
      </trkpt>
      <trkpt lat="46.43981" lon="4.70384">
        <ele>411.187</ele>
        <time>2022-09-24T12:32:12Z</time>
      </trkpt>
      <trkpt lat="46.43974" lon="4.70383">
        <ele>405.887</ele>
        <time>2022-09-24T12:32:19Z</time>
      </trkpt>
      <trkpt lat="46.43967" lon="4.70379">
        <ele>401.387</ele>
        <time>2022-09-24T12:32:26Z</time>
      </trkpt>
      <trkpt lat="46.43961" lon="4.7037">
        <ele>402.787</ele>
        <time>2022-09-24T12:32:31Z</time>
      </trkpt>
      <trkpt lat="46.43955" lon="4.70367">
        <ele>404.487</ele>
        <time>2022-09-24T12:32:37Z</time>
      </trkpt>
      <trkpt lat="46.43948" lon="4.70361">
        <ele>406.787</ele>
        <time>2022-09-24T12:32:42Z</time>
      </trkpt>
      <trkpt lat="46.43942" lon="4.70355">
        <ele>408.287</ele>
        <time>2022-09-24T12:32:48Z</time>
      </trkpt>
      <trkpt lat="46.43933" lon="4.7035">
        <ele>408.687</ele>
        <time>2022-09-24T12:32:54Z</time>
      </trkpt>
      <trkpt lat="46.43927" lon="4.70344">
        <ele>409.087</ele>
        <time>2022-09-24T12:33:01Z</time>
      </trkpt>
      <trkpt lat="46.43921" lon="4.70342">
        <ele>408.187</ele>
        <time>2022-09-24T12:33:10Z</time>
      </trkpt>
      <trkpt lat="46.43916" lon="4.70334">
        <ele>406.387</ele>
        <time>2022-09-24T12:33:16Z</time>
      </trkpt>
      <trkpt lat="46.43909" lon="4.70329">
        <ele>408.587</ele>
        <time>2022-09-24T12:33:24Z</time>
      </trkpt>
      <trkpt lat="46.43903" lon="4.7032">
        <ele>407.387</ele>
        <time>2022-09-24T12:33:30Z</time>
      </trkpt>
      <trkpt lat="46.43898" lon="4.70314">
        <ele>406.287</ele>
        <time>2022-09-24T12:33:35Z</time>
      </trkpt>
      <trkpt lat="46.43892" lon="4.70307">
        <ele>406.087</ele>
        <time>2022-09-24T12:33:40Z</time>
      </trkpt>
      <trkpt lat="46.43888" lon="4.70299">
        <ele>406.287</ele>
        <time>2022-09-24T12:33:46Z</time>
      </trkpt>
      <trkpt lat="46.43884" lon="4.7029">
        <ele>406.087</ele>
        <time>2022-09-24T12:33:53Z</time>
      </trkpt>
      <trkpt lat="46.43879" lon="4.70281">
        <ele>401.586</ele>
        <time>2022-09-24T12:34:00Z</time>
      </trkpt>
      <trkpt lat="46.43874" lon="4.70272">
        <ele>398.986</ele>
        <time>2022-09-24T12:34:07Z</time>
      </trkpt>
      <trkpt lat="46.43868" lon="4.70266">
        <ele>397.586</ele>
        <time>2022-09-24T12:34:13Z</time>
      </trkpt>
      <trkpt lat="46.43863" lon="4.70259">
        <ele>397.386</ele>
        <time>2022-09-24T12:34:19Z</time>
      </trkpt>
      <trkpt lat="46.43859" lon="4.70251">
        <ele>396.086</ele>
        <time>2022-09-24T12:34:25Z</time>
      </trkpt>
      <trkpt lat="46.43854" lon="4.70244">
        <ele>395.386</ele>
        <time>2022-09-24T12:34:30Z</time>
      </trkpt>
      <trkpt lat="46.43849" lon="4.70238">
        <ele>394.386</ele>
        <time>2022-09-24T12:34:36Z</time>
      </trkpt>
      <trkpt lat="46.43843" lon="4.70231">
        <ele>389.486</ele>
        <time>2022-09-24T12:34:44Z</time>
      </trkpt>
      <trkpt lat="46.43839" lon="4.70222">
        <ele>384.386</ele>
        <time>2022-09-24T12:34:52Z</time>
      </trkpt>
      <trkpt lat="46.43836" lon="4.70213">
        <ele>383.486</ele>
        <time>2022-09-24T12:34:57Z</time>
      </trkpt>
      <trkpt lat="46.43831" lon="4.70202">
        <ele>383.686</ele>
        <time>2022-09-24T12:35:03Z</time>
      </trkpt>
      <trkpt lat="46.43826" lon="4.70193">
        <ele>381.686</ele>
        <time>2022-09-24T12:35:10Z</time>
      </trkpt>
      <trkpt lat="46.43823" lon="4.70184">
        <ele>381.286</ele>
        <time>2022-09-24T12:35:16Z</time>
      </trkpt>
      <trkpt lat="46.43819" lon="4.70176">
        <ele>381.886</ele>
        <time>2022-09-24T12:35:23Z</time>
      </trkpt>
      <trkpt lat="46.43819" lon="4.70166">
        <ele>380.186</ele>
        <time>2022-09-24T12:35:29Z</time>
      </trkpt>
      <trkpt lat="46.43818" lon="4.70156">
        <ele>378.586</ele>
        <time>2022-09-24T12:35:37Z</time>
      </trkpt>
      <trkpt lat="46.43819" lon="4.70145">
        <ele>377.686</ele>
        <time>2022-09-24T12:35:43Z</time>
      </trkpt>
      <trkpt lat="46.43818" lon="4.70135">
        <ele>379.186</ele>
        <time>2022-09-24T12:35:49Z</time>
      </trkpt>
      <trkpt lat="46.43816" lon="4.70125">
        <ele>379.686</ele>
        <time>2022-09-24T12:35:56Z</time>
      </trkpt>
      <trkpt lat="46.43815" lon="4.70115">
        <ele>378.686</ele>
        <time>2022-09-24T12:36:03Z</time>
      </trkpt>
      <trkpt lat="46.43815" lon="4.70105">
        <ele>375.486</ele>
        <time>2022-09-24T12:36:10Z</time>
      </trkpt>
      <trkpt lat="46.43815" lon="4.70095">
        <ele>372.486</ele>
        <time>2022-09-24T12:36:17Z</time>
      </trkpt>
      <trkpt lat="46.43818" lon="4.70084">
        <ele>370.086</ele>
        <time>2022-09-24T12:36:23Z</time>
      </trkpt>
      <trkpt lat="46.43817" lon="4.70073">
        <ele>371.786</ele>
        <time>2022-09-24T12:36:29Z</time>
      </trkpt>
      <trkpt lat="46.43812" lon="4.70063">
        <ele>372.886</ele>
        <time>2022-09-24T12:36:35Z</time>
      </trkpt>
      <trkpt lat="46.43814" lon="4.70053">
        <ele>374.186</ele>
        <time>2022-09-24T12:36:40Z</time>
      </trkpt>
      <trkpt lat="46.43818" lon="4.70044">
        <ele>373.586</ele>
        <time>2022-09-24T12:36:46Z</time>
      </trkpt>
      <trkpt lat="46.43819" lon="4.70033">
        <ele>371.586</ele>
        <time>2022-09-24T12:36:54Z</time>
      </trkpt>
      <trkpt lat="46.4382" lon="4.70023">
        <ele>367.786</ele>
        <time>2022-09-24T12:37:01Z</time>
      </trkpt>
      <trkpt lat="46.43824" lon="4.70012">
        <ele>366.286</ele>
        <time>2022-09-24T12:37:07Z</time>
      </trkpt>
      <trkpt lat="46.43825" lon="4.70001">
        <ele>364.486</ele>
        <time>2022-09-24T12:37:14Z</time>
      </trkpt>
      <trkpt lat="46.43827" lon="4.69991">
        <ele>364.586</ele>
        <time>2022-09-24T12:37:19Z</time>
      </trkpt>
      <trkpt lat="46.43829" lon="4.69982">
        <ele>367.686</ele>
        <time>2022-09-24T12:37:25Z</time>
      </trkpt>
      <trkpt lat="46.4383" lon="4.69972">
        <ele>367.486</ele>
        <time>2022-09-24T12:37:33Z</time>
      </trkpt>
      <trkpt lat="46.43831" lon="4.69961">
        <ele>365.086</ele>
        <time>2022-09-24T12:37:39Z</time>
      </trkpt>
      <trkpt lat="46.43834" lon="4.69952">
        <ele>359.086</ele>
        <time>2022-09-24T12:37:46Z</time>
      </trkpt>
      <trkpt lat="46.43837" lon="4.69943">
        <ele>358.286</ele>
        <time>2022-09-24T12:37:52Z</time>
      </trkpt>
      <trkpt lat="46.4384" lon="4.69933">
        <ele>357.786</ele>
        <time>2022-09-24T12:37:58Z</time>
      </trkpt>
      <trkpt lat="46.43843" lon="4.69924">
        <ele>354.086</ele>
        <time>2022-09-24T12:38:05Z</time>
      </trkpt>
      <trkpt lat="46.43847" lon="4.69917">
        <ele>343.886</ele>
        <time>2022-09-24T12:39:09Z</time>
      </trkpt>
      <trkpt lat="46.43841" lon="4.69912">
        <ele>358.486</ele>
        <time>2022-09-24T12:43:21Z</time>
      </trkpt>
      <trkpt lat="46.43843" lon="4.69902">
        <ele>356.886</ele>
        <time>2022-09-24T12:43:40Z</time>
      </trkpt>
      <trkpt lat="46.43847" lon="4.69894">
        <ele>356.886</ele>
        <time>2022-09-24T12:43:53Z</time>
      </trkpt>
      <trkpt lat="46.43848" lon="4.69884">
        <ele>354.086</ele>
        <time>2022-09-24T12:44:00Z</time>
      </trkpt>
      <trkpt lat="46.43846" lon="4.69874">
        <ele>351.586</ele>
        <time>2022-09-24T12:44:08Z</time>
      </trkpt>
      <trkpt lat="46.43848" lon="4.69865">
        <ele>349.886</ele>
        <time>2022-09-24T12:44:15Z</time>
      </trkpt>
      <trkpt lat="46.43853" lon="4.69855">
        <ele>346.486</ele>
        <time>2022-09-24T12:44:21Z</time>
      </trkpt>
      <trkpt lat="46.43855" lon="4.69846">
        <ele>342.786</ele>
        <time>2022-09-24T12:44:28Z</time>
      </trkpt>
      <trkpt lat="46.43859" lon="4.69838">
        <ele>340.486</ele>
        <time>2022-09-24T12:44:34Z</time>
      </trkpt>
      <trkpt lat="46.43862" lon="4.6983">
        <ele>338.886</ele>
        <time>2022-09-24T12:44:40Z</time>
      </trkpt>
      <trkpt lat="46.43864" lon="4.69818">
        <ele>339.186</ele>
        <time>2022-09-24T12:44:46Z</time>
      </trkpt>
      <trkpt lat="46.43869" lon="4.69811">
        <ele>336.686</ele>
        <time>2022-09-24T12:44:52Z</time>
      </trkpt>
      <trkpt lat="46.43873" lon="4.698">
        <ele>334.486</ele>
        <time>2022-09-24T12:44:57Z</time>
      </trkpt>
      <trkpt lat="46.43876" lon="4.69791">
        <ele>332.886</ele>
        <time>2022-09-24T12:45:03Z</time>
      </trkpt>
      <trkpt lat="46.43879" lon="4.69781">
        <ele>332.986</ele>
        <time>2022-09-24T12:45:08Z</time>
      </trkpt>
      <trkpt lat="46.43883" lon="4.69772">
        <ele>332.586</ele>
        <time>2022-09-24T12:45:14Z</time>
      </trkpt>
      <trkpt lat="46.43888" lon="4.69765">
        <ele>331.486</ele>
        <time>2022-09-24T12:45:21Z</time>
      </trkpt>
      <trkpt lat="46.43891" lon="4.69756">
        <ele>329.086</ele>
        <time>2022-09-24T12:45:28Z</time>
      </trkpt>
      <trkpt lat="46.43894" lon="4.69748">
        <ele>325.386</ele>
        <time>2022-09-24T12:45:34Z</time>
      </trkpt>
      <trkpt lat="46.43895" lon="4.69737">
        <ele>324.486</ele>
        <time>2022-09-24T12:45:40Z</time>
      </trkpt>
      <trkpt lat="46.43896" lon="4.69728">
        <ele>324.286</ele>
        <time>2022-09-24T12:45:48Z</time>
      </trkpt>
      <trkpt lat="46.43898" lon="4.69717">
        <ele>321.786</ele>
        <time>2022-09-24T12:45:54Z</time>
      </trkpt>
      <trkpt lat="46.43898" lon="4.69708">
        <ele>324.286</ele>
        <time>2022-09-24T12:46:00Z</time>
      </trkpt>
      <trkpt lat="46.43894" lon="4.69698">
        <ele>325.686</ele>
        <time>2022-09-24T12:46:06Z</time>
      </trkpt>
      <trkpt lat="46.43888" lon="4.69692">
        <ele>326.386</ele>
        <time>2022-09-24T12:46:13Z</time>
      </trkpt>
      <trkpt lat="46.43882" lon="4.69688">
        <ele>325.986</ele>
        <time>2022-09-24T12:46:20Z</time>
      </trkpt>
      <trkpt lat="46.43876" lon="4.69682">
        <ele>325.586</ele>
        <time>2022-09-24T12:46:27Z</time>
      </trkpt>
      <trkpt lat="46.4387" lon="4.69676">
        <ele>324.586</ele>
        <time>2022-09-24T12:46:34Z</time>
      </trkpt>
      <trkpt lat="46.43863" lon="4.69674">
        <ele>324.386</ele>
        <time>2022-09-24T12:46:40Z</time>
      </trkpt>
      <trkpt lat="46.43857" lon="4.69669">
        <ele>320.286</ele>
        <time>2022-09-24T12:46:45Z</time>
      </trkpt>
      <trkpt lat="46.4385" lon="4.69667">
        <ele>316.586</ele>
        <time>2022-09-24T12:46:52Z</time>
      </trkpt>
      <trkpt lat="46.43843" lon="4.69663">
        <ele>315.186</ele>
        <time>2022-09-24T12:46:57Z</time>
      </trkpt>
      <trkpt lat="46.43838" lon="4.69655">
        <ele>315.586</ele>
        <time>2022-09-24T12:47:02Z</time>
      </trkpt>
      <trkpt lat="46.43838" lon="4.69644">
        <ele>314.886</ele>
        <time>2022-09-24T12:47:08Z</time>
      </trkpt>
      <trkpt lat="46.43836" lon="4.69634">
        <ele>312.186</ele>
        <time>2022-09-24T12:47:14Z</time>
      </trkpt>
      <trkpt lat="46.43838" lon="4.6962">
        <ele>311.786</ele>
        <time>2022-09-24T12:47:20Z</time>
      </trkpt>
      <trkpt lat="46.43839" lon="4.6961">
        <ele>312.786</ele>
        <time>2022-09-24T12:47:26Z</time>
      </trkpt>
      <trkpt lat="46.43838" lon="4.69595">
        <ele>316.286</ele>
        <time>2022-09-24T12:47:32Z</time>
      </trkpt>
      <trkpt lat="46.4384" lon="4.69585">
        <ele>317.086</ele>
        <time>2022-09-24T12:47:38Z</time>
      </trkpt>
      <trkpt lat="46.43839" lon="4.69572">
        <ele>316.886</ele>
        <time>2022-09-24T12:47:44Z</time>
      </trkpt>
      <trkpt lat="46.43838" lon="4.69562">
        <ele>316.586</ele>
        <time>2022-09-24T12:47:50Z</time>
      </trkpt>
      <trkpt lat="46.43841" lon="4.69552">
        <ele>316.286</ele>
        <time>2022-09-24T12:47:56Z</time>
      </trkpt>
      <trkpt lat="46.43843" lon="4.69542">
        <ele>321.686</ele>
        <time>2022-09-24T12:48:02Z</time>
      </trkpt>
      <trkpt lat="46.43844" lon="4.69533">
        <ele>325.986</ele>
        <time>2022-09-24T12:48:09Z</time>
      </trkpt>
      <trkpt lat="46.43845" lon="4.69523">
        <ele>327.286</ele>
        <time>2022-09-24T12:48:16Z</time>
      </trkpt>
      <trkpt lat="46.43847" lon="4.69513">
        <ele>327.186</ele>
        <time>2022-09-24T12:48:21Z</time>
      </trkpt>
      <trkpt lat="46.43847" lon="4.69504">
        <ele>327.686</ele>
        <time>2022-09-24T12:48:27Z</time>
      </trkpt>
      <trkpt lat="46.43844" lon="4.69495">
        <ele>326.286</ele>
        <time>2022-09-24T12:48:34Z</time>
      </trkpt>
      <trkpt lat="46.43839" lon="4.69487">
        <ele>325.986</ele>
        <time>2022-09-24T12:48:41Z</time>
      </trkpt>
      <trkpt lat="46.43837" lon="4.69477">
        <ele>326.686</ele>
        <time>2022-09-24T12:48:48Z</time>
      </trkpt>
      <trkpt lat="46.43834" lon="4.69465">
        <ele>330.186</ele>
        <time>2022-09-24T12:48:53Z</time>
      </trkpt>
      <trkpt lat="46.43836" lon="4.69455">
        <ele>330.986</ele>
        <time>2022-09-24T12:48:59Z</time>
      </trkpt>
      <trkpt lat="46.43835" lon="4.69446">
        <ele>332.186</ele>
        <time>2022-09-24T12:49:07Z</time>
      </trkpt>
      <trkpt lat="46.4383" lon="4.69438">
        <ele>334.486</ele>
        <time>2022-09-24T12:49:14Z</time>
      </trkpt>
      <trkpt lat="46.43827" lon="4.69426">
        <ele>336.086</ele>
        <time>2022-09-24T12:49:20Z</time>
      </trkpt>
      <trkpt lat="46.43828" lon="4.69417">
        <ele>336.286</ele>
        <time>2022-09-24T12:49:27Z</time>
      </trkpt>
      <trkpt lat="46.43829" lon="4.69405">
        <ele>334.686</ele>
        <time>2022-09-24T12:49:33Z</time>
      </trkpt>
      <trkpt lat="46.43826" lon="4.69395">
        <ele>331.886</ele>
        <time>2022-09-24T12:49:38Z</time>
      </trkpt>
      <trkpt lat="46.43823" lon="4.69385">
        <ele>329.086</ele>
        <time>2022-09-24T12:49:43Z</time>
      </trkpt>
      <trkpt lat="46.43823" lon="4.69375">
        <ele>328.386</ele>
        <time>2022-09-24T12:49:48Z</time>
      </trkpt>
      <trkpt lat="46.43821" lon="4.69365">
        <ele>327.486</ele>
        <time>2022-09-24T12:49:54Z</time>
      </trkpt>
      <trkpt lat="46.43816" lon="4.69354">
        <ele>324.886</ele>
        <time>2022-09-24T12:50:00Z</time>
      </trkpt>
      <trkpt lat="46.43815" lon="4.69344">
        <ele>322.586</ele>
        <time>2022-09-24T12:50:07Z</time>
      </trkpt>
      <trkpt lat="46.43814" lon="4.69332">
        <ele>323.086</ele>
        <time>2022-09-24T12:50:13Z</time>
      </trkpt>
      <trkpt lat="46.4381" lon="4.6932">
        <ele>326.086</ele>
        <time>2022-09-24T12:50:18Z</time>
      </trkpt>
      <trkpt lat="46.43807" lon="4.6931">
        <ele>328.886</ele>
        <time>2022-09-24T12:50:24Z</time>
      </trkpt>
      <trkpt lat="46.43804" lon="4.693">
        <ele>329.186</ele>
        <time>2022-09-24T12:50:31Z</time>
      </trkpt>
      <trkpt lat="46.43801" lon="4.69291">
        <ele>330.986</ele>
        <time>2022-09-24T12:50:36Z</time>
      </trkpt>
      <trkpt lat="46.43796" lon="4.69282">
        <ele>330.385</ele>
        <time>2022-09-24T12:50:42Z</time>
      </trkpt>
      <trkpt lat="46.4379" lon="4.69274">
        <ele>330.085</ele>
        <time>2022-09-24T12:50:48Z</time>
      </trkpt>
      <trkpt lat="46.43786" lon="4.69266">
        <ele>327.985</ele>
        <time>2022-09-24T12:50:55Z</time>
      </trkpt>
      <trkpt lat="46.43781" lon="4.69259">
        <ele>326.085</ele>
        <time>2022-09-24T12:51:01Z</time>
      </trkpt>
      <trkpt lat="46.43776" lon="4.69248">
        <ele>324.485</ele>
        <time>2022-09-24T12:51:06Z</time>
      </trkpt>
      <trkpt lat="46.43768" lon="4.69236">
        <ele>324.385</ele>
        <time>2022-09-24T12:51:12Z</time>
      </trkpt>
      <trkpt lat="46.43761" lon="4.69228">
        <ele>325.285</ele>
        <time>2022-09-24T12:51:17Z</time>
      </trkpt>
      <trkpt lat="46.43753" lon="4.69231">
        <ele>325.485</ele>
        <time>2022-09-24T12:51:23Z</time>
      </trkpt>
      <trkpt lat="46.43745" lon="4.69229">
        <ele>329.885</ele>
        <time>2022-09-24T12:51:28Z</time>
      </trkpt>
      <trkpt lat="46.43752" lon="4.69226">
        <ele>329.185</ele>
        <time>2022-09-24T12:52:34Z</time>
      </trkpt>
      <trkpt lat="46.43759" lon="4.69222">
        <ele>326.685</ele>
        <time>2022-09-24T12:52:53Z</time>
      </trkpt>
      <trkpt lat="46.4376" lon="4.69232">
        <ele>330.685</ele>
        <time>2022-09-24T12:54:02Z</time>
      </trkpt>
      <trkpt lat="46.4376" lon="4.69222">
        <ele>332.085</ele>
        <time>2022-09-24T12:54:48Z</time>
      </trkpt>
      <trkpt lat="46.43754" lon="4.69222">
        <ele>328.885</ele>
        <time>2022-09-24T12:56:12Z</time>
      </trkpt>
      <trkpt lat="46.43756" lon="4.69213">
        <ele>327.485</ele>
        <time>2022-09-24T12:56:30Z</time>
      </trkpt>
      <trkpt lat="46.43757" lon="4.69203">
        <ele>330.085</ele>
        <time>2022-09-24T12:56:37Z</time>
      </trkpt>
      <trkpt lat="46.43759" lon="4.69194">
        <ele>332.185</ele>
        <time>2022-09-24T12:56:44Z</time>
      </trkpt>
      <trkpt lat="46.43763" lon="4.69186">
        <ele>333.785</ele>
        <time>2022-09-24T12:56:52Z</time>
      </trkpt>
      <trkpt lat="46.43763" lon="4.69175">
        <ele>332.985</ele>
        <time>2022-09-24T12:56:58Z</time>
      </trkpt>
      <trkpt lat="46.43762" lon="4.69166">
        <ele>333.185</ele>
        <time>2022-09-24T12:57:04Z</time>
      </trkpt>
      <trkpt lat="46.4376" lon="4.69156">
        <ele>334.585</ele>
        <time>2022-09-24T12:57:11Z</time>
      </trkpt>
      <trkpt lat="46.4376" lon="4.69146">
        <ele>334.685</ele>
        <time>2022-09-24T12:57:17Z</time>
      </trkpt>
      <trkpt lat="46.43762" lon="4.69136">
        <ele>332.985</ele>
        <time>2022-09-24T12:57:23Z</time>
      </trkpt>
      <trkpt lat="46.43761" lon="4.69126">
        <ele>332.685</ele>
        <time>2022-09-24T12:57:29Z</time>
      </trkpt>
      <trkpt lat="46.43762" lon="4.69116">
        <ele>332.685</ele>
        <time>2022-09-24T12:57:36Z</time>
      </trkpt>
      <trkpt lat="46.43761" lon="4.69106">
        <ele>333.185</ele>
        <time>2022-09-24T12:57:42Z</time>
      </trkpt>
      <trkpt lat="46.43761" lon="4.69095">
        <ele>330.985</ele>
        <time>2022-09-24T12:57:48Z</time>
      </trkpt>
      <trkpt lat="46.43763" lon="4.69086">
        <ele>329.185</ele>
        <time>2022-09-24T12:57:54Z</time>
      </trkpt>
      <trkpt lat="46.43763" lon="4.69074">
        <ele>329.785</ele>
        <time>2022-09-24T12:58:00Z</time>
      </trkpt>
      <trkpt lat="46.43762" lon="4.69064">
        <ele>329.985</ele>
        <time>2022-09-24T12:58:07Z</time>
      </trkpt>
      <trkpt lat="46.43764" lon="4.69055">
        <ele>328.585</ele>
        <time>2022-09-24T12:58:14Z</time>
      </trkpt>
      <trkpt lat="46.43766" lon="4.69045">
        <ele>325.285</ele>
        <time>2022-09-24T12:58:20Z</time>
      </trkpt>
      <trkpt lat="46.43764" lon="4.69035">
        <ele>321.685</ele>
        <time>2022-09-24T12:58:27Z</time>
      </trkpt>
      <trkpt lat="46.43761" lon="4.69024">
        <ele>321.085</ele>
        <time>2022-09-24T12:58:32Z</time>
      </trkpt>
      <trkpt lat="46.43763" lon="4.69014">
        <ele>319.285</ele>
        <time>2022-09-24T12:58:37Z</time>
      </trkpt>
      <trkpt lat="46.43765" lon="4.69005">
        <ele>316.885</ele>
        <time>2022-09-24T12:58:42Z</time>
      </trkpt>
      <trkpt lat="46.43763" lon="4.68994">
        <ele>313.985</ele>
        <time>2022-09-24T12:58:49Z</time>
      </trkpt>
      <trkpt lat="46.43766" lon="4.68984">
        <ele>312.585</ele>
        <time>2022-09-24T12:58:55Z</time>
      </trkpt>
      <trkpt lat="46.43765" lon="4.68973">
        <ele>313.685</ele>
        <time>2022-09-24T12:59:03Z</time>
      </trkpt>
      <trkpt lat="46.43767" lon="4.68963">
        <ele>315.385</ele>
        <time>2022-09-24T12:59:08Z</time>
      </trkpt>
      <trkpt lat="46.43768" lon="4.68954">
        <ele>314.785</ele>
        <time>2022-09-24T12:59:13Z</time>
      </trkpt>
      <trkpt lat="46.43768" lon="4.68944">
        <ele>314.085</ele>
        <time>2022-09-24T12:59:18Z</time>
      </trkpt>
      <trkpt lat="46.4377" lon="4.68932">
        <ele>314.485</ele>
        <time>2022-09-24T12:59:24Z</time>
      </trkpt>
      <trkpt lat="46.43769" lon="4.68923">
        <ele>316.085</ele>
        <time>2022-09-24T12:59:29Z</time>
      </trkpt>
      <trkpt lat="46.4377" lon="4.68913">
        <ele>315.085</ele>
        <time>2022-09-24T12:59:34Z</time>
      </trkpt>
      <trkpt lat="46.43772" lon="4.68903">
        <ele>314.885</ele>
        <time>2022-09-24T12:59:40Z</time>
      </trkpt>
      <trkpt lat="46.43771" lon="4.68893">
        <ele>314.385</ele>
        <time>2022-09-24T12:59:45Z</time>
      </trkpt>
      <trkpt lat="46.43766" lon="4.68885">
        <ele>313.885</ele>
        <time>2022-09-24T12:59:51Z</time>
      </trkpt>
      <trkpt lat="46.43765" lon="4.68874">
        <ele>319.485</ele>
        <time>2022-09-24T12:59:56Z</time>
      </trkpt>
      <trkpt lat="46.43766" lon="4.68863">
        <ele>320.185</ele>
        <time>2022-09-24T13:00:02Z</time>
      </trkpt>
      <trkpt lat="46.43764" lon="4.68848">
        <ele>315.685</ele>
        <time>2022-09-24T13:00:08Z</time>
      </trkpt>
      <trkpt lat="46.43765" lon="4.68838">
        <ele>311.085</ele>
        <time>2022-09-24T13:00:14Z</time>
      </trkpt>
      <trkpt lat="46.43764" lon="4.68828">
        <ele>307.685</ele>
        <time>2022-09-24T13:00:20Z</time>
      </trkpt>
      <trkpt lat="46.43766" lon="4.68817">
        <ele>308.785</ele>
        <time>2022-09-24T13:00:25Z</time>
      </trkpt>
      <trkpt lat="46.43766" lon="4.68806">
        <ele>307.385</ele>
        <time>2022-09-24T13:00:31Z</time>
      </trkpt>
      <trkpt lat="46.43767" lon="4.68795">
        <ele>304.285</ele>
        <time>2022-09-24T13:00:37Z</time>
      </trkpt>
      <trkpt lat="46.4377" lon="4.68785">
        <ele>303.985</ele>
        <time>2022-09-24T13:00:42Z</time>
      </trkpt>
      <trkpt lat="46.43766" lon="4.68774">
        <ele>301.285</ele>
        <time>2022-09-24T13:00:49Z</time>
      </trkpt>
      <trkpt lat="46.43766" lon="4.68764">
        <ele>297.185</ele>
        <time>2022-09-24T13:00:55Z</time>
      </trkpt>
      <trkpt lat="46.43769" lon="4.68753">
        <ele>297.585</ele>
        <time>2022-09-24T13:01:00Z</time>
      </trkpt>
      <trkpt lat="46.4377" lon="4.68744">
        <ele>297.685</ele>
        <time>2022-09-24T13:01:05Z</time>
      </trkpt>
      <trkpt lat="46.43768" lon="4.68731">
        <ele>298.085</ele>
        <time>2022-09-24T13:01:10Z</time>
      </trkpt>
      <trkpt lat="46.43769" lon="4.68717">
        <ele>299.885</ele>
        <time>2022-09-24T13:01:16Z</time>
      </trkpt>
      <trkpt lat="46.43771" lon="4.68708">
        <ele>297.985</ele>
        <time>2022-09-24T13:01:22Z</time>
      </trkpt>
      <trkpt lat="46.4377" lon="4.68695">
        <ele>299.085</ele>
        <time>2022-09-24T13:01:28Z</time>
      </trkpt>
      <trkpt lat="46.43771" lon="4.68684">
        <ele>296.785</ele>
        <time>2022-09-24T13:01:33Z</time>
      </trkpt>
      <trkpt lat="46.43772" lon="4.68674">
        <ele>293.685</ele>
        <time>2022-09-24T13:01:40Z</time>
      </trkpt>
      <trkpt lat="46.43774" lon="4.68664">
        <ele>292.985</ele>
        <time>2022-09-24T13:01:46Z</time>
      </trkpt>
      <trkpt lat="46.43778" lon="4.68654">
        <ele>294.385</ele>
        <time>2022-09-24T13:01:52Z</time>
      </trkpt>
      <trkpt lat="46.4378" lon="4.68644">
        <ele>293.885</ele>
        <time>2022-09-24T13:01:57Z</time>
      </trkpt>
      <trkpt lat="46.43778" lon="4.68634">
        <ele>293.685</ele>
        <time>2022-09-24T13:02:02Z</time>
      </trkpt>
      <trkpt lat="46.43772" lon="4.68622">
        <ele>300.185</ele>
        <time>2022-09-24T13:02:07Z</time>
      </trkpt>
      <trkpt lat="46.4377" lon="4.68613">
        <ele>302.685</ele>
        <time>2022-09-24T13:02:12Z</time>
      </trkpt>
      <trkpt lat="46.43773" lon="4.68603">
        <ele>307.185</ele>
        <time>2022-09-24T13:02:17Z</time>
      </trkpt>
      <trkpt lat="46.43775" lon="4.68593">
        <ele>309.485</ele>
        <time>2022-09-24T13:02:22Z</time>
      </trkpt>
      <trkpt lat="46.43778" lon="4.68584">
        <ele>307.385</ele>
        <time>2022-09-24T13:02:27Z</time>
      </trkpt>
      <trkpt lat="46.43778" lon="4.68572">
        <ele>304.185</ele>
        <time>2022-09-24T13:02:32Z</time>
      </trkpt>
      <trkpt lat="46.43776" lon="4.68562">
        <ele>305.085</ele>
        <time>2022-09-24T13:02:38Z</time>
      </trkpt>
      <trkpt lat="46.43774" lon="4.6855">
        <ele>303.085</ele>
        <time>2022-09-24T13:02:44Z</time>
      </trkpt>
      <trkpt lat="46.43774" lon="4.68538">
        <ele>304.285</ele>
        <time>2022-09-24T13:02:49Z</time>
      </trkpt>
      <trkpt lat="46.43775" lon="4.68527">
        <ele>304.085</ele>
        <time>2022-09-24T13:02:54Z</time>
      </trkpt>
      <trkpt lat="46.43776" lon="4.68514">
        <ele>302.585</ele>
        <time>2022-09-24T13:03:00Z</time>
      </trkpt>
      <trkpt lat="46.43777" lon="4.68505">
        <ele>301.385</ele>
        <time>2022-09-24T13:03:05Z</time>
      </trkpt>
      <trkpt lat="46.43781" lon="4.68494">
        <ele>299.285</ele>
        <time>2022-09-24T13:03:10Z</time>
      </trkpt>
      <trkpt lat="46.4378" lon="4.68482">
        <ele>298.385</ele>
        <time>2022-09-24T13:03:16Z</time>
      </trkpt>
      <trkpt lat="46.43778" lon="4.68473">
        <ele>297.585</ele>
        <time>2022-09-24T13:03:21Z</time>
      </trkpt>
      <trkpt lat="46.4378" lon="4.68464">
        <ele>296.185</ele>
        <time>2022-09-24T13:03:26Z</time>
      </trkpt>
      <trkpt lat="46.4378" lon="4.68451">
        <ele>296.885</ele>
        <time>2022-09-24T13:03:32Z</time>
      </trkpt>
      <trkpt lat="46.43781" lon="4.6844">
        <ele>296.285</ele>
        <time>2022-09-24T13:03:39Z</time>
      </trkpt>
      <trkpt lat="46.4378" lon="4.68426">
        <ele>296.985</ele>
        <time>2022-09-24T13:03:44Z</time>
      </trkpt>
      <trkpt lat="46.43782" lon="4.68416">
        <ele>299.885</ele>
        <time>2022-09-24T13:03:49Z</time>
      </trkpt>
      <trkpt lat="46.43783" lon="4.68406">
        <ele>302.285</ele>
        <time>2022-09-24T13:03:54Z</time>
      </trkpt>
      <trkpt lat="46.43783" lon="4.68394">
        <ele>303.085</ele>
        <time>2022-09-24T13:04:00Z</time>
      </trkpt>
      <trkpt lat="46.43785" lon="4.68385">
        <ele>304.385</ele>
        <time>2022-09-24T13:04:05Z</time>
      </trkpt>
      <trkpt lat="46.43782" lon="4.68371">
        <ele>301.785</ele>
        <time>2022-09-24T13:04:10Z</time>
      </trkpt>
      <trkpt lat="46.43779" lon="4.68359">
        <ele>300.485</ele>
        <time>2022-09-24T13:04:16Z</time>
      </trkpt>
      <trkpt lat="46.43781" lon="4.68349">
        <ele>296.985</ele>
        <time>2022-09-24T13:04:24Z</time>
      </trkpt>
      <trkpt lat="46.43783" lon="4.68338">
        <ele>296.785</ele>
        <time>2022-09-24T13:04:29Z</time>
      </trkpt>
      <trkpt lat="46.43781" lon="4.68327">
        <ele>296.285</ele>
        <time>2022-09-24T13:04:34Z</time>
      </trkpt>
      <trkpt lat="46.43783" lon="4.68315">
        <ele>296.285</ele>
        <time>2022-09-24T13:04:40Z</time>
      </trkpt>
      <trkpt lat="46.43782" lon="4.68303">
        <ele>297.385</ele>
        <time>2022-09-24T13:04:45Z</time>
      </trkpt>
      <trkpt lat="46.43781" lon="4.68292">
        <ele>295.185</ele>
        <time>2022-09-24T13:04:51Z</time>
      </trkpt>
      <trkpt lat="46.43783" lon="4.68283">
        <ele>295.385</ele>
        <time>2022-09-24T13:04:56Z</time>
      </trkpt>
      <trkpt lat="46.43784" lon="4.68272">
        <ele>292.685</ele>
        <time>2022-09-24T13:05:02Z</time>
      </trkpt>
      <trkpt lat="46.43784" lon="4.68262">
        <ele>292.085</ele>
        <time>2022-09-24T13:05:08Z</time>
      </trkpt>
      <trkpt lat="46.43785" lon="4.68251">
        <ele>292.085</ele>
        <time>2022-09-24T13:05:13Z</time>
      </trkpt>
      <trkpt lat="46.43785" lon="4.6824">
        <ele>292.085</ele>
        <time>2022-09-24T13:05:18Z</time>
      </trkpt>
      <trkpt lat="46.43784" lon="4.68229">
        <ele>292.885</ele>
        <time>2022-09-24T13:05:24Z</time>
      </trkpt>
      <trkpt lat="46.43786" lon="4.68219">
        <ele>291.485</ele>
        <time>2022-09-24T13:05:29Z</time>
      </trkpt>
      <trkpt lat="46.43787" lon="4.68207">
        <ele>290.385</ele>
        <time>2022-09-24T13:05:34Z</time>
      </trkpt>
      <trkpt lat="46.43784" lon="4.68196">
        <ele>289.585</ele>
        <time>2022-09-24T13:05:40Z</time>
      </trkpt>
      <trkpt lat="46.43785" lon="4.68184">
        <ele>289.685</ele>
        <time>2022-09-24T13:05:45Z</time>
      </trkpt>
      <trkpt lat="46.43785" lon="4.68172">
        <ele>289.985</ele>
        <time>2022-09-24T13:05:50Z</time>
      </trkpt>
      <trkpt lat="46.43786" lon="4.68163">
        <ele>289.985</ele>
        <time>2022-09-24T13:05:56Z</time>
      </trkpt>
      <trkpt lat="46.43786" lon="4.68154">
        <ele>288.385</ele>
        <time>2022-09-24T13:06:01Z</time>
      </trkpt>
      <trkpt lat="46.43785" lon="4.68144">
        <ele>286.685</ele>
        <time>2022-09-24T13:06:06Z</time>
      </trkpt>
      <trkpt lat="46.43783" lon="4.68132">
        <ele>285.085</ele>
        <time>2022-09-24T13:06:12Z</time>
      </trkpt>
      <trkpt lat="46.43782" lon="4.68123">
        <ele>283.685</ele>
        <time>2022-09-24T13:06:17Z</time>
      </trkpt>
      <trkpt lat="46.43784" lon="4.68113">
        <ele>281.185</ele>
        <time>2022-09-24T13:06:23Z</time>
      </trkpt>
      <trkpt lat="46.43785" lon="4.68103">
        <ele>280.085</ele>
        <time>2022-09-24T13:06:28Z</time>
      </trkpt>
      <trkpt lat="46.43785" lon="4.68091">
        <ele>280.585</ele>
        <time>2022-09-24T13:06:33Z</time>
      </trkpt>
      <trkpt lat="46.43786" lon="4.68081">
        <ele>281.085</ele>
        <time>2022-09-24T13:06:38Z</time>
      </trkpt>
      <trkpt lat="46.43787" lon="4.68069">
        <ele>281.385</ele>
        <time>2022-09-24T13:06:44Z</time>
      </trkpt>
      <trkpt lat="46.43788" lon="4.68059">
        <ele>281.385</ele>
        <time>2022-09-24T13:06:49Z</time>
      </trkpt>
      <trkpt lat="46.43787" lon="4.68049">
        <ele>282.185</ele>
        <time>2022-09-24T13:06:54Z</time>
      </trkpt>
      <trkpt lat="46.43787" lon="4.68036">
        <ele>283.385</ele>
        <time>2022-09-24T13:07:00Z</time>
      </trkpt>
      <trkpt lat="46.43787" lon="4.68025">
        <ele>282.084</ele>
        <time>2022-09-24T13:07:05Z</time>
      </trkpt>
      <trkpt lat="46.43787" lon="4.68014">
        <ele>281.984</ele>
        <time>2022-09-24T13:07:11Z</time>
      </trkpt>
      <trkpt lat="46.43789" lon="4.68004">
        <ele>281.984</ele>
        <time>2022-09-24T13:07:16Z</time>
      </trkpt>
      <trkpt lat="46.43787" lon="4.67992">
        <ele>280.684</ele>
        <time>2022-09-24T13:07:21Z</time>
      </trkpt>
      <trkpt lat="46.43785" lon="4.67982">
        <ele>279.584</ele>
        <time>2022-09-24T13:07:27Z</time>
      </trkpt>
      <trkpt lat="46.43785" lon="4.67972">
        <ele>277.684</ele>
        <time>2022-09-24T13:07:32Z</time>
      </trkpt>
      <trkpt lat="46.43782" lon="4.67963">
        <ele>276.584</ele>
        <time>2022-09-24T13:07:37Z</time>
      </trkpt>
      <trkpt lat="46.43779" lon="4.67954">
        <ele>277.484</ele>
        <time>2022-09-24T13:07:55Z</time>
      </trkpt>
      <trkpt lat="46.43775" lon="4.67946">
        <ele>278.584</ele>
        <time>2022-09-24T13:08:07Z</time>
      </trkpt>
      <trkpt lat="46.43775" lon="4.67936">
        <ele>277.284</ele>
        <time>2022-09-24T13:08:31Z</time>
      </trkpt>
      <trkpt lat="46.43772" lon="4.67928">
        <ele>280.284</ele>
        <time>2022-09-24T13:09:14Z</time>
      </trkpt>
      <trkpt lat="46.43769" lon="4.67918">
        <ele>280.384</ele>
        <time>2022-09-24T13:09:21Z</time>
      </trkpt>
      <trkpt lat="46.43767" lon="4.67908">
        <ele>278.784</ele>
        <time>2022-09-24T13:09:26Z</time>
      </trkpt>
      <trkpt lat="46.43764" lon="4.67898">
        <ele>278.084</ele>
        <time>2022-09-24T13:09:32Z</time>
      </trkpt>
      <trkpt lat="46.43762" lon="4.67888">
        <ele>276.784</ele>
        <time>2022-09-24T13:09:38Z</time>
      </trkpt>
      <trkpt lat="46.43758" lon="4.67878">
        <ele>275.884</ele>
        <time>2022-09-24T13:09:44Z</time>
      </trkpt>
      <trkpt lat="46.43756" lon="4.67869">
        <ele>274.684</ele>
        <time>2022-09-24T13:09:49Z</time>
      </trkpt>
      <trkpt lat="46.43753" lon="4.6786">
        <ele>274.984</ele>
        <time>2022-09-24T13:09:55Z</time>
      </trkpt>
      <trkpt lat="46.4375" lon="4.6785">
        <ele>274.184</ele>
        <time>2022-09-24T13:10:00Z</time>
      </trkpt>
      <trkpt lat="46.43747" lon="4.67841">
        <ele>272.084</ele>
        <time>2022-09-24T13:10:07Z</time>
      </trkpt>
      <trkpt lat="46.43742" lon="4.67832">
        <ele>270.484</ele>
        <time>2022-09-24T13:10:12Z</time>
      </trkpt>
      <trkpt lat="46.43741" lon="4.67822">
        <ele>270.084</ele>
        <time>2022-09-24T13:10:18Z</time>
      </trkpt>
      <trkpt lat="46.43737" lon="4.67814">
        <ele>269.484</ele>
        <time>2022-09-24T13:10:24Z</time>
      </trkpt>
      <trkpt lat="46.43734" lon="4.67805">
        <ele>268.284</ele>
        <time>2022-09-24T13:10:29Z</time>
      </trkpt>
      <trkpt lat="46.43734" lon="4.67795">
        <ele>268.384</ele>
        <time>2022-09-24T13:10:34Z</time>
      </trkpt>
      <trkpt lat="46.43731" lon="4.67785">
        <ele>268.084</ele>
        <time>2022-09-24T13:10:41Z</time>
      </trkpt>
      <trkpt lat="46.43731" lon="4.67774">
        <ele>267.784</ele>
        <time>2022-09-24T13:10:47Z</time>
      </trkpt>
      <trkpt lat="46.43728" lon="4.67764">
        <ele>267.284</ele>
        <time>2022-09-24T13:10:52Z</time>
      </trkpt>
      <trkpt lat="46.43725" lon="4.67755">
        <ele>266.884</ele>
        <time>2022-09-24T13:10:57Z</time>
      </trkpt>
      <trkpt lat="46.43725" lon="4.67744">
        <ele>265.184</ele>
        <time>2022-09-24T13:11:03Z</time>
      </trkpt>
      <trkpt lat="46.43722" lon="4.67734">
        <ele>263.684</ele>
        <time>2022-09-24T13:11:09Z</time>
      </trkpt>
      <trkpt lat="46.43721" lon="4.67723">
        <ele>262.884</ele>
        <time>2022-09-24T13:11:15Z</time>
      </trkpt>
      <trkpt lat="46.43716" lon="4.67716">
        <ele>260.884</ele>
        <time>2022-09-24T13:11:21Z</time>
      </trkpt>
      <trkpt lat="46.43714" lon="4.67707">
        <ele>258.884</ele>
        <time>2022-09-24T13:11:26Z</time>
      </trkpt>
      <trkpt lat="46.43707" lon="4.67699">
        <ele>257.684</ele>
        <time>2022-09-24T13:11:32Z</time>
      </trkpt>
      <trkpt lat="46.43703" lon="4.67691">
        <ele>254.984</ele>
        <time>2022-09-24T13:11:38Z</time>
      </trkpt>
      <trkpt lat="46.43698" lon="4.67682">
        <ele>253.284</ele>
        <time>2022-09-24T13:11:44Z</time>
      </trkpt>
      <trkpt lat="46.43695" lon="4.67672">
        <ele>251.884</ele>
        <time>2022-09-24T13:11:49Z</time>
      </trkpt>
      <trkpt lat="46.43691" lon="4.67664">
        <ele>252.384</ele>
        <time>2022-09-24T13:11:54Z</time>
      </trkpt>
      <trkpt lat="46.43688" lon="4.67652">
        <ele>253.184</ele>
        <time>2022-09-24T13:12:00Z</time>
      </trkpt>
      <trkpt lat="46.43683" lon="4.67645">
        <ele>253.584</ele>
        <time>2022-09-24T13:12:05Z</time>
      </trkpt>
      <trkpt lat="46.43678" lon="4.67636">
        <ele>250.184</ele>
        <time>2022-09-24T13:12:12Z</time>
      </trkpt>
      <trkpt lat="46.43673" lon="4.67629">
        <ele>249.984</ele>
        <time>2022-09-24T13:12:17Z</time>
      </trkpt>
      <trkpt lat="46.43668" lon="4.6762">
        <ele>250.584</ele>
        <time>2022-09-24T13:12:23Z</time>
      </trkpt>
      <trkpt lat="46.43663" lon="4.67612">
        <ele>250.984</ele>
        <time>2022-09-24T13:12:29Z</time>
      </trkpt>
      <trkpt lat="46.43657" lon="4.67603">
        <ele>250.684</ele>
        <time>2022-09-24T13:12:36Z</time>
      </trkpt>
      <trkpt lat="46.43652" lon="4.67597">
        <ele>250.884</ele>
        <time>2022-09-24T13:12:41Z</time>
      </trkpt>
      <trkpt lat="46.43648" lon="4.67588">
        <ele>250.184</ele>
        <time>2022-09-24T13:12:46Z</time>
      </trkpt>
      <trkpt lat="46.43644" lon="4.67579">
        <ele>249.384</ele>
        <time>2022-09-24T13:12:52Z</time>
      </trkpt>
      <trkpt lat="46.43639" lon="4.6757">
        <ele>248.384</ele>
        <time>2022-09-24T13:12:57Z</time>
      </trkpt>
      <trkpt lat="46.43634" lon="4.67563">
        <ele>247.484</ele>
        <time>2022-09-24T13:13:02Z</time>
      </trkpt>
      <trkpt lat="46.4363" lon="4.67554">
        <ele>247.784</ele>
        <time>2022-09-24T13:13:07Z</time>
      </trkpt>
      <trkpt lat="46.43626" lon="4.67545">
        <ele>247.084</ele>
        <time>2022-09-24T13:13:12Z</time>
      </trkpt>
      <trkpt lat="46.4362" lon="4.6754">
        <ele>246.984</ele>
        <time>2022-09-24T13:13:17Z</time>
      </trkpt>
      <trkpt lat="46.43617" lon="4.67531">
        <ele>245.784</ele>
        <time>2022-09-24T13:13:23Z</time>
      </trkpt>
      <trkpt lat="46.4361" lon="4.67522">
        <ele>247.484</ele>
        <time>2022-09-24T13:13:28Z</time>
      </trkpt>
      <trkpt lat="46.43604" lon="4.67516">
        <ele>246.584</ele>
        <time>2022-09-24T13:13:35Z</time>
      </trkpt>
      <trkpt lat="46.43597" lon="4.67511">
        <ele>243.584</ele>
        <time>2022-09-24T13:13:40Z</time>
      </trkpt>
      <trkpt lat="46.43592" lon="4.67506">
        <ele>241.784</ele>
        <time>2022-09-24T13:13:45Z</time>
      </trkpt>
      <trkpt lat="46.43586" lon="4.67501">
        <ele>240.484</ele>
        <time>2022-09-24T13:13:52Z</time>
      </trkpt>
      <trkpt lat="46.4358" lon="4.67495">
        <ele>242.284</ele>
        <time>2022-09-24T13:13:58Z</time>
      </trkpt>
      <trkpt lat="46.43574" lon="4.67485">
        <ele>242.084</ele>
        <time>2022-09-24T13:14:04Z</time>
      </trkpt>
      <trkpt lat="46.43569" lon="4.67477">
        <ele>241.283</ele>
        <time>2022-09-24T13:14:10Z</time>
      </trkpt>
      <trkpt lat="46.43564" lon="4.67467">
        <ele>240.883</ele>
        <time>2022-09-24T13:14:16Z</time>
      </trkpt>
      <trkpt lat="46.4356" lon="4.67457">
        <ele>240.383</ele>
        <time>2022-09-24T13:14:21Z</time>
      </trkpt>
      <trkpt lat="46.43558" lon="4.67448">
        <ele>240.283</ele>
        <time>2022-09-24T13:14:26Z</time>
      </trkpt>
      <trkpt lat="46.43554" lon="4.67437">
        <ele>241.283</ele>
        <time>2022-09-24T13:14:32Z</time>
      </trkpt>
      <trkpt lat="46.43553" lon="4.67427">
        <ele>243.283</ele>
        <time>2022-09-24T13:14:37Z</time>
      </trkpt>
      <trkpt lat="46.43553" lon="4.67416">
        <ele>244.383</ele>
        <time>2022-09-24T13:14:43Z</time>
      </trkpt>
      <trkpt lat="46.43553" lon="4.67405">
        <ele>245.583</ele>
        <time>2022-09-24T13:14:49Z</time>
      </trkpt>
      <trkpt lat="46.4355" lon="4.67394">
        <ele>245.883</ele>
        <time>2022-09-24T13:14:54Z</time>
      </trkpt>
      <trkpt lat="46.43547" lon="4.67379">
        <ele>245.883</ele>
        <time>2022-09-24T13:15:00Z</time>
      </trkpt>
      <trkpt lat="46.43544" lon="4.6737">
        <ele>243.783</ele>
        <time>2022-09-24T13:15:06Z</time>
      </trkpt>
      <trkpt lat="46.43539" lon="4.6736">
        <ele>239.383</ele>
        <time>2022-09-24T13:15:12Z</time>
      </trkpt>
      <trkpt lat="46.43536" lon="4.67351">
        <ele>239.283</ele>
        <time>2022-09-24T13:15:18Z</time>
      </trkpt>
      <trkpt lat="46.43533" lon="4.67339">
        <ele>239.083</ele>
        <time>2022-09-24T13:15:24Z</time>
      </trkpt>
      <trkpt lat="46.43532" lon="4.67329">
        <ele>239.183</ele>
        <time>2022-09-24T13:15:29Z</time>
      </trkpt>
      <trkpt lat="46.43531" lon="4.67318">
        <ele>237.383</ele>
        <time>2022-09-24T13:15:35Z</time>
      </trkpt>
      <trkpt lat="46.43529" lon="4.67306">
        <ele>237.283</ele>
        <time>2022-09-24T13:15:40Z</time>
      </trkpt>
      <trkpt lat="46.43527" lon="4.67297">
        <ele>238.083</ele>
        <time>2022-09-24T13:15:45Z</time>
      </trkpt>
      <trkpt lat="46.43525" lon="4.67286">
        <ele>237.983</ele>
        <time>2022-09-24T13:15:51Z</time>
      </trkpt>
      <trkpt lat="46.43522" lon="4.67276">
        <ele>239.383</ele>
        <time>2022-09-24T13:15:56Z</time>
      </trkpt>
      <trkpt lat="46.43519" lon="4.67267">
        <ele>240.483</ele>
        <time>2022-09-24T13:16:02Z</time>
      </trkpt>
      <trkpt lat="46.43514" lon="4.67261">
        <ele>240.483</ele>
        <time>2022-09-24T13:16:08Z</time>
      </trkpt>
      <trkpt lat="46.43508" lon="4.67257">
        <ele>243.083</ele>
        <time>2022-09-24T13:17:03Z</time>
      </trkpt>
      <trkpt lat="46.43502" lon="4.67259">
        <ele>243.783</ele>
        <time>2022-09-24T13:17:12Z</time>
      </trkpt>
      <trkpt lat="46.43494" lon="4.67259">
        <ele>243.383</ele>
        <time>2022-09-24T13:17:21Z</time>
      </trkpt>
      <trkpt lat="46.43487" lon="4.67259">
        <ele>244.483</ele>
        <time>2022-09-24T13:17:26Z</time>
      </trkpt>
      <trkpt lat="46.43477" lon="4.67255">
        <ele>246.183</ele>
        <time>2022-09-24T13:17:32Z</time>
      </trkpt>
      <trkpt lat="46.4347" lon="4.67253">
        <ele>248.883</ele>
        <time>2022-09-24T13:17:39Z</time>
      </trkpt>
      <trkpt lat="46.43462" lon="4.67255">
        <ele>249.383</ele>
        <time>2022-09-24T13:17:44Z</time>
      </trkpt>
      <trkpt lat="46.43454" lon="4.67253">
        <ele>249.983</ele>
        <time>2022-09-24T13:17:49Z</time>
      </trkpt>
      <trkpt lat="46.43447" lon="4.67254">
        <ele>252.483</ele>
        <time>2022-09-24T13:17:54Z</time>
      </trkpt>
      <trkpt lat="46.43438" lon="4.67251">
        <ele>253.383</ele>
        <time>2022-09-24T13:18:00Z</time>
      </trkpt>
      <trkpt lat="46.43431" lon="4.67249">
        <ele>253.083</ele>
        <time>2022-09-24T13:18:05Z</time>
      </trkpt>
      <trkpt lat="46.43424" lon="4.67248">
        <ele>250.983</ele>
        <time>2022-09-24T13:18:10Z</time>
      </trkpt>
      <trkpt lat="46.43415" lon="4.67249">
        <ele>249.383</ele>
        <time>2022-09-24T13:18:16Z</time>
      </trkpt>
      <trkpt lat="46.43408" lon="4.67248">
        <ele>247.983</ele>
        <time>2022-09-24T13:18:25Z</time>
      </trkpt>
      <trkpt lat="46.434" lon="4.67243">
        <ele>245.783</ele>
        <time>2022-09-24T13:18:30Z</time>
      </trkpt>
      <trkpt lat="46.43391" lon="4.67239">
        <ele>245.683</ele>
        <time>2022-09-24T13:18:36Z</time>
      </trkpt>
      <trkpt lat="46.43382" lon="4.67236">
        <ele>247.083</ele>
        <time>2022-09-24T13:18:41Z</time>
      </trkpt>
      <trkpt lat="46.43375" lon="4.67232">
        <ele>246.283</ele>
        <time>2022-09-24T13:18:47Z</time>
      </trkpt>
      <trkpt lat="46.43367" lon="4.6723">
        <ele>244.083</ele>
        <time>2022-09-24T13:18:52Z</time>
      </trkpt>
      <trkpt lat="46.43357" lon="4.67227">
        <ele>241.283</ele>
        <time>2022-09-24T13:18:57Z</time>
      </trkpt>
      <trkpt lat="46.43349" lon="4.67224">
        <ele>240.483</ele>
        <time>2022-09-24T13:19:02Z</time>
      </trkpt>
      <trkpt lat="46.43341" lon="4.67224">
        <ele>240.783</ele>
        <time>2022-09-24T13:19:07Z</time>
      </trkpt>
      <trkpt lat="46.43334" lon="4.6722">
        <ele>240.183</ele>
        <time>2022-09-24T13:19:12Z</time>
      </trkpt>
      <trkpt lat="46.43326" lon="4.67218">
        <ele>239.183</ele>
        <time>2022-09-24T13:19:17Z</time>
      </trkpt>
      <trkpt lat="46.43319" lon="4.67215">
        <ele>237.083</ele>
        <time>2022-09-24T13:19:23Z</time>
      </trkpt>
      <trkpt lat="46.43312" lon="4.67212">
        <ele>237.883</ele>
        <time>2022-09-24T13:19:28Z</time>
      </trkpt>
      <trkpt lat="46.43303" lon="4.67212">
        <ele>237.583</ele>
        <time>2022-09-24T13:19:33Z</time>
      </trkpt>
      <trkpt lat="46.43296" lon="4.67208">
        <ele>236.783</ele>
        <time>2022-09-24T13:19:38Z</time>
      </trkpt>
      <trkpt lat="46.43288" lon="4.67203">
        <ele>235.683</ele>
        <time>2022-09-24T13:19:44Z</time>
      </trkpt>
      <trkpt lat="46.4328" lon="4.67198">
        <ele>235.982</ele>
        <time>2022-09-24T13:19:49Z</time>
      </trkpt>
      <trkpt lat="46.43274" lon="4.6719">
        <ele>241.882</ele>
        <time>2022-09-24T13:19:54Z</time>
      </trkpt>
      <trkpt lat="46.43266" lon="4.67189">
        <ele>243.582</ele>
        <time>2022-09-24T13:20:00Z</time>
      </trkpt>
      <trkpt lat="46.43256" lon="4.67185">
        <ele>242.882</ele>
        <time>2022-09-24T13:20:05Z</time>
      </trkpt>
      <trkpt lat="46.43249" lon="4.67182">
        <ele>240.882</ele>
        <time>2022-09-24T13:20:10Z</time>
      </trkpt>
      <trkpt lat="46.43241" lon="4.67177">
        <ele>240.582</ele>
        <time>2022-09-24T13:20:16Z</time>
      </trkpt>
      <trkpt lat="46.43234" lon="4.67171">
        <ele>239.982</ele>
        <time>2022-09-24T13:20:21Z</time>
      </trkpt>
      <trkpt lat="46.43226" lon="4.67164">
        <ele>239.582</ele>
        <time>2022-09-24T13:20:26Z</time>
      </trkpt>
      <trkpt lat="46.43218" lon="4.6716">
        <ele>238.882</ele>
        <time>2022-09-24T13:20:32Z</time>
      </trkpt>
      <trkpt lat="46.43211" lon="4.67154">
        <ele>241.082</ele>
        <time>2022-09-24T13:20:37Z</time>
      </trkpt>
      <trkpt lat="46.43204" lon="4.6715">
        <ele>241.682</ele>
        <time>2022-09-24T13:20:43Z</time>
      </trkpt>
      <trkpt lat="46.43198" lon="4.67146">
        <ele>240.682</ele>
        <time>2022-09-24T13:20:48Z</time>
      </trkpt>
      <trkpt lat="46.43191" lon="4.67144">
        <ele>238.182</ele>
        <time>2022-09-24T13:20:53Z</time>
      </trkpt>
      <trkpt lat="46.43185" lon="4.67139">
        <ele>237.282</ele>
        <time>2022-09-24T13:20:58Z</time>
      </trkpt>
      <trkpt lat="46.43176" lon="4.67131">
        <ele>237.182</ele>
        <time>2022-09-24T13:21:04Z</time>
      </trkpt>
      <trkpt lat="46.43169" lon="4.67124">
        <ele>238.782</ele>
        <time>2022-09-24T13:21:10Z</time>
      </trkpt>
      <trkpt lat="46.43163" lon="4.67118">
        <ele>240.482</ele>
        <time>2022-09-24T13:21:16Z</time>
      </trkpt>
      <trkpt lat="46.43157" lon="4.67113">
        <ele>240.882</ele>
        <time>2022-09-24T13:21:21Z</time>
      </trkpt>
      <trkpt lat="46.43151" lon="4.67106">
        <ele>241.682</ele>
        <time>2022-09-24T13:21:26Z</time>
      </trkpt>
      <trkpt lat="46.43143" lon="4.67099">
        <ele>241.782</ele>
        <time>2022-09-24T13:21:32Z</time>
      </trkpt>
      <trkpt lat="46.43137" lon="4.67094">
        <ele>243.282</ele>
        <time>2022-09-24T13:21:38Z</time>
      </trkpt>
      <trkpt lat="46.43129" lon="4.67085">
        <ele>244.182</ele>
        <time>2022-09-24T13:21:44Z</time>
      </trkpt>
      <trkpt lat="46.43121" lon="4.6708">
        <ele>244.082</ele>
        <time>2022-09-24T13:21:49Z</time>
      </trkpt>
      <trkpt lat="46.43113" lon="4.67075">
        <ele>242.082</ele>
        <time>2022-09-24T13:21:54Z</time>
      </trkpt>
      <trkpt lat="46.43107" lon="4.67065">
        <ele>242.082</ele>
        <time>2022-09-24T13:22:00Z</time>
      </trkpt>
      <trkpt lat="46.431" lon="4.6706">
        <ele>241.082</ele>
        <time>2022-09-24T13:22:07Z</time>
      </trkpt>
      <trkpt lat="46.43094" lon="4.67052">
        <ele>243.782</ele>
        <time>2022-09-24T13:22:12Z</time>
      </trkpt>
      <trkpt lat="46.43085" lon="4.67048">
        <ele>247.182</ele>
        <time>2022-09-24T13:22:17Z</time>
      </trkpt>
      <trkpt lat="46.43079" lon="4.67043">
        <ele>247.582</ele>
        <time>2022-09-24T13:22:22Z</time>
      </trkpt>
      <trkpt lat="46.43072" lon="4.67039">
        <ele>246.282</ele>
        <time>2022-09-24T13:22:27Z</time>
      </trkpt>
      <trkpt lat="46.43067" lon="4.67032">
        <ele>245.182</ele>
        <time>2022-09-24T13:22:32Z</time>
      </trkpt>
      <trkpt lat="46.43061" lon="4.67026">
        <ele>243.782</ele>
        <time>2022-09-24T13:22:37Z</time>
      </trkpt>
      <trkpt lat="46.43053" lon="4.6702">
        <ele>241.682</ele>
        <time>2022-09-24T13:22:42Z</time>
      </trkpt>
      <trkpt lat="46.43048" lon="4.67016">
        <ele>241.782</ele>
        <time>2022-09-24T13:22:47Z</time>
      </trkpt>
      <trkpt lat="46.43043" lon="4.67009">
        <ele>241.382</ele>
        <time>2022-09-24T13:22:52Z</time>
      </trkpt>
      <trkpt lat="46.43037" lon="4.67003">
        <ele>242.482</ele>
        <time>2022-09-24T13:22:57Z</time>
      </trkpt>
      <trkpt lat="46.43031" lon="4.66997">
        <ele>241.882</ele>
        <time>2022-09-24T13:23:03Z</time>
      </trkpt>
      <trkpt lat="46.43025" lon="4.6699">
        <ele>241.282</ele>
        <time>2022-09-24T13:23:10Z</time>
      </trkpt>
      <trkpt lat="46.4302" lon="4.66983">
        <ele>244.482</ele>
        <time>2022-09-24T13:23:16Z</time>
      </trkpt>
      <trkpt lat="46.43012" lon="4.66979">
        <ele>246.582</ele>
        <time>2022-09-24T13:23:21Z</time>
      </trkpt>
      <trkpt lat="46.43005" lon="4.66973">
        <ele>246.682</ele>
        <time>2022-09-24T13:23:26Z</time>
      </trkpt>
      <trkpt lat="46.42998" lon="4.66967">
        <ele>246.282</ele>
        <time>2022-09-24T13:23:32Z</time>
      </trkpt>
      <trkpt lat="46.42993" lon="4.66959">
        <ele>247.882</ele>
        <time>2022-09-24T13:23:38Z</time>
      </trkpt>
      <trkpt lat="46.42984" lon="4.66955">
        <ele>248.482</ele>
        <time>2022-09-24T13:23:44Z</time>
      </trkpt>
      <trkpt lat="46.42976" lon="4.6695">
        <ele>246.981</ele>
        <time>2022-09-24T13:23:49Z</time>
      </trkpt>
      <trkpt lat="46.4297" lon="4.66943">
        <ele>244.681</ele>
        <time>2022-09-24T13:23:54Z</time>
      </trkpt>
      <trkpt lat="46.42963" lon="4.66934">
        <ele>244.281</ele>
        <time>2022-09-24T13:24:00Z</time>
      </trkpt>
      <trkpt lat="46.42959" lon="4.66924">
        <ele>245.581</ele>
        <time>2022-09-24T13:24:06Z</time>
      </trkpt>
      <trkpt lat="46.42951" lon="4.66921">
        <ele>247.581</ele>
        <time>2022-09-24T13:24:12Z</time>
      </trkpt>
      <trkpt lat="46.42943" lon="4.66915">
        <ele>245.481</ele>
        <time>2022-09-24T13:24:17Z</time>
      </trkpt>
      <trkpt lat="46.42938" lon="4.66908">
        <ele>244.581</ele>
        <time>2022-09-24T13:24:23Z</time>
      </trkpt>
      <trkpt lat="46.42931" lon="4.66904">
        <ele>242.981</ele>
        <time>2022-09-24T13:24:28Z</time>
      </trkpt>
      <trkpt lat="46.42924" lon="4.66898">
        <ele>239.681</ele>
        <time>2022-09-24T13:24:33Z</time>
      </trkpt>
      <trkpt lat="46.42917" lon="4.66895">
        <ele>238.681</ele>
        <time>2022-09-24T13:24:38Z</time>
      </trkpt>
      <trkpt lat="46.42907" lon="4.66885">
        <ele>240.281</ele>
        <time>2022-09-24T13:24:44Z</time>
      </trkpt>
      <trkpt lat="46.429" lon="4.6688">
        <ele>242.381</ele>
        <time>2022-09-24T13:24:50Z</time>
      </trkpt>
      <trkpt lat="46.42894" lon="4.66874">
        <ele>244.481</ele>
        <time>2022-09-24T13:24:57Z</time>
      </trkpt>
      <trkpt lat="46.42889" lon="4.66868">
        <ele>245.181</ele>
        <time>2022-09-24T13:25:03Z</time>
      </trkpt>
      <trkpt lat="46.42883" lon="4.66862">
        <ele>246.081</ele>
        <time>2022-09-24T13:25:08Z</time>
      </trkpt>
      <trkpt lat="46.42876" lon="4.66854">
        <ele>247.481</ele>
        <time>2022-09-24T13:25:13Z</time>
      </trkpt>
      <trkpt lat="46.4287" lon="4.66847">
        <ele>247.781</ele>
        <time>2022-09-24T13:25:18Z</time>
      </trkpt>
      <trkpt lat="46.42862" lon="4.6684">
        <ele>247.381</ele>
        <time>2022-09-24T13:25:24Z</time>
      </trkpt>
      <trkpt lat="46.42855" lon="4.66836">
        <ele>247.381</ele>
        <time>2022-09-24T13:25:29Z</time>
      </trkpt>
      <trkpt lat="46.42849" lon="4.66828">
        <ele>248.181</ele>
        <time>2022-09-24T13:25:34Z</time>
      </trkpt>
      <trkpt lat="46.42842" lon="4.66821">
        <ele>248.781</ele>
        <time>2022-09-24T13:25:40Z</time>
      </trkpt>
      <trkpt lat="46.42837" lon="4.66814">
        <ele>247.581</ele>
        <time>2022-09-24T13:25:45Z</time>
      </trkpt>
      <trkpt lat="46.42831" lon="4.66807">
        <ele>245.181</ele>
        <time>2022-09-24T13:25:52Z</time>
      </trkpt>
      <trkpt lat="46.42824" lon="4.66804">
        <ele>243.681</ele>
        <time>2022-09-24T13:25:57Z</time>
      </trkpt>
      <trkpt lat="46.42816" lon="4.66799">
        <ele>243.481</ele>
        <time>2022-09-24T13:26:02Z</time>
      </trkpt>
      <trkpt lat="46.42809" lon="4.66793">
        <ele>242.681</ele>
        <time>2022-09-24T13:26:07Z</time>
      </trkpt>
      <trkpt lat="46.42802" lon="4.66785">
        <ele>243.181</ele>
        <time>2022-09-24T13:26:12Z</time>
      </trkpt>
      <trkpt lat="46.42795" lon="4.66779">
        <ele>245.781</ele>
        <time>2022-09-24T13:26:17Z</time>
      </trkpt>
      <trkpt lat="46.42787" lon="4.66774">
        <ele>246.481</ele>
        <time>2022-09-24T13:26:22Z</time>
      </trkpt>
      <trkpt lat="46.4278" lon="4.66771">
        <ele>247.981</ele>
        <time>2022-09-24T13:26:27Z</time>
      </trkpt>
      <trkpt lat="46.42771" lon="4.66766">
        <ele>251.281</ele>
        <time>2022-09-24T13:26:32Z</time>
      </trkpt>
      <trkpt lat="46.42764" lon="4.66763">
        <ele>253.181</ele>
        <time>2022-09-24T13:26:37Z</time>
      </trkpt>
      <trkpt lat="46.42757" lon="4.66759">
        <ele>255.581</ele>
        <time>2022-09-24T13:26:42Z</time>
      </trkpt>
      <trkpt lat="46.42751" lon="4.66755">
        <ele>254.881</ele>
        <time>2022-09-24T13:26:48Z</time>
      </trkpt>
      <trkpt lat="46.42744" lon="4.66753">
        <ele>252.681</ele>
        <time>2022-09-24T13:26:55Z</time>
      </trkpt>
      <trkpt lat="46.42737" lon="4.66751">
        <ele>250.081</ele>
        <time>2022-09-24T13:27:00Z</time>
      </trkpt>
      <trkpt lat="46.4273" lon="4.6675">
        <ele>246.281</ele>
        <time>2022-09-24T13:27:05Z</time>
      </trkpt>
      <trkpt lat="46.42722" lon="4.66747">
        <ele>244.681</ele>
        <time>2022-09-24T13:27:10Z</time>
      </trkpt>
      <trkpt lat="46.42716" lon="4.6674">
        <ele>246.581</ele>
        <time>2022-09-24T13:27:16Z</time>
      </trkpt>
      <trkpt lat="46.42709" lon="4.66736">
        <ele>247.081</ele>
        <time>2022-09-24T13:27:21Z</time>
      </trkpt>
      <trkpt lat="46.42702" lon="4.66731">
        <ele>248.081</ele>
        <time>2022-09-24T13:27:26Z</time>
      </trkpt>
      <trkpt lat="46.42693" lon="4.66725">
        <ele>248.281</ele>
        <time>2022-09-24T13:27:32Z</time>
      </trkpt>
      <trkpt lat="46.42687" lon="4.66721">
        <ele>244.981</ele>
        <time>2022-09-24T13:27:39Z</time>
      </trkpt>
      <trkpt lat="46.4268" lon="4.66718">
        <ele>244.481</ele>
        <time>2022-09-24T13:27:44Z</time>
      </trkpt>
      <trkpt lat="46.42672" lon="4.66714">
        <ele>245.78</ele>
        <time>2022-09-24T13:27:49Z</time>
      </trkpt>
      <trkpt lat="46.42662" lon="4.66709">
        <ele>246.88</ele>
        <time>2022-09-24T13:27:54Z</time>
      </trkpt>
      <trkpt lat="46.42656" lon="4.66703">
        <ele>248.58</ele>
        <time>2022-09-24T13:28:00Z</time>
      </trkpt>
      <trkpt lat="46.4265" lon="4.667">
        <ele>248.38</ele>
        <time>2022-09-24T13:28:05Z</time>
      </trkpt>
      <trkpt lat="46.42644" lon="4.66699">
        <ele>248.08</ele>
        <time>2022-09-24T13:28:10Z</time>
      </trkpt>
      <trkpt lat="46.42636" lon="4.66695">
        <ele>249.68</ele>
        <time>2022-09-24T13:28:16Z</time>
      </trkpt>
      <trkpt lat="46.42629" lon="4.66692">
        <ele>248.98</ele>
        <time>2022-09-24T13:28:22Z</time>
      </trkpt>
      <trkpt lat="46.42623" lon="4.66688">
        <ele>246.48</ele>
        <time>2022-09-24T13:28:27Z</time>
      </trkpt>
      <trkpt lat="46.42615" lon="4.66684">
        <ele>244.08</ele>
        <time>2022-09-24T13:28:32Z</time>
      </trkpt>
      <trkpt lat="46.42608" lon="4.6668">
        <ele>244.38</ele>
        <time>2022-09-24T13:28:39Z</time>
      </trkpt>
      <trkpt lat="46.42603" lon="4.66674">
        <ele>244.68</ele>
        <time>2022-09-24T13:28:44Z</time>
      </trkpt>
      <trkpt lat="46.42597" lon="4.6667">
        <ele>243.38</ele>
        <time>2022-09-24T13:28:49Z</time>
      </trkpt>
      <trkpt lat="46.42589" lon="4.66668">
        <ele>242.98</ele>
        <time>2022-09-24T13:28:54Z</time>
      </trkpt>
      <trkpt lat="46.4258" lon="4.66661">
        <ele>244.18</ele>
        <time>2022-09-24T13:29:00Z</time>
      </trkpt>
      <trkpt lat="46.42574" lon="4.66656">
        <ele>245.18</ele>
        <time>2022-09-24T13:29:05Z</time>
      </trkpt>
      <trkpt lat="46.42567" lon="4.66655">
        <ele>246.18</ele>
        <time>2022-09-24T13:29:11Z</time>
      </trkpt>
      <trkpt lat="46.4256" lon="4.66661">
        <ele>244.68</ele>
        <time>2022-09-24T13:29:17Z</time>
      </trkpt>
      <trkpt lat="46.42553" lon="4.66659">
        <ele>244.78</ele>
        <time>2022-09-24T13:29:22Z</time>
      </trkpt>
      <trkpt lat="46.42547" lon="4.66661">
        <ele>244.28</ele>
        <time>2022-09-24T13:29:28Z</time>
      </trkpt>
      <trkpt lat="46.4254" lon="4.66663">
        <ele>244.88</ele>
        <time>2022-09-24T13:29:36Z</time>
      </trkpt>
      <trkpt lat="46.42532" lon="4.66662">
        <ele>245.98</ele>
        <time>2022-09-24T13:29:42Z</time>
      </trkpt>
      <trkpt lat="46.42525" lon="4.66664">
        <ele>247.68</ele>
        <time>2022-09-24T13:29:48Z</time>
      </trkpt>
    </trkseg>
  </trk>
</gpx>